# Wetter Temperatur Luftdruck Luftfeuchtigkeit Sichtweite Windgeschwindigkeit Windrichtung Zeit
1 Clear 11 1015 25 16093 4.1 10 22:24 24.01.2020
2 Clear 12 1013 33 16093 2.1 350 21:42 24.01.2020
3 Clear 11 1015 27 16093 2.6 360 21:20 24.01.2020
4 Clear 11 1016 29 16093 2.1 10 20:56 24.01.2020
5 Clear 10 1017 29 16093 2.1 40 20:37 24.01.2020
6 Clear 8 1017 29 16093 2.1 40 20:18 24.01.2020
7 Clear 7 1017 33 16093 1.5 10 19:55 24.01.2020
8 Clear 7 1018 35 16093 1.61 198 19:37 24.01.2020
9 Clear 7 1018 35 16093 1.61 198 19:19 24.01.2020
10 Clear 6 1018 41 16093 1.5 10 18:42 24.01.2020
11 Clear 5 1019 47 16093 1.61 198 18:22 24.01.2020
12 Clear 5 1019 47 16093 1.61 198 18:22 24.01.2020
13 Clear 4 1019 55 16093 1.5 360 17:45 24.01.2020
14 Clear 2 1019 31 16093 1.61 198 17:22 24.01.2020
15 Clear 0 1019 73 16093 3.4 214 16:58 24.01.2020
16 Clear -1 1017 63 16093 3.4 214 16:38 24.01.2020
17 Clear -3 1019 85 16093 3.4 214 16:19 24.01.2020
18 Clear -4 1019 85 16093 3.4 214 15:42 24.01.2020
19 Clear -4 1019 85 16093 1.5 210 15:21 24.01.2020
20 Clear -4 1019 85 16093 1.5 230 14:55 24.01.2020
21 Clear -4 1019 85 16093 1.5 230 14:55 24.01.2020
22 Clear -4 1019 85 16093 3.4 214 14:36 24.01.2020
23 Clear -5 1019 85 16093 3.19 212 14:18 24.01.2020
24 Clear -4 1019 85 16093 3.19 212 13:41 24.01.2020
25 Clear -4 1019 85 16093 2.99 210 13:21 24.01.2020
26 Clear -4 1017 58 16093 1.5 290 12:43 24.01.2020
27 Clear -4 1019 85 16093 2.99 210 12:20 24.01.2020
28 Clear -3 1019 79 16093 2.99 210 11:45 24.01.2020
29 Clear -3 1019 79 16093 2.3 216 11:19 24.01.2020
30 Clear -3 1019 73 16093 2.3 216 10:56 24.01.2020
31 Clear -3 1017 58 16093 2.3 216 10:38 24.01.2020
32 Clear -2 1019 68 16093 2.1 200 10:18 24.01.2020
33 Clouds -2 1018 63 16093 3.6 170 09:41 24.01.2020
34 Clouds -2 1019 58 16093 2.3 216 09:23 24.01.2020
35 Clouds -2 1018 52 16093 3.6 150 08:41 24.01.2020
36 Clouds -2 1020 54 16093 1.8 229 08:21 24.01.2020
37 Clouds -2 1020 54 16093 2.1 140 07:58 24.01.2020
38 Clouds -2 1018 57 16093 1.72 209 07:37 24.01.2020
39 Clouds -2 1020 58 16093 1.72 209 06:53 24.01.2020
40 Clouds -2 1021 58 16093 1.72 209 06:33 24.01.2020
41 Clear -2 1021 50 16093 1.72 209 05:59 24.01.2020
42 Clear -1 1021 54 16093 2.38 157 05:18 24.01.2020
43 Clouds 1 1020 37 16093 2.38 157 02:54 24.01.2020
44 Clouds 1 1020 34 16093 2.38 157 02:27 24.01.2020
45 Clouds 2 1020 32 16093 1.68 116 01:49 24.01.2020
46 Clouds 3 1020 32 16093 2.1 140 01:31 24.01.2020
47 Clouds 4 1020 30 16093 2.1 120 00:26 24.01.2020
48 Clouds 4 1020 28 16093 2.6 160 23:51 23.01.2020
49 Clouds 4 1020 30 16093 2.6 140 23:31 23.01.2020
50 Clouds 5 1020 26 16093 3.1 120 22:59 23.01.2020
51 Clouds 4 1020 30 16093 2.6 150 22:38 23.01.2020
52 Clouds 4 1020 30 16093 2.6 150 22:19 23.01.2020
53 Clouds 4 1020 30 16093 2.1 130 21:58 23.01.2020
54 Clouds 4 1018 30 16093 3.1 140 21:39 23.01.2020
55 Clouds 4 1021 27 16093 3.1 140 21:20 23.01.2020
56 Clouds 4 1021 29 16093 2.38 26 20:59 23.01.2020
57 Clouds 4 1019 30 16093 2.1 110 20:39 23.01.2020
58 Clouds 4 1021 29 16093 1.5 50 20:20 23.01.2020
59 Clouds 3 1022 27 16093 3.1 60 19:56 23.01.2020
60 Clouds 3 1020 30 16093 2.6 100 19:38 23.01.2020
61 Clouds 3 1022 29 16093 2.1 120 19:19 23.01.2020
62 Clouds 2 1021 32 16093 4.1 140 18:43 23.01.2020
63 Clouds 1 1023 34 16093 1.5 150 18:21 23.01.2020
64 Clouds 1 1023 34 16093 1.5 150 18:21 23.01.2020
65 Clouds 1 1023 40 16093 3.1 180 17:58 23.01.2020
66 Clouds 0 1021 50 16093 1.53 79 17:40 23.01.2020
67 Clouds 0 1023 40 16093 0.98 202 17:20 23.01.2020
68 Clouds -1 1023 54 16093 2.1 210 16:56 23.01.2020
69 Clouds -2 1022 63 16093 1.5 220 16:36 23.01.2020
70 Clouds -2 1022 63 16093 1.5 220 16:18 23.01.2020
71 Clear -3 1022 73 16093 0.98 202 15:54 23.01.2020
72 Clear -3 1021 62 11265 0.98 202 15:36 23.01.2020
73 Clear -3 1022 62 16093 0.98 202 15:18 23.01.2020
74 Clear -3 1022 62 16093 0.98 202 15:18 23.01.2020
75 Clear -3 1022 67 16093 1.5 220 14:54 23.01.2020
76 Clouds -3 1021 67 16093 0.98 202 14:36 23.01.2020
77 Clouds -3 1021 67 16093 1.26 223 14:18 23.01.2020
78 Clear -3 1019 50 16093 3.1 10 13:39 23.01.2020
79 Clear -3 1019 50 16093 3.1 10 13:39 23.01.2020
80 Clear -3 1021 67 16093 1.32 208 13:20 23.01.2020
81 Clear -3 1021 62 16093 1.32 208 12:47 23.01.2020
82 Clear -3 1021 62 16093 1.33 199 12:25 23.01.2020
83 Clear -2 1021 49 16093 1.33 199 11:59 23.01.2020
84 Clear -2 1021 53 16093 1.32 208 11:39 23.01.2020
85 Clear -2 1021 53 16093 0.88 16 11:19 23.01.2020
86 Clear -2 1021 58 16093 1.62 357 10:45 23.01.2020
87 Clear -2 1021 67 16093 1.62 357 10:23 23.01.2020
88 Clear -2 1020 62 16093 1.5 150 09:59 23.01.2020
89 Clouds -2 1018 39 16093 4.1 300 09:38 23.01.2020
90 Clear -2 1020 68 16093 1.62 357 09:20 23.01.2020
91 Clouds -2 1018 42 16093 4.1 300 08:41 23.01.2020
92 Clear -1 1020 63 16093 1.41 255 08:22 23.01.2020
93 Clear -1 1020 63 16093 3.1 220 07:45 23.01.2020
94 Clear -1 1020 58 16093 1.41 255 07:26 23.01.2020
95 Clouds 0 1019 58 16093 1.41 255 06:54 23.01.2020
96 Clouds 0 1019 50 16093 1.41 255 06:23 23.01.2020
97 Clouds 1 1017 50 32767 2.1 110 05:58 23.01.2020
98 Clouds 1 1017 44 16093 5.7 110 04:24 23.01.2020
99 Clear 5 1015 30 16093 3.1 70 02:35 23.01.2020
100 Clear 7 1013 19 16093 6.2 300 01:41 23.01.2020
101 Clear 8 1013 19 16093 4.1 270 00:28 23.01.2020
102 Clear 9 1013 17 16093 8.2 290 23:48 22.01.2020
103 Clear 9 1012 16 16093 6.7 290 23:30 22.01.2020
104 Clear 10 1013 16 16093 7.2 280 22:59 22.01.2020
105 Clear 10 1010 20 16093 11.8 280 22:41 22.01.2020
106 Clear 10 1012 17 16093 6.7 300 22:23 22.01.2020
107 Clear 10 1012 16 16093 8.7 310 21:41 22.01.2020
108 Clear 10 1012 16 16093 8.7 310 21:22 22.01.2020
109 Clear 10 1012 16 16093 7.7 330 20:58 22.01.2020
110 Clear 10 1010 21 16093 6.7 320 20:39 22.01.2020
111 Clear 10 1012 21 16093 8.2 300 20:21 22.01.2020
112 Clear 9 1013 21 16093 7.2 290 19:57 22.01.2020
113 Clear 9 1013 25 16093 6.2 280 19:39 22.01.2020
114 Clear 9 1013 25 16093 6.2 280 19:19 22.01.2020
115 Clear 8 1013 25 16093 5.1 290 18:56 22.01.2020
116 Clear 7 1013 26 16093 5.1 290 18:38 22.01.2020
117 Clear 7 1013 26 16093 5.1 290 18:19 22.01.2020
118 Clear 6 1014 44 16093 4.5 299 17:54 22.01.2020
119 Clear 6 1013 48 16093 4.5 299 17:36 22.01.2020
120 Clear 4 1013 48 16093 3.73 228 17:18 22.01.2020
121 Clear 4 1013 48 16093 3.73 228 17:18 22.01.2020
122 Clear 3 1013 55 16093 3.73 228 16:43 22.01.2020
123 Clear 3 1013 55 16093 3.73 228 16:22 22.01.2020
124 Clear 2 1012 55 16093 3.73 228 15:58 22.01.2020
125 Clear 2 1012 51 16093 1.5 150 15:39 22.01.2020
126 Clear 1 1012 51 16093 1.5 150 15:21 22.01.2020
127 Clear 1 1012 51 16093 1.5 150 15:21 22.01.2020
128 Clear 1 1012 44 16093 2.6 340 14:54 22.01.2020
129 Clear 1 1011 38 16093 2.1 350 14:36 22.01.2020
130 Clear 1 1011 38 16093 2.1 350 14:36 22.01.2020
131 Clear 1 1011 38 16093 2.1 350 14:18 22.01.2020
132 Clear 1 1010 55 16093 4.1 250 13:38 22.01.2020
133 Clouds 0 1009 59 16093 4.6 220 13:20 22.01.2020
134 Clear 0 1009 55 16093 4.1 230 12:58 22.01.2020
135 Clear 0 1009 55 16093 4.1 230 12:40 22.01.2020
136 Clouds 0 1010 59 16093 3.6 210 12:20 22.01.2020
137 Clear 0 1011 59 16093 2.57 230 11:58 22.01.2020
138 Clear 1 1010 51 16093 5.7 300 11:40 22.01.2020
139 Clear 1 1011 55 16093 2.6 240 11:19 22.01.2020
140 Clear 1 1012 78 16093 1.5 220 10:54 22.01.2020
141 Clouds 1 1009 48 16093 1.5 200 10:36 22.01.2020
142 Clouds 1 1012 55 16093 1.5 220 10:18 22.01.2020
143 Clouds 2 1011 55 16093 2.1 200 09:41 22.01.2020
144 Clouds 1 1011 51 16093 1.46 244 09:23 22.01.2020
145 Clear 2 1011 78 16093 1.5 160 08:57 22.01.2020
146 Clouds 2 1009 51 16093 2.1 250 08:38 22.01.2020
147 Clear 2 1011 59 16093 2.16 229 08:20 22.01.2020
148 Clear 2 1012 78 16093 1.5 200 07:46 22.01.2020
149 Clear 2 1011 78 16093 2.16 229 07:27 22.01.2020
150 Clear 2 1010 51 16093 1.5 240 06:38 22.01.2020
151 Clear 2 1012 78 16093 1.5 240 06:20 22.01.2020
152 Clear 2 1012 78 16093 1.5 240 06:20 22.01.2020
153 Clouds 2 1012 74 16093 0.81 254 05:19 22.01.2020
154 Clouds 3 1012 74 16093 0.81 254 03:29 22.01.2020
155 Clouds 4 1012 47 16093 0.81 254 02:49 22.01.2020
156 Clouds 6 1012 33 16093 0.53 4 01:35 22.01.2020
157 Clouds 7 1012 28 16093 2.1 20 00:42 22.01.2020
158 Clouds 8 1012 28 16093 2.1 20 00:23 22.01.2020
159 Clouds 8 1010 27 16093 1.5 360 23:38 21.01.2020
160 Clouds 8 1010 27 16093 1.5 360 23:38 21.01.2020
161 Clouds 9 1012 26 16093 2.05 341 23:20 21.01.2020
162 Clear 9 1012 24 16093 2.05 341 22:42 21.01.2020
163 Clear 9 1012 24 16093 2.05 341 22:24 21.01.2020
164 Clear 9 1013 24 16093 2.05 341 21:59 21.01.2020
165 Clear 9 1013 24 16093 2.05 341 21:59 21.01.2020
166 Clear 9 1013 24 16093 2.05 341 21:40 21.01.2020
167 Clear 9 1013 28 16093 2.05 341 21:21 21.01.2020
168 Clear 9 1014 28 16093 2.05 341 20:59 21.01.2020
169 Clouds 9 1012 33 16093 2.05 341 20:39 21.01.2020
170 Clear 8 1015 28 16093 0.97 246 20:20 21.01.2020
171 Clear 8 1016 30 16093 1.5 360 19:58 21.01.2020
172 Clouds 8 1014 35 16093 0.97 246 19:39 21.01.2020
173 Clear 7 1016 33 16093 1.5 360 19:21 21.01.2020
174 Clear 7 1017 35 16093 1.5 360 18:57 21.01.2020
175 Clear 7 1017 35 16093 2.1 360 18:39 21.01.2020
176 Clear 6 1017 35 16093 2.1 360 18:20 21.01.2020
177 Clear 5 1017 38 16093 0.97 246 17:56 21.01.2020
178 Clear 4 1017 51 16093 0.97 246 17:38 21.01.2020
179 Clouds 2 1016 44 16093 2.3 179 17:18 21.01.2020
180 Clouds 2 1018 43 16093 2.3 179 16:38 21.01.2020
181 Clouds 1 1018 43 16093 2.3 179 16:19 21.01.2020
182 Clouds 1 1018 43 16093 2.3 179 16:19 21.01.2020
183 Clouds 1 1018 43 16093 2.3 179 15:59 21.01.2020
184 Clouds 1 1016 43 16093 2.3 179 15:38 21.01.2020
185 Clouds 1 1018 43 16093 2.1 170 15:19 21.01.2020
186 Clouds 0 1017 43 16093 1.5 190 14:39 21.01.2020
187 Clouds 0 1019 58 16093 1.35 238 14:21 21.01.2020
188 Clouds 0 1019 54 16093 1.35 238 13:43 21.01.2020
189 Clouds 0 1020 58 16093 1.35 238 13:20 21.01.2020
190 Clouds 0 1020 63 16093 1.65 225 12:58 21.01.2020
191 Clouds 0 1018 44 16093 1.5 310 12:39 21.01.2020
192 Clouds 0 1020 63 16093 1.65 225 12:21 21.01.2020
193 Clear 1 1020 58 16093 1.65 225 11:55 21.01.2020
194 Clouds 0 1018 40 16093 1.65 225 11:36 21.01.2020
195 Clouds 0 1020 63 16093 3.02 208 11:18 21.01.2020
196 Clouds 0 1019 47 16093 3.02 208 10:42 21.01.2020
197 Clouds 0 1021 63 16093 3.02 208 10:22 21.01.2020
198 Clouds 1 1019 29 16093 3.02 208 09:43 21.01.2020
199 Clouds 1 1021 58 16093 3.02 208 09:43 21.01.2020
200 Clouds 1 1021 54 16093 3.02 208 09:23 21.01.2020
201 Clear 1 1022 63 16093 3.02 208 08:56 21.01.2020
202 Clear 1 1020 43 16093 2.6 290 08:38 21.01.2020
203 Clear 0 1022 63 16093 2.19 215 08:19 21.01.2020
204 Clear 0 1023 58 16093 2.19 215 07:41 21.01.2020
205 Clouds 0 1021 37 16093 6.2 200 07:22 21.01.2020
206 Clear 0 1022 34 16093 2.1 290 06:55 21.01.2020
207 Clear 0 1022 34 16093 2.1 290 06:37 21.01.2020
208 Clear 0 1023 31 16093 2.19 215 05:44 21.01.2020
209 Clear 1 1025 54 16093 1.8 216 04:41 21.01.2020
210 Clear 2 1027 39 16093 1.5 220 02:58 21.01.2020
211 Clear 3 1027 29 16093 1.5 240 02:19 21.01.2020
212 Clear 5 1027 25 16093 1.11 299 01:26 21.01.2020
213 Clear 8 1027 20 16093 2.1 20 00:38 21.01.2020
214 Clear 9 1026 18 16093 0.48 315 23:59 20.01.2020
215 Clear 10 1026 18 16093 0.48 315 23:41 20.01.2020
216 Clouds 10 1025 15 16093 3.6 110 23:19 20.01.2020
217 Clear 10 1026 15 16093 2.09 27 22:58 20.01.2020
218 Clouds 10 1025 14 16093 3.6 110 22:38 20.01.2020
219 Clear 10 1026 15 16093 2.09 27 22:38 20.01.2020
220 Clouds 10 1025 14 16093 3.6 110 22:20 20.01.2020
221 Clear 10 1026 15 16093 2.6 100 21:57 20.01.2020
222 Clouds 10 1026 14 16093 3.1 80 21:37 20.01.2020
223 Clouds 10 1026 14 16093 3.1 80 21:19 20.01.2020
224 Clear 9 1027 13 16093 2.09 27 20:56 20.01.2020
225 Clear 9 1027 13 16093 2.09 27 20:56 20.01.2020
226 Clouds 9 1027 18 16093 4.6 120 20:38 20.01.2020
227 Clouds 8 1027 16 16093 2.1 80 20:18 20.01.2020
228 Clear 7 1029 18 16093 1.57 201 19:56 20.01.2020
229 Clear 7 1029 18 16093 1.57 201 19:56 20.01.2020
230 Clear 7 1029 18 16093 1.57 201 19:37 20.01.2020
231 Clouds 6 1028 17 16093 2.1 240 19:18 20.01.2020
232 Clear 5 1030 27 16093 1.57 201 18:43 20.01.2020
233 Clouds 4 1029 25 16093 3.1 230 18:22 20.01.2020
234 Clear 2 1030 37 16093 1.57 201 17:41 20.01.2020
235 Clouds 0 1029 31 16093 2.6 210 17:20 20.01.2020
236 Clouds 0 1029 31 16093 2.6 210 17:20 20.01.2020
237 Clear -1 1029 68 11265 3.76 207 16:59 20.01.2020
238 Clear -3 1029 68 11265 3.76 207 16:37 20.01.2020
239 Clouds -4 1028 42 16093 4.1 190 16:18 20.01.2020
240 Clouds -4 1028 42 16093 4.1 190 16:18 20.01.2020
241 Clear -5 1030 66 11265 3.76 207 15:54 20.01.2020
242 Clouds -6 1028 42 16093 4.1 210 15:36 20.01.2020
243 Clouds -6 1028 42 16093 4.1 210 15:18 20.01.2020
244 Clear -6 1029 72 16093 3.76 207 14:41 20.01.2020
245 Clear -6 1029 72 16093 3.76 207 14:41 20.01.2020
246 Clear -6 1028 53 16093 4.1 200 14:22 20.01.2020
247 Clear -6 1029 72 16093 1.5 290 13:58 20.01.2020
248 Clear -6 1029 72 16093 1.5 290 13:40 20.01.2020
249 Clear -6 1028 57 16093 4.1 190 13:21 20.01.2020
250 Clear -6 1029 72 16093 3.14 213 12:46 20.01.2020
251 Clear -6 1028 53 16093 3.6 200 12:27 20.01.2020
252 Clear -5 1029 72 16093 3.14 213 11:57 20.01.2020
253 Clear -6 1028 53 16093 1.5 190 11:38 20.01.2020
254 Clear -6 1028 53 16093 1.5 190 11:19 20.01.2020
255 Clear -5 1029 72 16093 2.6 230 10:47 20.01.2020
256 Clear -5 1028 53 16093 3.6 180 10:21 20.01.2020
257 Clear -5 1028 53 16093 3.6 180 10:21 20.01.2020
258 Clear -5 1030 72 16093 2.86 215 09:42 20.01.2020
259 Clear -5 1029 53 16093 5.7 190 09:24 20.01.2020
260 Clear -5 1030 67 16093 1.5 220 08:59 20.01.2020
261 Clear -4 1030 67 16093 1.5 220 08:39 20.01.2020
262 Clear -5 1029 58 16093 5.1 190 08:20 20.01.2020
263 Clear -4 1030 67 16093 2.59 214 07:42 20.01.2020
264 Clear -4 1030 67 16093 2.59 214 07:42 20.01.2020
265 Clear -4 1030 53 16093 5.1 180 07:22 20.01.2020
266 Clear -3 1031 62 16093 2.59 214 06:44 20.01.2020
267 Clear -3 1030 53 16093 4.1 180 06:24 20.01.2020
268 Clear -2 1031 50 16093 4.6 190 05:41 20.01.2020
269 Clear -2 1031 50 16093 4.6 190 05:20 20.01.2020
270 Clear -2 1031 50 16093 4.1 150 04:33 20.01.2020
271 Clear 0 1030 40 16093 3.6 100 02:33 20.01.2020
272 Clear 2 1031 32 16093 2.1 290 01:40 20.01.2020
273 Clear 3 1029 34 16093 3.1 70 01:20 20.01.2020
274 Clear 6 1030 24 16093 1.75 22 00:43 20.01.2020
275 Clouds 6 1029 26 16093 1.75 22 00:21 20.01.2020
276 Clouds 7 1028 26 16093 2.1 80 23:38 19.01.2020
277 Clouds 7 1028 26 16093 2.1 80 23:19 19.01.2020
278 Clear 7 1029 21 16093 1.29 48 22:56 19.01.2020
279 Clouds 7 1028 26 16093 1.5 90 22:37 19.01.2020
280 Clouds 7 1028 26 16093 1.5 90 22:19 19.01.2020
281 Clear 7 1030 23 16093 3.1 80 21:56 19.01.2020
282 Clear 7 1030 23 16093 3.1 80 21:38 19.01.2020
283 Clouds 7 1029 26 16093 1.29 48 21:19 19.01.2020
284 Clear 6 1030 23 16093 2.1 110 20:57 19.01.2020
285 Clouds 6 1030 28 16093 1.29 48 20:38 19.01.2020
286 Clouds 5 1030 28 16093 1.17 143 20:20 19.01.2020
287 Clear 4 1031 28 16093 1.5 130 19:56 19.01.2020
288 Clouds 4 1031 34 16093 1.17 143 19:37 19.01.2020
289 Clouds 3 1031 34 16093 1.17 143 19:19 19.01.2020
290 Clouds 4 1031 34 16093 1.17 143 19:19 19.01.2020
291 Clouds 3 1031 34 16093 1.17 143 19:19 19.01.2020
292 Clear 3 1032 32 16093 1.5 70 18:55 19.01.2020
293 Clouds 2 1031 29 16093 2.1 200 18:37 19.01.2020
294 Clouds 2 1031 29 16093 2.1 200 18:19 19.01.2020
295 Clear 1 1031 50 16093 1.17 143 17:57 19.01.2020
296 Clouds 0 1030 50 16093 1.5 210 17:39 19.01.2020
297 Clouds -2 1030 50 16093 1.5 210 17:20 19.01.2020
298 Clear -3 1031 68 11265 1.57 216 16:57 19.01.2020
299 Clouds -5 1030 67 16093 1.5 210 16:38 19.01.2020
300 Clouds -6 1030 67 16093 1.5 210 16:19 19.01.2020
301 Clear -7 1031 72 11265 1.57 216 15:57 19.01.2020
302 Clear -8 1031 72 11265 1.57 216 15:37 19.01.2020
303 Clouds -8 1028 67 16093 1.57 216 15:19 19.01.2020
304 Clear -8 1030 78 16093 1.57 216 14:56 19.01.2020
305 Clear -8 1030 78 16093 1.57 216 14:56 19.01.2020
306 Clear -8 1028 57 16093 1.57 216 14:37 19.01.2020
307 Clear -8 1028 57 16093 1.71 223 14:18 19.01.2020
308 Clear -8 1028 57 16093 1.71 223 14:18 19.01.2020
309 Clear -7 1029 72 16093 1.71 223 13:54 19.01.2020
310 Clear -7 1028 61 16093 1.71 223 13:36 19.01.2020
311 Clear -7 1028 61 16093 2 219 13:18 19.01.2020
312 Clear -7 1029 72 16093 2 219 12:42 19.01.2020
313 Clear -7 1027 62 16093 3.1 180 12:23 19.01.2020
314 Clear -7 1029 72 16093 1.5 320 11:57 19.01.2020
315 Clear -7 1029 72 16093 1.5 320 11:39 19.01.2020
316 Clear -7 1027 62 16093 3.6 190 11:18 19.01.2020
317 Clear -7 1029 67 16093 1.5 280 10:41 19.01.2020
318 Clear -7 1027 62 16093 3.1 190 10:21 19.01.2020
319 Clear -7 1028 67 16093 1.5 250 09:58 19.01.2020
320 Clear -7 1028 67 16093 1.5 250 09:39 19.01.2020
321 Clear -7 1027 62 16093 2.6 190 09:21 19.01.2020
322 Clear -6 1028 62 16093 2.1 260 08:56 19.01.2020
323 Clear -6 1027 62 16093 3.1 180 08:38 19.01.2020
324 Clear -6 1027 62 16093 3.1 180 08:19 19.01.2020
325 Clear -6 1030 72 16093 0.74 230 07:30 19.01.2020
326 Clear -6 1029 72 16093 0.74 230 06:56 19.01.2020
327 Clear -5 1029 72 16093 0.74 230 06:23 19.01.2020
328 Clear -4 1029 57 16093 0.81 263 04:19 19.01.2020
329 Clear -2 1028 42 16093 0.81 263 02:35 19.01.2020
330 Clear -1 1028 25 16093 1.5 20 01:45 19.01.2020
331 Clear 1 1027 27 16093 2.6 20 01:22 19.01.2020
332 Clear 2 1027 27 16093 3.1 10 00:45 19.01.2020
333 Clouds 3 1024 18 16093 3.6 20 00:25 19.01.2020
334 Clouds 4 1024 21 16093 1.5 360 23:55 18.01.2020
335 Clear 4 1026 20 16093 4.1 10 23:36 18.01.2020
336 Clear 4 1026 20 16093 4.1 10 23:36 18.01.2020
337 Clear 5 1026 20 16093 4.1 10 23:18 18.01.2020
338 Clear 5 1025 18 16093 2.6 360 22:42 18.01.2020
339 Clear 5 1025 18 16093 1.5 20 22:24 18.01.2020
340 Clear 5 1025 18 16093 1.5 20 22:24 18.01.2020
341 Clear 5 1025 20 16093 1.5 10 21:58 18.01.2020
342 Clear 5 1024 25 16093 1.5 30 21:39 18.01.2020
343 Clear 5 1025 20 16093 3.6 360 21:21 18.01.2020
344 Clear 5 1025 17 16093 2.99 9 20:59 18.01.2020
345 Clear 5 1025 17 16093 2.99 9 20:41 18.01.2020
346 Clear 4 1026 17 16093 1.42 240 20:19 18.01.2020
347 Clear 3 1024 25 16093 1.46 223 19:43 18.01.2020
348 Clear 3 1026 23 16093 2.1 150 19:24 18.01.2020
349 Clear 1 1027 29 16093 1.5 150 18:54 18.01.2020
350 Clear 1 1026 29 16093 3.1 160 18:36 18.01.2020
351 Clear 0 1026 29 16093 3.1 160 18:18 18.01.2020
352 Clear -2 1026 18 16093 3.6 150 17:41 18.01.2020
353 Clear -3 1026 30 16093 3.6 150 17:21 18.01.2020
354 Clear -4 1025 36 16093 4.6 170 16:57 18.01.2020
355 Clear -5 1024 45 16093 3.27 204 16:38 18.01.2020
356 Clear -5 1024 45 16093 3.27 204 16:38 18.01.2020
357 Clouds -6 1023 53 16093 6.7 140 16:19 18.01.2020
358 Clear -7 1025 38 16093 5.1 150 15:44 18.01.2020
359 Clear -7 1025 38 16093 6.2 160 15:26 18.01.2020
360 Clear -7 1025 38 16093 6.2 150 14:59 18.01.2020
361 Clear -7 1023 41 16093 1.5 310 14:40 18.01.2020
362 Clear -7 1025 38 16093 5.7 140 14:19 18.01.2020
363 Clear -7 1024 49 16093 4.6 130 13:56 18.01.2020
364 Clear -7 1024 49 16093 4.6 130 13:56 18.01.2020
365 Clear -7 1023 72 16093 3.1 160 13:36 18.01.2020
366 Clear -7 1024 45 16093 4.6 120 13:18 18.01.2020
367 Clear -6 1021 30 16093 3.6 140 12:41 18.01.2020
368 Clear -6 1023 52 16093 3.53 206 12:21 18.01.2020
369 Clear -6 1021 23 16093 3.1 220 11:45 18.01.2020
370 Clear -6 1023 25 16093 1.19 210 11:24 18.01.2020
371 Clear -5 1023 23 16093 2.6 300 10:58 18.01.2020
372 Clear -5 1021 38 16093 5.7 290 10:39 18.01.2020
373 Clear -5 1023 35 16093 2.6 230 10:20 18.01.2020
374 Clear -5 1022 35 16093 1.19 210 09:49 18.01.2020
375 Clear -4 1022 30 16093 1.19 210 09:31 18.01.2020
376 Clear -4 1022 38 16093 6.7 310 08:57 18.01.2020
377 Clear -3 1020 28 16093 2.6 310 08:39 18.01.2020
378 Clear -2 1023 37 16093 5.1 320 08:19 18.01.2020
379 Clear -2 1021 28 16093 3.6 310 07:52 18.01.2020
380 Clear -2 1022 37 16093 4.6 280 07:32 18.01.2020
381 Clear -2 1021 37 16093 4.1 300 06:48 18.01.2020
382 Clear -1 1017 37 16093 9.8 270 05:59 18.01.2020
383 Clear 0 1018 17 16093 5.7 270 05:24 18.01.2020
384 Clear 2 1014 29 16093 12.3 280 02:56 18.01.2020
385 Clear 3 1012 27 16093 8.7 290 01:56 18.01.2020
386 Clear 3 1011 32 16093 7.2 300 01:35 18.01.2020
387 Clear 4 1007 38 16093 8.2 250 00:37 18.01.2020
388 Clear 4 1007 38 16093 8.2 250 00:37 18.01.2020
389 Clear 5 1009 31 16093 6.2 260 00:18 18.01.2020
390 Clear 5 1009 31 16093 6.2 260 00:18 18.01.2020
391 Clear 5 1009 31 16093 6.2 260 00:18 18.01.2020
392 Clear 6 1006 52 16093 3.6 330 23:41 17.01.2020
393 Clear 7 1007 31 16093 13.4 280 23:20 17.01.2020
394 Clear 9 1006 20 16093 4.1 20 22:46 17.01.2020
395 Clear 9 1006 21 16093 6.7 330 22:22 17.01.2020
396 Clear 9 1006 21 16093 6.7 330 22:22 17.01.2020
397 Clear 9 1006 23 16093 6.2 320 21:59 17.01.2020
398 Clear 10 1005 16 16093 6.7 330 21:41 17.01.2020
399 Clear 10 1005 16 16093 6.7 330 21:22 17.01.2020
400 Clear 10 1006 23 16093 6.2 250 20:58 17.01.2020
401 Clear 10 1002 24 16093 13.4 250 20:38 17.01.2020
402 Clouds 9 1006 31 16093 8.2 280 20:20 17.01.2020
403 Clouds 8 1005 29 16093 11.8 310 19:55 17.01.2020
404 Clouds 8 1005 29 16093 11.8 310 19:55 17.01.2020
405 Clouds 8 1008 33 11265 5.1 300 19:37 17.01.2020
406 Clouds 8 1008 33 11265 5.1 300 19:37 17.01.2020
407 Clouds 8 1008 33 11265 5.1 300 19:18 17.01.2020
408 Clear 8 1006 35 16093 1.5 360 18:47 17.01.2020
409 Clear 7 1007 40 16093 11.15 240 18:29 17.01.2020
410 Clear 4 1007 22 16093 11.15 240 17:58 17.01.2020
411 Clear 4 1005 50 16093 11.15 240 17:39 17.01.2020
412 Clear 0 1007 54 16093 3.83 204 17:20 17.01.2020
413 Clear -1 1008 73 16093 3.83 204 16:43 17.01.2020
414 Clear -4 1008 79 16093 3.83 204 16:21 17.01.2020
415 Clear -4 1008 78 16093 1.5 60 15:55 17.01.2020
416 Clear -4 1008 78 16093 3.83 204 15:37 17.01.2020
417 Clear -4 1008 78 16093 3.83 204 15:19 17.01.2020
418 Clear -4 1008 85 16093 3.83 204 14:43 17.01.2020
419 Clear -5 1009 73 16093 3.83 204 14:23 17.01.2020
420 Clear -5 1009 73 16093 2.1 190 13:42 17.01.2020
421 Clear -5 1010 73 16093 2.6 230 13:23 17.01.2020
422 Clear -5 1008 62 16093 1.5 270 12:47 17.01.2020
423 Clear -5 1011 79 16093 2.17 228 12:23 17.01.2020
424 Clear -4 1008 54 16093 2.17 228 11:43 17.01.2020
425 Clear -4 1011 79 16093 1.5 230 11:20 17.01.2020
426 Clear -4 1009 54 16093 2.1 340 10:56 17.01.2020
427 Clear -3 1009 54 16093 2.1 340 10:38 17.01.2020
428 Clear -3 1012 73 16093 2.27 224 10:20 17.01.2020
429 Clear -3 1010 50 16093 2.6 340 09:44 17.01.2020
430 Clear -3 1013 68 16093 2.27 224 09:21 17.01.2020
431 Clouds -2 1012 64 16093 2.6 340 08:58 17.01.2020
432 Clouds -2 1012 64 16093 2.6 340 08:40 17.01.2020
433 Clouds -2 1014 68 16093 2.5 213 08:21 17.01.2020
434 Clouds -1 1015 58 16093 2.5 213 07:46 17.01.2020
435 Clouds -1 1016 68 16093 2.5 213 07:28 17.01.2020
436 Clouds -1 1016 63 16093 2.5 213 06:55 17.01.2020
437 Clouds -1 1015 54 16093 2.1 10 06:35 17.01.2020
438 Clear -1 1017 54 16093 1.75 227 04:32 17.01.2020
439 Clear -1 1017 46 16093 1.75 227 03:19 17.01.2020
440 Clouds -1 1018 54 16093 1.5 260 02:32 17.01.2020
441 Clouds 0 1018 43 16093 2.1 70 01:44 17.01.2020
442 Clouds 0 1018 43 16093 2.1 70 01:22 17.01.2020
443 Clouds 1 1018 37 16093 2.6 10 00:37 17.01.2020
444 Clear 2 1021 37 16093 1.59 193 00:00 17.01.2020
445 Clear 2 1021 37 16093 1.59 193 23:41 16.01.2020
446 Clear 2 1021 37 16093 1.59 193 23:22 16.01.2020
447 Clear 2 1021 37 16093 1.5 20 22:41 16.01.2020
448 Clear 2 1021 34 16093 1.23 134 22:21 16.01.2020
449 Clear 2 1021 34 16093 1.5 20 21:57 16.01.2020
450 Clear 2 1021 34 16093 1.5 20 21:57 16.01.2020
451 Clouds 2 1019 37 16093 2.6 340 21:38 16.01.2020
452 Clouds 2 1019 37 16093 2.6 340 21:19 16.01.2020
453 Clear 2 1022 31 16093 1.5 10 20:57 16.01.2020
454 Clear 2 1020 31 16093 1.23 134 20:38 16.01.2020
455 Clear 1 1023 26 16093 3.79 177 20:18 16.01.2020
456 Clear 1 1024 42 16093 2.6 30 19:55 16.01.2020
457 Clear 0 1025 42 16093 3.1 360 19:37 16.01.2020
458 Clear 0 1025 42 16093 3.1 360 19:18 16.01.2020
459 Clear 0 1026 50 16093 3.1 20 18:55 16.01.2020
460 Clear 1 1025 26 16093 3.79 177 18:36 16.01.2020
461 Clear 1 1026 53 16093 2.1 20 18:36 16.01.2020
462 Clear 0 1026 53 16093 2.1 20 18:18 16.01.2020
463 Clear -1 1026 62 16093 2.1 10 17:41 16.01.2020
464 Clear -1 1026 67 16093 3.79 177 17:41 16.01.2020
465 Clear -3 1026 67 16093 3.79 177 17:22 16.01.2020
466 Clear -4 1024 57 16093 4.21 201 16:57 16.01.2020
467 Clear -5 1024 57 16093 4.21 201 16:38 16.01.2020
468 Clear -6 1026 85 16093 4.21 201 16:19 16.01.2020
469 Clear -6 1026 85 11265 4.21 201 15:44 16.01.2020
470 Clear -6 1026 85 16093 4.21 201 15:22 16.01.2020
471 Clear -6 1027 78 16093 4.21 201 14:56 16.01.2020
472 Clear -6 1027 78 16093 4.21 201 14:37 16.01.2020
473 Clear -6 1027 78 16093 3.67 190 14:19 16.01.2020
474 Clear -6 1025 62 16093 3.67 190 13:44 16.01.2020
475 Clear -6 1027 85 16093 3.84 191 13:25 16.01.2020
476 Clear -5 1025 42 16093 7.2 190 12:46 16.01.2020
477 Clear -5 1027 72 16093 3.84 191 12:28 16.01.2020
478 Clear -5 1027 85 16093 3.84 191 11:57 16.01.2020
479 Clear -5 1027 72 16093 3.84 191 11:39 16.01.2020
480 Clear -5 1027 72 16093 2.64 168 11:21 16.01.2020
481 Clear -4 1025 49 16093 4.1 320 10:39 16.01.2020
482 Clear -4 1027 78 16093 2.64 168 10:21 16.01.2020
483 Clear -4 1025 46 16093 2.1 10 09:58 16.01.2020
484 Clear -4 1025 46 16093 2.1 10 09:40 16.01.2020
485 Clear -4 1028 67 16093 2.64 168 09:21 16.01.2020
486 Clear -4 1028 67 16093 2.64 168 08:52 16.01.2020
487 Clear -4 1027 53 16093 5.7 190 08:34 16.01.2020
488 Clear -4 1027 50 16093 2.1 190 07:59 16.01.2020
489 Clear -4 1027 50 16093 2.1 190 07:39 16.01.2020
490 Clear -4 1029 49 16093 1.5 220 07:20 16.01.2020
491 Clear -4 1030 57 16093 2.6 230 06:43 16.01.2020
492 Clear -3 1029 49 16093 2.1 240 06:21 16.01.2020
493 Clear -3 1027 55 16093 6.2 330 05:45 16.01.2020
494 Clear -3 1028 45 16093 2.6 310 04:40 16.01.2020
495 Clear -3 1028 45 16093 2.6 310 04:40 16.01.2020
496 Clear -1 1028 42 16093 4.1 340 03:28 16.01.2020
497 Clear 0 1028 53 16093 5.7 340 02:43 16.01.2020
498 Clear 1 1026 31 16093 7.2 340 01:24 16.01.2020
499 Clear 4 1024 23 16093 4.6 360 00:24 16.01.2020
500 Clear 5 1023 20 16093 7.2 10 23:51 15.01.2020
501 Clear 6 1023 20 16093 6.2 30 23:23 15.01.2020
502 Clear 6 1022 20 16093 6.2 40 22:59 15.01.2020
503 Clear 6 1022 20 16093 4.1 60 22:41 15.01.2020
504 Clear 7 1022 20 16093 4.1 60 22:20 15.01.2020
505 Clear 7 1022 20 16093 4.1 60 22:20 15.01.2020
506 Clear 6 1021 22 16093 4.1 90 21:58 15.01.2020
507 Clear 7 1022 22 16093 3.6 60 21:40 15.01.2020
508 Clear 6 1022 22 16093 3.6 60 21:21 15.01.2020
509 Clear 6 1021 22 16093 3.6 60 20:58 15.01.2020
510 Clear 6 1021 24 16093 3.1 40 20:40 15.01.2020
511 Clear 5 1021 24 16093 3.1 40 20:21 15.01.2020
512 Clear 5 1021 26 16093 2.6 100 19:56 15.01.2020
513 Clear 5 1021 26 16093 2.6 100 19:55 15.01.2020
514 Clear 5 1021 26 16093 2.6 100 19:55 15.01.2020
515 Clear 5 1021 30 16093 3.6 30 19:37 15.01.2020
516 Clear 4 1021 27 16093 3.6 120 19:19 15.01.2020
517 Clear 4 1021 32 16093 3.6 140 18:57 15.01.2020
518 Clear 3 1021 37 16093 5.1 140 18:38 15.01.2020
519 Clear 2 1021 37 16093 5.1 140 18:20 15.01.2020
520 Clear 2 1021 37 16093 5.1 140 18:20 15.01.2020
521 Clear 2 1021 37 16093 5.1 140 18:20 15.01.2020
522 Clear 1 1021 43 16093 4.6 170 17:58 15.01.2020
523 Clear 1 1018 47 16093 3.1 130 17:40 15.01.2020
524 Clear -1 1021 47 16093 4.1 160 17:21 15.01.2020
525 Clear -3 1020 63 16093 2.6 200 16:42 15.01.2020
526 Clear -4 1020 73 16093 2.1 190 16:24 15.01.2020
527 Clouds -5 1018 79 16093 2.6 210 15:59 15.01.2020
528 Clouds -6 1018 79 16093 2.6 210 15:41 15.01.2020
529 Clear -6 1020 73 16093 1.5 230 15:20 15.01.2020
530 Clear -6 1019 79 16093 2.1 220 14:44 15.01.2020
531 Clear -6 1019 79 16093 0.83 241 14:21 15.01.2020
532 Clear -6 1018 73 16093 1.5 170 13:56 15.01.2020
533 Clear -5 1018 73 16093 2.1 170 13:38 15.01.2020
534 Clear -5 1018 73 16093 2.1 170 13:20 15.01.2020
535 Clear -5 1018 85 16093 1.5 200 12:54 15.01.2020
536 Clear -5 1016 85 16093 4.1 190 12:36 15.01.2020
537 Clear -5 1018 79 16093 1.78 216 12:18 15.01.2020
538 Clear -4 1016 79 16093 4.1 180 11:38 15.01.2020
539 Clear -4 1017 73 16093 1.5 190 11:20 15.01.2020
540 Clear -4 1017 73 16093 3.1 200 10:47 15.01.2020
541 Clear -4 1017 68 16093 2.6 200 10:28 15.01.2020
542 Clear -3 1014 74 16093 2.6 140 09:57 15.01.2020
543 Clear -3 1014 74 16093 2.6 140 09:57 15.01.2020
544 Clear -3 1014 79 16093 4.1 130 09:38 15.01.2020
545 Clear -2 1015 68 16093 2.6 210 09:19 15.01.2020
546 Clear -2 1013 63 16093 4.1 90 08:44 15.01.2020
547 Clear -1 1014 68 16093 4.1 100 08:24 15.01.2020
548 Clouds 0 1014 45 16093 5.1 90 07:54 15.01.2020
549 Clouds 0 1013 47 16093 4.07 203 07:33 15.01.2020
550 Clouds 2 1013 46 16093 1.5 20 06:49 15.01.2020
551 Clouds 2 1012 46 16093 4.07 203 06:26 15.01.2020
552 Clouds 2 1011 25 16093 2.1 230 04:56 15.01.2020
553 Clouds 3 1010 47 16093 3.2 220 02:48 15.01.2020
554 Clear 6 1009 32 16093 2.1 110 01:47 15.01.2020
555 Clear 7 1009 24 16093 4.81 213 01:20 15.01.2020
556 Clear 9 1008 16 16093 2.1 110 00:37 15.01.2020
557 Clear 9 1008 16 16093 2.1 110 00:19 15.01.2020
558 Clear 10 1008 16 16093 1.5 40 23:46 14.01.2020
559 Clear 11 1008 18 16093 2.6 40 23:24 14.01.2020
560 Clear 12 1007 19 16093 3.1 20 22:54 14.01.2020
561 Clear 11 1007 18 16093 2.1 30 22:36 14.01.2020
562 Clear 11 1007 18 16093 2.1 30 22:18 14.01.2020
563 Clear 11 1007 18 16093 2.1 30 22:18 14.01.2020
564 Clouds 11 1006 16 32767 6.2 20 21:55 14.01.2020
565 Clear 11 1008 19 16093 4.1 20 21:36 14.01.2020
566 Clear 11 1008 19 16093 4.1 20 21:18 14.01.2020
567 Clear 11 1008 19 16093 4.1 20 21:18 14.01.2020
568 Clear 10 1009 22 16093 1.5 20 20:41 14.01.2020
569 Clear 9 1008 12 16093 8.7 240 20:22 14.01.2020
570 Clear 9 1011 26 16093 4.92 203 19:56 14.01.2020
571 Clear 9 1011 26 16093 4.92 203 19:56 14.01.2020
572 Clear 8 1008 24 16093 1.5 60 19:38 14.01.2020
573 Clear 8 1011 30 16093 2.1 20 19:19 14.01.2020
574 Clear 6 1012 37 16093 4.92 203 18:56 14.01.2020
575 Clear 6 1010 30 16093 4.92 203 18:37 14.01.2020
576 Clear 6 1010 30 16093 4.92 203 18:37 14.01.2020
577 Clear 5 1011 22 16093 6.2 160 18:19 14.01.2020
578 Clear 5 1011 22 16093 6.2 160 18:19 14.01.2020
579 Clear 4 1010 22 16093 1.5 360 17:39 14.01.2020
580 Clear 0 1013 50 16093 2.1 10 17:19 14.01.2020
581 Clear 0 1013 62 16093 4.5 208 16:56 14.01.2020
582 Clear -2 1012 63 11265 4.5 208 16:38 14.01.2020
583 Clear -3 1013 67 16093 4.5 208 16:19 14.01.2020
584 Clear -3 1013 67 16093 4.5 208 15:43 14.01.2020
585 Clear -4 1013 72 16093 1.5 160 15:19 14.01.2020
586 Clear -4 1014 72 16093 4.5 208 14:59 14.01.2020
587 Clear -4 1014 78 16093 1.5 250 14:41 14.01.2020
588 Clear -4 1014 78 16093 1.5 250 14:19 14.01.2020
589 Clear -4 1012 49 16093 3.6 200 13:42 14.01.2020
590 Clear -4 1014 72 16093 4.26 210 13:20 14.01.2020
591 Clear -4 1012 33 16093 3.1 290 12:56 14.01.2020
592 Clear -4 1012 33 16093 3.1 290 12:56 14.01.2020
593 Clear -4 1012 33 16093 3.1 290 12:38 14.01.2020
594 Clear -4 1014 67 16093 4.26 210 12:20 14.01.2020
595 Clear -4 1013 39 16093 4.26 210 11:41 14.01.2020
596 Clear -4 1015 57 16093 1.5 170 11:22 14.01.2020
597 Clear -3 1015 57 16093 2.6 180 10:56 14.01.2020
598 Clear -3 1013 36 16093 3.1 250 10:38 14.01.2020
599 Clear -3 1015 57 16093 4.23 211 10:19 14.01.2020
600 Clear -3 1015 62 16093 1.5 200 09:55 14.01.2020
601 Clear -3 1013 40 16093 4.23 211 09:37 14.01.2020
602 Clear -3 1015 62 16093 1.5 250 09:19 14.01.2020
603 Clear -3 1015 57 16093 1.5 190 08:41 14.01.2020
604 Clear -3 1015 53 16093 2.1 160 08:41 14.01.2020
605 Clear -3 1015 57 16093 1.5 190 08:22 14.01.2020
606 Clear -3 1015 49 16093 2.69 214 07:51 14.01.2020
607 Clear -3 1015 49 16093 2.69 214 07:25 14.01.2020
608 Clear -3 1013 45 16093 2.69 214 06:44 14.01.2020
609 Clear -2 1012 45 16093 2.6 50 05:59 14.01.2020
610 Clear -1 1014 44 16093 3.6 180 04:51 14.01.2020
611 Clear -1 1014 25 16093 3.1 100 03:47 14.01.2020
612 Clouds 0 1012 23 32767 5.7 150 02:39 14.01.2020
613 Clear 2 1013 19 16093 3.6 280 01:21 14.01.2020
614 Clear 3 1013 21 16093 3.1 260 00:48 14.01.2020
615 Clear 4 1013 23 16093 3.6 250 00:22 14.01.2020
616 Clear 4 1012 27 16093 5.1 250 23:44 13.01.2020
617 Clouds 4 1012 44 16093 3.1 270 23:19 13.01.2020
618 Clouds 4 1012 26 16093 6.7 270 22:57 13.01.2020
619 Clouds 5 1010 44 16093 8.2 310 22:39 13.01.2020
620 Clouds 5 1011 17 16093 7.7 260 22:19 13.01.2020
621 Clear 5 1011 19 16093 4.6 300 21:55 13.01.2020
622 Clouds 5 1008 22 32767 7.7 300 21:37 13.01.2020
623 Clear 4 1010 20 16093 4.1 300 21:18 13.01.2020
624 Clouds 4 1011 32 16093 1.5 180 20:56 13.01.2020
625 Clouds 4 1011 31 16093 1.5 140 20:37 13.01.2020
626 Clouds 3 1011 31 16093 1.5 140 20:19 13.01.2020
627 Clouds 3 1011 34 16093 1.5 170 19:41 13.01.2020
628 Clear 2 1011 30 16093 3.05 191 19:21 13.01.2020
629 Clear 2 1012 42 16093 1.5 50 18:58 13.01.2020
630 Clouds 1 1009 37 16093 1.5 60 18:38 13.01.2020
631 Clear 0 1012 46 16093 3.05 191 18:19 13.01.2020
632 Clear -1 1012 49 16093 3.05 191 17:58 13.01.2020
633 Clear -1 1009 30 16093 3.05 191 17:39 13.01.2020
634 Clear -2 1012 58 16093 3.45 213 17:20 13.01.2020
635 Clear -4 1009 49 16093 3.45 213 16:42 13.01.2020
636 Clouds -5 1009 62 16093 4.1 190 16:22 13.01.2020
637 Clouds -6 1012 76 0 3.45 213 15:58 13.01.2020
638 Clouds -6 1014 79 0 3.45 213 15:40 13.01.2020
639 Clouds -6 1012 74 0 3.45 213 15:20 13.01.2020
640 Clouds -6 1014 79 0 3.45 213 14:43 13.01.2020
641 Clouds -6 1011 73 0 3.81 216 14:24 13.01.2020
642 Clouds -6 1012 72 0 3.81 216 13:59 13.01.2020
643 Clouds -6 1015 74 0 3.81 216 13:39 13.01.2020
644 Clouds -6 1012 71 0 3.81 216 13:39 13.01.2020
645 Clouds -5 1012 69 0 3.81 216 13:21 13.01.2020
646 Clear -6 1009 53 16093 1.5 240 12:56 13.01.2020
647 Clear -5 1009 53 16093 1.5 240 12:37 13.01.2020
648 Clear -6 1009 53 16093 1.5 240 12:19 13.01.2020
649 -273 0 0 0 0 0 12:19 13.01.2020
650 Clear -6 1009 53 16093 1.5 240 12:19 13.01.2020
651 Clear -6 1009 53 16093 1.5 240 11:39 13.01.2020
652 Clear -6 1011 42 16093 2.6 220 11:20 13.01.2020
653 Clear -5 1012 53 16093 1.5 130 10:57 13.01.2020
654 Clear -6 1011 57 16093 4.6 190 10:39 13.01.2020
655 Clear -6 1012 57 16093 3.76 220 10:20 13.01.2020
656 Clear -5 1012 45 16093 2.1 240 09:56 13.01.2020
657 Clear -6 1010 39 16093 2.6 170 09:38 13.01.2020
658 Clear -5 1012 57 16093 4.1 210 09:19 13.01.2020
659 Clear -5 1010 42 16093 3.1 250 08:39 13.01.2020
660 Clear -5 1013 49 16093 3.6 210 08:20 13.01.2020
661 Clear -5 1013 62 16093 3.76 218 07:46 13.01.2020
662 Clear -5 1013 57 16093 3.76 218 07:27 13.01.2020
663 Clear -4 1011 39 16093 2.6 270 06:40 13.01.2020
664 Clear -4 1013 42 16093 2.6 210 06:19 13.01.2020
665 Clear -3 1013 33 16093 3.1 250 05:22 13.01.2020
666 Clear -2 1014 24 16093 4.6 280 03:52 13.01.2020
667 Clear -1 1014 24 16093 7.2 280 03:22 13.01.2020
668 Clear 0 1011 31 16093 4.6 210 02:39 13.01.2020
669 Clear 0 1013 26 16093 4.1 260 02:18 13.01.2020
670 Clear 3 1012 14 16093 10.3 250 00:59 13.01.2020
671 Clear 4 1012 15 16093 11.3 260 00:40 13.01.2020
672 Clear 4 1012 15 16093 11.3 260 00:21 13.01.2020
673 Clouds 4 1011 13 16093 8.2 260 23:41 12.01.2020
674 Clouds 5 1011 13 16093 8.2 260 23:23 12.01.2020
675 Clear 5 1011 12 16093 8.7 270 22:57 12.01.2020
676 Clear 5 1011 12 16093 6.7 240 22:39 12.01.2020
677 Clear 5 1011 12 16093 6.7 240 22:20 12.01.2020
678 Clear 5 1011 17 16093 7.2 280 21:55 12.01.2020
679 Clear 5 1011 15 16093 7.2 270 21:37 12.01.2020
680 Clear 5 1011 15 16093 7.2 270 21:19 12.01.2020
681 Clear 5 1012 14 16093 9.8 290 20:55 12.01.2020
682 Clear 5 1012 17 16093 6.2 270 20:37 12.01.2020
683 Clear 4 1012 17 16093 6.2 270 20:19 12.01.2020
684 Clear 4 1013 17 16093 7.2 260 19:55 12.01.2020
685 Clear 4 1013 15 16093 7.7 270 19:36 12.01.2020
686 Clear 4 1013 15 16093 7.7 270 19:18 12.01.2020
687 Clear 3 1013 18 16093 5.1 250 18:56 12.01.2020
688 Clear 2 1013 19 16093 3.07 228 18:38 12.01.2020
689 Clear 2 1013 19 16093 3.07 228 18:19 12.01.2020
690 Clear 1 1013 37 16093 3.07 228 17:42 12.01.2020
691 Clear -1 1013 46 16093 4.3 216 17:21 12.01.2020
692 Clear -3 1013 67 16093 2.6 210 16:58 12.01.2020
693 Clear -4 1010 36 16093 4.3 216 16:38 12.01.2020
694 Clear -6 1013 67 16093 4.3 216 16:20 12.01.2020
695 Clear -6 1012 67 16093 2.6 210 15:55 12.01.2020
696 Clear -7 1012 67 16093 2.6 210 15:55 12.01.2020
697 Clear -7 1012 67 16093 4.3 216 15:36 12.01.2020
698 Clear -7 1012 67 16093 4.3 216 15:18 12.01.2020
699 Clear -7 1012 72 16093 2.1 210 14:42 12.01.2020
700 -273 0 0 0 0 0 14:22 12.01.2020
701 Clear -7 1011 72 16093 2.1 70 13:56 12.01.2020
702 Clear -7 1009 49 16093 3.6 230 13:38 12.01.2020
703 Clear -6 1011 72 16093 2.72 224 13:20 12.01.2020
704 Clear -6 1011 72 16093 2.72 224 13:20 12.01.2020
705 Clear -6 1011 72 16093 2.72 224 12:44 12.01.2020
706 Clear -6 1011 72 16093 2.72 224 12:21 12.01.2020
707 Clear -6 1011 67 16093 2.72 224 11:59 12.01.2020
708 Clear -6 1008 73 16093 3.6 210 11:40 12.01.2020
709 Clear -6 1011 67 16093 2.34 223 11:21 12.01.2020
710 Clear -5 1010 49 16093 2.34 223 10:43 12.01.2020
711 Clear -4 1010 49 16093 2.34 223 10:23 12.01.2020
712 Clear -4 1010 53 16093 3.1 230 09:59 12.01.2020
713 Clear -4 1010 53 16093 3.1 230 09:41 12.01.2020
714 Clear -3 1009 49 16093 2.34 223 09:21 12.01.2020
715 Clear -3 1008 61 16093 1.5 230 08:47 12.01.2020
716 Clear -3 1010 49 16093 1.53 192 08:21 12.01.2020
717 Clear -3 1010 49 16093 1.53 192 08:21 12.01.2020
718 Clear -3 1010 27 16093 2.6 240 07:45 12.01.2020
719 Clear -2 1010 31 16093 3.6 250 07:25 12.01.2020
720 Clear -2 1011 29 16093 5.1 230 06:50 12.01.2020
721 Clear -2 1011 29 16093 5.7 240 06:32 12.01.2020
722 Clear -1 1009 49 16093 1.5 300 05:47 12.01.2020
723 Clouds -1 1011 46 16093 1.36 284 04:52 12.01.2020
724 Clouds 0 1010 37 16093 2.1 160 03:29 12.01.2020
725 Clouds 1 1010 27 16093 1.5 310 02:34 12.01.2020
726 Clouds 1 1010 27 16093 1.5 310 02:34 12.01.2020
727 Clouds 2 1010 29 16093 3.1 350 01:58 12.01.2020
728 Clouds 2 1009 29 16093 2.1 350 01:30 12.01.2020
729 Clouds 2 1007 25 16093 0.84 262 00:44 12.01.2020
730 Clear 2 1009 25 16093 3.6 290 00:21 12.01.2020
731 Clear 2 1008 24 16093 6.7 280 23:55 11.01.2020
732 Clear 2 1008 24 16093 9.8 270 23:37 11.01.2020
733 Clear 4 1008 24 16093 9.8 270 23:18 11.01.2020
734 Clear 5 1006 26 16093 6.2 260 22:42 11.01.2020
735 Clear 5 1008 28 16093 6.2 300 22:21 11.01.2020
736 Clear 5 1009 35 16093 2.6 10 21:59 11.01.2020
737 Clear 5 1009 35 16093 2.6 10 21:41 11.01.2020
738 Clear 5 1009 34 16093 4.1 20 21:18 11.01.2020
739 Clear 4 1010 37 16093 3.6 30 20:55 11.01.2020
740 Clear 4 1010 43 16093 1.5 40 20:36 11.01.2020
741 Clear 2 1010 43 16093 1.5 40 20:18 11.01.2020
742 Clear 1 1011 50 16093 1.5 310 19:54 11.01.2020
743 Clear 0 1012 54 16093 1.58 202 19:36 11.01.2020
744 Clear 0 1012 54 16093 1.58 202 19:18 11.01.2020
745 Clear -2 1010 58 16093 1.58 202 18:39 11.01.2020
746 Clear -4 1012 73 16093 1.5 160 18:20 11.01.2020
747 Clear -5 1013 85 16093 1.58 202 17:58 11.01.2020
748 Clear -5 1011 79 16093 1.58 202 17:40 11.01.2020
749 Clear -5 1011 79 16093 1.58 202 17:40 11.01.2020
750 Clear -7 1014 85 16093 1.5 270 17:20 11.01.2020
751 Clear -8 1014 92 16093 1.5 360 16:46 11.01.2020
752 Clear -9 1014 85 16093 2.6 30 16:28 11.01.2020
753 Clear -10 1014 85 16093 2.87 219 15:59 11.01.2020
754 Clear -10 1011 85 16093 2.87 219 15:41 11.01.2020
755 Clear -10 1014 85 16093 2.87 219 15:22 11.01.2020
756 Clear -10 1014 85 16093 2.87 219 15:22 11.01.2020
757 Clear -10 1014 85 16093 2.87 219 14:58 11.01.2020
758 Clear -11 1012 78 16093 2.1 270 14:39 11.01.2020
759 Clear -11 1014 85 16093 3.34 202 14:21 11.01.2020
760 Clear -11 1013 85 16093 3.34 202 13:41 11.01.2020
761 Clear -11 1013 85 16093 3.58 203 13:21 11.01.2020
762 Clear -11 1014 85 16093 3.58 203 12:59 11.01.2020
763 Clear -11 1014 85 16093 3.58 203 12:41 11.01.2020
764 Clear -11 1014 92 16093 3.58 203 12:23 11.01.2020
765 Clear -11 1015 85 16093 3.58 203 11:48 11.01.2020
766 Clear -11 1015 85 16093 3.58 203 11:26 11.01.2020
767 Clear -11 1016 85 16093 3.11 207 10:51 11.01.2020
768 Clear -11 1017 85 16093 3.11 207 10:30 11.01.2020
769 Clear -11 1017 85 16093 3.11 207 09:58 11.01.2020
770 Clear -11 1015 72 16093 3.6 160 09:38 11.01.2020
771 Clear -11 1018 92 16093 3.11 207 09:20 11.01.2020
772 Clear -10 1019 85 16093 3.11 207 08:42 11.01.2020
773 Clear -11 1020 85 16093 2.12 184 08:21 11.01.2020
774 Clear -11 1020 78 16093 2.12 184 07:44 11.01.2020
775 Clear -11 1020 85 16093 2.12 184 07:25 11.01.2020
776 Clear -10 1020 92 16093 1.5 200 06:50 11.01.2020
777 Clear -10 1018 73 16093 2.12 184 05:40 11.01.2020
778 Clear -9 1021 72 16093 1.58 81 04:46 11.01.2020
779 Clear -9 1021 72 16093 1.58 81 04:27 11.01.2020
780 Clear -7 1021 67 16093 1.58 81 02:49 11.01.2020
781 Clear -7 1021 67 16093 2.1 120 02:20 11.01.2020
782 Clear -6 1021 53 16093 2.1 100 01:42 11.01.2020
783 Clear -5 1021 53 16093 2.1 100 01:18 11.01.2020
784 Clear -4 1021 46 16093 4.1 100 00:38 11.01.2020
785 Clear -3 1021 42 16093 4.1 90 23:59 10.01.2020
786 Clear -3 1019 59 16093 2.6 80 23:40 10.01.2020
787 Clear -2 1019 59 16093 2.6 80 23:40 10.01.2020
788 Clear -2 1021 46 16093 3.6 100 23:21 10.01.2020
789 Clear -2 1020 46 16093 4.1 90 22:56 10.01.2020
790 Clear -2 1020 46 16093 4.1 80 22:38 10.01.2020
791 Clear -1 1020 46 16093 4.1 80 22:19 10.01.2020
792 Clear -1 1020 46 16093 3.1 70 21:55 10.01.2020
793 Clear -1 1020 46 16093 4.1 70 21:36 10.01.2020
794 Clear -1 1020 46 16093 4.1 70 21:18 10.01.2020
795 Clear -1 1020 46 16093 4.1 60 20:42 10.01.2020
796 Clear -1 1020 46 16093 4.1 50 20:24 10.01.2020
797 Clear -1 1020 50 16093 4.6 80 19:54 10.01.2020
798 Clear -1 1020 61 16093 5.7 50 19:36 10.01.2020
799 Clear -1 1020 61 16093 5.7 50 19:18 10.01.2020
800 Clouds -1 1018 61 16093 3.6 90 18:41 10.01.2020
801 Clouds -1 1020 61 16093 3.6 50 18:19 10.01.2020
802 Clouds -1 1019 61 16093 2.6 100 17:57 10.01.2020
803 Clouds -2 1019 68 16093 1.5 90 17:38 10.01.2020
804 Clouds -2 1019 68 16093 1.5 90 17:20 10.01.2020
805 Clouds -2 1019 68 16093 1.5 90 17:20 10.01.2020
806 Clouds -3 1018 85 16093 1.81 333 16:55 10.01.2020
807 Clouds -4 1018 85 16093 1.81 333 16:37 10.01.2020
808 Clouds -4 1018 85 16093 1.81 333 16:19 10.01.2020
809 Clouds -5 1016 85 16093 1.5 210 15:55 10.01.2020
810 Clouds -5 1016 85 16093 1.81 333 15:36 10.01.2020
811 Clouds -5 1016 85 16093 1.81 333 15:18 10.01.2020
812 Clear -5 1016 92 16093 1.81 333 14:42 10.01.2020
813 Clear -5 1015 85 16093 0.62 263 14:20 10.01.2020
814 Clear -5 1015 92 16093 1.5 260 13:59 10.01.2020
815 Clear -5 1015 92 16093 1.5 260 13:41 10.01.2020
816 Clear -5 1014 92 16093 0.62 263 13:23 10.01.2020
817 Clear -5 1011 79 16093 4.1 10 12:58 10.01.2020
818 Clear -4 1011 85 16093 3.1 280 12:38 10.01.2020
819 Clear -4 1013 85 16093 1.02 248 12:19 10.01.2020
820 Clear -4 1011 79 16093 3.1 350 11:54 10.01.2020
821 Clouds -4 1013 85 16093 1.02 248 11:36 10.01.2020
822 Clouds -4 1013 85 16093 1.45 348 11:18 10.01.2020
823 Clouds -4 1011 74 16093 3.1 320 10:42 10.01.2020
824 Clouds -3 1013 73 16093 1.45 348 10:24 10.01.2020
825 Clouds -3 1010 68 16093 4.6 340 09:56 10.01.2020
826 Clouds -3 1012 63 16093 1.45 348 09:37 10.01.2020
827 Clouds -3 1012 63 16093 1.45 348 09:19 10.01.2020
828 Clear -2 1012 74 16093 2.6 10 08:41 10.01.2020
829 Clear -2 1012 74 16093 0.42 119 08:22 10.01.2020
830 Clouds -1 1012 61 16093 1.5 220 07:44 10.01.2020
831 Clouds -1 1012 58 16093 0.42 119 07:24 10.01.2020
832 Clouds -1 1010 100 12874 1.5 300 06:45 10.01.2020
833 Clouds 0 1011 61 16093 0.42 119 06:25 10.01.2020
834 Snow 0 1010 61 6437 2.1 250 05:46 10.01.2020
835 Clouds 2 1011 43 16093 1.5 360 03:35 10.01.2020
836 Clouds 2 1011 37 16093 2.6 320 02:59 10.01.2020
837 Clouds 2 1009 40 16093 2.1 290 02:38 10.01.2020
838 Clouds 3 1011 29 16093 1.5 110 01:38 10.01.2020
839 Clouds 3 1008 37 16093 6.7 130 01:19 10.01.2020
840 Clouds 4 1008 32 16093 3.1 70 00:39 10.01.2020
841 Clouds 5 1009 26 16093 5.7 100 23:58 09.01.2020
842 Clouds 5 1009 30 16093 3.6 90 23:38 09.01.2020
843 Clouds 5 1009 26 16093 6.2 120 23:20 09.01.2020
844 Clouds 6 1008 22 16093 5.1 110 22:57 09.01.2020
845 Clouds 6 1008 22 16093 5.1 100 22:37 09.01.2020
846 Clouds 6 1008 22 16093 5.1 100 22:19 09.01.2020
847 Clear 6 1008 24 16093 6.7 110 21:56 09.01.2020
848 Clear 6 1008 22 16093 6.7 110 21:37 09.01.2020
849 Clear 6 1008 22 16093 6.7 110 21:37 09.01.2020
850 Clear 6 1008 22 16093 6.7 110 21:37 09.01.2020
851 Clear 6 1008 22 16093 6.7 110 21:18 09.01.2020
852 Clear 6 1008 20 16093 5.7 130 20:56 09.01.2020
853 Clear 6 1006 20 16093 5.1 260 20:38 09.01.2020
854 Clear 5 1008 23 16093 6.2 90 20:19 09.01.2020
855 Clouds 5 1008 22 16093 4.1 160 19:56 09.01.2020
856 Clear 4 1010 24 16093 5.1 120 19:37 09.01.2020
857 Clouds 4 1009 32 16093 4.6 110 19:18 09.01.2020
858 Clouds 4 1009 32 16093 4.6 110 18:54 09.01.2020
859 Clear 3 1011 27 16093 3.6 150 18:36 09.01.2020
860 Clear 3 1010 30 16093 5.7 130 18:18 09.01.2020
861 Clear 2 1011 37 16093 6.7 130 17:41 09.01.2020
862 Clear 1 1011 43 16093 5.7 120 17:18 09.01.2020
863 Clear 1 1011 43 16093 5.7 120 17:18 09.01.2020
864 Clear 0 1010 50 16093 5.7 110 16:47 09.01.2020
865 Clear -2 1010 54 16093 1.5 190 16:23 09.01.2020
866 Clear -2 1009 50 16093 1.5 270 16:23 09.01.2020
867 Clouds -2 1008 46 16093 4.1 150 15:56 09.01.2020
868 Clouds -2 1008 46 16093 4.1 150 15:56 09.01.2020
869 Clouds -2 1008 46 16093 4.1 150 15:56 09.01.2020
870 Clear -2 1009 54 16093 1.5 80 15:38 09.01.2020
871 Clear -2 1007 50 16093 3.6 160 15:18 09.01.2020
872 Clear -2 1008 50 16093 2.1 90 14:41 09.01.2020
873 Clear -2 1007 52 16093 3.1 70 14:21 09.01.2020
874 Clouds -2 1006 50 16093 4.1 150 13:57 09.01.2020
875 Clear -2 1007 52 16093 4.6 90 13:39 09.01.2020
876 Clear -2 1006 40 16093 5.7 120 13:20 09.01.2020
877 Clear -2 1005 31 16093 6.2 230 12:58 09.01.2020
878 Clear -2 1005 31 16093 6.2 230 12:58 09.01.2020
879 Clear -2 1005 51 16093 2.6 230 12:38 09.01.2020
880 Clear -2 1007 51 16093 2.83 207 12:19 09.01.2020
881 Clear -1 1007 34 16093 3.6 240 11:43 09.01.2020
882 Clear -1 1005 34 16093 5.7 290 11:25 09.01.2020
883 Clouds -1 1005 46 16093 3.6 340 10:59 09.01.2020
884 Clear -1 1007 29 16093 5.7 310 10:41 09.01.2020
885 Clear 0 1005 34 16093 8.7 280 10:22 09.01.2020
886 Clear 0 1005 34 16093 8.7 280 10:22 09.01.2020
887 Clear 0 1005 47 16093 2.1 240 09:49 09.01.2020
888 Clear 0 1004 40 16093 8.2 250 09:26 09.01.2020
889 Clear 1 1004 34 16093 9.3 250 08:59 09.01.2020
890 Clear 1 1006 47 16093 2.6 180 08:40 09.01.2020
891 Clouds 1 1004 29 16093 4.1 260 08:22 09.01.2020
892 Clouds 1 1004 29 16093 4.1 260 07:57 09.01.2020
893 Clear 2 1006 35 16093 4.6 250 07:38 09.01.2020
894 Clouds 2 1005 38 16093 1.5 290 07:19 09.01.2020
895 Clear 2 1006 32 16093 7.2 250 06:38 09.01.2020
896 Clear 2 1003 34 16093 3.6 210 06:18 09.01.2020
897 Clear 3 1004 28 16093 7.7 280 05:40 09.01.2020
898 Clear 3 1003 22 16093 10.3 280 04:42 09.01.2020
899 Clear 5 1001 20 16093 7.2 260 03:28 09.01.2020
900 Clear 6 1003 24 16093 3.88 221 02:47 09.01.2020
901 Clouds 7 1002 20 16093 5.1 210 01:53 09.01.2020
902 Clouds 8 1001 41 16093 1.5 80 01:33 09.01.2020
903 Clear 10 1002 25 16093 3.49 206 00:39 09.01.2020
904 Clear 11 1001 11 16093 2.1 290 00:19 09.01.2020
905 Clear 13 1002 19 16093 3.1 30 23:41 08.01.2020
906 Clear 13 1002 17 16093 3.1 10 23:23 08.01.2020
907 Clouds 13 1001 11 16093 8.2 220 22:56 08.01.2020
908 Clear 13 1002 17 16093 2.6 350 22:38 08.01.2020
909 Clear 13 1001 15 16093 1.5 70 22:19 08.01.2020
910 Clouds 13 1002 14 32767 2.1 0 21:55 08.01.2020
911 Clear 14 1003 20 16093 1.5 20 21:37 08.01.2020
912 Clear 14 1004 22 16093 4.1 340 21:18 08.01.2020
913 Clouds 13 1002 11 16093 7.2 210 20:55 08.01.2020
914 Clear 13 1004 19 16093 2.6 350 20:37 08.01.2020
915 Clear 10 1004 23 16093 5.98 198 20:18 08.01.2020
916 Clear 10 1006 26 16093 5.98 198 19:39 08.01.2020
917 Clear 8 1007 35 16093 5.98 198 19:20 08.01.2020
918 Clouds 9 1005 15 16093 6.7 210 18:58 08.01.2020
919 Clear 9 1008 44 16093 2.1 340 18:39 08.01.2020
920 Clear 8 1009 44 16093 4.1 20 18:19 08.01.2020
921 Clouds 8 1007 21 16093 4.1 200 17:57 08.01.2020
922 Clear 6 1009 44 16093 1.5 110 17:39 08.01.2020
923 Clear 3 1007 44 16093 1.5 210 17:20 08.01.2020
924 Clouds 2 1008 32 32767 2.1 230 16:57 08.01.2020
925 Clouds 2 1008 32 32767 2.1 230 16:57 08.01.2020
926 Clear 1 1008 39 16093 1.5 50 16:38 08.01.2020
927 Clouds 0 1009 30 16093 2.1 0 16:19 08.01.2020
928 Clear -1 1011 68 16093 2.1 270 15:45 08.01.2020
929 Clear -1 1009 40 16093 5.57 215 15:22 08.01.2020
930 Clouds 0 1010 37 16093 1.5 130 14:59 08.01.2020
931 Clear -1 1012 50 16093 5.57 215 14:40 08.01.2020
932 Clouds 0 1011 32 16093 4.6 210 14:21 08.01.2020
933 Clear 0 1013 58 16093 1.5 190 13:42 08.01.2020
934 Clouds 0 1012 34 16093 5.1 200 13:22 08.01.2020
935 Clouds 0 1012 34 16093 2.1 0 12:55 08.01.2020
936 Clear 1 1014 47 16093 1.5 60 12:37 08.01.2020
937 Clear 1 1013 47 16093 5.02 219 12:18 08.01.2020
938 Clear 1 1015 40 16093 1.5 210 11:48 08.01.2020
939 Clear 0 1014 51 16093 2.1 270 11:19 08.01.2020
940 Clouds 0 1014 37 16093 2.6 140 10:59 08.01.2020
941 Clear 0 1016 58 16093 2.1 170 10:40 08.01.2020
942 Clear 1 1015 34 16093 3.6 180 10:21 08.01.2020
943 Clear 1 1016 51 16093 4.32 220 09:43 08.01.2020
944 Clouds 1 1016 43 16093 4.1 130 09:20 08.01.2020
945 Clouds 1 1016 43 16093 4.1 130 08:59 08.01.2020
946 Clear 1 1017 40 16093 3.1 200 08:41 08.01.2020
947 Clear 1 1016 47 16093 2.1 340 08:22 08.01.2020
948 Clouds 1 1016 30 16093 6.7 240 07:58 08.01.2020
949 Clear 1 1018 43 16093 2.6 200 07:39 08.01.2020
950 Clear 1 1018 47 16093 4.78 220 07:18 08.01.2020
951 Clear 1 1019 55 16093 1.5 200 06:41 08.01.2020
952 Clouds 2 1018 34 16093 3.6 250 05:56 08.01.2020
953 Clear 2 1019 30 16093 1.5 290 05:26 08.01.2020
954 Clear 3 1020 47 16093 3.62 219 04:36 08.01.2020
955 Clear 5 1021 20 16093 3.62 219 02:46 08.01.2020
956 Clear 6 1019 21 16093 2.6 250 02:28 08.01.2020
957 Clouds 7 1020 20 16093 2.6 270 01:56 08.01.2020
958 Clouds 8 1019 23 16093 2.6 350 01:30 08.01.2020
959 Clouds 10 1020 18 16093 5.1 300 00:51 08.01.2020
960 Clear 11 1020 15 16093 4.6 250 00:22 08.01.2020
961 Clear 13 1021 12 16093 8.7 240 23:46 07.01.2020
962 Clouds 13 1020 15 16093 10.3 260 23:21 07.01.2020
963 Clear 13 1021 14 16093 8.2 330 22:41 07.01.2020
964 Clear 13 1020 17 16093 6.2 250 22:21 07.01.2020
965 Clouds 13 1020 15 16093 4.1 220 21:59 07.01.2020
966 Clouds 13 1020 15 16093 4.1 220 21:59 07.01.2020
967 Clear 13 1021 15 16093 11.3 260 21:41 07.01.2020
968 Clear 13 1020 18 16093 6.2 230 21:21 07.01.2020
969 Clouds 13 1020 17 16093 3.71 203 20:57 07.01.2020
970 Clear 13 1022 14 16093 7.2 260 20:39 07.01.2020
971 Clear 13 1022 14 16093 7.2 260 20:39 07.01.2020
972 Clouds 13 1022 20 16093 3.6 170 20:21 07.01.2020
973 Clouds 12 1022 20 16093 3.6 170 19:56 07.01.2020
974 Clear 12 1023 16 16093 1.5 170 19:37 07.01.2020
975 Clouds 11 1023 25 16093 3.1 170 19:18 07.01.2020
976 Clouds 10 1023 25 16093 3.1 170 18:55 07.01.2020
977 Clear 9 1024 18 16093 4.6 180 18:37 07.01.2020
978 Clouds 8 1023 33 16093 3.1 110 18:18 07.01.2020
979 Clouds 8 1023 33 16093 3.1 110 18:18 07.01.2020
980 Clouds 8 1023 33 16093 3.1 110 18:18 07.01.2020
981 Clear 6 1024 21 16093 1.5 250 17:41 07.01.2020
982 Clouds 4 1024 38 16093 3.1 110 17:22 07.01.2020
983 Clouds 3 1024 38 16093 3.1 110 16:58 07.01.2020
984 Clear 3 1024 44 16093 2.6 230 16:38 07.01.2020
985 Clear 2 1024 54 16093 4.27 206 16:19 07.01.2020
986 Clouds 1 1021 28 16093 16.5 290 15:59 07.01.2020
987 Clear 2 1023 58 16093 4.27 206 15:40 07.01.2020
988 Clear 2 1022 26 16093 3.1 240 15:22 07.01.2020
989 Clouds 1 1022 43 16093 4.6 160 14:55 07.01.2020
990 Clear 1 1023 47 16093 4.27 206 14:37 07.01.2020
991 Clear 2 1021 26 16093 5.7 270 14:18 07.01.2020
992 Clear 2 1022 27 16093 1.5 160 13:40 07.01.2020
993 Clear 2 1022 34 16093 4.6 100 13:19 07.01.2020
994 Clear 2 1021 26 16093 2.1 260 12:42 07.01.2020
995 Clear 2 1021 26 16093 2.1 260 12:42 07.01.2020
996 Clouds 2 1021 40 16093 3.1 350 12:21 07.01.2020
997 Clouds 2 1021 40 16093 3.1 350 11:58 07.01.2020
998 Clear 3 1022 24 16093 1.5 50 11:38 07.01.2020
999 Clouds 3 1021 37 16093 4.3 207 11:20 07.01.2020
1000 Clear 2 1021 22 16093 13.4 280 10:42 07.01.2020
1001 Clear 2 1020 30 16093 21.1 280 10:24 07.01.2020
1002 Clouds 2 1021 42 16093 2.1 70 09:59 07.01.2020
1003 Clear 3 1021 22 16093 8.7 300 09:38 07.01.2020
1004 Clouds 3 1020 26 16093 11.8 270 09:20 07.01.2020
1005 Clear 2 1023 20 16093 4.1 300 08:46 07.01.2020
1006 Clouds 0 1021 37 16093 2.1 140 08:26 07.01.2020
1007 Clouds 0 1021 37 16093 2.1 140 07:54 07.01.2020
1008 Clear 0 1020 22 16093 15.4 300 07:28 07.01.2020
1009 Clouds 1 1022 34 16093 2.6 180 06:54 07.01.2020
1010 Clear 1 1023 22 16093 6.7 260 06:34 07.01.2020
1011 Clouds 1 1022 34 16093 4.1 250 05:55 07.01.2020
1012 Clear -1 1024 31 16093 2.6 120 04:41 07.01.2020
1013 Clear -1 1024 31 16093 2.6 120 04:41 07.01.2020
1014 Clear -1 1022 31 16093 2.6 120 03:29 07.01.2020
1015 Clear 1 1023 23 16093 6.7 270 02:22 07.01.2020
1016 Clouds 1 1023 27 16093 8.7 260 01:54 07.01.2020
1017 Clear 2 1025 27 16093 3.1 290 01:30 07.01.2020
1018 Clear 2 1025 21 16093 3.1 290 00:37 07.01.2020
1019 Clear 3 1024 20 16093 8.7 290 00:18 07.01.2020
1020 Clouds 3 1024 21 16093 5.7 300 23:55 06.01.2020
1021 Clear 4 1025 18 16093 8.7 290 23:36 06.01.2020
1022 Clear 5 1025 17 16093 8.7 290 23:18 06.01.2020
1023 Clear 5 1025 18 16093 9.8 290 22:42 06.01.2020
1024 Clear 5 1025 16 16093 8.2 300 22:22 06.01.2020
1025 Clouds 5 1022 18 16093 11.8 320 21:56 06.01.2020
1026 Clear 5 1024 16 16093 9.8 270 21:38 06.01.2020
1027 Clouds 5 1022 18 16093 9.3 320 21:19 06.01.2020
1028 Clouds 5 1022 18 16093 9.3 320 20:56 06.01.2020
1029 Clear 5 1022 21 16093 6.7 280 20:37 06.01.2020
1030 Clear 5 1025 17 16093 9.3 300 20:19 06.01.2020
1031 Clouds 4 1022 21 16093 9.8 310 19:55 06.01.2020
1032 Clear 4 1025 15 16093 11.8 300 19:37 06.01.2020
1033 Clear 4 1023 16 16093 7.2 280 19:18 06.01.2020
1034 Clouds 3 1025 18 16093 9.8 300 18:45 06.01.2020
1035 Clouds 2 1023 25 16093 6.7 310 18:21 06.01.2020
1036 Clouds 1 1024 21 16093 11.3 300 17:40 06.01.2020
1037 Clouds 1 1023 29 16093 7.2 330 17:20 06.01.2020
1038 Clouds 1 1023 29 16093 7.2 330 17:20 06.01.2020
1039 Clouds 0 1023 29 16093 7.2 330 16:59 06.01.2020
1040 Clear 0 1024 23 16093 5.1 320 16:41 06.01.2020
1041 Clear -2 1024 53 16093 1.5 360 16:23 06.01.2020
1042 Clouds -2 1022 53 16093 4.1 260 15:59 06.01.2020
1043 Clouds -3 1023 53 16093 3.6 270 15:37 06.01.2020
1044 Clouds -3 1021 42 16093 2.6 240 15:18 06.01.2020
1045 Clouds -3 1021 42 16093 2.6 240 15:18 06.01.2020
1046 Clear -2 1023 27 16093 6.7 310 14:42 06.01.2020
1047 Clouds -2 1021 57 16093 6.2 330 14:22 06.01.2020
1048 Clouds -2 1021 57 16093 6.2 330 14:22 06.01.2020
1049 Clear -2 1022 33 16093 4.6 280 13:59 06.01.2020
1050 Clear -1 1023 33 16093 2.6 270 13:39 06.01.2020
1051 Clear -1 1022 31 16093 3.1 280 13:21 06.01.2020
1052 Clear -1 1021 57 16093 8.7 300 12:56 06.01.2020
1053 Clear -1 1023 29 16093 8.2 290 12:37 06.01.2020
1054 Clear -1 1022 27 16093 11.3 270 12:19 06.01.2020
1055 Clear -1 1022 27 16093 11.3 270 12:19 06.01.2020
1056 Clear -1 1023 26 16093 5.7 300 11:42 06.01.2020
1057 Clear -1 1020 63 16093 16.5 270 11:24 06.01.2020
1058 Clouds -1 1020 31 16093 9.8 300 10:59 06.01.2020
1059 Clear -1 1023 29 16093 6.7 290 10:40 06.01.2020
1060 Clear -1 1022 29 16093 3.1 300 10:20 06.01.2020
1061 Clear -2 1022 27 16093 1.5 260 09:39 06.01.2020
1062 Clear -2 1020 29 16093 3.6 280 09:20 06.01.2020
1063 Clouds -3 1020 68 16093 2.6 80 08:52 06.01.2020
1064 Clear -3 1022 54 16093 2.02 183 08:34 06.01.2020
1065 Clear -4 1022 63 16093 2.1 110 07:57 06.01.2020
1066 Clear -4 1022 63 16093 2.1 110 07:37 06.01.2020
1067 Clouds -3 1022 63 16093 1.5 140 06:47 06.01.2020
1068 Clouds -3 1020 66 16093 4.1 320 06:27 06.01.2020
1069 Clear -3 1022 68 16093 1.93 229 05:48 06.01.2020
1070 Clouds -3 1019 68 16093 2.1 180 04:53 06.01.2020
1071 Clouds -3 1021 63 16093 3.6 330 04:20 06.01.2020
1072 Clouds -2 1019 54 16093 0.81 210 02:58 06.01.2020
1073 Clear -1 1020 74 16093 2.1 340 02:24 06.01.2020
1074 Clear 0 1022 54 16093 3.6 360 01:45 06.01.2020
1075 Clouds 0 1019 50 16093 3.6 290 01:27 06.01.2020
1076 Clear 1 1022 40 16093 4.6 350 00:44 06.01.2020
1077 Clear 3 1021 35 16093 2.1 30 00:23 06.01.2020
1078 Clear 3 1022 32 16093 4.6 10 23:43 05.01.2020
1079 Clear 4 1021 40 16093 3.1 60 23:23 05.01.2020
1080 Clouds 4 1019 35 16093 4.6 280 22:58 05.01.2020
1081 Clear 4 1023 35 16093 3.6 40 22:39 05.01.2020
1082 Clear 4 1021 35 16093 3.1 90 22:20 05.01.2020
1083 Clouds 4 1019 33 16093 4.6 240 21:55 05.01.2020
1084 Clear 5 1023 32 16093 5.7 110 21:37 05.01.2020
1085 Clear 4 1023 33 16093 3.1 130 21:19 05.01.2020
1086 Clouds 4 1021 33 16093 3.6 300 20:55 05.01.2020
1087 Clear 5 1025 38 16093 4.1 130 20:37 05.01.2020
1088 Clear 4 1024 30 16093 3.1 130 20:19 05.01.2020
1089 Clouds 4 1024 35 32186 5.7 80 19:56 05.01.2020
1090 Clear 4 1027 30 16093 5.7 100 19:37 05.01.2020
1091 Clear 4 1028 30 16093 2.6 110 19:18 05.01.2020
1092 Clouds 3 1024 35 16093 8.7 160 18:54 05.01.2020
1093 Clear 3 1028 35 16093 4.1 140 18:36 05.01.2020
1094 Clouds 3 1026 43 16093 5.1 110 18:18 05.01.2020
1095 Clear 2 1029 40 16093 6.2 150 17:55 05.01.2020
1096 Clouds 2 1026 43 16093 5.1 110 17:55 05.01.2020
1097 Clear 2 1029 40 16093 6.2 150 17:37 05.01.2020
1098 Clear 1 1027 44 16093 3.1 170 17:18 05.01.2020
1099 Clear 0 1028 67 16093 2.1 180 16:54 05.01.2020
1100 Clear 0 1028 67 16093 2.1 180 16:36 05.01.2020
1101 Clear -1 1028 58 16093 3.1 200 16:18 05.01.2020
1102 Clear -2 1027 58 16093 2.6 190 15:36 05.01.2020
1103 Clear -2 1027 67 16093 3.1 140 15:18 05.01.2020
1104 Clear -1 1027 67 16093 2.6 130 14:54 05.01.2020
1105 Clear -1 1027 67 16093 2.6 130 14:36 05.01.2020
1106 Clear -1 1025 50 16093 2.6 90 14:18 05.01.2020
1107 Clear -1 1026 37 16093 1.5 80 13:39 05.01.2020
1108 Clear -1 1024 54 16093 4.6 240 13:21 05.01.2020
1109 Clear -1 1024 54 16093 4.6 240 12:57 05.01.2020
1110 Clear -1 1024 54 16093 4.6 240 12:57 05.01.2020
1111 Clear -1 1026 26 16093 3.1 250 12:38 05.01.2020
1112 Clear -1 1024 47 16093 3.1 350 12:20 05.01.2020
1113 Clear 0 1024 47 16093 3.1 350 11:55 05.01.2020
1114 Clear 1 1026 30 16093 2.6 340 11:37 05.01.2020
1115 Clear 1 1026 30 16093 2.6 340 11:37 05.01.2020
1116 Clear 3 1025 28 16093 2.66 203 11:19 05.01.2020
1117 Clear 3 1025 28 16093 2.66 203 11:19 05.01.2020
1118 Clear 3 1025 28 16093 2.66 203 11:19 05.01.2020
1119 Clear 3 1025 26 16093 6.2 320 10:42 05.01.2020
1120 Clear 4 1025 26 16093 3.6 290 10:20 05.01.2020
1121 Clear 4 1024 30 16093 7.2 340 09:59 05.01.2020
1122 Clear 4 1024 26 16093 7.2 310 09:41 05.01.2020
1123 Clear 3 1024 26 16093 7.2 310 09:41 05.01.2020
1124 Clear 4 1023 26 16093 15.9 290 09:21 05.01.2020
1125 Clear 4 1022 26 16093 13.4 280 08:45 05.01.2020
1126 Clear 5 1020 26 16093 22.6 280 08:25 05.01.2020
1127 Clear 6 1019 26 16093 22.6 280 07:50 05.01.2020
1128 Clear 6 1019 26 16093 21.1 270 07:29 05.01.2020
1129 Clear 7 1021 35 16093 4.6 240 06:56 05.01.2020
1130 Clear 8 1021 24 16093 7.7 260 05:52 05.01.2020
1131 Clear 8 1020 24 16093 6.7 280 04:57 05.01.2020
1132 Clear 9 1020 23 16093 7.7 250 04:19 05.01.2020
1133 Clear 9 1020 20 16093 10.8 290 03:45 05.01.2020
1134 Clear 8 1019 17 16093 2.1 300 02:41 05.01.2020
1135 Clear 8 1017 20 16093 4.6 270 02:19 05.01.2020
1136 Clear 9 1018 15 16093 8.2 270 01:36 05.01.2020
1137 Clouds 9 1016 27 16093 2.6 210 01:18 05.01.2020
1138 Clear 14 1017 13 16093 5.7 270 00:39 05.01.2020
1139 Clear 15 1016 13 16093 7.7 250 00:21 05.01.2020
1140 Clouds 15 1016 19 16093 3.57 219 23:58 04.01.2020
1141 Clear 15 1016 13 16093 4.6 220 23:38 04.01.2020
1142 Clear 15 1015 17 16093 2.1 190 23:18 04.01.2020
1143 Clear 15 1016 18 16093 4.1 200 22:39 04.01.2020
1144 Clear 15 1016 18 16093 4.1 200 22:39 04.01.2020
1145 Clear 15 1016 18 16093 10.8 140 22:20 04.01.2020
1146 Clouds 15 1016 21 16093 5.1 160 21:56 04.01.2020
1147 Clear 15 1017 19 16093 5.7 160 21:37 04.01.2020
1148 Clouds 14 1018 18 16093 5.1 180 21:19 04.01.2020
1149 Clouds 14 1018 18 16093 5.1 180 21:19 04.01.2020
1150 Clouds 13 1017 22 16093 4.6 150 20:56 04.01.2020
1151 Clear 13 1018 19 16093 4.6 150 20:37 04.01.2020
1152 Clouds 10 1019 26 16093 4.6 210 20:18 04.01.2020
1153 Clouds 10 1020 24 0 2.1 170 19:41 04.01.2020
1154 Clouds 10 1020 24 0 2.1 170 19:41 04.01.2020
1155 Clear 9 1019 34 16093 2.1 110 19:23 04.01.2020
1156 Clouds 9 1021 27 16093 5.1 230 18:58 04.01.2020
1157 Clear 9 1020 44 16093 2.1 60 18:39 04.01.2020
1158 Clouds 8 1021 34 16093 2.6 150 18:20 04.01.2020
1159 Clouds 6 1021 34 16093 2.6 150 17:57 04.01.2020
1160 Clear 5 1021 48 16093 1.5 50 17:39 04.01.2020
1161 Clouds 2 1021 51 16093 2.6 120 17:21 04.01.2020
1162 Clouds 1 1021 51 16093 4.6 190 16:42 04.01.2020
1163 Clouds 0 1021 47 16093 2.1 130 16:24 04.01.2020
1164 Clouds -1 1021 47 16093 2.1 130 15:57 04.01.2020
1165 Clear -1 1020 63 16093 4.67 216 15:39 04.01.2020
1166 Clouds -1 1020 58 16093 3.1 170 15:19 04.01.2020
1167 Clear -1 1020 63 16093 1.5 70 14:56 04.01.2020
1168 Clear -1 1020 63 16093 4.67 216 14:38 04.01.2020
1169 Clear -1 1021 79 16093 4.36 212 14:19 04.01.2020
1170 Clouds -1 1021 58 16093 3.1 130 14:19 04.01.2020
1171 Clouds -2 1021 58 16093 3.1 130 13:55 04.01.2020
1172 Clear -2 1021 64 16093 2.6 200 13:55 04.01.2020
1173 Clouds -2 1021 64 16093 3.6 200 13:36 04.01.2020
1174 Clouds -2 1021 44 16093 5.1 240 13:18 04.01.2020
1175 Clear -2 1020 47 16093 4.6 350 12:41 04.01.2020
1176 Clear -2 1021 63 16093 1.5 190 12:19 04.01.2020
1177 Clouds -1 1021 64 16093 2.6 180 11:58 04.01.2020
1178 Clear -2 1021 63 16093 3.1 60 11:38 04.01.2020
1179 Clear -1 1022 79 16093 4.23 217 11:19 04.01.2020
1180 Clear -1 1021 51 16093 5.7 200 10:42 04.01.2020
1181 Clear -2 1022 79 16093 2.1 270 10:23 04.01.2020
1182 Clouds -2 1021 58 16093 1.5 170 09:58 04.01.2020
1183 Clear -2 1021 74 16093 4.6 190 09:39 04.01.2020
1184 Clear -2 1021 79 16093 1.5 110 09:21 04.01.2020
1185 Clear -2 1021 74 16093 3.6 180 08:41 04.01.2020
1186 Clear -2 1021 47 16093 4.16 220 08:21 04.01.2020
1187 Clear -2 1021 74 16093 3.6 170 07:42 04.01.2020
1188 Clear -1 1022 73 16093 3.95 223 07:20 04.01.2020
1189 Clear -1 1021 55 16093 1.5 110 06:33 04.01.2020
1190 Clear 0 1021 64 16093 3.3 228 05:20 04.01.2020
1191 Clear 0 1019 35 16093 1.5 310 04:34 04.01.2020
1192 Clouds 0 1020 47 16093 2.6 260 03:52 04.01.2020
1193 Clear 1 1019 68 16093 1.5 350 03:18 04.01.2020
1194 Clouds 3 1018 38 16093 4.6 320 02:21 04.01.2020
1195 Clouds 4 1018 38 16093 4.6 320 01:55 04.01.2020
1196 Clouds 4 1018 38 16093 3.6 290 01:31 04.01.2020
1197 Clear 1 1019 28 16093 4.1 280 00:44 04.01.2020
1198 Clear 2 1017 26 16093 3.6 230 00:23 04.01.2020
1199 Clear 3 1018 24 16093 6.7 270 23:46 03.01.2020
1200 Clear 8 1016 28 16093 3.1 260 23:25 03.01.2020
1201 Clear 8 1017 23 16093 7.2 280 22:41 03.01.2020
1202 Clear 8 1015 21 16093 6.2 280 22:20 03.01.2020
1203 Clouds 8 1016 28 16093 6.7 310 21:59 03.01.2020
1204 Clear 8 1017 23 16093 9.3 270 21:39 03.01.2020
1205 Clear 8 1015 21 16093 7.2 270 21:19 03.01.2020
1206 Clear 8 1015 21 16093 7.2 270 21:19 03.01.2020
1207 Clouds 8 1016 26 16093 4.6 270 20:59 03.01.2020
1208 Clear 7 1017 23 16093 6.7 290 20:41 03.01.2020
1209 Clear 7 1017 23 16093 6.7 290 20:41 03.01.2020
1210 Clear 5 1016 21 16093 5.7 270 20:18 03.01.2020
1211 Clouds 6 1016 28 16093 2.6 290 19:57 03.01.2020
1212 Clear 5 1018 22 16093 7.7 290 19:38 03.01.2020
1213 Clear 5 1018 22 16093 6.7 290 19:19 03.01.2020
1214 Clear 4 1019 26 16093 4.36 209 18:44 03.01.2020
1215 Clear 3 1017 24 16093 5.7 290 18:25 03.01.2020
1216 Clouds 2 1018 32 16093 4.6 240 17:56 03.01.2020
1217 Clear 1 1019 30 16093 4.36 209 17:37 03.01.2020
1218 Clear -1 1018 55 16093 4.82 218 17:19 03.01.2020
1219 Clear -3 1018 73 16093 4.82 218 16:42 03.01.2020
1220 Clear -5 1018 73 16093 4.82 218 16:23 03.01.2020
1221 Clouds -6 1017 45 16093 3.1 240 15:57 03.01.2020
1222 Clear -6 1018 78 16093 4.82 218 15:38 03.01.2020
1223 Clear -6 1018 73 16093 4.82 218 15:18 03.01.2020
1224 Clear -6 1018 62 16093 4.82 218 14:38 03.01.2020
1225 Clear -6 1017 73 16093 3.84 222 14:19 03.01.2020
1226 Clear -6 1017 73 16093 3.84 222 13:44 03.01.2020
1227 Clouds -6 1015 67 16093 4.1 200 13:24 03.01.2020
1228 Clouds -6 1015 57 16093 2.6 230 12:59 03.01.2020
1229 Clear -6 1017 67 16093 3.93 220 12:39 03.01.2020
1230 Clear -6 1017 73 16093 3.93 220 12:21 03.01.2020
1231 Clear -5 1017 62 16093 1.5 210 11:44 03.01.2020
1232 Clear -6 1016 67 16093 1.5 280 11:21 03.01.2020
1233 Clear -5 1017 62 16093 1.5 220 10:44 03.01.2020
1234 Clear -5 1016 58 16093 2.6 210 10:25 03.01.2020
1235 Clear -5 1015 39 16093 4.6 280 09:58 03.01.2020
1236 Clear -5 1016 62 16093 2.1 210 09:39 03.01.2020
1237 Clear -5 1014 69 16093 6.2 290 09:21 03.01.2020
1238 Clouds -5 1014 49 16093 3.48 222 08:56 03.01.2020
1239 Clear -4 1016 58 16093 1.5 220 08:37 03.01.2020
1240 Clear -4 1016 58 16093 2.6 210 08:19 03.01.2020
1241 Clear -4 1015 58 16093 3.1 200 07:39 03.01.2020
1242 Clear -3 1015 50 16093 2.1 200 07:18 03.01.2020
1243 Clear -3 1015 60 16093 2.1 240 06:47 03.01.2020
1244 Clear -3 1013 60 16093 1.5 280 06:29 03.01.2020
1245 Clear -2 1012 60 16093 3.1 320 05:30 03.01.2020
1246 Clear -2 1012 63 16093 4.6 320 04:19 03.01.2020
1247 Clouds -1 1009 31 16093 3.6 230 02:56 03.01.2020
1248 Clouds -1 1009 31 16093 3.6 230 02:56 03.01.2020
1249 Clear 0 1008 43 16093 1.86 319 02:26 03.01.2020
1250 Clear 1 1010 51 16093 2.1 170 01:39 03.01.2020
1251 Clouds 2 1007 51 16093 2.1 90 00:49 03.01.2020
1252 Clear 3 1006 38 16093 0.57 43 00:29 03.01.2020
1253 Clear 3 1008 33 16093 3.1 100 23:55 02.01.2020
1254 Clear 3 1008 33 16093 3.1 100 23:37 02.01.2020
1255 Clouds 5 1006 33 16093 3.6 80 23:18 02.01.2020
1256 Clear 6 1007 28 16093 5.1 120 22:44 02.01.2020
1257 Clear 6 1007 26 16093 4.1 70 22:20 02.01.2020
1258 Clouds 6 1005 26 16093 2.1 60 21:57 02.01.2020
1259 Clear 6 1007 26 16093 4.6 70 21:38 02.01.2020
1260 Clear 6 1007 26 16093 4.6 70 21:38 02.01.2020
1261 Clear 6 1005 22 16093 2.6 90 21:20 02.01.2020
1262 Clouds 6 1005 32 16093 2.1 130 20:57 02.01.2020
1263 Clear 6 1007 19 16093 2.1 90 20:38 02.01.2020
1264 Clear 5 1005 22 16093 2.6 40 20:20 02.01.2020
1265 Clouds 5 1006 27 16093 2.06 231 19:55 02.01.2020
1266 Clear 5 1008 19 16093 1.5 70 19:36 02.01.2020
1267 Clear 4 1008 19 16093 2.06 231 19:18 02.01.2020
1268 Clear 3 1006 24 16093 1.5 160 18:54 02.01.2020
1269 Clear 3 1008 22 16093 1.5 160 18:36 02.01.2020
1270 Clear 2 1008 26 16093 2.06 231 18:18 02.01.2020
1271 Clouds 1 1007 34 16093 2.1 0 17:55 02.01.2020
1272 Clear 1 1009 35 16093 2.1 230 17:36 02.01.2020
1273 Clouds 0 1007 50 16093 1.5 200 17:18 02.01.2020
1274 Clear -1 1008 73 16093 2.1 210 16:41 02.01.2020
1275 Clear -2 1005 37 16093 1.5 190 16:21 02.01.2020
1276 Clouds -2 1005 63 16093 2.93 236 15:58 02.01.2020
1277 Clear -2 1007 73 16093 2.93 236 15:40 02.01.2020
1278 Clear -2 1007 73 16093 2.93 236 15:22 02.01.2020
1279 Clouds -2 1004 63 16093 2.1 320 14:57 02.01.2020
1280 Clouds -2 1004 63 16093 2.93 236 14:36 02.01.2020
1281 Clouds -2 1003 50 16093 2.1 310 14:18 02.01.2020
1282 Clouds -2 1005 68 16093 2.01 239 13:50 02.01.2020
1283 Clouds -2 1002 58 16093 4.1 290 13:31 02.01.2020
1284 Clear -1 1004 61 16093 2.01 239 12:46 02.01.2020
1285 Clear -1 1002 40 16093 4.1 290 12:28 02.01.2020
1286 Clear -1 1003 37 16093 2.01 239 11:59 02.01.2020
1287 Clear -2 1001 34 16093 3.1 60 11:40 02.01.2020
1288 Clouds -1 1001 64 16093 2.6 320 11:20 02.01.2020
1289 Clear 0 1003 37 16093 4.1 310 10:44 02.01.2020
1290 Clear 0 1000 34 16093 12.9 290 10:26 02.01.2020
1291 Clouds 1 1001 43 16093 1.5 50 09:51 02.01.2020
1292 Clear 0 1002 35 16093 1.5 290 09:33 02.01.2020
1293 Clear 1 1002 40 16093 2.1 360 08:47 02.01.2020
1294 Clear 1 999 37 16093 12.3 280 08:27 02.01.2020
1295 Clouds 1 1000 40 16093 4.6 260 07:54 02.01.2020
1296 Clear 1 998 32 16093 18 280 07:30 02.01.2020
1297 Clear 1 1000 35 16093 4.6 280 06:46 02.01.2020
1298 Clear 1 999 38 16093 4.1 310 06:27 02.01.2020
1299 Clear 2 998 38 16093 14.4 270 05:29 02.01.2020
1300 Clear 1 998 41 16093 10.3 260 04:32 02.01.2020
1301 Clear 2 1001 41 16093 2.6 240 02:48 02.01.2020
1302 Clouds 4 999 48 16093 6.2 260 01:59 02.01.2020
1303 Clear 4 1001 38 16093 5.1 270 01:38 02.01.2020
1304 Clouds 4 1000 44 16093 4.1 340 00:58 02.01.2020
1305 Clear 4 1001 33 16093 8.2 280 00:33 02.01.2020
1306 Clouds 5 1000 33 16093 9.3 340 23:53 01.01.2020
1307 Clear 5 1000 29 16093 6.7 300 23:28 01.01.2020
1308 Rain 9 999 31 16093 3.6 310 22:59 01.01.2020
1309 Clear 9 1001 29 16093 13.4 270 22:38 01.01.2020
1310 Clear 9 1000 25 16093 8.7 240 22:19 01.01.2020
1311 Rain 9 999 31 16093 6.2 280 21:56 01.01.2020
1312 Rain 8 1000 31 16093 3.84 236 21:37 01.01.2020
1313 Rain 8 999 23 16093 3.6 270 21:19 01.01.2020
1314 Rain 8 1001 33 16093 8.7 290 20:55 01.01.2020
1315 Rain 8 1000 31 16093 3.1 120 20:37 01.01.2020
1316 Rain 8 1002 33 16093 6.7 310 20:18 01.01.2020
1317 Rain 8 1000 39 16093 8.7 330 19:54 01.01.2020
1318 Rain 8 1002 33 16093 11.3 270 19:36 01.01.2020
1319 Rain 8 1000 25 16093 6.2 280 19:18 01.01.2020
1320 Rain 9 1000 39 32767 14.4 300 18:55 01.01.2020
1321 Rain 10 1002 29 16093 8.2 270 18:36 01.01.2020
1322 Clear 10 1001 29 16093 9.3 290 18:18 01.01.2020
1323 Rain 8 1000 56 16093 2.1 150 17:55 01.01.2020
1324 Rain 7 1001 31 16093 8.2 270 17:36 01.01.2020
1325 Clouds 4 1001 41 16093 2.1 10 17:18 01.01.2020
1326 Clear 2 1002 64 16093 5.79 210 16:39 01.01.2020
1327 Clear 1 1002 64 16093 1.5 120 16:20 01.01.2020
1328 Clear 1 1000 55 16093 1.5 360 15:57 01.01.2020
1329 Clear 1 1002 64 16093 1.5 200 15:38 01.01.2020
1330 Clear 1 1001 63 16093 5.79 210 15:20 01.01.2020
1331 Clouds 0 1001 44 16093 4.6 240 14:56 01.01.2020
1332 Clear 0 1002 63 16093 2.6 50 14:38 01.01.2020
1333 Clear -1 1000 51 16093 3.1 100 14:19 01.01.2020
1334 Clear -1 1000 47 16093 2.1 70 13:55 01.01.2020
1335 Clear -1 1000 47 16093 2.1 70 13:55 01.01.2020
1336 Clear -1 1002 61 16093 1.5 70 13:37 01.01.2020
1337 Clouds -1 1002 41 16093 6.2 230 13:18 01.01.2020
1338 Clouds -1 1002 41 16093 6.2 230 12:55 01.01.2020
1339 Clear -1 1002 44 16093 5.94 208 12:36 01.01.2020
1340 Clouds -2 1002 38 16093 5.7 220 12:18 01.01.2020
1341 Clouds -2 1002 38 16093 5.7 220 12:18 01.01.2020
1342 Clear -2 1003 68 16093 2.1 190 11:42 01.01.2020
1343 Clear -2 1003 37 16093 4.83 219 11:21 01.01.2020
1344 Clear -2 1005 73 16093 3.1 210 11:21 01.01.2020
1345 Clear -2 1006 79 16093 4.83 219 10:56 01.01.2020
1346 Clear -2 1006 79 16093 4.83 219 10:38 01.01.2020
1347 Clear -2 1004 68 16093 1.5 290 10:19 01.01.2020
1348 Clear -2 1006 79 16093 2.6 170 09:42 01.01.2020
1349 Clear -2 1007 79 16093 4.83 219 09:22 01.01.2020
1350 Clouds -2 1005 40 16093 3.6 220 08:57 01.01.2020
1351 Clear -3 1007 79 16093 2.6 160 08:38 01.01.2020
1352 Clouds -3 1005 63 16093 4.95 218 08:20 01.01.2020
1353 Clouds -3 1006 60 16093 4.6 210 07:58 01.01.2020
1354 Clear -3 1008 79 16093 1.5 190 07:40 01.01.2020
1355 Clear -3 1010 85 16093 4.95 218 07:19 01.01.2020
1356 Clear -3 1008 63 16093 4.95 218 06:36 01.01.2020
1357 Clouds -3 1008 27 16093 4.6 210 05:51 01.01.2020
1358 Clear -3 1009 63 16093 1.5 200 04:28 01.01.2020
1359 Clear -2 1012 73 16093 4.12 226 03:39 01.01.2020
1360 Clear -2 1009 37 16093 2.6 40 03:21 01.01.2020
1361 Rain -1 1011 63 16093 1.5 10 02:42 01.01.2020
1362 Rain -1 1009 23 16093 1.5 110 02:23 01.01.2020
1363 Clear 0 1011 27 16093 3.31 219 01:42 01.01.2020
1364 Rain 1 1010 50 16093 3.31 219 01:23 01.01.2020
1365 Clear 3 1012 17 16093 3.1 240 00:45 01.01.2020
1366 Clear 3 1010 17 16093 3.03 216 00:26 01.01.2020
1367 Clouds 5 1011 22 16093 2.1 160 23:56 31.12.2019
1368 Clear 5 1013 18 16093 3.03 216 23:36 31.12.2019
1369 Rain 5 1013 15 16093 2.94 187 23:18 31.12.2019
1370 Rain 6 1011 20 16093 2.6 210 22:55 31.12.2019
1371 Rain 6 1013 19 16093 2.6 170 22:36 31.12.2019
1372 Rain 5 1012 26 16093 2.6 180 22:18 31.12.2019
1373 Rain 8 1013 15 16093 3.6 180 21:43 31.12.2019
1374 Rain 7 1011 13 16093 4.1 290 21:25 31.12.2019
1375 Rain 6 1012 28 16093 2.1 160 20:57 31.12.2019
1376 Rain 6 1014 20 16093 4.1 180 20:39 31.12.2019
1377 Clear 4 1014 27 16093 2.6 170 20:20 31.12.2019
1378 Rain 4 1014 27 16093 2.6 170 19:57 31.12.2019
1379 Clear 3 1016 27 16093 3.6 210 19:39 31.12.2019
1380 Clear 2 1014 30 16093 1.5 40 19:20 31.12.2019
1381 Clear 1 1016 34 16093 2.1 140 18:56 31.12.2019
1382 Clear 1 1018 34 16093 2.1 180 18:38 31.12.2019
1383 Clear 0 1018 57 16093 3.71 204 18:19 31.12.2019
1384 Clear -2 1017 33 16093 3.71 204 17:55 31.12.2019
1385 Clear -2 1018 45 16093 3.71 204 17:36 31.12.2019
1386 Clear -4 1019 62 16093 4.91 212 17:18 31.12.2019
1387 Clear -5 1016 45 32767 2.6 200 16:56 31.12.2019
1388 Clear -7 1018 66 16093 4.91 212 16:37 31.12.2019
1389 Clear -7 1018 66 16093 4.91 212 16:37 31.12.2019
1390 Clear -8 1016 41 16093 8.2 210 16:18 31.12.2019
1391 Clear -9 1018 71 16093 2.1 220 15:56 31.12.2019
1392 Clear -9 1018 71 16093 2.1 220 15:37 31.12.2019
1393 Clear -9 1019 78 16093 4.91 212 15:19 31.12.2019
1394 Clouds -9 1017 44 32767 1.5 200 14:55 31.12.2019
1395 Clear -10 1019 78 16093 1.5 210 14:37 31.12.2019
1396 Clear -9 1017 44 16093 4.1 220 14:18 31.12.2019
1397 Clear -10 1017 44 16093 4.1 220 13:56 31.12.2019
1398 Clear -10 1019 78 16093 2.6 200 13:37 31.12.2019
1399 Clear -10 1017 52 16093 1.5 170 13:19 31.12.2019
1400 Clear -10 1017 52 16093 1.5 170 12:55 31.12.2019
1401 Clear -10 1019 78 16093 2.6 200 12:37 31.12.2019
1402 Clear -10 1019 78 16093 2.6 200 12:37 31.12.2019
1403 Clear -9 1017 41 16093 1.5 240 12:18 31.12.2019
1404 Clear -9 1017 41 16093 1.5 240 12:18 31.12.2019
1405 Clear -9 1020 78 16093 4.33 213 11:54 31.12.2019
1406 Clear -9 1020 78 16093 4.33 213 11:36 31.12.2019
1407 Clear -9 1018 44 16093 4.03 216 11:18 31.12.2019
1408 Clear -9 1018 44 16093 4.03 216 10:55 31.12.2019
1409 Clear -9 1020 78 16093 4.03 216 10:37 31.12.2019
1410 Clear -10 1019 66 16093 2.6 250 10:19 31.12.2019
1411 Clear -9 1018 37 16093 2.6 220 09:55 31.12.2019
1412 Clear -10 1020 84 16093 4.03 216 09:37 31.12.2019
1413 Clear -10 1020 84 16093 4.03 216 09:37 31.12.2019
1414 Clear -10 1019 72 16093 4.03 216 09:18 31.12.2019
1415 Clear -10 1020 78 16093 4.03 216 08:42 31.12.2019
1416 Clear -10 1018 38 16093 3.6 240 08:22 31.12.2019
1417 Clear -9 1021 84 16093 3.44 219 07:45 31.12.2019
1418 Clear -9 1021 78 16093 3.44 219 07:22 31.12.2019
1419 Clear -9 1019 48 16093 4.6 230 06:51 31.12.2019
1420 Clear -9 1019 45 16093 4.1 250 06:27 31.12.2019
1421 Clear -8 1019 56 16093 1.5 200 04:55 31.12.2019
1422 Clear -8 1019 56 16093 4.6 190 04:25 31.12.2019
1423 Clear -7 1018 44 16093 2.1 180 02:57 31.12.2019
1424 Clear -6 1018 39 16093 2.1 240 02:21 31.12.2019
1425 Clouds -6 1018 48 16093 2.6 170 02:21 31.12.2019
1426 Clouds -6 1018 48 16093 2.6 170 01:50 31.12.2019
1427 Clear -5 1019 39 16093 1.5 200 01:31 31.12.2019
1428 Clear -3 1020 33 16093 2.6 140 00:49 31.12.2019
1429 Rain -2 1018 34 16093 2.1 60 00:25 31.12.2019
1430 Rain -1 1017 36 16093 3.6 100 23:58 30.12.2019
1431 Rain -1 1020 31 16093 3.1 120 23:40 30.12.2019
1432 Clear -1 1019 29 16093 2.1 80 23:22 30.12.2019
1433 Rain 0 1017 30 16093 5.1 110 22:59 30.12.2019
1434 Rain 0 1020 27 16093 2.6 120 22:41 30.12.2019
1435 Rain 0 1019 27 16093 3.1 150 22:21 30.12.2019
1436 Rain 0 1017 30 16093 4.6 130 21:57 30.12.2019
1437 Rain 0 1017 30 16093 4.6 130 21:57 30.12.2019
1438 Rain 0 1020 24 16093 4.1 150 21:39 30.12.2019
1439 Rain 0 1017 30 16093 4.6 160 21:20 30.12.2019
1440 Rain 0 1017 30 16093 4.6 160 20:58 30.12.2019
1441 Rain 0 1020 31 16093 1.5 100 20:40 30.12.2019
1442 Rain 0 1020 31 16093 1.5 100 20:40 30.12.2019
1443 Rain 0 1018 28 16093 4.6 150 20:20 30.12.2019
1444 Clear -1 1018 28 16093 4.6 150 19:58 30.12.2019
1445 Clear -1 1021 55 16093 2.76 201 19:39 30.12.2019
1446 Clear -1 1021 55 16093 2.76 201 19:39 30.12.2019
1447 Clear -2 1022 33 16093 2.76 201 19:19 30.12.2019
1448 Clouds -2 1019 39 16093 3.1 160 18:59 30.12.2019
1449 Clear -3 1022 36 16093 2.76 201 18:40 30.12.2019
1450 Clear -4 1020 36 16093 2.76 201 18:20 30.12.2019
1451 Clear -4 1020 36 16093 2.76 201 18:20 30.12.2019
1452 Clouds -4 1019 41 16093 3.1 180 17:57 30.12.2019
1453 Clear -5 1022 57 16093 2.76 201 17:39 30.12.2019
1454 Clear -7 1020 58 16093 4.24 209 17:19 30.12.2019
1455 Clouds -8 1018 52 16093 4.24 209 16:58 30.12.2019
1456 Clear -9 1020 72 16093 2.1 200 16:37 30.12.2019
1457 Clear -10 1020 72 16093 1.5 160 16:19 30.12.2019
1458 Clear -12 1017 60 16093 3.1 110 15:56 30.12.2019
1459 Clear -12 1019 71 16093 2.1 210 15:37 30.12.2019
1460 Clear -12 1016 40 16093 4.6 230 15:18 30.12.2019
1461 Clear -12 1019 84 16093 1.5 200 14:43 30.12.2019
1462 Clear -12 1019 84 16093 1.5 200 14:43 30.12.2019
1463 Clear -12 1018 72 16093 4 215 14:20 30.12.2019
1464 Clear -11 1016 44 16093 1.5 0 13:58 30.12.2019
1465 Clear -12 1018 84 16093 2.6 190 13:40 30.12.2019
1466 Clear -11 1017 72 16093 4.38 214 13:21 30.12.2019
1467 Clear -11 1015 43 16093 4.1 220 12:56 30.12.2019
1468 Clear -12 1018 77 16093 4.38 214 12:37 30.12.2019
1469 Clear -12 1015 51 16093 3.1 220 12:18 30.12.2019
1470 Clear -12 1018 84 16093 4.38 214 11:42 30.12.2019
1471 Clear -12 1017 66 16093 2.1 230 11:20 30.12.2019
1472 Clear -11 1016 51 16093 3.6 230 10:58 30.12.2019
1473 Clear -12 1018 84 16093 2.1 200 10:40 30.12.2019
1474 Clear -12 1017 72 16093 2.1 250 10:18 30.12.2019
1475 Clear -12 1018 77 16093 3.93 216 09:42 30.12.2019
1476 Clear -12 1018 77 16093 2.1 210 09:20 30.12.2019
1477 Clear -12 1015 60 16093 2.1 210 08:55 30.12.2019
1478 Clear -11 1018 84 16093 3.93 216 08:36 30.12.2019
1479 Clear -11 1017 78 16093 3.45 222 08:18 30.12.2019
1480 Clear -11 1017 78 16093 3.45 222 07:41 30.12.2019
1481 Clear -11 1014 61 16093 2.6 220 06:58 30.12.2019
1482 Clear -10 1014 48 16093 3.45 222 06:23 30.12.2019
1483 Clear -10 1014 48 16093 3.45 222 06:23 30.12.2019
1484 Clouds -9 1013 66 16093 2.6 190 03:58 30.12.2019
1485 Clear -9 1016 61 16093 2.6 210 03:39 30.12.2019
1486 Clear -8 1015 52 16093 1.5 190 02:41 30.12.2019
1487 Clear -7 1014 49 16093 2.1 350 02:20 30.12.2019
1488 Clear -6 1013 36 16093 2.1 110 01:25 30.12.2019
1489 Clear -4 1014 39 16093 3.1 150 00:45 30.12.2019
1490 Rain -3 1011 66 16093 3.6 260 00:23 30.12.2019
1491 Rain -3 1013 42 16093 2.6 120 23:40 29.12.2019
1492 Rain -2 1011 39 16093 2.6 70 23:21 29.12.2019
1493 Rain -2 1011 39 16093 2.6 70 22:56 29.12.2019
1494 Rain -1 1010 58 16093 4.1 270 22:37 29.12.2019
1495 Rain -1 1011 29 16093 1.5 110 22:18 29.12.2019
1496 Rain -1 1013 36 16093 2.1 110 21:43 29.12.2019
1497 Rain -1 1013 39 16093 2.1 110 21:21 29.12.2019
1498 Rain -2 1011 42 16093 4.6 340 20:58 29.12.2019
1499 Rain -2 1013 39 16093 2.6 110 20:39 29.12.2019
1500 Rain -2 1011 51 16093 2.1 50 20:21 29.12.2019
1501 Rain -3 1011 38 16093 1.5 110 19:59 29.12.2019
1502 Rain -3 1014 39 16093 3.6 140 19:40 29.12.2019
1503 Rain -3 1014 39 16093 3.6 140 19:40 29.12.2019
1504 Rain -3 1014 42 16093 3.6 140 19:21 29.12.2019
1505 Rain -4 1012 53 16093 1.58 237 18:58 29.12.2019
1506 Rain -4 1014 49 16093 3.1 140 18:39 29.12.2019
1507 Clouds -5 1012 61 16093 1.5 180 18:20 29.12.2019
1508 Clouds -5 1012 61 16093 1.5 180 17:58 29.12.2019
1509 Clouds -6 1014 53 16093 1.58 237 17:39 29.12.2019
1510 Clouds -7 1014 67 16093 1.5 210 17:20 29.12.2019
1511 Clouds -8 1011 56 16093 2.1 230 16:57 29.12.2019
1512 Clouds -9 1014 72 16093 1.5 210 16:38 29.12.2019
1513 Clouds -9 1014 72 16093 1.5 210 16:38 29.12.2019
1514 Clouds -10 1013 72 16093 3.65 229 16:20 29.12.2019
1515 Clouds -10 1011 72 16093 1.5 200 15:58 29.12.2019
1516 Clouds -10 1011 72 16093 1.5 200 15:58 29.12.2019
1517 Clouds -10 1013 67 16093 3.65 229 15:39 29.12.2019
1518 Clouds -10 1010 65 16093 1.5 140 15:20 29.12.2019
1519 Clouds -10 1010 65 16093 1.5 140 14:58 29.12.2019
1520 Clouds -11 1013 72 16093 3.65 229 14:39 29.12.2019
1521 Clouds -11 1011 79 16093 2.4 238 14:18 29.12.2019
1522 Clouds -10 1009 61 16093 4.1 240 13:57 29.12.2019
1523 Clouds -10 1012 67 16093 2.4 238 13:39 29.12.2019
1524 Clouds -10 1012 72 16093 1.5 210 13:20 29.12.2019
1525 Clouds -10 1012 72 16093 2.6 220 12:45 29.12.2019
1526 Clouds -10 1010 48 16093 5.1 290 12:27 29.12.2019
1527 Clouds -10 1010 48 16093 5.1 290 12:27 29.12.2019
1528 Clouds -10 1009 66 16093 3.1 250 11:59 29.12.2019
1529 Clouds -9 1012 78 16093 2.1 150 11:40 29.12.2019
1530 Clouds -9 1011 68 16093 2.6 220 11:20 29.12.2019
1531 Clouds -9 1009 72 16093 4.6 250 11:20 29.12.2019
1532 Clouds -9 1009 72 16093 4.6 250 10:55 29.12.2019
1533 Clouds -9 1012 85 16093 1.5 180 10:37 29.12.2019
1534 Clouds -9 1009 78 16093 2.1 250 10:18 29.12.2019
1535 Clouds -9 1009 78 16093 2.1 250 10:18 29.12.2019
1536 Clouds -9 1012 78 16093 2.81 222 09:41 29.12.2019
1537 Clouds -9 1011 73 16093 1.5 220 09:22 29.12.2019
1538 Clouds -8 1009 78 16093 2.6 230 08:48 29.12.2019
1539 Clouds -8 1009 79 16093 3.1 250 08:28 29.12.2019
1540 Clouds -8 1009 73 16093 2.1 240 07:58 29.12.2019
1541 Clouds -7 1010 85 16093 2.1 220 07:28 29.12.2019
1542 Clouds -7 1010 85 16093 2.1 220 07:28 29.12.2019
1543 Clouds -7 1010 85 16093 3.1 250 06:56 29.12.2019
1544 Clouds -6 1013 62 16093 1.96 238 06:26 29.12.2019
1545 Clouds -6 1013 53 16093 1.96 238 05:53 29.12.2019
1546 Clouds -6 1013 49 16093 4.1 360 04:37 29.12.2019
1547 Rain -6 1010 67 4828 7.7 360 03:59 29.12.2019
1548 Rain -6 1010 53 16093 3.6 350 03:21 29.12.2019
1549 Snow -6 1010 85 1207 4.1 340 02:21 29.12.2019
1550 Clouds -6 1012 58 16093 4.6 20 01:40 29.12.2019
1551 Clouds -6 1012 58 16093 5.7 20 01:21 29.12.2019
1552 Rain -6 1012 58 16093 6.7 20 00:42 29.12.2019
1553 Rain -5 1009 92 2012 11.3 350 00:23 29.12.2019
1554 Rain -5 1011 63 16093 6.7 20 23:44 28.12.2019
1555 Rain -5 1008 85 1207 7.7 360 23:18 28.12.2019
1556 Rain -5 1011 68 16093 8.7 10 22:39 28.12.2019
1557 Rain -5 1011 73 11265 9.8 360 22:21 28.12.2019
1558 Rain -5 1008 85 1207 10.8 340 21:58 28.12.2019
1559 Rain -5 1010 68 11265 12.9 10 21:39 28.12.2019
1560 Haze -5 1010 68 8047 10.3 10 21:21 28.12.2019
1561 Snow -4 1007 79 1207 9.3 360 20:57 28.12.2019
1562 Clouds -4 1010 68 16093 9.8 20 20:38 28.12.2019
1563 Snow -4 1007 79 1207 7.2 360 20:19 28.12.2019
1564 Snow -4 1007 79 1207 7.2 360 19:58 28.12.2019
1565 Snow -4 1010 68 3219 8.7 10 19:39 28.12.2019
1566 Rain -4 1007 85 1207 7.7 360 19:20 28.12.2019
1567 Rain -3 1007 85 1207 7.7 360 18:57 28.12.2019
1568 Rain -4 1010 68 16093 7.2 360 18:39 28.12.2019
1569 Rain -4 1011 74 16093 5.1 10 18:18 28.12.2019
1570 Rain -4 1008 85 1207 7.7 360 17:54 28.12.2019
1571 Rain -4 1011 79 16093 5.7 10 17:36 28.12.2019
1572 Rain -4 1007 85 1207 5.7 350 17:18 28.12.2019
1573 Rain -4 1007 85 2012 9.3 340 16:46 28.12.2019
1574 Rain -4 1007 100 2414 8.7 340 16:25 28.12.2019
1575 Rain -4 1009 92 6437 3.1 350 15:44 28.12.2019
1576 Rain -4 1009 92 4023 5.1 10 15:24 28.12.2019
1577 Rain -4 1006 85 1207 7.2 360 14:58 28.12.2019
1578 Rain -4 1009 92 2414 6.2 10 14:38 28.12.2019
1579 Rain -4 1005 92 1207 10.3 360 14:20 28.12.2019
1580 Rain -3 1008 92 805 6.7 20 13:43 28.12.2019
1581 Rain -3 1005 100 2414 6.2 340 13:23 28.12.2019
1582 Rain -3 1004 86 4023 4.6 330 12:59 28.12.2019
1583 Snow -3 1007 100 1609 2.6 350 12:41 28.12.2019
1584 Snow -3 1004 92 2012 5.1 350 12:22 28.12.2019
1585 Snow -3 1004 86 4828 4.1 320 11:54 28.12.2019
1586 Snow -3 1006 86 6437 3.1 340 11:36 28.12.2019
1587 -273 0 0 0 0 0 11:18 28.12.2019
1588 Clouds -3 1006 86 16093 2.1 330 10:41 28.12.2019
1589 Mist -3 1004 92 4828 4.6 280 10:20 28.12.2019
1590 Mist -3 1004 86 4828 3.6 340 09:55 28.12.2019
1591 Clouds -3 1007 86 11265 1.5 300 09:37 28.12.2019
1592 Clouds -3 1006 86 11265 2.1 310 09:18 28.12.2019
1593 Clouds -3 1006 86 11265 2.1 310 09:18 28.12.2019
1594 Clouds -3 1006 86 11265 2.1 300 08:43 28.12.2019
1595 Mist -2 1004 86 8047 2.1 310 08:25 28.12.2019
1596 Mist -2 1007 92 8047 1.52 22 07:49 28.12.2019
1597 Mist -2 1005 92 8047 1.52 22 07:25 28.12.2019
1598 Mist -3 1008 92 8047 1.52 22 05:52 28.12.2019
1599 Clouds -2 1006 74 11265 2.6 350 03:49 28.12.2019
1600 Clouds -2 1008 92 16093 2.6 320 02:52 28.12.2019
1601 Mist -2 1010 92 8047 0.56 69 02:31 28.12.2019
1602 Mist -2 1007 80 8047 2.1 350 01:56 28.12.2019
1603 Mist -2 1007 80 8047 2.1 350 01:56 28.12.2019
1604 Clouds -2 1008 86 16093 3.6 360 01:24 28.12.2019
1605 Clouds -1 1008 80 11265 4.6 350 00:50 28.12.2019
1606 Clouds 0 1008 86 11265 3.1 30 00:30 28.12.2019
1607 Clouds 0 1008 64 11265 3.6 30 23:58 27.12.2019
1608 Clouds 0 1008 64 11265 3.6 30 23:58 27.12.2019
1609 Clouds 0 1011 58 11265 1.5 60 23:39 27.12.2019
1610 Clouds 1 1011 38 11265 2.6 70 23:19 27.12.2019
1611 Clouds 1 1008 59 14484 3.1 30 22:56 27.12.2019
1612 Clouds 1 1011 74 16093 3.1 60 22:37 27.12.2019
1613 Clouds 1 1010 69 11265 1.5 60 22:19 27.12.2019
1614 Clouds 1 1012 38 11265 1.5 350 21:43 27.12.2019
1615 Clouds 1 1010 64 16093 1.5 20 21:25 27.12.2019
1616 Clouds 1 1009 51 16093 3.1 10 20:57 27.12.2019
1617 Clouds 1 1013 38 16093 3.1 20 20:38 27.12.2019
1618 Clouds 1 1014 68 16093 0.47 59 20:20 27.12.2019
1619 Clouds 0 1014 68 16093 0.47 59 19:41 27.12.2019
1620 Clouds 0 1014 68 16093 0.47 59 19:20 27.12.2019
1621 Clear -1 1017 74 16093 0.47 59 18:57 27.12.2019
1622 Clear -1 1017 74 16093 0.47 59 18:37 27.12.2019
1623 Clouds -1 1014 68 16093 2.1 300 18:19 27.12.2019
1624 Clouds -2 1014 68 16093 2.1 300 17:55 27.12.2019
1625 Clear -2 1017 79 16093 0.47 59 17:37 27.12.2019
1626 Clear -3 1017 85 16093 1.61 193 17:18 27.12.2019
1627 Clear -4 1017 85 11265 1.61 193 16:44 27.12.2019
1628 Clear -5 1015 79 16093 1.61 193 16:26 27.12.2019
1629 Clouds -6 1014 79 11265 1.61 193 15:58 27.12.2019
1630 Clear -6 1017 85 11265 1.61 193 15:40 27.12.2019
1631 Clear -6 1017 92 16093 1.61 193 15:19 27.12.2019
1632 Clouds -6 1015 73 14484 1.61 193 14:56 27.12.2019
1633 Clear -6 1017 85 16093 1.61 193 14:38 27.12.2019
1634 Clear -6 1015 85 16093 1.39 240 14:20 27.12.2019
1635 Clear -6 1018 85 16093 1.39 240 13:47 27.12.2019
1636 Clouds -5 1017 79 16093 2.6 290 13:24 27.12.2019
1637 Clear -5 1016 86 16093 1.23 229 12:56 27.12.2019
1638 Clear -5 1018 92 16093 1.23 229 12:37 27.12.2019
1639 Mist -4 1018 100 8047 1.5 210 12:18 27.12.2019
1640 Mist -4 1019 92 6437 1.23 229 11:42 27.12.2019
1641 Clouds -4 1017 63 16093 1.37 222 11:20 27.12.2019
1642 Clouds -4 1019 92 11265 1.37 222 10:47 27.12.2019
1643 Clouds -4 1017 74 16093 1.37 222 10:24 27.12.2019
1644 Clouds -4 1016 79 16093 2.1 0 09:58 27.12.2019
1645 Clouds -3 1020 92 16093 1.37 222 09:39 27.12.2019
1646 Clouds -3 1017 80 16093 1.37 222 09:21 27.12.2019
1647 Clouds -3 1020 86 16093 1.37 222 08:49 27.12.2019
1648 Clouds -3 1018 63 16093 1.37 222 08:30 27.12.2019
1649 Clouds -3 1020 86 16093 1.15 168 07:48 27.12.2019
1650 Clouds -3 1018 100 12874 3.1 170 07:25 27.12.2019
1651 Clouds -3 1018 92 16093 1.5 210 06:33 27.12.2019
1652 Clouds -3 1021 92 16093 1.35 294 04:48 27.12.2019
1653 Clouds -2 1021 92 16093 1.35 294 02:35 27.12.2019
1654 Clear -1 1020 92 16093 1.87 19 01:48 27.12.2019
1655 Clear -1 1018 86 16093 2.1 270 01:23 27.12.2019
1656 Clouds 0 1017 59 16093 2.1 330 00:52 27.12.2019
1657 Clear 1 1018 63 16093 1.71 32 00:34 27.12.2019
1658 Clouds 1 1020 63 16093 1.5 310 00:34 27.12.2019
1659 Clear 2 1019 69 16093 1.71 32 23:57 26.12.2019
1660 Clear 2 1019 69 16093 1.71 32 23:38 26.12.2019
1661 Clear 2 1018 69 11265 2.6 37 23:20 26.12.2019
1662 Clouds 2 1018 80 16093 2.1 360 22:42 26.12.2019
1663 Clouds 2 1015 38 16093 4.6 30 22:21 26.12.2019
1664 Clouds 2 1015 38 16093 4.6 30 21:55 26.12.2019
1665 Clouds 2 1015 38 16093 4.6 30 21:55 26.12.2019
1666 Clouds 2 1018 30 16093 1.5 360 21:37 26.12.2019
1667 Clouds 2 1018 30 16093 2.6 37 21:19 26.12.2019
1668 Clouds 2 1018 92 16093 2.45 59 20:44 26.12.2019
1669 Clouds 2 1018 92 16093 2.45 59 20:44 26.12.2019
1670 Clouds 2 1018 86 11265 0.35 55 20:22 26.12.2019
1671 Clouds 1 1016 28 16093 2.1 20 19:58 26.12.2019
1672 Mist 1 1019 100 8047 1.5 50 19:38 26.12.2019
1673 Mist 1 1019 100 6437 0.35 55 19:20 26.12.2019
1674 Fog 1 1017 100 201 1.5 10 18:57 26.12.2019
1675 Mist 1 1017 100 1609 1.5 120 18:37 26.12.2019
1676 Mist 1 1017 100 402 2.6 300 18:19 26.12.2019
1677 Mist 0 1019 92 2012 1.5 70 17:42 26.12.2019
1678 Fog -1 1017 100 402 2.43 208 17:22 26.12.2019
1679 Clouds -2 1016 40 16093 1.5 0 16:54 26.12.2019
1680 Fog -3 1018 100 0 2.43 208 16:36 26.12.2019
1681 Fog -3 1018 100 0 2.43 208 16:36 26.12.2019
1682 Fog -3 1015 100 201 7.7 330 16:18 26.12.2019
1683 Fog -4 1017 92 0 2.1 340 15:41 26.12.2019
1684 Clouds -4 1014 46 16093 2.1 0 15:20 26.12.2019
1685 Clouds -4 1014 46 16093 2.1 0 14:54 26.12.2019
1686 Fog -4 1016 100 402 2.6 340 14:36 26.12.2019
1687 Clouds -4 1013 53 16093 4.1 240 14:18 26.12.2019
1688 Clouds -4 1016 92 16093 2.89 220 13:42 26.12.2019
1689 Clear -4 1015 92 16093 2.58 219 13:19 26.12.2019
1690 Clear -4 1013 46 16093 2.58 219 12:56 26.12.2019
1691 Clear -4 1015 92 16093 1.5 290 12:37 26.12.2019
1692 Clear -4 1014 85 16093 2.6 280 12:18 26.12.2019
1693 Clear -4 1014 92 16093 2.58 219 11:42 26.12.2019
1694 Clear -4 1012 54 16093 2.1 140 11:23 26.12.2019
1695 Clear -4 1012 58 16093 2.1 170 10:57 26.12.2019
1696 Clear -4 1012 58 16093 2.1 170 10:57 26.12.2019
1697 Clear -4 1014 92 16093 2.44 205 10:39 26.12.2019
1698 Clear -4 1013 86 16093 2.44 205 10:18 26.12.2019
1699 Clear -3 1013 92 16093 3.1 200 09:42 26.12.2019
1700 Clear -3 1011 92 16093 3.1 260 09:24 26.12.2019
1701 Clear -3 1013 92 16093 1.5 210 08:40 26.12.2019
1702 Clear -3 1013 92 16093 1.5 210 08:40 26.12.2019
1703 Clear -3 1012 86 16093 1.5 240 08:22 26.12.2019
1704 Clear -3 1013 86 16093 1.68 185 07:50 26.12.2019
1705 Clear -2 1011 52 16093 1.68 185 07:26 26.12.2019
1706 Clouds -1 1013 92 16093 3.1 210 06:44 26.12.2019
1707 Clear -1 1011 80 16093 1.68 185 06:25 26.12.2019
1708 Clouds -1 1013 80 16093 1.68 185 05:43 26.12.2019
1709 Clear 0 1012 79 16093 1.5 240 04:38 26.12.2019
1710 Clear 1 1011 80 16093 2.79 177 03:46 26.12.2019
1711 Clear 2 1010 64 16093 2.79 177 02:47 26.12.2019
1712 Clouds 2 1007 64 16093 3.1 220 02:29 26.12.2019
1713 Clouds 4 1009 55 16093 1.16 59 01:44 26.12.2019
1714 Clouds 5 1007 55 16093 3.1 320 01:25 26.12.2019
1715 Clouds 5 1008 52 16093 2.6 290 00:44 26.12.2019
1716 Clouds 6 1006 52 16093 4.6 70 00:23 26.12.2019
1717 Clouds 6 1006 48 16093 7.2 320 23:57 25.12.2019
1718 Clouds 5 1007 36 16093 2.6 220 23:37 25.12.2019
1719 Snow 8 1004 34 16093 8.7 320 23:19 25.12.2019
1720 Snow 9 1004 34 16093 8.7 320 22:56 25.12.2019
1721 Clouds 9 1005 34 16093 2.6 320 22:37 25.12.2019
1722 Clouds 10 1004 22 16093 4.1 250 22:18 25.12.2019
1723 Clouds 10 1004 22 16093 4.1 250 22:18 25.12.2019
1724 Snow 10 1002 22 16093 6.2 220 21:55 25.12.2019
1725 Clouds 11 1005 34 16093 2.6 340 21:37 25.12.2019
1726 Snow 11 1003 20 16093 6.7 250 21:19 25.12.2019
1727 Clouds 11 1005 23 16093 2.1 100 20:40 25.12.2019
1728 Snow 7 1003 29 16093 3.1 240 20:21 25.12.2019
1729 Snow 8 1003 29 16093 3.1 240 19:59 25.12.2019
1730 Clear 8 1005 29 16093 0.35 191 19:41 25.12.2019
1731 Clouds 8 1003 33 16093 0.35 191 19:21 25.12.2019
1732 Clear 8 1006 45 16093 0.35 191 18:40 25.12.2019
1733 Clear 6 1005 25 16093 2.6 160 18:21 25.12.2019
1734 Clouds 5 1005 42 16093 5.1 230 17:57 25.12.2019
1735 Clear 5 1006 55 16093 0.35 191 17:39 25.12.2019
1736 Clouds 3 1005 48 16093 3.1 240 17:18 25.12.2019
1737 Clouds 2 1005 48 16093 3.1 240 16:54 25.12.2019
1738 Clear 1 1006 59 16093 2.74 219 16:36 25.12.2019
1739 Clear -1 1006 73 16093 2.74 219 16:18 25.12.2019
1740 Clear -2 1005 68 16093 2.74 219 15:40 25.12.2019
1741 Clear -2 1003 59 16093 2.1 190 15:22 25.12.2019
1742 Clouds -2 1004 59 16093 2.1 200 14:59 25.12.2019
1743 Clear -2 1005 68 16093 1.5 190 14:41 25.12.2019
1744 Clear -2 1003 59 16093 1.5 200 14:23 25.12.2019
1745 Clouds -2 1003 63 16093 1.5 310 13:58 25.12.2019
1746 Clear -2 1005 79 16093 1.5 210 13:39 25.12.2019
1747 Clear -2 1005 85 16093 2.57 201 13:19 25.12.2019
1748 Clear -2 1004 79 16093 1.5 250 12:43 25.12.2019
1749 Clear -2 1002 40 16093 2.1 310 12:21 25.12.2019
1750 Clear -2 1002 40 16093 2.1 310 12:21 25.12.2019
1751 Clear -2 1002 40 16093 2.1 310 11:57 25.12.2019
1752 Clear -2 1004 85 16093 2.57 201 11:39 25.12.2019
1753 Clear -1 1003 58 16093 2.07 239 11:20 25.12.2019
1754 Clear -1 1004 79 16093 2.07 239 10:39 25.12.2019
1755 Clear -1 1002 37 16093 4.6 300 10:21 25.12.2019
1756 Clouds -1 1002 65 16093 3.6 190 09:51 25.12.2019
1757 Clear 0 1002 43 16093 1.5 340 09:33 25.12.2019
1758 Clouds 0 1003 47 16093 2.07 239 08:51 25.12.2019
1759 Clouds 1 1004 65 16093 2.07 239 08:32 25.12.2019
1760 Clouds 1 1004 43 16093 1.31 222 07:59 25.12.2019
1761 Clouds 1 1004 43 16093 1.31 222 07:59 25.12.2019
1762 Clouds 1 1006 43 16093 1.31 222 07:37 25.12.2019
1763 Clouds 1 1005 47 16093 1.31 222 07:19 25.12.2019
1764 Clouds 2 1005 32 16093 1.31 222 06:23 25.12.2019
1765 Clouds 2 1007 43 16093 1.31 222 05:43 25.12.2019
1766 Clouds 2 1008 38 16093 1.43 216 04:40 25.12.2019
1767 Clouds 2 1007 41 16093 2.1 280 04:20 25.12.2019
1768 Clear 2 1008 43 16093 1.43 216 03:43 25.12.2019
1769 Clouds 2 1007 32 16093 2.1 190 02:57 25.12.2019
1770 Clear 2 1007 30 16093 1.5 230 02:28 25.12.2019
1771 Clear 5 1007 24 16093 1.5 270 01:26 25.12.2019
1772 Clear 4 1007 24 16093 1.5 270 01:26 25.12.2019
1773 Clouds 5 1007 19 16093 2.1 360 00:56 25.12.2019
1774 Clear 8 1008 18 16093 1.5 60 00:33 25.12.2019
1775 Clouds 10 1008 13 16093 0.93 7 23:59 24.12.2019
1776 Clear 10 1009 12 16093 0.93 7 23:39 24.12.2019
1777 Clear 10 1009 12 16093 0.93 7 23:39 24.12.2019
1778 Clouds 10 1008 14 16093 2.1 10 23:20 24.12.2019
1779 Clear 10 1008 15 16093 2.1 100 23:20 24.12.2019
1780 Clear 11 1009 12 16093 1.5 130 22:42 24.12.2019
1781 Clear 10 1008 16 16093 2.1 100 22:23 24.12.2019
1782 Clouds 10 1008 14 32767 2.1 40 21:55 24.12.2019
1783 Clear 10 1010 13 16093 1.5 60 21:37 24.12.2019
1784 Clear 10 1010 12 16093 2.1 20 21:18 24.12.2019
1785 Clear 10 1010 12 16093 2.6 10 20:41 24.12.2019
1786 Clear 9 1011 18 16093 0.33 237 20:19 24.12.2019
1787 Clear 8 1012 19 16093 0.33 237 19:46 24.12.2019
1788 Clouds 8 1011 22 16093 2.6 270 19:22 24.12.2019
1789 Clouds 7 1011 22 16093 2.6 270 18:58 24.12.2019
1790 Clear 7 1013 48 16093 0.33 237 18:40 24.12.2019
1791 Clouds 6 1012 20 16093 4.1 260 18:18 24.12.2019
1792 Clouds 6 1013 51 16093 0.33 237 17:42 24.12.2019
1793 Clear 4 1011 33 16093 2.1 220 17:21 24.12.2019
1794 Clouds 4 1011 22 16093 3.1 270 16:58 24.12.2019
1795 Clear 3 1013 33 16093 2.28 227 16:39 24.12.2019
1796 Clouds 3 1011 34 16093 2.6 260 16:20 24.12.2019
1797 Clouds 2 1010 37 16093 2.1 240 15:57 24.12.2019
1798 Clear 2 1012 74 16093 2.28 227 15:37 24.12.2019
1799 Clear 2 1011 33 16093 1.5 240 15:19 24.12.2019
1800 Clouds 2 1011 27 16093 2.6 230 14:57 24.12.2019
1801 Clear 2 1010 23 16093 1.5 230 14:39 24.12.2019
1802 Clear 2 1010 23 16093 1.5 230 14:21 24.12.2019
1803 Clouds 2 1011 27 16093 3.6 260 13:55 24.12.2019
1804 Clear 2 1012 68 16093 2.13 218 13:37 24.12.2019
1805 Clear 2 1010 29 16093 2.1 240 13:19 24.12.2019
1806 Clear 2 1010 29 16093 2.1 240 12:55 24.12.2019
1807 Clear 2 1011 68 16093 2.1 210 12:36 24.12.2019
1808 Clear 2 1010 47 16093 2.6 270 12:18 24.12.2019
1809 Clouds 2 1010 24 16093 2.6 270 11:55 24.12.2019
1810 Clouds 2 1010 24 16093 2.6 270 11:55 24.12.2019
1811 Clear 2 1012 68 16093 1.93 225 11:37 24.12.2019
1812 Clear 2 1012 68 16093 1.93 225 11:37 24.12.2019
1813 Clouds 2 1010 29 16093 1.5 90 11:18 24.12.2019
1814 Clouds 2 1010 29 16093 1.5 90 10:56 24.12.2019
1815 Clear 2 1010 24 16093 1.5 220 10:37 24.12.2019
1816 Clear 2 1011 37 16093 2.84 205 10:19 24.12.2019
1817 Clear 2 1012 37 16093 2.84 205 09:55 24.12.2019
1818 Clear 3 1012 37 16093 2.84 205 09:36 24.12.2019
1819 Clear 3 1011 27 16093 2.6 280 09:18 24.12.2019
1820 Clear 3 1012 37 16093 2.84 205 08:44 24.12.2019
1821 Clear 3 1011 64 16093 1.81 212 08:20 24.12.2019
1822 Clear 3 1014 55 16093 1.5 210 07:45 24.12.2019
1823 Clear 3 1012 30 16093 2.6 240 07:25 24.12.2019
1824 Clouds 3 1013 30 16093 2.1 220 06:58 24.12.2019
1825 Clear 3 1014 64 16093 1.81 212 06:38 24.12.2019
1826 Clear 3 1013 28 16093 1.5 280 06:18 24.12.2019
1827 Clear 4 1013 24 16093 1.49 243 05:20 24.12.2019
1828 Clear 4 1015 59 16093 1.49 243 04:44 24.12.2019
1829 Clear 5 1015 64 16093 1.5 210 03:50 24.12.2019
1830 Clouds 5 1014 31 16093 1.5 300 02:59 24.12.2019
1831 Clear 6 1013 33 16093 2.1 230 02:21 24.12.2019
1832 Clear 7 1015 51 16093 2.24 227 01:50 24.12.2019
1833 Clear 7 1014 41 16093 2.24 227 01:20 24.12.2019
1834 Clear 7 1015 41 16093 1.93 226 00:43 24.12.2019
1835 Clear 9 1013 31 16093 1.93 226 00:23 24.12.2019
1836 Clouds 11 1013 9 16093 2.6 200 23:56 23.12.2019
1837 Clear 12 1014 26 16093 2.1 360 23:37 23.12.2019
1838 Clouds 13 1013 6 16093 5.1 200 23:19 23.12.2019
1839 Clouds 14 1013 6 16093 5.1 200 22:55 23.12.2019
1840 Clear 14 1014 20 16093 2.1 360 22:55 23.12.2019
1841 Clear 14 1014 20 16093 2.1 360 22:36 23.12.2019
1842 Clear 14 1014 20 16093 2.1 360 22:36 23.12.2019
1843 Clear 14 1014 20 16093 2.1 360 22:36 23.12.2019
1844 Clouds 14 1012 19 16093 3.6 110 22:18 23.12.2019
1845 Clouds 14 1013 14 32767 2.17 203 21:55 23.12.2019
1846 Clear 14 1013 17 16093 2.17 203 21:36 23.12.2019
1847 Clear 14 1014 12 16093 1.5 10 21:36 23.12.2019
1848 Clouds 14 1013 7 16093 3.6 230 21:18 23.12.2019
1849 Clouds 14 1013 7 16093 3.6 230 20:56 23.12.2019
1850 Clouds 14 1013 7 16093 3.6 230 20:56 23.12.2019
1851 Clear 13 1014 20 16093 2.17 203 20:38 23.12.2019
1852 Clear 11 1016 29 16093 3.71 209 20:18 23.12.2019
1853 Clear 11 1016 27 16093 3.52 213 19:55 23.12.2019
1854 Clear 11 1016 27 16093 3.52 213 19:55 23.12.2019
1855 Clear 11 1016 27 16093 3.52 213 19:36 23.12.2019
1856 Clear 10 1015 39 16093 3.52 213 19:18 23.12.2019
1857 Clouds 10 1015 10 16093 5.7 220 18:55 23.12.2019
1858 Clear 10 1015 33 16093 3.52 213 18:36 23.12.2019
1859 Clouds 9 1016 11 16093 5.1 220 18:18 23.12.2019
1860 Clear 8 1017 60 16093 3.52 213 17:55 23.12.2019
1861 Clear 8 1017 60 16093 3.52 213 17:37 23.12.2019
1862 Clear 5 1017 59 16093 4.14 207 17:18 23.12.2019
1863 Clear 5 1017 69 16093 4.14 207 16:42 23.12.2019
1864 Clear 4 1016 64 16093 4.14 207 16:19 23.12.2019
1865 Clouds 4 1016 15 16093 3.1 120 15:58 23.12.2019
1866 Clear 4 1017 34 16093 4.14 207 15:38 23.12.2019
1867 Clear 4 1016 69 16093 1.5 290 15:19 23.12.2019
1868 Clouds 4 1016 20 16093 1.5 230 14:58 23.12.2019
1869 Clear 4 1017 55 16093 2.1 190 14:39 23.12.2019
1870 Clear 4 1015 30 16093 1.5 210 14:21 23.12.2019
1871 Clouds 3 1016 22 16093 2.1 240 13:58 23.12.2019
1872 Clear 4 1017 59 16093 1.5 210 13:40 23.12.2019
1873 Clear 4 1015 30 16093 2.6 190 13:21 23.12.2019
1874 Clear 3 1016 24 16093 3.97 213 12:55 23.12.2019
1875 Clear 3 1017 59 16093 3.97 213 12:37 23.12.2019
1876 Clear 3 1016 69 16093 3.97 213 12:19 23.12.2019
1877 Clear 3 1017 59 16093 1.5 190 11:44 23.12.2019
1878 Clear 3 1016 28 16093 3.1 340 11:25 23.12.2019
1879 Clouds 3 1016 22 16093 2.6 260 10:56 23.12.2019
1880 Clear 3 1018 43 16093 3.96 218 10:38 23.12.2019
1881 Clear 3 1016 64 16093 1.5 260 10:20 23.12.2019
1882 Clear 3 1016 24 16093 2.1 20 09:59 23.12.2019
1883 Clear 3 1017 43 16093 3.96 218 09:39 23.12.2019
1884 Clear 3 1016 59 16093 3.96 218 09:20 23.12.2019
1885 Clouds 3 1016 22 16093 2.1 190 08:55 23.12.2019
1886 Clear 3 1018 80 16093 3.96 218 08:37 23.12.2019
1887 Clear 3 1016 64 16093 3.91 213 08:18 23.12.2019
1888 Clear 3 1018 44 16093 3.99 212 07:43 23.12.2019
1889 Clouds 4 1017 19 16093 3.1 200 07:20 23.12.2019
1890 Clear 4 1018 44 16093 3.99 212 06:50 23.12.2019
1891 Clear 4 1017 59 16093 3.99 212 06:23 23.12.2019
1892 Clouds 4 1017 20 16093 3.1 160 05:49 23.12.2019
1893 Clouds 4 1018 20 16093 2.6 170 05:19 23.12.2019
1894 Clear 5 1018 59 16093 2.1 200 04:19 23.12.2019
1895 Clear 6 1019 64 16093 1.5 170 02:49 23.12.2019
1896 Clear 6 1017 45 16093 3.9 207 02:25 23.12.2019
1897 Clouds 7 1018 19 16093 3.6 180 01:53 23.12.2019
1898 Clear 7 1017 42 16093 3.18 216 01:32 23.12.2019
1899 Clouds 7 1018 27 16093 2.1 360 00:55 23.12.2019
1900 Clear 8 1019 48 16093 3.18 216 00:35 23.12.2019
1901 Clouds 11 1018 11 16093 3.18 216 23:57 22.12.2019
1902 Clear 13 1019 31 16093 1.5 30 23:39 22.12.2019
1903 Clear 13 1017 27 16093 2.1 40 23:20 22.12.2019
1904 Clouds 13 1018 8 16093 2.2 207 22:57 22.12.2019
1905 Clear 14 1018 28 16093 1.5 310 22:38 22.12.2019
1906 Clear 14 1018 28 16093 1.5 310 22:38 22.12.2019
1907 Clear 14 1017 22 16093 2.1 10 22:19 22.12.2019
1908 Clouds 15 1018 8 16093 1.5 350 21:56 22.12.2019
1909 Clear 17 1018 20 16093 3.6 340 21:38 22.12.2019
1910 Clear 17 1019 6 16093 1.5 170 21:20 22.12.2019
1911 Clear 16 1019 10 16093 2.2 207 20:43 22.12.2019
1912 Clear 13 1020 14 16093 3.72 208 20:20 22.12.2019
1913 Clouds 12 1019 13 16093 2.1 100 19:58 22.12.2019
1914 Clear 12 1020 14 16093 3.72 208 19:40 22.12.2019
1915 Clear 11 1021 22 16093 3.72 208 19:20 22.12.2019
1916 Clouds 11 1020 9 16093 2.6 230 18:58 22.12.2019
1917 Clear 11 1021 36 16093 3.72 208 18:38 22.12.2019
1918 Clear 10 1020 49 16093 3.72 208 18:19 22.12.2019
1919 Clouds 9 1021 13 16093 3.72 208 17:55 22.12.2019
1920 Clear 7 1020 38 16093 3.72 208 17:36 22.12.2019
1921 Clouds 5 1020 24 16093 2.1 140 17:18 22.12.2019
1922 Clear 4 1021 68 16093 4.51 218 16:42 22.12.2019
1923 Clear 2 1019 24 16093 1.5 260 16:23 22.12.2019
1924 Clouds 2 1019 16 16093 6.7 210 16:23 22.12.2019
1925 Clouds 2 1020 23 16093 2.1 150 15:57 22.12.2019
1926 Clear 2 1021 63 16093 4.51 218 15:39 22.12.2019
1927 Clear 1 1021 68 16093 4.51 218 15:21 22.12.2019
1928 Clouds 2 1020 25 16093 3.6 180 14:57 22.12.2019
1929 Clear 1 1021 68 16093 1.5 170 14:38 22.12.2019
1930 Clouds 1 1020 20 16093 2.1 150 14:19 22.12.2019
1931 Clouds 1 1020 20 16093 2.1 150 13:56 22.12.2019
1932 Clear 1 1019 43 16093 4.72 211 13:38 22.12.2019
1933 Clear 2 1020 68 16093 2.1 280 13:19 22.12.2019
1934 Clear 2 1020 20 16093 1.5 260 12:57 22.12.2019
1935 Clear 2 1021 63 16093 4.52 213 12:38 22.12.2019
1936 Clouds 2 1021 18 16093 3.6 170 12:19 22.12.2019
1937 Clouds 2 1021 18 16093 3.6 170 11:56 22.12.2019
1938 Clear 2 1022 63 16093 4.52 213 11:38 22.12.2019
1939 Clear 2 1021 37 16093 4.87 214 11:19 22.12.2019
1940 Clouds 2 1021 18 16093 2.6 150 10:56 22.12.2019
1941 Clear 2 1022 74 16093 4.87 214 10:38 22.12.2019
1942 Clear 2 1021 37 16093 1.5 300 10:19 22.12.2019
1943 Clear 2 1021 37 16093 1.5 300 10:19 22.12.2019
1944 Clouds 2 1021 20 16093 3.1 210 09:57 22.12.2019
1945 Clear 2 1022 68 16093 4.87 214 09:39 22.12.2019
1946 Clear 2 1020 37 16093 2.1 190 09:20 22.12.2019
1947 Clear 2 1021 37 16093 4.6 210 08:42 22.12.2019
1948 Clear 2 1021 25 16093 2.6 240 08:22 22.12.2019
1949 Clear 2 1023 68 16093 1.5 240 07:43 22.12.2019
1950 Clear 2 1021 50 16093 4.78 217 07:21 22.12.2019
1951 Clouds 2 1022 25 16093 5.1 180 06:52 22.12.2019
1952 Clear 2 1022 18 16093 1.5 200 06:25 22.12.2019
1953 Clear 2 1022 25 16093 1.5 240 05:32 22.12.2019
1954 Clear 2 1022 43 16093 4.6 200 04:46 22.12.2019
1955 Clear 2 1022 43 16093 4.6 200 04:46 22.12.2019
1956 Clear 2 1022 51 16093 4.05 217 04:24 22.12.2019
1957 Clear 4 1023 63 16093 4.05 217 02:43 22.12.2019
1958 Clouds 5 1022 23 16093 6.2 170 01:59 22.12.2019
1959 Clear 5 1023 55 16093 2.1 210 01:31 22.12.2019
1960 Clouds 7 1022 29 32767 3.6 350 00:54 22.12.2019
1961 Clear 9 1023 33 16093 3.84 216 00:36 22.12.2019
1962 Clear 11 1023 25 16093 2.1 340 00:18 22.12.2019
1963 Clear 14 1023 25 16093 2.6 10 23:40 21.12.2019
1964 Clouds 13 1021 8 32767 2.6 130 23:21 21.12.2019
1965 Clear 13 1022 20 16093 2.6 30 22:47 21.12.2019
1966 Clouds 13 1021 6 16093 2.6 240 22:20 21.12.2019
1967 Clouds 14 1021 6 16093 2.6 240 21:58 21.12.2019
1968 Clear 16 1022 12 16093 1.5 30 21:40 21.12.2019
1969 Clear 16 1021 13 16093 2.26 206 21:21 21.12.2019
1970 Clouds 15 1022 7 16093 3.1 250 20:59 21.12.2019
1971 Clear 15 1023 22 16093 2.26 206 20:41 21.12.2019
1972 Clouds 11 1022 8 16093 3.1 240 20:22 21.12.2019
1973 Clouds 10 1022 15 16093 3.7 210 19:59 21.12.2019
1974 Clouds 10 1022 15 16093 3.7 210 19:59 21.12.2019
1975 Clear 10 1024 24 16093 3.7 210 19:40 21.12.2019
1976 Clear 8 1023 34 16093 3.7 210 19:20 21.12.2019
1977 Clouds 9 1024 8 16093 3.6 220 18:56 21.12.2019
1978 Clear 10 1025 35 16093 3.7 210 18:38 21.12.2019
1979 Clouds 9 1024 13 16093 2.1 180 18:20 21.12.2019
1980 Clouds 8 1024 13 16093 2.1 180 17:55 21.12.2019
1981 Clouds 8 1024 13 16093 2.1 180 17:55 21.12.2019
1982 Clear 7 1026 59 16093 3.7 210 17:55 21.12.2019
1983 Clear 7 1026 59 16093 3.7 210 17:37 21.12.2019
1984 Clouds 3 1024 35 16093 2.6 150 17:18 21.12.2019
1985 Clouds 3 1024 35 16093 2.6 150 17:18 21.12.2019
1986 Clear 2 1026 68 16093 4.87 212 16:41 21.12.2019
1987 Clear 0 1025 79 16093 4.87 212 16:19 21.12.2019
1988 Clear 0 1025 79 16093 4.87 212 16:19 21.12.2019
1989 Clouds -1 1024 31 16093 3.6 170 15:58 21.12.2019
1990 Clear -2 1025 79 16093 1.5 130 15:39 21.12.2019
1991 Clear -2 1024 73 11265 4.87 212 15:20 21.12.2019
1992 Clouds -1 1024 30 16093 3.1 180 14:57 21.12.2019
1993 Clear -2 1030 48 0 10.3 310 14:39 21.12.2019
1994 Clear -2 1030 48 0 10.3 310 14:39 21.12.2019
1995 Clouds -2 1024 45 16093 4.49 219 14:20 21.12.2019
1996 Clouds -2 1024 45 16093 4.49 219 13:56 21.12.2019
1997 Clear -2 1025 85 16093 4.49 219 13:38 21.12.2019
1998 Clouds -2 1024 49 16093 2.6 150 13:18 21.12.2019
1999 Clouds -1 1024 49 16093 2.6 150 12:55 21.12.2019
2000 Clear -2 1025 85 16093 1.5 210 12:37 21.12.2019
2001 Clouds -2 1024 46 16093 2.1 170 12:18 21.12.2019
2002 Clear -1 1026 85 16093 1.5 60 11:44 21.12.2019
2003 Clear -1 1024 32 16093 3.1 250 11:26 21.12.2019
2004 Clear -1 1024 32 16093 3.6 270 10:57 21.12.2019
2005 Clear -1 1024 32 16093 3.6 270 10:57 21.12.2019
2006 Clear -1 1026 85 16093 1.5 130 10:38 21.12.2019
2007 Clear -1 1024 43 16093 2.1 160 10:20 21.12.2019
2008 Clear -1 1025 85 16093 1.5 200 09:44 21.12.2019
2009 Clear -1 1024 40 16093 1.5 170 09:22 21.12.2019
2010 Clear -1 1024 40 16093 4.1 260 08:59 21.12.2019
2011 Clear -1 1026 85 16093 4.3 218 08:39 21.12.2019
2012 Clear -1 1025 73 16093 3.91 217 08:21 21.12.2019
2013 Clear -1 1026 85 16093 3.91 217 07:44 21.12.2019
2014 Clear -1 1024 48 16093 2.1 350 07:22 21.12.2019
2015 Clear 0 1026 85 16093 3.91 217 06:45 21.12.2019
2016 Clear -1 1024 48 16093 3.91 217 06:26 21.12.2019
2017 Clouds 0 1025 34 16093 3.6 200 05:51 21.12.2019
2018 Clouds 0 1025 34 16093 2.1 190 04:58 21.12.2019
2019 Clouds 1 1024 34 16093 3.1 230 03:57 21.12.2019
2020 Clear 1 1026 56 16093 3.59 226 03:18 21.12.2019
2021 Clouds 3 1024 27 16093 2.6 190 01:59 21.12.2019
2022 Clouds 4 1023 24 16093 3.1 140 01:28 21.12.2019
2023 Clouds 6 1023 20 16093 1.5 120 00:55 21.12.2019
2024 Clear 6 1025 44 16093 2.32 206 00:37 21.12.2019
2025 Clear 6 1025 44 16093 2.32 206 00:18 21.12.2019
2026 Clear 9 1024 39 16093 2.1 350 23:38 20.12.2019
2027 Clouds 9 1023 12 16093 2.6 110 23:19 20.12.2019
2028 Clear 9 1024 31 16093 3.1 360 22:41 20.12.2019
2029 Clear 10 1023 22 16093 1.5 350 22:21 20.12.2019
2030 Clouds 10 1022 12 16093 2.1 190 21:59 20.12.2019
2031 Clear 11 1023 13 16093 1.5 220 21:40 20.12.2019
2032 Clear 10 1021 29 16093 2.1 350 21:20 20.12.2019
2033 Clear 10 1022 21 16093 1.65 193 21:20 20.12.2019
2034 Clear 10 1024 14 16093 2.6 180 20:41 20.12.2019
2035 Clear 8 1022 31 16093 1.5 50 20:21 20.12.2019
2036 Clouds 8 1023 18 16093 4.1 180 19:59 20.12.2019
2037 Clear 7 1025 16 16093 2.1 200 19:40 20.12.2019
2038 Clear 7 1024 26 16093 1.5 130 19:20 20.12.2019
2039 Clouds 6 1024 19 16093 4.1 200 18:55 20.12.2019
2040 Clouds 6 1024 19 16093 4.1 200 18:55 20.12.2019
2041 Clouds 6 1024 19 16093 4.1 200 18:55 20.12.2019
2042 Clear 5 1024 38 16093 1.5 60 18:36 20.12.2019
2043 Clear 5 1024 38 16093 1.5 60 18:36 20.12.2019
2044 Clouds 4 1024 24 16093 3.6 200 18:18 20.12.2019
2045 Clear 2 1025 59 16093 3.57 208 17:42 20.12.2019
2046 Clear 2 1025 59 16093 3.57 208 17:42 20.12.2019
2047 Clear 1 1025 59 16093 3.69 215 17:21 20.12.2019
2048 Clear -1 1025 68 16093 3.69 215 16:59 20.12.2019
2049 Clear -2 1023 39 16093 3.69 215 16:40 20.12.2019
2050 Clear -3 1025 73 16093 3.69 215 16:20 20.12.2019
2051 Clear -3 1025 73 16093 3.69 215 16:20 20.12.2019
2052 Clear -4 1024 78 16093 3.69 215 15:57 20.12.2019
2053 Clear -4 1024 78 16093 3.69 215 15:39 20.12.2019
2054 Clear -5 1024 78 16093 3.69 215 15:19 20.12.2019
2055 Clear -5 1024 78 16093 1.5 220 14:57 20.12.2019
2056 Clear -5 1023 67 16093 3.69 215 14:39 20.12.2019
2057 Clear -5 1024 78 16093 3.88 214 14:20 20.12.2019
2058 Clear -5 1022 67 16093 4.1 210 13:41 20.12.2019
2059 Clear -5 1023 85 16093 3.88 214 13:21 20.12.2019
2060 Clear -5 1023 79 16093 1.5 210 12:59 20.12.2019
2061 Clear -5 1023 79 16093 1.5 210 12:40 20.12.2019
2062 Clear -5 1023 85 16093 2.1 200 12:19 20.12.2019
2063 Clear -5 1023 85 16093 1.5 200 11:59 20.12.2019
2064 Clear -5 1021 42 16093 2.6 270 11:39 20.12.2019
2065 Clear -5 1023 85 16093 3.01 220 11:20 20.12.2019
2066 Clear -5 1023 85 16093 1.5 220 10:58 20.12.2019
2067 Clear -5 1021 67 16093 3.1 210 10:40 20.12.2019
2068 Clear -5 1021 53 16093 3.1 200 10:20 20.12.2019
2069 Clear -5 1022 85 16093 3.01 220 09:55 20.12.2019
2070 Clear -5 1021 73 16093 4.6 190 09:37 20.12.2019
2071 Clear -5 1022 79 16093 1.5 250 09:19 20.12.2019
2072 Clear -4 1020 73 16093 3.6 180 08:42 20.12.2019
2073 Clear -4 1022 85 16093 1.63 225 08:22 20.12.2019
2074 Clear -4 1022 85 16093 1.5 220 07:58 20.12.2019
2075 Clear -4 1020 68 16093 1.5 190 07:40 20.12.2019
2076 Clear -3 1022 79 16093 1.63 225 07:19 20.12.2019
2077 Clear -3 1022 79 16093 1.63 225 07:19 20.12.2019
2078 Clear -3 1020 58 16093 3.1 180 06:50 20.12.2019
2079 Clear -3 1021 79 16093 1.63 225 06:31 20.12.2019
2080 Clear -3 1020 73 16093 1.63 225 05:52 20.12.2019
2081 Clear -2 1019 73 16093 3.1 150 05:34 20.12.2019
2082 Clear -1 1019 54 16093 2.1 220 03:57 20.12.2019
2083 Clear 0 1019 63 16093 2.29 241 03:29 20.12.2019
2084 Clear 0 1018 37 16093 2.29 241 02:41 20.12.2019
2085 Clear 2 1015 40 16093 1.5 310 01:44 20.12.2019
2086 Clear 2 1015 40 16093 1.5 310 01:44 20.12.2019
2087 Clear 2 1017 34 16093 1.88 206 01:18 20.12.2019
2088 Clear 3 1017 32 16093 1.88 206 00:41 20.12.2019
2089 Clear 3 1016 30 16093 1.5 110 00:19 20.12.2019
2090 Clear 4 1014 30 16093 3.1 30 23:42 19.12.2019
2091 Clear 6 1016 28 16093 2.6 120 23:23 19.12.2019
2092 Clear 6 1015 20 16093 3.6 120 22:56 19.12.2019
2093 Clear 6 1014 20 16093 3.1 130 22:36 19.12.2019
2094 Clear 7 1014 20 16093 3.1 130 22:18 19.12.2019
2095 Clear 7 1014 18 16093 3.1 110 21:42 19.12.2019
2096 Clear 7 1014 18 16093 3.1 110 21:42 19.12.2019
2097 Clear 7 1014 19 16093 3.1 130 21:20 19.12.2019
2098 Clear 7 1014 17 16093 3.6 130 20:59 19.12.2019
2099 Clear 7 1014 16 16093 1.5 120 20:39 19.12.2019
2100 Clear 6 1014 16 16093 1.5 120 20:21 19.12.2019
2101 Clear 6 1015 26 16093 1.5 200 19:59 19.12.2019
2102 Clear 6 1015 30 16093 0.15 55 19:40 19.12.2019
2103 Clear 5 1015 30 16093 0.15 55 19:20 19.12.2019
2104 Clear 5 1016 35 16093 0.15 55 19:00 19.12.2019
2105 Clear 5 1016 35 16093 0.15 55 18:41 19.12.2019
2106 Clear 4 1015 37 16093 0.15 55 18:20 19.12.2019
2107 Clear 3 1015 55 16093 0.15 55 17:57 19.12.2019
2108 Clear 3 1015 68 16093 0.15 55 17:38 19.12.2019
2109 Clear 3 1014 43 16093 1.5 320 17:38 19.12.2019
2110 Clear 3 1014 43 16093 1.5 320 17:38 19.12.2019
2111 Clear 1 1015 68 16093 4.62 216 17:19 19.12.2019
2112 Clear 0 1015 85 16093 4.62 216 16:57 19.12.2019
2113 Clear 0 1013 31 16093 3.1 50 16:38 19.12.2019
2114 Clear -1 1015 85 16093 1.5 10 16:20 19.12.2019
2115 Clear -1 1015 85 16093 1.5 10 16:20 19.12.2019
2116 Clear -1 1015 85 16093 1.5 10 16:20 19.12.2019
2117 Clear -1 1015 79 16093 1.5 160 15:58 19.12.2019
2118 Clear -1 1015 79 16093 4.62 216 15:38 19.12.2019
2119 Clear -1 1015 79 16093 4.62 216 15:19 19.12.2019
2120 Clear -1 1014 85 16093 4.62 216 14:57 19.12.2019
2121 Clear -1 1012 54 16093 4.62 216 14:39 19.12.2019
2122 Clouds -1 1012 36 32767 2.1 280 14:18 19.12.2019
2123 Clear -2 1012 50 16093 5.1 211 13:39 19.12.2019
2124 Clear -1 1014 85 16093 5.27 210 13:20 19.12.2019
2125 Clear -1 1015 79 16093 5.27 210 12:59 19.12.2019
2126 Clear -2 1013 34 16093 1.5 290 12:40 19.12.2019
2127 Clear -1 1015 85 16093 5.27 210 12:19 19.12.2019
2128 Clear -1 1015 85 16093 5.27 210 12:19 19.12.2019
2129 Clear -1 1015 85 16093 5.27 210 12:19 19.12.2019
2130 Clear -1 1015 73 16093 5.27 210 11:59 19.12.2019
2131 Clear -2 1015 73 16093 5.27 210 11:41 19.12.2019
2132 Clear -1 1015 73 16093 4.63 214 11:19 19.12.2019
2133 Clear -1 1016 85 16093 4.63 214 10:59 19.12.2019
2134 Clear -1 1014 31 16093 4.63 214 10:38 19.12.2019
2135 Clear -2 1014 32 16093 6.2 210 10:38 19.12.2019
2136 Clear -1 1016 85 16093 4.63 214 10:20 19.12.2019
2137 Clear -1 1016 85 16093 4.63 214 10:20 19.12.2019
2138 Clear -1 1016 85 16093 4.63 214 09:57 19.12.2019
2139 Clear -1 1014 37 16093 5.7 180 09:37 19.12.2019
2140 Clear -1 1016 73 16093 4.63 214 09:19 19.12.2019
2141 Clear -1 1017 79 16093 4.63 214 08:55 19.12.2019
2142 Clear -1 1015 32 16093 6.7 180 08:37 19.12.2019
2143 Clear -1 1017 79 16093 3.96 211 08:18 19.12.2019
2144 Clear -1 1018 79 16093 3.96 211 07:43 19.12.2019
2145 Clear -1 1018 85 16093 3.96 211 07:24 19.12.2019
2146 Clear -1 1019 79 16093 3.96 211 06:59 19.12.2019
2147 Clear -1 1017 31 16093 3.96 211 06:41 19.12.2019
2148 Clear -1 1019 73 16093 3.96 211 06:21 19.12.2019
2149 Clear -1 1018 34 16093 3.96 211 05:42 19.12.2019
2150 Clear -1 1020 68 16093 3.44 218 05:19 19.12.2019
2151 Clear 0 1020 73 16093 3.44 218 03:53 19.12.2019
2152 Clear 1 1021 63 16093 3.44 218 02:28 19.12.2019
2153 Clear 3 1021 50 16093 2.7 207 01:25 19.12.2019
2154 Clear 4 1021 32 16093 2.7 207 00:57 19.12.2019
2155 Clear 5 1020 38 16093 2.7 207 00:38 19.12.2019
2156 Clear 6 1021 28 16093 2.7 207 00:19 19.12.2019
2157 Clear 10 1021 23 16093 2.1 20 23:44 18.12.2019
2158 Clear 9 1021 23 16093 2.1 20 23:19 18.12.2019
2159 Clear 10 1020 21 16093 1.5 30 22:57 18.12.2019
2160 Clear 10 1020 23 16093 1.5 20 22:39 18.12.2019
2161 Clear 10 1020 23 16093 1.5 20 22:21 18.12.2019
2162 Clear 10 1021 23 16093 1.43 194 21:58 18.12.2019
2163 Clear 12 1019 23 16093 1.5 20 21:40 18.12.2019
2164 Clear 12 1021 23 16093 2.1 20 21:20 18.12.2019
2165 Clear 12 1021 23 16093 2.1 20 21:20 18.12.2019
2166 Clear 11 1021 18 16093 1.43 194 20:57 18.12.2019
2167 Clear 11 1021 19 16093 1.43 194 20:38 18.12.2019
2168 Clouds 9 1020 10 16093 3.1 230 20:20 18.12.2019
2169 Clear 8 1022 22 16093 3.63 204 19:56 18.12.2019
2170 Clear 8 1022 26 16093 3.63 204 19:38 18.12.2019
2171 Clear 8 1022 26 16093 3.63 204 19:38 18.12.2019
2172 Clear 7 1022 26 16093 3.63 204 19:18 18.12.2019
2173 Clouds 7 1021 16 16093 4.6 210 18:54 18.12.2019
2174 Clouds 7 1021 16 16093 4.6 210 18:36 18.12.2019
2175 Clouds 6 1021 16 16093 4.6 210 18:18 18.12.2019
2176 Clear 4 1023 47 16093 3.63 204 17:55 18.12.2019
2177 Clear 4 1023 41 16093 3.63 204 17:37 18.12.2019
2178 Clear 2 1023 50 16093 5.47 213 17:18 18.12.2019
2179 Clear -1 1022 73 16093 5.47 213 16:42 18.12.2019
2180 Clear -2 1021 73 16093 5.47 213 16:23 18.12.2019
2181 Clouds -3 1021 33 16093 1.5 210 15:57 18.12.2019
2182 Clear -4 1022 85 16093 1.5 190 15:39 18.12.2019
2183 Clear -4 1021 72 16093 1.5 140 15:21 18.12.2019
2184 Clear -4 1021 30 16093 3.1 180 14:56 18.12.2019
2185 Clear -4 1022 78 16093 5.47 213 14:36 18.12.2019
2186 Clear -4 1021 52 16093 4.6 210 14:18 18.12.2019
2187 Clear -4 1021 52 16093 4.6 210 13:54 18.12.2019
2188 Clear -4 1020 53 16093 4.1 330 13:36 18.12.2019
2189 Clear -4 1021 52 16093 5.7 220 13:18 18.12.2019
2190 Clear -4 1022 85 16093 2.6 200 12:40 18.12.2019
2191 Clear -4 1022 85 16093 2.6 200 12:40 18.12.2019
2192 Clear -4 1021 49 16093 1.5 170 12:21 18.12.2019
2193 Clear -4 1021 49 16093 1.5 170 11:57 18.12.2019
2194 Clear -4 1023 78 16093 1.5 190 11:39 18.12.2019
2195 Clear -4 1022 53 16093 4.6 180 11:20 18.12.2019
2196 Clear -4 1022 53 16093 4.6 180 10:57 18.12.2019
2197 Clear -4 1024 85 16093 3.1 230 10:39 18.12.2019
2198 Clear -4 1021 55 16093 4.6 220 10:20 18.12.2019
2199 Clear -4 1021 55 16093 4.6 220 10:20 18.12.2019
2200 Clear -4 1021 55 16093 4.6 220 09:57 18.12.2019
2201 Clear -4 1022 42 16093 4.1 210 09:19 18.12.2019
2202 Clear -4 1023 78 16093 1.5 200 08:42 18.12.2019
2203 Clear -4 1022 50 16093 2.6 180 08:24 18.12.2019
2204 Clear -4 1022 50 16093 2.6 180 07:56 18.12.2019
2205 Clear -4 1022 50 16093 2.6 180 07:56 18.12.2019
2206 Clear -4 1025 85 16093 2.1 210 07:38 18.12.2019
2207 Clear -4 1025 85 16093 5.1 209 07:19 18.12.2019
2208 Clear -4 1023 46 16093 4.6 200 06:50 18.12.2019
2209 Clear -3 1023 46 16093 5.7 190 06:22 18.12.2019
2210 Clear -3 1023 50 16093 3.6 260 05:34 18.12.2019
2211 Clear -3 1026 79 16093 3.55 218 03:46 18.12.2019
2212 Clear -2 1026 68 16093 1.5 230 02:44 18.12.2019
2213 Clear -2 1024 58 16093 3.55 218 02:26 18.12.2019
2214 Clear -1 1027 54 16093 1.43 202 01:43 18.12.2019
2215 Clouds -1 1025 39 16093 5.7 140 01:24 18.12.2019
2216 Clear 1 1027 43 16093 1.5 280 00:42 18.12.2019
2217 Clouds 2 1024 18 16093 1.26 201 00:24 18.12.2019
2218 Clouds 3 1024 18 16093 1.26 201 23:58 17.12.2019
2219 Clear 4 1027 18 16093 3.1 100 23:39 17.12.2019
2220 Clouds 5 1024 16 16093 1.5 50 23:20 17.12.2019
2221 Clouds 5 1024 16 16093 1.5 50 22:56 17.12.2019
2222 Clear 5 1026 17 16093 1.5 110 22:38 17.12.2019
2223 Clear 5 1025 30 16093 0.59 23 22:19 17.12.2019
2224 Clouds 5 1024 16 16093 2.1 0 21:56 17.12.2019
2225 Clouds 5 1024 16 16093 2.1 0 21:56 17.12.2019
2226 Clear 5 1026 20 16093 4.6 50 21:56 17.12.2019
2227 Clouds 5 1024 28 16093 6.2 340 21:38 17.12.2019
2228 Clear 5 1025 32 16093 1.5 20 21:19 17.12.2019
2229 Clouds 4 1024 17 16093 2.1 90 20:57 17.12.2019
2230 Clouds 4 1026 35 16093 4.1 340 20:38 17.12.2019
2231 Clouds 2 1024 18 16093 2.1 110 20:18 17.12.2019
2232 Clouds 2 1024 18 16093 2.1 110 19:56 17.12.2019
2233 Clear 2 1026 20 16093 3.6 360 19:38 17.12.2019
2234 Clouds 1 1025 25 16093 2.6 150 19:18 17.12.2019
2235 Clouds 0 1025 17 16093 3.1 240 18:55 17.12.2019
2236 Clouds 0 1026 25 16093 2.6 160 18:36 17.12.2019
2237 Clouds -1 1025 22 16093 4.6 230 18:18 17.12.2019
2238 Clouds -3 1027 42 16093 4.07 207 17:42 17.12.2019
2239 Clouds -3 1027 42 16093 4.07 207 17:42 17.12.2019
2240 Clouds -4 1025 25 16093 5.1 240 17:21 17.12.2019
2241 Clouds -5 1025 25 16093 5.1 240 16:57 17.12.2019
2242 Clear -6 1027 48 16093 5.31 218 16:38 17.12.2019
2243 Clouds -7 1024 32 16093 3.1 210 16:19 17.12.2019
2244 Clouds -8 1024 32 16093 3.1 210 15:58 17.12.2019
2245 Clear -9 1026 57 16093 5.31 218 15:37 17.12.2019
2246 Clear -9 1024 40 16093 2.1 210 15:19 17.12.2019
2247 Clear -9 1024 40 16093 2.1 210 14:56 17.12.2019
2248 Clear -9 1025 41 16093 5.31 218 14:37 17.12.2019
2249 Clear -9 1024 66 16093 1.5 280 14:18 17.12.2019
2250 Clear -9 1024 66 16093 1.5 280 14:18 17.12.2019
2251 Clear -9 1024 66 16093 1.5 280 14:18 17.12.2019
2252 Clear -10 1023 37 16093 5.7 220 13:56 17.12.2019
2253 Clear -10 1025 44 16093 2.6 200 13:37 17.12.2019
2254 Clear -10 1023 40 16093 5.1 230 13:18 17.12.2019
2255 Clear -10 1023 40 16093 5.1 230 12:55 17.12.2019
2256 Clear -10 1025 57 16093 2.1 190 12:37 17.12.2019
2257 Clear -10 1024 61 16093 4.1 200 12:18 17.12.2019
2258 Clear -10 1024 40 16093 5.1 240 11:54 17.12.2019
2259 Clear -10 1025 61 16093 3.6 200 11:36 17.12.2019
2260 Clear -10 1024 40 16093 4.6 240 11:18 17.12.2019
2261 Clear -10 1027 78 16093 4.47 222 10:54 17.12.2019
2262 Clear -10 1025 44 16093 1.5 210 10:36 17.12.2019
2263 Clear -10 1025 66 16093 3.6 190 10:18 17.12.2019
2264 Clear -10 1027 78 16093 4.47 222 09:42 17.12.2019
2265 Clear -10 1024 35 16093 6.2 300 09:21 17.12.2019
2266 Clear -10 1026 61 16093 4.47 222 09:21 17.12.2019
2267 Clear -10 1024 35 16093 6.2 300 08:56 17.12.2019
2268 Clear -10 1027 85 16093 4.47 222 08:38 17.12.2019
2269 Clear -10 1027 85 16093 4.47 222 08:38 17.12.2019
2270 Clear -10 1027 85 16093 4.47 222 08:38 17.12.2019
2271 Clear -10 1027 85 16093 4.47 222 08:38 17.12.2019
2272 Clear -10 1024 48 16093 4.6 230 08:20 17.12.2019
2273 Clear -9 1024 48 16093 4.6 230 07:55 17.12.2019
2274 Clear -10 1026 66 16093 1.5 320 07:36 17.12.2019
2275 Clear -9 1024 52 16093 3.6 200 07:18 17.12.2019
2276 Clear -9 1024 31 16093 3.6 240 06:35 17.12.2019
2277 Clear -8 1024 61 16093 3.1 210 05:56 17.12.2019
2278 Clear -8 1024 35 16093 5.1 290 05:36 17.12.2019
2279 Clear -7 1024 30 16093 2.1 250 04:33 17.12.2019
2280 Clear -6 1025 53 16093 2.31 219 02:45 17.12.2019
2281 Clear -5 1025 49 16093 1.26 49 01:56 17.12.2019
2282 Clouds -4 1022 38 16093 3.6 50 01:18 17.12.2019
2283 Clear -3 1022 33 16093 1.25 14 00:38 17.12.2019
2284 Clear -3 1022 33 16093 1.25 14 00:38 17.12.2019
2285 Clear -3 1024 36 16093 1.5 80 00:38 17.12.2019
2286 Clear -3 1024 36 16093 1.5 80 00:38 17.12.2019
2287 Clouds -3 1021 38 16093 4.1 50 00:20 17.12.2019
2288 Clear -2 1023 55 16093 2.6 50 23:42 16.12.2019
2289 Clouds -1 1021 33 16093 3.6 20 23:19 16.12.2019
2290 Clouds -1 1021 33 16093 3.6 20 22:58 16.12.2019
2291 Clear -1 1022 29 16093 3.6 40 22:37 16.12.2019
2292 Clouds -1 1020 33 16093 2.6 350 22:19 16.12.2019
2293 Clouds -1 1020 33 16093 2.6 350 22:19 16.12.2019
2294 Clouds -1 1020 33 16093 2.6 350 21:56 16.12.2019
2295 Clear -1 1022 29 16093 1.92 41 21:37 16.12.2019
2296 Clear -1 1022 29 16093 1.5 20 21:19 16.12.2019
2297 Clouds -1 1020 46 16093 2.1 120 20:57 16.12.2019
2298 Clear -1 1022 29 16093 2.6 20 20:37 16.12.2019
2299 Clear -2 1021 32 16093 1.5 60 20:19 16.12.2019
2300 Clouds -2 1020 50 16093 1.93 6 19:56 16.12.2019
2301 Clear -2 1023 58 16093 1.93 6 19:37 16.12.2019
2302 Clouds -3 1020 73 16093 2.6 220 19:18 16.12.2019
2303 Clouds -3 1020 73 16093 2.6 220 18:56 16.12.2019
2304 Clear -3 1023 58 16093 1.5 150 18:38 16.12.2019
2305 Snow -4 1021 79 4828 1.5 270 18:38 16.12.2019
2306 Clouds -4 1021 73 16093 1.93 6 18:19 16.12.2019
2307 Clouds -4 1021 73 16093 1.93 6 17:57 16.12.2019
2308 Clear -5 1023 58 16093 2.1 210 17:38 16.12.2019
2309 Snow -5 1020 73 16093 2.1 10 17:19 16.12.2019
2310 Clouds -5 1020 73 16093 1.99 19 16:55 16.12.2019
2311 Clear -6 1022 79 16093 1.5 170 16:37 16.12.2019
2312 Clear -6 1021 79 11265 1.99 19 16:19 16.12.2019
2313 Clouds -6 1019 79 16093 1.99 19 15:57 16.12.2019
2314 Clouds -6 1021 79 16093 1.99 19 15:38 16.12.2019
2315 Clouds -6 1018 79 16093 1.5 290 15:20 16.12.2019
2316 Clouds -6 1018 79 16093 1.5 290 14:55 16.12.2019
2317 Clouds -6 1020 79 16093 1.99 19 14:36 16.12.2019
2318 Snow -6 1017 79 9656 2.6 230 14:18 16.12.2019
2319 Snow -6 1017 79 9656 2.6 230 13:55 16.12.2019
2320 Clouds -6 1020 85 16093 1.5 360 13:37 16.12.2019
2321 Rain -6 1016 85 16093 2.6 260 13:19 16.12.2019
2322 Clouds -6 1016 73 16093 2.1 260 12:56 16.12.2019
2323 Clouds -5 1019 85 16093 2.71 340 12:38 16.12.2019
2324 Clouds -5 1016 79 16093 2.6 230 12:18 16.12.2019
2325 Clouds -5 1016 79 16093 2.6 230 12:18 16.12.2019
2326 Clouds -5 1015 73 16093 2.71 340 11:55 16.12.2019
2327 Clouds -5 1018 79 16093 2.71 340 11:37 16.12.2019
2328 Clouds -5 1016 85 16093 2.1 200 11:19 16.12.2019
2329 Clouds -5 1018 85 16093 0.71 271 10:40 16.12.2019
2330 Clouds -5 1018 85 16093 0.71 271 10:40 16.12.2019
2331 Clouds -5 1018 85 16093 0.71 271 10:40 16.12.2019
2332 Rain -5 1014 73 16093 2.1 160 10:22 16.12.2019
2333 Clouds -5 1014 73 16093 2.1 160 09:59 16.12.2019
2334 Clouds -5 1017 85 16093 1.5 360 09:41 16.12.2019
2335 Rain -5 1014 73 16093 2.1 180 09:23 16.12.2019
2336 Clouds -5 1016 85 16093 2.1 10 08:40 16.12.2019
2337 Clouds -5 1014 79 16093 1.5 210 08:19 16.12.2019
2338 Clouds -5 1014 79 16093 1.5 210 08:19 16.12.2019
2339 Clouds -5 1013 73 16093 2.1 180 07:52 16.12.2019
2340 Clouds -5 1014 68 16093 2.1 170 07:31 16.12.2019
2341 Clouds -5 1013 68 16093 1.97 189 06:52 16.12.2019
2342 Clouds -5 1013 73 16093 1.97 189 06:27 16.12.2019
2343 Clouds -5 1013 73 16093 1.97 189 05:59 16.12.2019
2344 Clouds -5 1015 63 16093 2.1 120 05:40 16.12.2019
2345 Clouds -5 1013 73 16093 2.6 130 05:22 16.12.2019
2346 Clouds -4 1012 73 16093 1.87 133 02:59 16.12.2019
2347 Clouds -3 1015 50 16093 2.6 120 01:46 16.12.2019
2348 Clouds -3 1011 63 16093 3.1 200 00:56 16.12.2019
2349 Clouds -3 1014 46 16093 2.6 110 00:38 16.12.2019
2350 Rain -3 1012 58 16093 1.5 100 00:19 16.12.2019
2351 Rain -3 1013 54 16093 1.5 100 23:43 15.12.2019
2352 Rain -2 1011 54 16093 2.6 70 23:25 15.12.2019
2353 Clouds -2 1011 54 16093 2.6 70 22:57 15.12.2019
2354 Clouds -2 1013 46 16093 2.6 100 22:38 15.12.2019
2355 Snow -2 1010 50 16093 2.6 50 22:19 15.12.2019
2356 Snow -1 1010 50 16093 2.6 50 21:58 15.12.2019
2357 Clear -1 1013 46 16093 1.5 140 21:38 15.12.2019
2358 Clear -2 1011 51 16093 2.6 140 21:20 15.12.2019
2359 Snow -1 1010 50 16093 2.1 40 20:58 15.12.2019
2360 Clear -1 1013 46 16093 2.1 150 20:39 15.12.2019
2361 Clear -1 1013 46 16093 2.1 150 20:39 15.12.2019
2362 Snow -2 1011 50 16093 1.5 0 20:21 15.12.2019
2363 Snow -2 1011 50 16093 1.5 0 19:58 15.12.2019
2364 Clear -2 1013 37 16093 1.5 170 19:40 15.12.2019
2365 Rain -2 1012 58 16093 2.6 50 19:19 15.12.2019
2366 Rain -2 1012 58 16093 2.6 50 18:57 15.12.2019
2367 Clear -3 1014 80 16093 1.5 170 18:38 15.12.2019
2368 Clouds -3 1012 68 16093 1.5 100 18:18 15.12.2019
2369 Clouds -4 1012 63 16093 1.5 0 17:56 15.12.2019
2370 Clear -4 1013 86 11265 2.91 99 17:56 15.12.2019
2371 Clouds -4 1011 79 16093 2.91 99 17:37 15.12.2019
2372 Clouds -5 1012 68 16093 2.19 114 17:19 15.12.2019
2373 Clouds -5 1012 68 16093 2.83 81 16:57 15.12.2019
2374 Clouds -5 1012 68 16093 2.83 81 16:57 15.12.2019
2375 Clouds -6 1004 48 0 5.1 320 16:39 15.12.2019
2376 Clouds -6 1011 62 16093 1.5 30 16:20 15.12.2019
2377 Clouds -6 1011 62 16093 1.5 30 15:55 15.12.2019
2378 Clear -6 1011 92 16093 2.19 114 15:37 15.12.2019
2379 Clouds -6 1010 62 16093 2.83 81 15:18 15.12.2019
2380 Clouds -6 1010 62 16093 2.83 81 14:55 15.12.2019
2381 Clouds -6 1010 62 16093 2.83 81 14:55 15.12.2019
2382 Clear -6 1010 100 11265 2.19 114 14:36 15.12.2019
2383 Clouds -6 1009 73 16093 2.1 60 14:18 15.12.2019
2384 Clouds -6 1009 73 16093 2.1 60 13:55 15.12.2019
2385 Mist -6 1009 100 4828 1.85 24 13:36 15.12.2019
2386 Clouds -6 1009 100 16093 2.6 120 13:18 15.12.2019
2387 Clouds -6 1009 100 16093 2.6 120 12:55 15.12.2019
2388 Fog -6 1008 92 0 1.85 24 12:37 15.12.2019
2389 Fog -6 1008 92 0 1.85 24 12:37 15.12.2019
2390 Fog -6 1008 92 0 1.85 24 12:19 15.12.2019
2391 Fog -6 1011 100 402 1.5 140 11:38 15.12.2019
2392 Clouds -5 1008 92 16093 1.5 170 11:20 15.12.2019
2393 Clouds -6 1008 92 16093 1.5 170 10:58 15.12.2019
2394 Fog -6 1010 92 402 0.69 5 10:40 15.12.2019
2395 Clouds -5 1007 92 16093 1.5 50 10:19 15.12.2019
2396 Clouds -5 1007 92 16093 1.5 50 09:58 15.12.2019
2397 Fog -5 1009 92 402 1.5 20 09:37 15.12.2019
2398 Clear -5 1006 92 16093 2.1 250 09:19 15.12.2019
2399 Clear -5 1006 92 16093 2.1 250 08:55 15.12.2019
2400 Fog -4 1006 100 0 1.5 80 08:36 15.12.2019
2401 Clouds -5 1006 79 16093 2.1 220 08:18 15.12.2019
2402 Fog -5 1009 92 402 0.61 50 07:47 15.12.2019
2403 Fog -4 1006 100 0 0.61 50 07:28 15.12.2019
2404 Clouds -4 1006 92 16093 3.1 110 06:26 15.12.2019
2405 Clouds -4 1008 92 11265 0.61 50 05:49 15.12.2019
2406 Clouds -4 1005 92 16093 2.6 170 05:22 15.12.2019
2407 Clear -3 1005 100 16093 1.27 209 04:22 15.12.2019
2408 Clouds -2 1005 86 16093 2.6 180 02:55 15.12.2019
2409 Clouds -2 1007 86 16093 1.5 10 02:32 15.12.2019
2410 Clouds -2 1007 92 16093 1.41 325 01:41 15.12.2019
2411 Clouds -2 1005 74 16093 1.5 30 01:19 15.12.2019
2412 Clouds -2 1005 74 16093 1.5 30 00:51 15.12.2019
2413 Snow -1 1005 92 11265 0.25 0 00:32 15.12.2019
2414 Snow -1 1006 76 1207 1.5 230 23:54 14.12.2019
2415 Snow -1 1004 92 1207 6.2 350 23:36 14.12.2019
2416 Snow 0 1003 55 14484 6.2 20 23:18 14.12.2019
2417 Clouds 1 1007 52 16093 4.6 10 22:41 14.12.2019
2418 Snow 1 1002 51 16093 4.6 350 22:22 14.12.2019
2419 Snow 2 1002 51 16093 4.6 350 21:58 14.12.2019
2420 Clouds 2 1005 69 16093 5.1 360 21:39 14.12.2019
2421 Clouds 2 1004 74 16093 3.1 10 21:19 14.12.2019
2422 Snow 2 1002 44 16093 2.1 0 20:59 14.12.2019
2423 Clouds 2 1005 59 16093 2.6 30 20:41 14.12.2019
2424 Clouds 2 1005 64 16093 6.2 360 20:20 14.12.2019
2425 Clouds 2 1005 64 16093 6.2 360 20:20 14.12.2019
2426 Snow 2 1003 47 16093 2.6 50 19:57 14.12.2019
2427 Clouds 2 1006 64 16093 1.5 360 19:39 14.12.2019
2428 Snow 1 1005 47 16093 1.5 20 19:20 14.12.2019
2429 Snow 1 1005 47 16093 1.5 20 18:56 14.12.2019
2430 Clouds 1 1006 64 16093 2.6 360 18:38 14.12.2019
2431 Snow 1 1006 49 16093 1.5 310 18:19 14.12.2019
2432 Clouds 0 1009 49 16093 3.1 350 17:44 14.12.2019
2433 Clouds -1 1006 68 16093 3.6 270 17:24 14.12.2019
2434 Clouds -1 1006 68 16093 3.6 270 16:58 14.12.2019
2435 Clear -2 1009 74 16093 3.6 350 16:39 14.12.2019
2436 Snow -2 1007 58 16093 2.6 270 16:19 14.12.2019
2437 Clouds -2 1008 61 16093 3.1 360 16:19 14.12.2019
2438 Clear -3 1010 79 16093 1.5 280 15:43 14.12.2019
2439 Clouds -3 1007 58 16093 2.6 250 15:22 14.12.2019
2440 Clouds -3 1007 58 16093 2.6 250 14:59 14.12.2019
2441 Clouds -2 1010 68 16093 2.1 360 14:39 14.12.2019
2442 Clouds -2 1007 58 16093 3.1 260 14:20 14.12.2019
2443 Clouds -2 1007 58 16093 3.1 260 13:57 14.12.2019
2444 Clouds -2 1009 63 16093 2.1 360 13:38 14.12.2019
2445 Clouds -2 1007 65 16093 3.6 130 13:18 14.12.2019
2446 Clouds -2 1006 46 16093 4.1 200 12:54 14.12.2019
2447 Clouds -1 1010 63 16093 1.63 277 12:36 14.12.2019
2448 Clouds -1 1008 65 16093 4.6 130 12:18 14.12.2019
2449 Clouds -1 1007 65 16093 5.7 150 11:54 14.12.2019
2450 Clouds -1 1009 58 16093 1.5 30 11:36 14.12.2019
2451 Clouds -1 1009 58 16093 8.7 140 11:18 14.12.2019
2452 Clouds -1 1008 40 16093 6.7 150 10:55 14.12.2019
2453 Clouds -2 1012 68 16093 1.76 211 10:36 14.12.2019
2454 Clear -2 1012 68 16093 1.76 211 10:18 14.12.2019
2455 Clouds -2 1012 58 16093 1.12 232 09:40 14.12.2019
2456 Clear -2 1013 58 16093 1.5 170 09:20 14.12.2019
2457 Clear -2 1013 58 16093 1.5 190 08:44 14.12.2019
2458 Clouds -2 1011 56 16093 4.6 140 08:20 14.12.2019
2459 Clouds -2 1011 56 16093 4.6 140 07:55 14.12.2019
2460 Clear -2 1014 56 16093 3.6 150 07:36 14.12.2019
2461 Clear -2 1012 56 16093 3.1 170 07:18 14.12.2019
2462 Clear -2 1014 54 16093 0.89 200 06:39 14.12.2019
2463 Clear -2 1013 56 16093 2.1 210 06:18 14.12.2019
2464 Clouds -1 1013 50 16093 5.7 170 05:20 14.12.2019
2465 Clear 1 1016 37 16093 1.5 360 02:44 14.12.2019
2466 Clear 2 1014 32 16093 1.5 10 02:22 14.12.2019
2467 Clear 2 1016 34 16093 2.1 40 01:37 14.12.2019
2468 Clear 3 1016 30 16093 2.1 300 00:50 14.12.2019
2469 Clear 4 1014 30 16093 6.2 310 00:29 14.12.2019
2470 Clear 4 1014 30 16093 6.2 310 00:29 14.12.2019
2471 Clouds 4 1014 30 16093 10.3 330 23:57 13.12.2019
2472 Clouds 5 1014 30 16093 6.7 310 23:38 13.12.2019
2473 Snow 6 1015 28 16093 12.3 330 23:19 13.12.2019
2474 Clear 6 1016 22 16093 10.3 290 22:42 13.12.2019
2475 Clear 6 1015 19 16093 11.8 310 22:19 13.12.2019
2476 Snow 6 1014 24 16093 13.4 330 21:56 13.12.2019
2477 Clouds 6 1016 20 16093 8.2 280 21:38 13.12.2019
2478 Clear 6 1014 19 16093 10.8 290 21:20 13.12.2019
2479 Clouds 7 1016 19 16093 11.3 290 20:43 13.12.2019
2480 Clear 7 1014 21 16093 12.3 280 20:24 13.12.2019
2481 Clouds 7 1016 26 16093 5.1 290 19:59 13.12.2019
2482 Clear 7 1015 28 16093 11.8 290 19:41 13.12.2019
2483 Clouds 7 1014 30 16093 4.1 300 19:41 13.12.2019
2484 Clouds 7 1016 26 16093 7.2 280 19:23 13.12.2019
2485 Clear 6 1016 28 16093 7.2 300 18:59 13.12.2019
2486 Clear 6 1016 30 16093 8.7 330 18:41 13.12.2019
2487 Clear 6 1016 30 16093 8.7 330 18:19 13.12.2019
2488 Clear 6 1016 31 16093 5.7 280 17:55 13.12.2019
2489 Clear 6 1015 31 16093 6.7 280 17:37 13.12.2019
2490 Clear 3 1015 31 16093 6.7 280 17:18 13.12.2019
2491 Clear 3 1015 31 16093 6.7 280 17:18 13.12.2019
2492 Clouds 3 1015 41 16093 6.7 280 16:54 13.12.2019
2493 Clear 2 1015 48 16093 4.6 270 16:36 13.12.2019
2494 Clear 2 1015 48 16093 4.6 270 16:18 13.12.2019
2495 Snow 1 1014 48 16093 6.7 300 15:38 13.12.2019
2496 Snow 1 1014 48 16093 6.7 300 15:20 13.12.2019
2497 Clouds 0 1013 68 16093 1.52 217 14:41 13.12.2019
2498 Clear 0 1015 64 16093 4.11 215 14:21 13.12.2019
2499 Clear 0 1014 55 16093 3.6 260 13:58 13.12.2019
2500 Clear 0 1014 55 16093 3.6 260 13:58 13.12.2019
2501 Clouds 1 1013 64 16093 2.1 240 13:39 13.12.2019
2502 Clear 1 1014 55 16093 3.1 230 13:21 13.12.2019
2503 Clear 1 1012 55 16093 4.1 220 12:42 13.12.2019
2504 Clouds 1 1014 52 16093 7.2 270 12:20 13.12.2019
2505 Clear 1 1014 48 16093 3.1 130 11:57 13.12.2019
2506 Clear 1 1014 48 16093 3.1 130 11:57 13.12.2019
2507 Clear 1 1014 48 16093 2.77 223 11:39 13.12.2019
2508 Clear 2 1014 48 16093 3.86 218 11:21 13.12.2019
2509 Clear 1 1014 51 16093 3.86 218 10:43 13.12.2019
2510 Clear 1 1015 48 16093 3.86 218 10:23 13.12.2019
2511 Clear 1 1013 60 16093 3.6 250 09:59 13.12.2019
2512 Clear 1 1013 60 16093 3.6 250 09:39 13.12.2019
2513 Clear 2 1014 48 16093 5.1 270 09:18 13.12.2019
2514 Clear 2 1014 48 16093 5.1 270 09:18 13.12.2019
2515 Clear 2 1013 45 16093 5.1 340 08:41 13.12.2019
2516 Clear 2 1015 55 16093 2.6 240 08:23 13.12.2019
2517 Clear 1 1014 48 16093 9.8 270 07:46 13.12.2019
2518 Clouds 1 1015 55 16093 2.6 210 07:21 13.12.2019
2519 Clear 2 1014 45 16093 8.2 290 06:54 13.12.2019
2520 Clear 2 1016 59 16093 2.1 120 06:28 13.12.2019
2521 Clear 2 1015 52 16093 3.1 330 05:46 13.12.2019
2522 Clear 2 1016 64 16093 1.5 120 05:26 13.12.2019
2523 Clear 3 1014 48 16093 5.7 270 04:35 13.12.2019
2524 Clear 3 1016 39 16093 2.6 250 03:39 13.12.2019
2525 Clear 4 1016 36 16093 4.1 250 02:33 13.12.2019
2526 Clear 5 1015 31 16093 2.6 220 01:43 13.12.2019
2527 Clear 5 1015 36 16093 5.1 260 00:55 13.12.2019
2528 Clear 6 1015 34 16093 1.5 280 00:36 13.12.2019
2529 Clear 7 1015 31 16093 6.7 250 23:57 12.12.2019
2530 Clear 7 1016 34 16093 7.2 260 23:37 12.12.2019
2531 Clear 9 1016 34 16093 7.2 260 23:19 12.12.2019
2532 Clear 9 1015 34 16093 7.2 260 22:54 12.12.2019
2533 Clear 10 1015 34 16093 6.2 260 22:36 12.12.2019
2534 Clear 9 1013 31 16093 8.7 260 22:18 12.12.2019
2535 Clear 9 1013 31 16093 8.7 260 22:18 12.12.2019
2536 Clear 10 1015 31 16093 1.66 139 21:54 12.12.2019
2537 Clear 10 1015 37 16093 3.1 240 21:36 12.12.2019
2538 Clear 10 1015 37 16093 3.1 240 21:18 12.12.2019
2539 Clear 9 1016 39 16093 1.66 139 20:55 12.12.2019
2540 Clear 9 1017 39 16093 1.5 230 20:37 12.12.2019
2541 Clear 7 1017 39 16093 1.5 230 20:19 12.12.2019
2542 Clear 6 1016 48 16093 2.55 218 19:42 12.12.2019
2543 Clear 5 1018 51 16093 2.55 218 19:22 12.12.2019
2544 Clear 5 1019 59 16093 1.5 270 18:58 12.12.2019
2545 Clear 4 1019 64 16093 2.55 218 18:39 12.12.2019
2546 Clear 3 1019 64 16093 2.55 218 18:20 12.12.2019
2547 Clear 3 1019 38 16093 1.5 110 17:57 12.12.2019
2548 Clear 3 1019 38 16093 1.5 110 17:57 12.12.2019
2549 Clear 3 1019 38 16093 1.5 110 17:57 12.12.2019
2550 Clear 3 1019 38 16093 2.55 218 17:39 12.12.2019
2551 Clear 2 1019 53 16093 3.4 211 17:20 12.12.2019
2552 Clear 2 1019 53 16093 3.4 211 17:20 12.12.2019
2553 Clear 1 1018 74 16093 3.4 211 16:57 12.12.2019
2554 Clear 1 1018 64 11265 3.4 211 16:38 12.12.2019
2555 Clear 0 1018 74 16093 2.1 40 16:20 12.12.2019
2556 Clear 0 1018 74 16093 1.5 90 15:54 12.12.2019
2557 Clear 0 1018 74 16093 3.4 211 15:36 12.12.2019
2558 Clear 0 1018 74 16093 3.4 211 15:18 12.12.2019
2559 Clear 0 1018 59 16093 2.1 180 14:38 12.12.2019
2560 Clear 0 1018 59 16093 2.1 180 14:38 12.12.2019
2561 Clear -1 1018 59 16093 2.1 180 14:20 12.12.2019
2562 Clouds -1 1017 60 16093 1.5 20 13:57 12.12.2019
2563 Clear -1 1016 60 16093 1.5 230 13:39 12.12.2019
2564 Clear -1 1017 74 16093 2.1 200 13:21 12.12.2019
2565 Clear -1 1017 74 16093 2.6 210 12:57 12.12.2019
2566 Clear 0 1016 51 16093 3.6 170 12:39 12.12.2019
2567 Clear 0 1017 74 16093 2.6 230 12:20 12.12.2019
2568 Clear 0 1017 74 16093 3.1 340 11:56 12.12.2019
2569 Clear 0 1016 68 16093 4.1 180 11:37 12.12.2019
2570 Clear 0 1017 74 16093 1.5 30 11:19 12.12.2019
2571 Clear 0 1017 74 16093 4.06 223 10:55 12.12.2019
2572 Clear -1 1017 74 16093 4.06 223 10:37 12.12.2019
2573 Clear -1 1017 74 16093 4.06 223 10:18 12.12.2019
2574 Clear -1 1017 74 16093 4.06 223 10:18 12.12.2019
2575 Clear -1 1017 74 16093 4.06 223 10:18 12.12.2019
2576 Clear -1 1016 47 16093 2.6 250 09:41 12.12.2019
2577 Clear -1 1017 74 16093 4.06 223 09:23 12.12.2019
2578 Clear -1 1017 74 16093 4.06 223 08:56 12.12.2019
2579 Clear -1 1017 68 16093 4.19 219 08:38 12.12.2019
2580 Clear -1 1016 55 16093 3.6 230 08:38 12.12.2019
2581 Clear 0 1017 68 16093 3.49 218 08:19 12.12.2019
2582 Clear 0 1017 68 16093 3.49 218 07:42 12.12.2019
2583 Clear 0 1017 51 16093 2.6 230 07:24 12.12.2019
2584 Clear 1 1016 55 16093 4.6 280 06:48 12.12.2019
2585 Clear 1 1015 33 16093 4.6 300 06:48 12.12.2019
2586 Clear 1 1017 51 16093 2.1 110 06:30 12.12.2019
2587 Clear 1 1015 52 16093 8.2 290 05:36 12.12.2019
2588 Clouds 1 1015 35 16093 9.8 280 04:51 12.12.2019
2589 Clouds 1 1015 35 16093 9.8 280 04:51 12.12.2019
2590 Clear 1 1017 69 16093 2.6 190 03:20 12.12.2019
2591 Clear 1 1016 47 16093 2.6 340 02:37 12.12.2019
2592 Clear 2 1016 47 16093 2.6 340 02:19 12.12.2019
2593 Clear 3 1015 59 16093 3.1 340 01:37 12.12.2019
2594 Clouds 3 1013 69 16093 1.5 170 01:18 12.12.2019
2595 Clear 3 1015 60 11265 1.5 50 00:40 12.12.2019
2596 Clouds 4 1014 52 16093 3.1 30 00:19 12.12.2019
2597 Clear 4 1015 52 16093 2.6 350 23:44 11.12.2019
2598 Clear 7 1015 52 16093 0.35 317 23:20 11.12.2019
2599 Clear 7 1016 60 16093 0.35 317 22:57 11.12.2019
2600 Clear 7 1014 42 16093 0.35 317 22:38 11.12.2019
2601 Clear 7 1016 55 16093 2.1 40 22:19 11.12.2019
2602 Clear 8 1016 56 16093 3.1 330 21:57 11.12.2019
2603 Clear 8 1016 60 16093 0.35 317 21:37 11.12.2019
2604 Clear 8 1016 60 16093 0.35 317 21:37 11.12.2019
2605 Clear 8 1016 60 16093 0.35 317 21:19 11.12.2019
2606 Clear 7 1017 74 16093 0.35 317 20:56 11.12.2019
2607 Clear 7 1018 74 16093 1.5 30 20:37 11.12.2019
2608 Clear 6 1018 74 16093 1.5 30 20:19 11.12.2019
2609 Clear 6 1019 64 16093 2.1 350 19:57 11.12.2019
2610 Clear 6 1019 69 16093 3.1 360 19:38 11.12.2019
2611 Clear 6 1019 69 16093 3.1 360 19:18 11.12.2019
2612 Rain 6 1018 26 16093 2.1 120 18:40 11.12.2019
2613 Clear 6 1020 64 16093 2.64 214 18:21 11.12.2019
2614 Clear 5 1021 74 16093 2.64 214 17:57 11.12.2019
2615 Clouds 4 1020 32 16093 4.6 190 17:38 11.12.2019
2616 Clear 1 1021 86 16093 4.15 212 17:18 11.12.2019
2617 Clear 1 1021 86 11265 4.15 212 16:56 11.12.2019
2618 Clouds 0 1020 43 16093 3.6 170 16:38 11.12.2019
2619 Clear -2 1021 92 11265 4.15 212 16:19 11.12.2019
2620 Clear -2 1022 92 11265 4.15 212 15:57 11.12.2019
2621 Clear -3 1020 86 16093 4.15 212 15:38 11.12.2019
2622 Clear -3 1022 92 11265 4.15 212 15:20 11.12.2019
2623 Clear -3 1022 92 16093 4.15 212 14:55 11.12.2019
2624 Clear -3 1022 92 11265 4.15 212 14:37 11.12.2019
2625 Clear -4 1022 92 11265 3.85 214 14:18 11.12.2019
2626 Clear -4 1021 58 16093 4.1 190 13:44 11.12.2019
2627 Clear -4 1022 92 16093 3.7 212 13:24 11.12.2019
2628 Clear -4 1021 63 16093 2.6 150 12:59 11.12.2019
2629 Clear -4 1021 63 16093 2.6 150 12:59 11.12.2019
2630 Clear -4 1021 63 16093 2.6 150 12:40 11.12.2019
2631 Clear -4 1021 50 16093 3.7 212 12:22 11.12.2019
2632 Clear -4 1023 92 16093 3.7 212 11:58 11.12.2019
2633 Clear -4 1021 50 16093 1.5 260 11:39 11.12.2019
2634 Clear -4 1021 63 16093 5.1 200 11:39 11.12.2019
2635 Clear -3 1021 55 16093 1.5 260 11:19 11.12.2019
2636 Clear -4 1023 92 16093 3.66 225 10:59 11.12.2019
2637 Clear -4 1023 92 16093 1.5 190 10:40 11.12.2019
2638 Clear -4 1023 92 16093 1.5 190 10:21 11.12.2019
2639 Clear -4 1023 92 16093 1.5 190 10:21 11.12.2019
2640 Clear -3 1021 55 16093 3.66 225 09:57 11.12.2019
2641 Clear -3 1021 55 16093 3.66 225 09:38 11.12.2019
2642 Clear -3 1021 55 16093 3.66 225 09:19 11.12.2019
2643 Clear -3 1021 55 16093 3.66 225 09:19 11.12.2019
2644 Clear -3 1021 55 16093 3.66 225 08:55 11.12.2019
2645 Clear -3 1022 68 16093 4.1 190 08:36 11.12.2019
2646 Clear -3 1021 56 16093 2.6 240 08:18 11.12.2019
2647 Clear -3 1022 56 16093 2.1 140 07:43 11.12.2019
2648 Clear -3 1024 92 16093 3.46 221 07:23 11.12.2019
2649 Clear -2 1024 92 11265 3.46 221 06:46 11.12.2019
2650 Clear -2 1024 92 16093 2.1 10 06:24 11.12.2019
2651 Clear -2 1022 56 16093 3.1 240 05:54 11.12.2019
2652 Clear -2 1023 92 16093 3.46 221 05:35 11.12.2019
2653 Clear -2 1023 92 16093 1.87 222 04:51 11.12.2019
2654 Clear -2 1024 92 16093 1.87 222 03:26 11.12.2019
2655 Clear -1 1023 80 16093 1.87 222 02:35 11.12.2019
2656 Clear -1 1023 86 16093 1.5 200 01:22 11.12.2019
2657 Clear 1 1021 52 16093 1.5 290 00:38 11.12.2019
2658 Clear 1 1023 52 16093 1.17 298 00:19 11.12.2019
2659 Clear 2 1022 64 16093 1.17 298 23:44 10.12.2019
2660 Clear 3 1022 64 16093 1.76 60 23:23 10.12.2019
2661 Clear 3 1022 64 16093 1.5 350 22:56 10.12.2019
2662 Clear 3 1020 69 16093 1.76 60 22:38 10.12.2019
2663 Clear 3 1022 64 16093 1.76 60 22:20 10.12.2019
2664 Clear 3 1022 69 16093 1.5 280 21:54 10.12.2019
2665 Rain 2 1022 69 16093 2.1 270 21:36 10.12.2019
2666 Rain 2 1022 69 16093 2.1 270 21:18 10.12.2019
2667 Clear 2 1022 69 16093 1.5 320 20:55 10.12.2019
2668 Clear 2 1022 69 16093 1.5 320 20:55 10.12.2019
2669 Clear 1 1022 34 16093 1.76 60 20:36 10.12.2019
2670 Clear 1 1022 34 16093 0.91 179 20:18 10.12.2019
2671 Clouds 1 1020 34 24140 1.5 20 20:18 10.12.2019
2672 Clear 1 1021 74 16093 0.91 179 19:42 10.12.2019
2673 Clear 0 1023 34 16093 0.91 179 19:24 10.12.2019
2674 Clouds 0 1023 74 16093 0.91 179 18:56 10.12.2019
2675 Clouds -1 1023 80 16093 2.1 110 18:38 10.12.2019
2676 Clouds -1 1023 80 16093 2.1 110 18:19 10.12.2019
2677 Clouds -1 1023 86 16093 0.91 179 17:54 10.12.2019
2678 Clouds -1 1023 86 16093 0.91 179 17:54 10.12.2019
2679 Clear -2 1023 86 11265 0.91 179 17:36 10.12.2019
2680 Clear -2 1023 86 11265 2.48 219 17:18 10.12.2019
2681 Clear -4 1022 92 11265 2.48 219 16:41 10.12.2019
2682 Clear -5 1022 92 16093 2.48 219 16:19 10.12.2019
2683 Clear -6 1020 92 11265 2.6 240 15:40 10.12.2019
2684 Clear -7 1022 92 16093 2.48 219 15:19 10.12.2019
2685 Clear -7 1021 92 16093 2.48 219 14:57 10.12.2019
2686 Clear -7 1021 92 16093 2.48 219 14:38 10.12.2019
2687 Clear -7 1021 92 16093 2.44 225 14:20 10.12.2019
2688 Clear -6 1020 92 16093 2.44 225 13:58 10.12.2019
2689 Clear -6 1020 92 16093 2.44 225 13:40 10.12.2019
2690 Clear -6 1020 92 16093 2.65 219 13:20 10.12.2019
2691 Clear -6 1019 92 11265 2.65 219 12:49 10.12.2019
2692 Clear -6 1019 92 16093 2.65 219 12:28 10.12.2019
2693 Clear -6 1019 92 16093 2.65 219 11:59 10.12.2019
2694 Clear -6 1017 85 16093 2.65 219 11:40 10.12.2019
2695 Clear -5 1019 92 16093 2.54 224 11:21 10.12.2019
2696 Clear -5 1017 79 16093 1.5 10 10:43 10.12.2019
2697 Clear -5 1019 92 16093 2.54 224 10:25 10.12.2019
2698 Clear -5 1019 92 16093 2.54 224 09:57 10.12.2019
2699 Clear -4 1017 85 16093 3.1 180 09:39 10.12.2019
2700 Clear -4 1019 92 16093 2.54 224 09:20 10.12.2019
2701 Clouds -4 1016 86 16093 2.54 224 08:58 10.12.2019
2702 Clear -4 1016 79 16093 3.6 190 08:39 10.12.2019
2703 Clouds -4 1019 92 16093 1.81 222 08:21 10.12.2019
2704 Clear -4 1017 86 16093 2.6 360 07:45 10.12.2019
2705 Clear -4 1017 86 16093 2.6 360 07:45 10.12.2019
2706 Clear -4 1019 92 16093 1.81 222 07:27 10.12.2019
2707 Clear -4 1017 86 16093 2.1 340 06:56 10.12.2019
2708 Clear -4 1019 92 16093 1.81 222 06:38 10.12.2019
2709 Clear -4 1019 92 16093 1.81 222 06:19 10.12.2019
2710 Clouds -4 1017 86 32186 1.5 350 05:51 10.12.2019
2711 Clear -3 1018 85 16093 1.45 223 04:23 10.12.2019
2712 Clear -3 1018 79 16093 1.45 223 03:25 10.12.2019
2713 Clear -2 1017 74 16093 1.58 164 01:57 10.12.2019
2714 Clear -2 1015 84 16093 1.5 120 01:38 10.12.2019
2715 Clear -2 1017 74 16093 1.5 130 01:18 10.12.2019
2716 Clear 0 1017 64 16093 3.6 100 00:29 10.12.2019
2717 Rain 0 1015 64 24140 3.6 50 23:59 09.12.2019
2718 Rain 0 1015 64 24140 3.6 50 23:59 09.12.2019
2719 Rain 1 1015 64 24140 3.6 50 23:39 09.12.2019
2720 Rain 1 1017 59 16093 2.6 90 23:20 09.12.2019
2721 Clouds 1 1016 59 16093 2.1 80 22:57 09.12.2019
2722 Clouds 1 1016 64 16093 2.1 30 22:38 09.12.2019
2723 Clouds 1 1016 64 16093 2.1 30 22:38 09.12.2019
2724 Clouds 1 1016 64 16093 2.1 30 22:18 09.12.2019
2725 Clouds 2 1016 64 16093 2.6 70 21:55 09.12.2019
2726 Clouds 2 1016 59 16093 3.1 12 21:37 09.12.2019
2727 Clouds 2 1016 59 16093 3.1 12 21:18 09.12.2019
2728 Clouds 2 1016 55 16093 3.1 12 20:55 09.12.2019
2729 Clouds 2 1016 59 16093 1.87 90 20:37 09.12.2019
2730 Clouds 2 1016 59 16093 3.1 12 20:37 09.12.2019
2731 Clouds 1 1016 59 16093 2.04 121 20:18 09.12.2019
2732 Clouds 1 1016 69 16093 2.34 44 19:55 09.12.2019
2733 Clear 1 1017 64 16093 2.1 160 19:37 09.12.2019
2734 Clear 1 1017 64 16093 2.1 160 19:18 09.12.2019
2735 Clear 1 1017 69 16093 4.1 130 18:54 09.12.2019
2736 Clear 1 1017 69 16093 4.1 130 18:54 09.12.2019
2737 Clear 0 1017 73 16093 4.1 110 18:36 09.12.2019
2738 Rain 0 1017 73 16093 4.1 110 18:18 09.12.2019
2739 Rain -1 1016 73 16093 3.1 120 17:54 09.12.2019
2740 Rain -1 1016 73 16093 2.6 130 17:36 09.12.2019
2741 Clear -2 1016 83 16093 2.6 130 17:18 09.12.2019
2742 Clouds -2 1016 74 16093 1.5 130 16:54 09.12.2019
2743 Clouds -3 1016 74 16093 1.15 99 16:36 09.12.2019
2744 Clouds -3 1016 74 16093 1.15 99 16:18 09.12.2019
2745 Clouds -4 1015 86 16093 1.15 99 15:54 09.12.2019
2746 Clouds -5 1015 86 16093 1.15 99 15:36 09.12.2019
2747 Clouds -5 1015 86 16093 1.15 99 15:18 09.12.2019
2748 Clouds -4 1015 86 16093 3.6 150 14:41 09.12.2019
2749 Clouds -4 1015 86 16093 3.6 150 14:18 09.12.2019
2750 Clouds -4 1015 86 16093 2.1 170 13:56 09.12.2019
2751 Clouds -4 1015 86 16093 2.1 170 13:37 09.12.2019
2752 Clouds -4 1015 86 16093 2.1 170 13:19 09.12.2019
2753 Clouds -4 1013 85 16093 1.57 145 12:55 09.12.2019
2754 Clouds -3 1015 86 16093 2.1 170 12:37 09.12.2019
2755 Clouds -3 1015 86 16093 2.1 170 12:18 09.12.2019
2756 Clouds -3 1012 92 16093 1.5 70 11:41 09.12.2019
2757 Clouds -3 1015 86 16093 1.5 140 11:22 09.12.2019
2758 Clouds -3 1011 86 16093 2.1 70 10:59 09.12.2019
2759 Clouds -2 1011 86 16093 2.1 70 10:39 09.12.2019
2760 Clear -2 1013 86 16093 2.35 11 10:19 09.12.2019
2761 Clear -2 1012 86 16093 1.5 140 09:55 09.12.2019
2762 Clouds -1 1010 92 16093 5.7 50 09:36 09.12.2019
2763 Clear 0 1012 67 16093 1.5 60 09:18 09.12.2019
2764 Clear 1 1009 69 16093 5.7 20 08:40 09.12.2019
2765 Clear 2 1009 41 16093 2.1 300 08:21 09.12.2019
2766 Clear 2 1010 44 16093 2.1 350 07:52 09.12.2019
2767 Clear 2 1009 41 16093 3.1 230 07:33 09.12.2019
2768 Clear 2 1007 41 16093 4.1 310 06:58 09.12.2019
2769 Clear 2 1008 44 16093 2.56 248 06:32 09.12.2019
2770 Clear 3 1007 35 16093 4.6 260 05:48 09.12.2019
2771 Clear 3 1007 35 16093 4.6 260 05:48 09.12.2019
2772 Clear 3 1008 52 16093 5.1 300 05:23 09.12.2019
2773 Clear 3 1007 39 16093 4.1 250 04:28 09.12.2019
2774 Clouds 4 1006 63 16093 1.5 110 02:35 09.12.2019
2775 Clear 4 1006 60 16093 2.1 10 01:47 09.12.2019
2776 Clear 5 1006 52 16093 3.6 220 00:59 09.12.2019
2777 Clear 5 1006 52 16093 4.6 250 00:33 09.12.2019
2778 Clear 6 1006 32 16093 6.7 280 23:57 08.12.2019
2779 Clear 7 1006 32 16093 5.7 290 23:37 08.12.2019
2780 Clear 9 1006 32 16093 5.7 290 23:19 08.12.2019
2781 Clear 9 1005 28 16093 8.7 260 22:56 08.12.2019
2782 Clear 11 1005 24 16093 8.7 240 22:38 08.12.2019
2783 Clear 10 1005 24 16093 8.7 240 22:18 08.12.2019
2784 Clear 11 1005 40 16093 2.21 351 21:56 08.12.2019
2785 Clear 11 1006 43 16093 2.21 351 21:37 08.12.2019
2786 Clear 11 1006 43 16093 2.21 351 21:19 08.12.2019
2787 Clear 11 1006 43 16093 2.21 351 21:19 08.12.2019
2788 Clear 10 1007 49 16093 2.21 351 20:55 08.12.2019
2789 Clear 10 1007 52 16093 1.5 50 20:37 08.12.2019
2790 Clear 8 1007 52 16093 1.5 50 20:19 08.12.2019
2791 Clouds 8 1007 34 16093 6.7 290 19:55 08.12.2019
2792 Clear 8 1008 52 16093 2.56 219 19:36 08.12.2019
2793 Clear 8 1008 52 16093 2.56 219 19:18 08.12.2019
2794 Clear 8 1008 52 16093 2.56 219 19:18 08.12.2019
2795 Clear 8 1008 52 16093 2.56 219 19:18 08.12.2019
2796 Clear 7 1010 66 16093 2.56 219 18:54 08.12.2019
2797 Clear 7 1010 66 16093 2.56 219 18:36 08.12.2019
2798 Clear 6 1010 66 16093 2.56 219 18:18 08.12.2019
2799 Clear 5 1010 69 16093 2.56 219 17:54 08.12.2019
2800 Clear 4 1010 74 16093 1.5 210 17:36 08.12.2019
2801 Clear 5 1010 74 16093 1.5 210 17:36 08.12.2019
2802 Clear 3 1010 74 16093 1.5 210 17:18 08.12.2019
2803 Clear 3 1011 86 16093 1.5 250 16:42 08.12.2019
2804 Clear 2 1011 68 16093 3.5 226 16:24 08.12.2019
2805 Clear 1 1010 86 16093 2.1 340 15:59 08.12.2019
2806 Clear 2 1011 68 16093 3.5 226 15:37 08.12.2019
2807 Clear 2 1011 68 16093 3.5 226 15:18 08.12.2019
2808 Clear 2 1011 68 16093 3.5 226 15:18 08.12.2019
2809 Clear 2 1010 68 16093 3.5 226 14:46 08.12.2019
2810 Clear 2 1011 68 16093 3.5 226 14:25 08.12.2019
2811 Clear 2 1011 65 16093 3.75 212 13:59 08.12.2019
2812 Clear 2 1009 52 16093 2.1 120 13:41 08.12.2019
2813 Clear 2 1011 64 16093 2.6 220 13:22 08.12.2019
2814 Clear 1 1011 64 16093 2.1 140 12:59 08.12.2019
2815 Clear 1 1010 52 16093 1.5 200 12:39 08.12.2019
2816 Clear 1 1011 64 16093 1.5 230 12:19 08.12.2019
2817 Clear 2 1011 36 16093 5.7 240 11:57 08.12.2019
2818 Clear 2 1010 52 16093 1.5 130 11:37 08.12.2019
2819 Clear 2 1012 67 16093 2.1 100 11:19 08.12.2019
2820 Clear 2 1013 69 16093 4.24 223 10:55 08.12.2019
2821 Clear 2 1013 69 16093 4.24 223 10:36 08.12.2019
2822 Clear 2 1013 69 16093 4.24 223 10:36 08.12.2019
2823 Clear 2 1013 69 16093 4.24 223 10:18 08.12.2019
2824 Clear 2 1012 34 16093 6.2 240 09:54 08.12.2019
2825 Clear 2 1013 69 16093 1.5 170 09:36 08.12.2019
2826 Clear 2 1013 69 16093 1.5 170 09:18 08.12.2019
2827 Clear 2 1013 34 16093 8.2 240 08:41 08.12.2019
2828 Clear 2 1014 80 16093 3.1 340 08:22 08.12.2019
2829 Rain 2 1015 64 16093 4.09 223 07:49 08.12.2019
2830 Rain 3 1015 80 16093 2.1 150 07:21 08.12.2019
2831 Clear 3 1013 32 16093 6.2 220 06:58 08.12.2019
2832 Clear 3 1013 32 16093 6.2 220 06:39 08.12.2019
2833 Clear 3 1015 74 16093 4.09 223 06:18 08.12.2019
2834 Clear 3 1015 48 16093 4.41 220 05:22 08.12.2019
2835 Clear 4 1015 80 16093 4.41 220 04:23 08.12.2019
2836 Clear 4 1013 39 16093 4.41 220 03:38 08.12.2019
2837 Clear 5 1014 39 16093 1.5 310 02:41 08.12.2019
2838 Clear 6 1015 64 16093 2.61 222 02:19 08.12.2019
2839 Clear 7 1015 48 16093 2.6 200 01:34 08.12.2019
2840 Clear 9 1015 32 16093 2.1 240 00:52 08.12.2019
2841 Clear 10 1015 30 16093 3.27 221 00:23 08.12.2019
2842 Clear 12 1015 28 16093 2.6 240 23:57 07.12.2019
2843 Clear 12 1015 26 16093 5.7 270 23:36 07.12.2019
2844 Clear 13 1015 26 16093 5.7 270 23:18 07.12.2019
2845 Clear 12 1015 26 16093 4.1 270 22:54 07.12.2019
2846 Clear 12 1015 24 16093 2.62 212 22:36 07.12.2019
2847 Clear 12 1015 24 16093 2.62 212 22:18 07.12.2019
2848 Clear 15 1015 28 16093 2.1 20 21:55 07.12.2019
2849 Rain 15 1015 26 16093 2.62 212 21:36 07.12.2019
2850 Rain 15 1015 26 16093 2.62 212 21:18 07.12.2019
2851 Rain 14 1016 18 16093 4.6 210 20:38 07.12.2019
2852 Clear 10 1016 18 16093 4.6 210 20:20 07.12.2019
2853 Clear 10 1017 52 16093 1.5 290 19:57 07.12.2019
2854 Clear 9 1015 17 16093 9.8 220 19:39 07.12.2019
2855 Clouds 8 1016 26 16093 3.1 270 19:21 07.12.2019
2856 Clear 8 1018 80 16093 2.72 219 18:58 07.12.2019
2857 Clear 10 1016 31 16093 3.1 230 18:39 07.12.2019
2858 Rain 8 1018 60 11265 2.72 219 18:18 07.12.2019
2859 Rain 6 1019 60 11265 2.72 219 17:55 07.12.2019
2860 Rain 6 1018 60 11265 2.72 219 17:37 07.12.2019
2861 Rain 2 1018 59 11265 4.66 213 17:18 07.12.2019
2862 Clear 2 1019 92 16093 2.1 250 16:55 07.12.2019
2863 Clear 1 1019 92 11265 4.66 213 16:36 07.12.2019
2864 Clouds -1 1017 69 16093 3.6 180 16:18 07.12.2019
2865 Clear -1 1017 92 16093 4.66 213 15:40 07.12.2019
2866 Clear -1 1019 92 16093 4.66 213 15:40 07.12.2019
2867 Clear -1 1019 92 16093 4.66 213 15:22 07.12.2019
2868 Clear -1 1020 92 16093 1.5 180 14:43 07.12.2019
2869 Clear -2 1020 92 16093 4.29 212 14:20 07.12.2019
2870 Clear -2 1020 92 16093 1.5 200 13:59 07.12.2019
2871 Clear -2 1018 51 16093 3.1 240 13:39 07.12.2019
2872 Clear -2 1020 92 16093 4.23 210 13:19 07.12.2019
2873 Clear -2 1021 100 16093 4.23 210 12:55 07.12.2019
2874 Clear -2 1019 74 16093 5.1 190 12:36 07.12.2019
2875 Clear -2 1021 92 16093 4.23 210 12:18 07.12.2019
2876 Clear -2 1019 64 16093 2.1 330 11:41 07.12.2019
2877 Clear -2 1019 69 16093 5.1 190 11:41 07.12.2019
2878 Clear -2 1021 100 16093 4.05 214 11:23 07.12.2019
2879 Clear -2 1022 92 11265 4.05 214 10:55 07.12.2019
2880 Clear -2 1022 92 16093 4.05 214 10:36 07.12.2019
2881 Rain -2 1022 92 16093 4.05 214 10:18 07.12.2019
2882 Rain -2 1021 68 16093 5.1 190 09:39 07.12.2019
2883 Clear -2 1023 92 11265 4.05 214 09:21 07.12.2019
2884 Clear -2 1023 92 11265 4.05 214 08:45 07.12.2019
2885 Clear -2 1023 100 11265 3.36 217 08:24 07.12.2019
2886 Clear -2 1023 100 11265 3.36 217 08:24 07.12.2019
2887 Clear -2 1022 80 16093 3.36 217 07:49 07.12.2019
2888 Clear -2 1024 100 11265 3.36 217 07:28 07.12.2019
2889 Clear -1 1024 92 11265 3.36 217 06:53 07.12.2019
2890 Clear -1 1024 92 11265 3.36 217 06:26 07.12.2019
2891 Clear -1 1022 72 16093 2.1 250 05:47 07.12.2019
2892 Clear 0 1025 92 11265 2.76 221 04:43 07.12.2019
2893 Clear 0 1025 92 11265 2.76 221 03:50 07.12.2019
2894 Clear 1 1025 92 16093 1.33 230 02:22 07.12.2019
2895 Clear 2 1025 77 16093 1.33 230 01:41 07.12.2019
2896 Clear 3 1025 76 16093 1.24 208 01:22 07.12.2019
2897 Clear 4 1025 76 16093 1.24 208 00:21 07.12.2019
2898 Rain 5 1025 76 16093 1.5 80 23:57 06.12.2019
2899 Rain 5 1025 76 16093 1.5 80 23:57 06.12.2019
2900 Rain 5 1023 76 16093 1.5 50 23:39 06.12.2019
2901 Rain 5 1023 76 16093 1.5 50 23:39 06.12.2019
2902 Rain 7 1025 66 16093 2.6 100 23:19 06.12.2019
2903 Clear 8 1024 66 16093 1.64 19 22:39 06.12.2019
2904 Clear 7 1024 66 16093 1.64 19 22:21 06.12.2019
2905 Clear 7 1024 66 16093 1.64 19 21:59 06.12.2019
2906 Clear 7 1024 66 16093 1.64 19 21:59 06.12.2019
2907 Rain 8 1023 66 16093 1.5 40 21:40 06.12.2019
2908 Rain 7 1025 66 16093 1.64 19 21:20 06.12.2019
2909 Clear 7 1025 66 16093 1.5 10 20:47 06.12.2019
2910 Clear 6 1025 68 16093 1.5 10 20:27 06.12.2019
2911 Clear 5 1026 65 16093 1.77 187 19:59 06.12.2019
2912 Clear 5 1024 65 16093 1.77 187 19:40 06.12.2019
2913 Rain 5 1026 65 16093 1.77 187 19:22 06.12.2019
2914 Rain 5 1026 65 16093 1.77 187 19:22 06.12.2019
2915 Rain 4 1026 65 16093 1.77 187 18:58 06.12.2019
2916 Rain 4 1027 65 16093 1.77 187 18:40 06.12.2019
2917 Rain 3 1027 65 16093 1.77 187 18:21 06.12.2019
2918 Rain 2 1027 65 16093 1.77 187 17:57 06.12.2019
2919 Rain 2 1027 65 16093 1.77 187 17:57 06.12.2019
2920 Rain 2 1027 65 16093 1.77 187 17:39 06.12.2019
2921 Rain 0 1027 73 16093 2.91 210 17:21 06.12.2019
2922 Clear -1 1027 92 16093 2.91 210 16:56 06.12.2019
2923 Clear -2 1026 92 16093 2.91 210 16:37 06.12.2019
2924 Clear -2 1026 92 16093 2.91 210 16:18 06.12.2019
2925 Clear -3 1026 92 16093 1.5 210 15:41 06.12.2019
2926 Clear -4 1026 92 16093 1.5 210 15:21 06.12.2019
2927 Clear -4 1026 92 16093 2.91 210 14:57 06.12.2019
2928 Clear -4 1025 92 16093 1.5 270 14:39 06.12.2019
2929 Clear -3 1026 92 16093 2.89 209 14:19 06.12.2019
2930 Clear -3 1026 100 16093 2.89 209 13:45 06.12.2019
2931 Clear -3 1026 100 16093 3.08 210 13:26 06.12.2019
2932 Clear -3 1026 100 16093 3.08 210 12:56 06.12.2019
2933 Clear -3 1024 86 16093 5.7 180 12:38 06.12.2019
2934 Clear -3 1026 100 16093 3.08 210 12:19 06.12.2019
2935 Clear -3 1023 92 16093 3.08 210 11:42 06.12.2019
2936 Clear -3 1025 100 11265 2.1 200 11:23 06.12.2019
2937 Clear -3 1026 100 11265 2.52 203 10:54 06.12.2019
2938 Clear -2 1026 100 11265 2.52 203 10:36 06.12.2019
2939 Clear -2 1026 100 11265 2.52 203 10:18 06.12.2019
2940 Mist -2 1025 100 8047 2.52 203 09:54 06.12.2019
2941 Clear -2 1024 92 11265 4.1 190 09:36 06.12.2019
2942 Mist -2 1025 100 6437 2.52 203 09:18 06.12.2019
2943 Clear -1 1024 100 16093 2.52 203 08:40 06.12.2019
2944 Clear -1 1026 92 16093 1.23 188 08:21 06.12.2019
2945 Clear -1 1027 100 11265 1.23 188 07:38 06.12.2019
2946 Clear -1 1027 100 11265 1.23 188 07:20 06.12.2019
2947 Clear 0 1027 94 16093 1.5 200 06:31 06.12.2019
2948 Drizzle 0 1025 86 2414 2.1 250 05:56 06.12.2019
2949 Rain 0 1025 100 8047 3.1 230 05:38 06.12.2019
2950 Clouds 0 1025 98 16093 3.54 18 02:19 06.12.2019
2951 Clouds 0 1024 98 11265 3.54 18 01:43 06.12.2019
2952 Rain 0 1023 100 4828 1.21 23 00:48 06.12.2019
2953 Rain 1 1023 100 4023 1.5 330 00:22 06.12.2019
2954 Drizzle 1 1022 100 8047 2.1 360 23:49 05.12.2019
2955 Rain 1 1021 100 6437 2.6 350 23:19 05.12.2019
2956 Rain 1 1018 93 4828 6.2 10 22:58 05.12.2019
2957 Rain 1 1020 93 6437 4.6 10 22:38 05.12.2019
2958 Rain 1 1020 93 6437 4.6 10 22:18 05.12.2019
2959 Rain 1 1020 93 6437 4.6 10 22:18 05.12.2019
2960 Rain 1 1020 93 6437 4.6 10 22:18 05.12.2019
2961 Rain 1 1016 86 16093 1.5 240 21:55 05.12.2019
2962 Rain 2 1018 93 8047 4.1 50 21:36 05.12.2019
2963 Rain 2 1018 93 8047 4.1 50 21:18 05.12.2019
2964 Rain 2 1016 93 6437 3.1 310 20:40 05.12.2019
2965 Rain 2 1016 93 12874 1.5 10 20:40 05.12.2019
2966 Rain 2 1017 87 6437 4.48 353 20:21 05.12.2019
2967 Rain 2 1016 86 11265 4.48 353 19:59 05.12.2019
2968 Rain 2 1018 93 11265 4.48 353 19:40 05.12.2019
2969 Rain 2 1016 86 11265 1.5 100 19:21 05.12.2019
2970 Rain 3 1016 86 16093 2.1 170 18:57 05.12.2019
2971 Rain 4 1018 93 11265 4.48 353 18:38 05.12.2019
2972 Drizzle 4 1016 75 16093 1.5 20 18:20 05.12.2019
2973 Drizzle 4 1016 86 16093 4.48 353 17:40 05.12.2019
2974 Rain 4 1014 70 16093 1.5 190 17:20 05.12.2019
2975 Clouds 3 1015 86 16093 2.65 213 16:57 05.12.2019
2976 Clouds 3 1015 86 16093 2.65 213 16:39 05.12.2019
2977 Clouds 3 1014 70 16093 1.5 80 16:21 05.12.2019
2978 Clouds 3 1014 70 16093 1.5 80 16:21 05.12.2019
2979 Clouds 3 1015 70 16093 1.5 220 15:56 05.12.2019
2980 Clouds 3 1015 70 16093 1.5 220 15:38 05.12.2019
2981 Clouds 3 1014 74 16093 2.65 213 15:20 05.12.2019
2982 Clouds 3 1012 60 32767 6.2 320 14:55 05.12.2019
2983 Clouds 3 1012 80 16093 1.5 280 14:37 05.12.2019
2984 Clouds 3 1014 74 16093 2.65 213 14:37 05.12.2019
2985 Clouds 2 1013 71 16093 2.1 180 14:18 05.12.2019
2986 Clouds 2 1013 71 16093 1.5 230 13:56 05.12.2019
2987 Clouds 2 1013 71 16093 1.5 230 13:38 05.12.2019
2988 Clouds 2 1011 64 16093 5.1 330 13:19 05.12.2019
2989 Clouds 2 1012 74 16093 2.65 214 13:19 05.12.2019
2990 Clouds 2 1011 64 16093 5.1 330 12:55 05.12.2019
2991 Clouds 2 1013 69 16093 2.65 214 12:37 05.12.2019
2992 Rain 2 1012 74 16093 2.65 214 12:19 05.12.2019
2993 Rain 2 1013 69 16093 2.65 214 11:39 05.12.2019
2994 Clear 2 1011 56 16093 3.33 208 11:20 05.12.2019
2995 Clouds 2 1013 70 16093 3.33 208 10:57 05.12.2019
2996 Clouds 1 1013 70 16093 3.33 208 10:38 05.12.2019
2997 Clouds 1 1011 56 16093 3.33 208 10:18 05.12.2019
2998 Clouds 1 1013 70 16093 1.5 140 09:46 05.12.2019
2999 Clear 1 1012 70 16093 3.33 208 09:24 05.12.2019
3000 Clouds 1 1012 60 16093 2.1 230 08:59 05.12.2019
3001 Clear 1 1013 70 16093 1.5 110 08:39 05.12.2019
3002 Clear 1 1012 69 16093 3.18 212 08:20 05.12.2019
3003 Clear 1 1012 69 16093 1.5 230 07:50 05.12.2019
3004 Clear 1 1013 74 16093 1.5 180 07:32 05.12.2019
3005 Clear 1 1013 60 16093 3.18 212 06:58 05.12.2019
3006 Clear 1 1015 86 16093 1.5 220 06:40 05.12.2019
3007 Clear 0 1015 92 16093 3.18 212 06:19 05.12.2019
3008 Clear 0 1015 86 11265 1.5 170 05:47 05.12.2019
3009 Clear 0 1013 80 16093 3.1 280 05:23 05.12.2019
3010 Clear 0 1013 74 16093 2.1 230 04:20 05.12.2019
3011 Clear 0 1013 74 16093 2.1 230 04:20 05.12.2019
3012 Clear 2 1015 73 16093 1.5 40 02:43 05.12.2019
3013 Clear 2 1013 64 16093 2.94 220 02:24 05.12.2019
3014 Clear 3 1015 74 16093 0.79 213 01:52 05.12.2019
3015 Clouds 4 1013 56 16093 3.1 140 01:24 05.12.2019
3016 Clouds 5 1013 31 16093 1.44 204 00:51 05.12.2019
3017 Clear 7 1014 48 16093 1.44 204 00:32 05.12.2019
3018 Clouds 8 1013 24 16093 1.44 204 23:57 04.12.2019
3019 Clear 9 1015 45 16093 2.1 10 23:39 04.12.2019
3020 Clear 7 1015 34 16093 0.21 94 23:21 04.12.2019
3021 Clouds 8 1014 28 16093 0.21 94 22:55 04.12.2019
3022 Clear 8 1015 31 16093 0.21 94 22:36 04.12.2019
3023 Clouds 8 1014 60 16093 3.1 100 22:18 04.12.2019
3024 Rain 9 1014 34 16093 2.1 30 21:54 04.12.2019
3025 Rain 9 1016 36 16093 0.21 94 21:36 04.12.2019
3026 Rain 9 1015 29 16093 1.5 140 21:18 04.12.2019
3027 Clouds 8 1015 29 16093 1.5 140 20:55 04.12.2019
3028 Clear 8 1017 39 16093 0.21 94 20:37 04.12.2019
3029 Clear 7 1017 52 16093 2.1 30 20:18 04.12.2019
3030 Clear 7 1017 52 16093 2.1 30 20:18 04.12.2019
3031 Clear 6 1018 60 16093 2.6 10 19:39 04.12.2019
3032 Clouds 6 1017 42 16093 2.6 120 19:21 04.12.2019
3033 Rain 8 1017 42 16093 2.6 120 18:58 04.12.2019
3034 Rain 8 1018 64 16093 2.77 213 18:40 04.12.2019
3035 Rain 8 1018 69 16093 2.77 213 18:21 04.12.2019
3036 Clear 6 1019 80 16093 2.77 213 17:40 04.12.2019
3037 Clear 2 1018 74 16093 3.17 211 17:22 04.12.2019
3038 Clouds 2 1017 69 16093 5.1 200 16:59 04.12.2019
3039 Clear 1 1020 86 16093 1.5 210 16:40 04.12.2019
3040 Clear 1 1017 61 16093 1.5 240 16:20 04.12.2019
3041 Clouds 1 1017 59 16093 3.17 211 15:56 04.12.2019
3042 Clear 1 1017 61 16093 3.17 211 15:38 04.12.2019
3043 Clear 1 1018 80 16093 1.5 10 15:19 04.12.2019
3044 Clear 1 1017 61 16093 2.1 40 14:54 04.12.2019
3045 Clear 1 1017 61 16093 3.17 211 14:36 04.12.2019
3046 Clear 0 1018 86 16093 3.47 203 14:18 04.12.2019
3047 Clear 0 1019 92 16093 2.1 50 13:38 04.12.2019
3048 Clear 0 1017 62 16093 2.1 10 13:20 04.12.2019
3049 Clouds 0 1017 62 16093 2.6 150 13:20 04.12.2019
3050 Clear 0 1019 86 16093 1.5 210 12:45 04.12.2019
3051 Clear 0 1017 44 16093 3.55 202 12:25 04.12.2019
3052 Clouds 0 1017 55 16093 2.6 200 11:59 04.12.2019
3053 Clear 0 1018 59 16093 2.6 270 11:41 04.12.2019
3054 Clear 0 1018 59 16093 2.6 270 11:22 04.12.2019
3055 Clear 0 1019 92 16093 3.99 215 10:44 04.12.2019
3056 Clear 0 1018 51 16093 3.99 215 10:24 04.12.2019
3057 Clear 0 1018 51 16093 3.99 215 10:24 04.12.2019
3058 Clear 0 1018 44 16093 4.6 230 09:57 04.12.2019
3059 Clear -1 1020 92 16093 2.1 220 09:39 04.12.2019
3060 Clear -1 1020 92 16093 2.1 220 09:39 04.12.2019
3061 Clouds -1 1018 47 16093 4.6 230 09:20 04.12.2019
3062 Clear -1 1020 85 16093 2.6 10 08:42 04.12.2019
3063 Clouds 0 1019 67 16093 1.5 170 08:23 04.12.2019
3064 Clear 0 1020 85 16093 4.08 216 07:51 04.12.2019
3065 Clouds 0 1019 55 16093 3.6 190 07:31 04.12.2019
3066 Clouds 0 1019 43 16093 1.5 180 06:51 04.12.2019
3067 Clear -1 1019 51 16093 3.1 250 06:31 04.12.2019
3068 Clear 0 1021 86 16093 4.08 216 05:43 04.12.2019
3069 Clear 1 1018 74 16093 2.1 190 04:31 04.12.2019
3070 Clear 2 1018 48 16093 1.5 120 03:20 04.12.2019
3071 Clear 5 1018 52 16093 1.5 10 01:21 04.12.2019
3072 Clear 8 1018 42 16093 2.43 189 00:40 04.12.2019
3073 Clouds 10 1017 23 16093 2.6 320 00:18 04.12.2019
3074 Clear 11 1018 34 16093 2.43 189 23:41 03.12.2019
3075 Clear 10 1017 26 16093 1.5 260 23:19 03.12.2019
3076 Clouds 9 1017 23 16093 3.6 300 22:54 03.12.2019
3077 Clear 9 1018 26 16093 1.02 8 22:36 03.12.2019
3078 Clear 10 1018 30 16093 1.02 8 22:18 03.12.2019
3079 Clear 11 1018 28 16093 2.1 160 21:39 03.12.2019
3080 Clear 11 1018 28 16093 2.1 160 21:39 03.12.2019
3081 Clear 11 1018 28 16093 2.1 160 21:39 03.12.2019
3082 Rain 11 1017 29 16093 7.7 260 21:19 03.12.2019
3083 Rain 11 1017 29 16093 7.7 260 21:19 03.12.2019
3084 Rain 11 1017 29 16093 7.7 260 20:58 03.12.2019
3085 Rain 11 1018 27 16093 1.02 8 20:40 03.12.2019
3086 Clouds 8 1018 27 16093 6.2 310 20:19 03.12.2019
3087 Clouds 8 1018 27 16093 6.2 310 19:55 03.12.2019
3088 Clouds 8 1018 27 16093 6.2 310 19:55 03.12.2019
3089 Clear 8 1019 23 16093 1.5 150 19:37 03.12.2019
3090 Clear 8 1017 24 16093 1.5 240 19:19 03.12.2019
3091 Clouds 10 1019 29 16093 4.6 300 18:57 03.12.2019
3092 Rain 11 1020 31 16093 2.6 260 18:39 03.12.2019
3093 Rain 10 1018 26 16093 2.23 208 18:20 03.12.2019
3094 Rain 10 1019 34 16093 5.7 300 17:56 03.12.2019
3095 Rain 10 1020 31 16093 6.2 280 17:38 03.12.2019
3096 Clouds 5 1018 42 16093 4.1 300 17:18 03.12.2019
3097 Clouds 4 1018 42 16093 4.1 300 16:56 03.12.2019
3098 -273 0 0 0 0 0 16:38 03.12.2019
3099 Clouds 3 1017 45 16093 4.1 270 16:19 03.12.2019
3100 -273 0 0 0 0 0 15:54 03.12.2019
3101 Clouds 3 1016 42 16093 21.1 270 15:54 03.12.2019
3102 Clear 3 1018 39 16093 5.1 290 15:36 03.12.2019
3103 Clouds 3 1018 55 16093 3.63 212 15:18 03.12.2019
3104 Clear 2 1017 42 16093 11.8 270 14:41 03.12.2019
3105 Clear 0 1017 51 16093 2.6 200 14:20 03.12.2019
3106 Clear 0 1017 51 16093 2.6 200 14:20 03.12.2019
3107 Clear 0 1017 51 16093 2.6 200 13:54 03.12.2019
3108 Clear 1 1017 55 16093 2.6 190 13:36 03.12.2019
3109 Clear 1 1017 55 16093 2.6 190 13:36 03.12.2019
3110 Clear 1 1016 47 16093 2.1 190 13:18 03.12.2019
3111 Clear 1 1017 51 16093 2.6 140 12:40 03.12.2019
3112 Clear 1 1017 51 16093 1.5 0 12:18 03.12.2019
3113 Clear 1 1017 51 16093 1.5 0 11:58 03.12.2019
3114 Clear 1 1018 44 16093 3.1 70 11:38 03.12.2019
3115 Clear 1 1017 51 16093 2.6 190 11:20 03.12.2019
3116 Clear 2 1017 51 16093 2.6 190 10:57 03.12.2019
3117 Clear 2 1018 44 16093 3.05 203 10:38 03.12.2019
3118 Clouds 2 1016 44 16093 1.5 210 10:19 03.12.2019
3119 Clear 1 1018 41 16093 4.1 70 09:45 03.12.2019
3120 Clouds 1 1016 44 16093 3.6 120 09:25 03.12.2019
3121 Clouds 0 1016 55 16093 2.6 140 08:59 03.12.2019
3122 Clear 1 1017 51 16093 3.05 203 08:39 03.12.2019
3123 Clouds 1 1016 44 16093 3.36 216 08:21 03.12.2019
3124 Clouds 1 1016 44 16093 3.78 217 07:53 03.12.2019
3125 Clear 1 1016 44 16093 1.5 210 07:29 03.12.2019
3126 Clear 1 1016 44 16093 1.5 210 07:29 03.12.2019
3127 Clear 1 1016 44 16093 1.5 210 07:29 03.12.2019
3128 Clear 1 1016 41 16093 1.5 90 06:56 03.12.2019
3129 Clear 1 1017 55 16093 3.6 110 06:20 03.12.2019
3130 Clouds 1 1016 55 16093 2.1 150 05:54 03.12.2019
3131 Rain 1 1016 41 16093 2.6 330 03:44 03.12.2019
3132 Clear 1 1016 41 16093 2.6 330 03:22 03.12.2019
3133 Clear 2 1018 51 16093 2.6 190 02:54 03.12.2019
3134 Clear 2 1017 38 16093 1.5 290 02:32 03.12.2019
3135 Clear 2 1017 38 16093 3.1 300 01:59 03.12.2019
3136 Clear 2 1019 59 16093 2.6 120 01:39 03.12.2019
3137 Rain 3 1018 55 16093 3.1 200 01:19 03.12.2019
3138 Clear 5 1018 55 16093 2.39 219 00:42 03.12.2019
3139 Clear 6 1017 41 16093 2.39 219 00:23 03.12.2019
3140 Clear 6 1017 41 16093 2.39 219 00:23 03.12.2019
3141 Clear 7 1018 48 16093 1.5 190 23:44 02.12.2019
3142 Rain 7 1017 29 16093 2.6 220 23:22 02.12.2019
3143 Rain 7 1016 29 4023 5.1 330 22:57 02.12.2019
3144 Rain 7 1018 33 16093 2.26 208 22:38 02.12.2019
3145 Rain 7 1017 25 16093 2.26 208 22:20 02.12.2019
3146 Rain 7 1018 35 16093 1.5 280 21:39 02.12.2019
3147 Rain 7 1016 33 16093 2.26 208 21:20 02.12.2019
3148 Rain 7 1016 37 16093 4.6 360 20:58 02.12.2019
3149 Rain 7 1018 38 16093 2.26 208 20:39 02.12.2019
3150 Clear 6 1018 44 16093 1.5 90 20:20 02.12.2019
3151 Clouds 5 1017 64 16093 4.16 212 19:59 02.12.2019
3152 Clear 5 1019 44 16093 4.16 212 19:41 02.12.2019
3153 Clouds 5 1017 42 16093 4.1 180 19:21 02.12.2019
3154 Rain 9 1019 30 16093 1.5 290 18:48 02.12.2019
3155 Rain 9 1018 35 16093 4.16 212 18:25 02.12.2019
3156 Rain 8 1018 45 16093 2.1 150 17:59 02.12.2019
3157 Rain 7 1017 43 16093 1.5 320 17:41 02.12.2019
3158 Clear 0 1018 55 16093 1.5 90 17:21 02.12.2019
3159 Clouds 0 1018 51 16093 3.6 110 17:21 02.12.2019
3160 Clouds -1 1018 51 16093 3.6 110 16:57 02.12.2019
3161 Clear -1 1020 79 16093 1.5 30 16:39 02.12.2019
3162 Clouds -2 1018 50 16093 4.84 217 16:18 02.12.2019
3163 Clouds -2 1018 50 16093 4.84 217 15:56 02.12.2019
3164 Clear -3 1020 78 16093 1.5 270 15:38 02.12.2019
3165 Clear -3 1017 54 16093 1.5 130 15:20 02.12.2019
3166 Clouds -4 1018 43 16093 3.1 230 14:55 02.12.2019
3167 Clear -4 1020 85 16093 1.5 160 14:37 02.12.2019
3168 Clear -4 1019 78 16093 2.1 300 14:19 02.12.2019
3169 Clear -4 1020 85 16093 2.6 290 13:54 02.12.2019
3170 Clear -5 1020 85 16093 2.6 290 13:36 02.12.2019
3171 Clear -5 1017 58 16093 3.1 350 13:18 02.12.2019
3172 Clear -5 1020 92 16093 4.02 223 12:41 02.12.2019
3173 Clear -5 1019 78 16093 2.1 330 12:20 02.12.2019
3174 Clear -5 1018 58 16093 4.02 223 11:57 02.12.2019
3175 Clear -5 1020 92 16093 4.02 223 11:37 02.12.2019
3176 Clear -5 1018 37 16093 2.1 340 11:19 02.12.2019
3177 Clear -5 1018 37 16093 2.1 340 10:56 02.12.2019
3178 Clear -5 1021 85 16093 2.1 180 10:38 02.12.2019
3179 Clear -5 1020 78 16093 3.82 216 10:20 02.12.2019
3180 Clear -6 1021 85 16093 3.82 216 09:42 02.12.2019
3181 Clear -6 1020 78 16093 3.82 216 09:19 02.12.2019
3182 Clear -6 1019 59 16093 3.82 216 08:58 02.12.2019
3183 Clear -6 1021 84 16093 3.82 216 08:40 02.12.2019
3184 Clear -7 1019 54 16093 1.5 260 08:21 02.12.2019
3185 Clear -7 1022 92 16093 3 213 07:44 02.12.2019
3186 Clear -7 1020 73 16093 2.1 230 07:24 02.12.2019
3187 Clear -7 1020 73 16093 2.1 230 06:58 02.12.2019
3188 Clear -6 1021 63 16093 3 213 06:39 02.12.2019
3189 Clear -6 1021 73 16093 2.6 240 05:36 02.12.2019
3190 Clear -7 1021 78 16093 2.6 240 04:40 02.12.2019
3191 Clouds -5 1021 62 16093 2.28 218 02:55 02.12.2019
3192 Clear -5 1021 73 16093 2.28 218 02:31 02.12.2019
3193 Clear -4 1022 67 16093 1.12 240 01:27 02.12.2019
3194 Clouds -3 1021 58 16093 2.6 320 00:58 02.12.2019
3195 Clear -1 1021 54 16093 1.12 240 00:25 02.12.2019
3196 Clear 0 1023 58 16093 1.12 240 23:56 01.12.2019
3197 Rain 0 1023 58 16093 1.12 240 23:37 01.12.2019
3198 Rain 0 1022 47 16093 1.5 110 23:19 01.12.2019
3199 Rain 1 1020 47 16093 2.6 10 22:55 01.12.2019
3200 Rain 1 1023 54 16093 1.5 360 22:37 01.12.2019
3201 Rain 1 1020 54 16093 2.6 350 22:18 01.12.2019
3202 Rain 1 1020 54 16093 2.6 350 21:54 01.12.2019
3203 Rain 2 1022 54 16093 1.69 19 21:36 01.12.2019
3204 Rain 2 1022 58 16093 1.69 19 21:18 01.12.2019
3205 Rain 2 1019 54 16093 3.1 320 20:55 01.12.2019
3206 Rain 2 1022 54 16093 1.5 340 20:37 01.12.2019
3207 Rain 0 1019 27 16093 1.5 100 20:19 01.12.2019
3208 Rain 0 1019 27 16093 1.5 100 19:54 01.12.2019
3209 Clear 0 1022 58 16093 1.32 132 19:36 01.12.2019
3210 Clear -1 1022 67 16093 2.1 270 19:18 01.12.2019
3211 Clouds 0 1020 58 16093 4.1 330 18:54 01.12.2019
3212 Clear 0 1023 67 16093 1.32 132 18:36 01.12.2019
3213 Clouds -1 1019 42 16093 3.1 140 18:18 01.12.2019
3214 Clear -2 1022 78 16093 1.32 132 17:42 01.12.2019
3215 Clear -4 1020 62 16093 1.32 132 17:24 01.12.2019
3216 Clouds -5 1019 49 16093 2.6 140 16:59 01.12.2019
3217 Clear -6 1018 67 16093 3.86 217 16:41 01.12.2019
3218 Clear -8 1018 67 16093 3.86 217 16:22 01.12.2019
3219 Clouds -9 1018 48 16093 1.5 150 15:51 01.12.2019
3220 Clear -9 1018 78 16093 1.5 350 15:32 01.12.2019
3221 Clear -9 1018 78 16093 1.5 350 15:32 01.12.2019
3222 Clear -9 1017 85 16093 3.86 217 14:54 01.12.2019
3223 Clear -9 1017 78 16093 3.86 217 14:54 01.12.2019
3224 Clear -9 1017 85 16093 3.86 217 14:36 01.12.2019
3225 Clouds -9 1017 61 16093 4.1 150 14:18 01.12.2019
3226 Clear -9 1016 78 16093 1.5 130 13:40 01.12.2019
3227 Clouds -9 1016 56 16093 3.1 170 13:20 01.12.2019
3228 Clear -9 1018 85 16093 4.19 219 12:44 01.12.2019
3229 Clouds -9 1015 61 16093 2.1 140 11:59 01.12.2019
3230 Clear -9 1017 85 16093 4.19 219 11:40 01.12.2019
3231 Clear -8 1015 67 16093 2.1 270 11:22 01.12.2019
3232 Clear -8 1017 78 16093 1.5 280 10:44 01.12.2019
3233 Clear -8 1016 72 16093 3.86 222 10:22 01.12.2019
3234 Clouds -8 1014 57 16093 3.1 180 09:59 01.12.2019
3235 Clear -8 1017 78 16093 2.6 230 09:40 01.12.2019
3236 Clear -8 1015 78 16093 2.1 310 09:20 01.12.2019
3237 Clear -8 1016 78 16093 2.1 160 08:48 01.12.2019
3238 Clear -8 1014 67 16093 4.08 224 08:20 01.12.2019
3239 Clouds -7 1014 62 16093 3.1 190 07:52 01.12.2019
3240 Clear -7 1014 67 16093 2.1 310 07:31 01.12.2019
3241 Clouds -7 1014 67 16093 3.6 150 06:57 01.12.2019
3242 Clear -7 1016 62 16093 3.6 130 06:35 01.12.2019
3243 Clear -6 1016 62 16093 1.5 190 05:49 01.12.2019
3244 Clouds -6 1013 62 16093 5.7 160 04:51 01.12.2019
3245 Clear -5 1012 54 16093 2.1 120 03:23 01.12.2019
3246 Clear -4 1013 71 16093 1.5 190 02:36 01.12.2019
3247 Clouds -3 1010 75 32767 7.7 280 02:18 01.12.2019
3248 Clear -2 1012 29 16093 1.15 71 01:51 01.12.2019
3249 Clouds -2 1009 67 32767 10.3 260 01:24 01.12.2019
3250 Clear -2 1009 34 16093 8.2 320 00:41 01.12.2019
3251 Clouds -1 1007 37 16093 10.3 340 00:23 01.12.2019
3252 Clouds 0 1008 31 16093 9.3 330 23:42 30.11.2019
3253 Rain 1 1005 34 16093 5.7 320 23:23 30.11.2019
3254 Rain 1 1006 31 16093 7.7 330 22:50 30.11.2019
3255 Rain 1 1004 67 32767 4.6 310 22:30 30.11.2019
3256 Rain 1 1004 34 16093 8.7 310 21:59 30.11.2019
3257 Rain 1 1005 31 11265 14.4 300 21:41 30.11.2019
3258 Rain 1 1005 31 11265 14.4 300 21:41 30.11.2019
3259 Rain 1 1003 29 16093 5.7 280 21:23 30.11.2019
3260 Rain 1 1002 34 11265 11.3 310 20:55 30.11.2019
3261 Rain 1 1004 31 6437 12.3 300 20:37 30.11.2019
3262 Rain 1 1003 29 16093 7.2 250 20:19 30.11.2019
3263 Rain 1 1004 29 16093 7.7 320 19:55 30.11.2019
3264 Rain 1 1004 29 16093 7.7 320 19:37 30.11.2019
3265 Clouds 1 1002 32 16093 6.7 290 19:18 30.11.2019
3266 Clouds 1 1002 32 16093 6.7 290 19:18 30.11.2019
3267 Snow 1 1002 40 16093 5.1 320 18:56 30.11.2019
3268 Clouds 0 1004 31 16093 6.2 340 18:37 30.11.2019
3269 Clouds 0 1004 31 16093 6.2 340 18:37 30.11.2019
3270 Clouds 0 1002 34 16093 5.1 360 18:18 30.11.2019
3271 Rain 0 1001 63 16093 5.93 341 17:56 30.11.2019
3272 Snow 0 1001 63 16093 5.93 341 17:56 30.11.2019
3273 Rain -1 1003 74 16093 3.1 120 17:37 30.11.2019
3274 Clouds -2 1001 34 16093 10.3 280 17:19 30.11.2019
3275 Clouds -2 1000 63 16093 3.1 50 16:55 30.11.2019
3276 Clouds -3 998 31 16093 4.1 360 16:37 30.11.2019
3277 Clouds -3 999 34 16093 5.7 310 16:18 30.11.2019
3278 Clear -2 1000 58 16093 5.1 120 15:41 30.11.2019
3279 Haze -2 998 37 8047 7.2 300 15:19 30.11.2019
3280 Clouds -1 997 31 16093 2.27 75 14:56 30.11.2019
3281 Clear -1 999 50 16093 2.27 75 14:38 30.11.2019
3282 Clouds -1 997 34 16093 7.2 330 14:19 30.11.2019
3283 Clear -1 995 31 16093 5.23 194 13:57 30.11.2019
3284 Clouds -1 997 58 16093 5.23 194 13:36 30.11.2019
3285 Clouds -1 996 37 16093 3.6 330 13:18 30.11.2019
3286 Clouds -1 996 61 16093 4.22 191 12:45 30.11.2019
3287 Clear -1 994 43 16093 6.2 300 12:27 30.11.2019
3288 Clouds -2 995 61 16093 2.1 130 11:45 30.11.2019
3289 Clear -1 993 43 16093 8.7 310 11:20 30.11.2019
3290 Clear -1 993 43 16093 8.7 310 10:58 30.11.2019
3291 Clouds -1 993 47 16093 8.7 300 10:39 30.11.2019
3292 Clouds -1 993 47 16093 8.7 300 10:20 30.11.2019
3293 Clear -1 994 92 16093 2.1 90 09:47 30.11.2019
3294 Clouds -2 993 43 16093 13.9 300 09:29 30.11.2019
3295 Clouds -2 995 92 16093 2.6 100 08:45 30.11.2019
3296 Clouds -3 993 59 16093 12.9 280 08:24 30.11.2019
3297 Clouds -3 993 92 16093 10.8 280 07:59 30.11.2019
3298 Clouds -4 994 92 16093 1.5 200 07:41 30.11.2019
3299 Clouds -4 994 92 16093 1.5 200 07:21 30.11.2019
3300 Clouds -4 994 100 11265 5.23 194 06:30 30.11.2019
3301 Clouds -4 994 100 11265 5.23 194 06:30 30.11.2019
3302 Clouds -4 994 92 11265 5.23 194 05:58 30.11.2019
3303 Snow -4 994 100 2012 3.6 250 03:54 30.11.2019
3304 Snow -4 994 100 2012 3.6 250 03:54 30.11.2019
3305 Fog -4 995 92 402 2.1 290 03:18 30.11.2019
3306 Rain -4 996 86 4023 3.1 350 02:25 30.11.2019
3307 Rain -4 995 92 101 2.6 330 01:47 30.11.2019
3308 Rain -4 998 92 8047 2.6 360 01:24 30.11.2019
3309 Rain -4 998 92 402 2.6 330 00:38 30.11.2019
3310 Rain -4 997 85 1609 3.1 360 00:20 30.11.2019
3311 Fog -4 998 92 402 1.5 350 23:44 29.11.2019
3312 Fog -4 998 92 402 1.5 350 23:44 29.11.2019
3313 -273 0 0 0 0 0 23:23 29.11.2019
3314 -273 0 0 0 0 0 23:23 29.11.2019
3315 Mist 0 999 92 3219 1.5 310 22:48 29.11.2019
3316 Mist 0 999 92 3219 1.5 310 22:26 29.11.2019
3317 Rain 0 998 74 9656 3.87 0 21:55 29.11.2019
3318 Rain 0 1001 92 402 3.87 0 21:36 29.11.2019
3319 Haze 0 1001 79 9656 1.5 100 21:18 29.11.2019
3320 Clear 0 1003 49 16093 14.4 170 20:40 29.11.2019
3321 Mist -2 1004 86 6437 1.5 350 20:22 29.11.2019
3322 Haze -2 1002 79 6437 2.6 350 19:59 29.11.2019
3323 Fog -2 1004 85 201 2.6 340 19:41 29.11.2019
3324 Fog -2 1004 85 201 2.6 340 19:41 29.11.2019
3325 Haze -2 1004 79 6437 3.6 360 19:21 29.11.2019
3326 Haze 2 1004 79 6437 3.6 360 18:58 29.11.2019
3327 Clear 2 1006 49 11265 9.3 200 18:40 29.11.2019
3328 Mist 1 1007 86 8047 1.5 360 18:22 29.11.2019
3329 Fog 0 1007 92 201 2.88 10 17:47 29.11.2019
3330 Mist -2 1007 92 2615 1.5 330 17:28 29.11.2019
3331 Mist -5 1007 92 1810 1.5 350 16:59 29.11.2019
3332 Mist -5 1007 92 1810 1.5 350 16:59 29.11.2019
3333 Fog -5 1007 92 201 3.1 250 16:41 29.11.2019
3334 Mist -6 1009 92 6437 0.3 294 16:20 29.11.2019
3335 Mist -6 1008 92 805 3.1 350 15:43 29.11.2019
3336 Mist -6 1008 92 805 3.1 350 15:24 29.11.2019
3337 Fog -6 1008 92 101 0.3 294 14:58 29.11.2019
3338 Mist -5 1007 92 3219 3.6 350 14:40 29.11.2019
3339 Fog -6 1008 92 201 2.19 215 14:21 29.11.2019
3340 Fog -6 1008 85 101 3.1 350 13:55 29.11.2019
3341 Clear -6 1011 44 16093 9.3 250 13:37 29.11.2019
3342 Fog -6 1010 85 402 2.27 211 13:19 29.11.2019
3343 Clear -5 1009 92 11265 2.6 30 12:41 29.11.2019
3344 Mist -5 1009 92 6437 4.1 20 12:23 29.11.2019
3345 Clear -5 1008 45 16093 5.7 120 11:55 29.11.2019
3346 Clear -5 1008 45 16093 5.7 120 11:55 29.11.2019
3347 Mist -5 1009 92 4023 3.6 20 11:36 29.11.2019
3348 Fog -6 1009 92 0 3.66 205 11:18 29.11.2019
3349 Fog -6 1009 92 0 3.66 205 10:56 29.11.2019
3350 Mist -6 1010 92 3219 2.6 50 10:38 29.11.2019
3351 Clouds -7 1010 48 16093 2.1 90 10:19 29.11.2019
3352 Clouds -6 1010 48 16093 2.1 90 09:56 29.11.2019
3353 Fog -6 1010 92 402 2.6 50 09:37 29.11.2019
3354 Fog -6 1010 92 402 2.6 50 09:37 29.11.2019
3355 Fog -6 1011 85 402 1.5 300 09:19 29.11.2019
3356 Clear -7 1010 68 16093 3.66 205 08:40 29.11.2019
3357 Mist -7 1010 92 4828 3.55 221 08:22 29.11.2019
3358 Clouds -7 1011 42 16093 5.7 140 07:58 29.11.2019
3359 Clear -7 1011 92 11265 4.1 180 07:40 29.11.2019
3360 Mist -7 1011 92 8047 2.1 300 07:22 29.11.2019
3361 Clear -6 1012 92 11265 3.55 221 06:43 29.11.2019
3362 Fog -7 1014 85 0 3.55 221 05:48 29.11.2019
3363 Mist -8 1011 92 8047 1.5 350 05:25 29.11.2019
3364 Mist -8 1014 84 8047 2.57 224 04:35 29.11.2019
3365 Mist -8 1011 100 8047 2.57 224 03:22 29.11.2019
3366 Clear -8 1011 92 16093 2.57 224 02:32 29.11.2019
3367 Clouds -7 1011 85 11265 1.5 350 01:57 29.11.2019
3368 Clear -6 1011 85 16093 1.5 320 01:26 29.11.2019
3369 Rain -5 1013 92 11265 0.52 292 00:45 29.11.2019
3370 Rain -5 1011 79 16093 0.52 292 00:21 29.11.2019
3371 Rain -4 1009 73 11265 2.1 350 23:57 28.11.2019
3372 Rain -3 1012 73 16093 0.52 292 23:38 28.11.2019
3373 Rain -3 1009 68 11265 1.8 28 23:20 28.11.2019
3374 Rain -3 1012 73 16093 1.5 360 22:40 28.11.2019
3375 Rain -3 1008 68 11265 1.5 50 22:21 28.11.2019
3376 Rain -3 1008 68 11265 1.5 50 21:59 28.11.2019
3377 Rain -3 1012 68 16093 2.1 340 21:41 28.11.2019
3378 Rain -3 1008 68 11265 1.5 40 21:20 28.11.2019
3379 Rain -3 1008 68 11265 1.5 40 20:57 28.11.2019
3380 Rain -3 1012 68 16093 1.5 350 20:39 28.11.2019
3381 Rain -4 1009 73 4828 1.5 360 20:20 28.11.2019
3382 Clear -4 1013 73 16093 2.1 340 19:56 28.11.2019
3383 Clear -5 1013 73 16093 2.1 340 19:36 28.11.2019
3384 Mist -5 1010 92 4828 0.96 330 19:18 28.11.2019
3385 Clouds -3 1014 79 16093 0.96 330 18:56 28.11.2019
3386 Clouds -4 1014 79 16093 0.96 330 18:38 28.11.2019
3387 Mist -4 1010 92 4828 0.96 330 18:18 28.11.2019
3388 Clear -5 1014 79 11265 0.96 330 17:42 28.11.2019
3389 Clear -7 1012 79 11265 1.14 260 17:24 28.11.2019
3390 Mist -7 1010 92 1609 2.1 250 16:59 28.11.2019
3391 Mist -8 1010 92 1609 2.1 250 16:59 28.11.2019
3392 Clouds -8 1013 85 11265 1.14 260 16:39 28.11.2019
3393 Clear -8 1012 85 11265 2.1 310 16:19 28.11.2019
3394 Mist -9 1010 92 1609 1.14 260 15:56 28.11.2019
3395 Mist -9 1010 92 1609 1.14 260 15:56 28.11.2019
3396 Clouds -8 1013 85 11265 1.14 260 15:37 28.11.2019
3397 Fog -9 1011 100 402 4.1 290 15:19 28.11.2019
3398 Clouds -9 1013 92 11265 1.14 260 14:42 28.11.2019
3399 Mist -9 1010 92 6437 2.1 350 14:24 28.11.2019
3400 Mist -9 1010 85 6437 1.5 270 13:59 28.11.2019
3401 Clouds -9 1014 85 16093 1.56 312 13:41 28.11.2019
3402 Clear -9 1012 78 11265 1.11 302 13:22 28.11.2019
3403 Mist -9 1010 85 8047 2.1 300 12:49 28.11.2019
3404 Clouds -8 1011 85 11265 2.1 350 12:29 28.11.2019
3405 Clouds -8 1011 92 11265 1.11 302 11:59 28.11.2019
3406 Clouds -8 1011 92 11265 1.11 302 11:59 28.11.2019
3407 Clouds -8 1012 92 11265 1.11 302 11:41 28.11.2019
3408 Clouds -8 1013 78 11265 2.1 270 11:21 28.11.2019
3409 Mist -8 1012 85 8047 2.1 330 10:59 28.11.2019
3410 Clouds -9 1013 85 16093 3.1 260 10:40 28.11.2019
3411 Clouds -9 1013 85 16093 3.1 260 10:40 28.11.2019
3412 Clouds -9 1012 85 11265 1.5 320 10:20 28.11.2019
3413 Clear -9 1013 85 11265 3.1 250 09:42 28.11.2019
3414 Clouds -9 1014 85 11265 1.5 270 09:23 28.11.2019
3415 Mist -9 1012 85 8047 2.6 280 08:59 28.11.2019
3416 Mist -9 1012 85 8047 2.6 280 08:59 28.11.2019
3417 Clouds -9 1013 85 16093 3.1 360 08:59 28.11.2019
3418 Clear -9 1013 85 16093 2.6 250 08:40 28.11.2019
3419 Mist -9 1013 85 8047 3.1 290 08:21 28.11.2019
3420 Clear -9 1014 85 16093 3.1 250 07:42 28.11.2019
3421 Clear -10 1014 92 11265 2.1 290 07:24 28.11.2019
3422 Clear -10 1014 92 11265 2.1 290 07:24 28.11.2019
3423 Clouds -10 1014 92 11265 1.5 300 06:52 28.11.2019
3424 Clouds -10 1014 92 11265 1.5 300 06:52 28.11.2019
3425 Clear -10 1014 92 11265 3.1 250 06:52 28.11.2019
3426 Clear -10 1014 92 16093 1.06 295 06:34 28.11.2019
3427 Clear -11 1014 92 11265 1.5 280 05:51 28.11.2019
3428 Clouds -11 1013 92 11265 0.94 213 05:18 28.11.2019
3429 Clouds -11 1013 92 11265 0.94 213 05:18 28.11.2019
3430 Clouds -11 1013 92 11265 0.94 213 05:18 28.11.2019
3431 Clouds -11 1013 92 11265 0.94 213 05:18 28.11.2019
3432 Clouds -10 1014 78 16093 0.94 213 02:51 28.11.2019
3433 Clear -10 1015 92 16093 0.41 48 01:57 28.11.2019
3434 Clouds -9 1014 73 16093 3.1 300 00:49 28.11.2019
3435 Clear -8 1015 92 16093 1.18 38 00:25 28.11.2019
3436 Clouds -8 1014 73 16093 3.6 350 23:56 27.11.2019
3437 Rain -7 1017 78 16093 1.5 30 23:38 27.11.2019
3438 Rain -7 1013 63 16093 3.1 190 23:19 27.11.2019
3439 Rain -6 1017 78 16093 3.1 340 22:39 27.11.2019
3440 Rain -6 1017 67 11265 3.1 350 22:20 27.11.2019
3441 Rain -5 1013 63 16093 8.2 180 21:56 27.11.2019
3442 Rain -5 1017 92 16093 3.1 360 21:38 27.11.2019
3443 Rain -5 1017 53 16093 2.09 25 21:19 27.11.2019
3444 Rain -5 1014 63 16093 5.7 190 20:59 27.11.2019
3445 Rain -5 1010 48 16093 9.8 240 20:40 27.11.2019
3446 Rain -6 1017 57 16093 1.5 220 20:21 27.11.2019
3447 Rain -6 1014 63 16093 6.2 190 19:58 27.11.2019
3448 Rain -6 1016 85 16093 5.1 140 19:40 27.11.2019
3449 Rain -7 1017 79 16093 2.1 110 19:22 27.11.2019
3450 Rain -7 1015 57 16093 1.56 19 18:59 27.11.2019
3451 Rain -7 1011 47 8047 16.5 250 18:37 27.11.2019
3452 Clouds -8 1016 67 16093 2.1 210 18:19 27.11.2019
3453 Clouds -8 1016 67 16093 2.1 210 17:57 27.11.2019
3454 Clear -9 1011 47 16093 12.3 250 17:39 27.11.2019
3455 Clear -10 1019 85 16093 2.98 213 17:20 27.11.2019
3456 Clouds -11 1016 66 16093 1.5 250 16:56 27.11.2019
3457 Clear -12 1017 100 16093 2.98 213 16:38 27.11.2019
3458 Clear -13 1018 77 11265 2.98 213 16:19 27.11.2019
3459 Clouds -14 1016 85 16093 3.1 290 15:57 27.11.2019
3460 Haze -14 1008 46 8047 10.3 230 15:38 27.11.2019
3461 Clouds -14 1015 77 16093 3.1 220 15:20 27.11.2019
3462 Clouds -14 1015 77 16093 3.1 220 14:57 27.11.2019
3463 Clear -14 1007 46 16093 14.9 240 14:38 27.11.2019
3464 Clear -14 1007 46 16093 14.9 240 14:38 27.11.2019
3465 Clouds -15 1015 77 16093 3.09 212 14:20 27.11.2019
3466 Clouds -15 1015 77 16093 3.09 212 13:56 27.11.2019
3467 Clear -15 1007 45 16093 12.9 250 13:38 27.11.2019
3468 Clear -15 1014 84 16093 1.5 160 13:19 27.11.2019
3469 Clear -15 1015 84 16093 4.1 190 12:42 27.11.2019
3470 Clear -15 1015 84 16093 4.1 180 12:22 27.11.2019
3471 Clear -15 1015 84 16093 4.1 180 11:59 27.11.2019
3472 Clear -15 1014 85 16093 1.5 270 11:37 27.11.2019
3473 Clear -15 1014 92 16093 3.1 150 11:19 27.11.2019
3474 Clear -14 1015 84 16093 4.1 190 10:55 27.11.2019
3475 Clear -14 1015 92 16093 3.27 217 10:37 27.11.2019
3476 Clear -14 1014 84 16093 2.6 150 10:19 27.11.2019
3477 Clear -14 1014 84 16093 4.1 190 09:41 27.11.2019
3478 Clear -14 1014 92 16093 1.5 200 09:23 27.11.2019
3479 Clear -13 1017 77 16093 3.27 217 08:43 27.11.2019
3480 Clear -13 1014 92 16093 2.6 130 08:23 27.11.2019
3481 Clear -13 1014 92 16093 2.6 130 08:23 27.11.2019
3482 Clear -13 1017 84 16093 2.1 210 07:57 27.11.2019
3483 Clear -13 1017 84 16093 2.1 210 07:39 27.11.2019
3484 Clear -12 1013 78 16093 2.6 190 07:20 27.11.2019
3485 Clear -12 1013 78 16093 2.6 190 07:20 27.11.2019
3486 Clear -12 1016 84 16093 3.79 214 06:40 27.11.2019
3487 Clear -12 1015 84 16093 3.79 214 06:20 27.11.2019
3488 Clear -11 1014 85 11265 3.79 214 05:26 27.11.2019
3489 Clouds -11 1012 85 14484 2.1 250 04:55 27.11.2019
3490 Clouds -10 1015 85 16093 2.8 235 04:36 27.11.2019
3491 Clouds -9 1015 92 16093 2.8 235 03:48 27.11.2019
3492 Snow -9 1011 78 16093 2.8 235 03:21 27.11.2019
3493 Clouds -9 1014 92 16093 2.8 235 02:42 27.11.2019
3494 Clouds -8 1009 85 16093 3.15 343 01:22 27.11.2019
3495 Clouds -7 1011 85 16093 3.15 343 00:40 27.11.2019
3496 Snow -6 1008 92 11265 5.7 330 00:22 27.11.2019
3497 Clouds -6 1010 73 16093 1.5 30 23:42 26.11.2019
3498 Snow -6 1006 85 4828 6.7 340 23:24 26.11.2019
3499 Snow -5 1006 85 9656 6.2 350 22:55 26.11.2019
3500 Clouds -5 1008 73 16093 4.1 360 22:36 26.11.2019
3501 Snow -5 1004 85 12874 7.2 350 22:18 26.11.2019
3502 Snow -5 1004 85 2816 7.7 360 21:39 26.11.2019
3503 Snow -5 1004 85 2816 7.7 360 21:21 26.11.2019
3504 Snow -5 1004 85 2816 7.7 360 21:21 26.11.2019
3505 Snow -5 1003 79 2816 8.7 350 20:57 26.11.2019
3506 Rain -5 1007 85 2414 4.6 10 20:38 26.11.2019
3507 Rain -5 1003 85 1609 9.3 350 20:19 26.11.2019
3508 Rain -5 1003 85 1609 9.3 350 19:56 26.11.2019
3509 Rain -5 1007 85 1207 5.7 20 19:38 26.11.2019
3510 Rain -5 1003 85 805 8.7 350 19:19 26.11.2019
3511 Rain -5 1003 85 805 7.2 360 18:58 26.11.2019
3512 Rain -5 1003 100 805 7.2 360 18:39 26.11.2019
3513 Rain -5 1006 92 1609 4.1 10 18:21 26.11.2019
3514 Rain -5 1003 92 402 6.2 350 17:58 26.11.2019
3515 Rain -5 1002 92 402 6.7 350 17:40 26.11.2019
3516 Rain -5 1006 92 1207 5.1 350 17:21 26.11.2019
3517 Rain -6 1002 92 805 5.1 10 16:57 26.11.2019
3518 Rain -6 1005 92 1609 3.6 360 16:37 26.11.2019
3519 Rain -6 1001 85 805 6.2 10 16:19 26.11.2019
3520 Rain -6 1001 85 805 6.2 10 16:19 26.11.2019
3521 Rain -6 1001 85 805 6.2 10 15:59 26.11.2019
3522 Rain -6 1004 92 1207 4.1 10 15:38 26.11.2019
3523 Rain -6 999 85 805 6.2 30 15:19 26.11.2019
3524 Rain -6 999 85 805 6.2 30 14:50 26.11.2019
3525 Rain -6 1001 92 0 5.1 360 14:26 26.11.2019
3526 Rain -5 998 92 805 7.2 30 13:57 26.11.2019
3527 Rain -5 1002 92 4828 7.2 40 13:38 26.11.2019
3528 Rain -5 999 92 2414 5.7 10 13:19 26.11.2019
3529 Rain -5 998 92 3219 10.8 50 12:39 26.11.2019
3530 Rain -5 1001 92 2816 7.2 60 12:20 26.11.2019
3531 Rain -5 999 92 1609 5.7 10 11:58 26.11.2019
3532 Rain -5 998 100 805 9.3 50 11:39 26.11.2019
3533 Rain -5 998 92 1207 11.3 50 11:39 26.11.2019
3534 Rain -5 998 100 402 9.8 50 11:20 26.11.2019
3535 Rain -4 999 92 1609 6.7 340 10:58 26.11.2019
3536 Rain -4 1001 92 2012 3.1 30 10:39 26.11.2019
3537 Rain -4 998 85 805 4.6 350 10:20 26.11.2019
3538 Rain -4 999 92 1207 6.7 340 10:20 26.11.2019
3539 Rain -4 999 92 1207 6.7 340 09:56 26.11.2019
3540 Rain -4 1002 92 1207 3.6 350 09:37 26.11.2019
3541 Rain -4 999 100 201 6.7 10 09:18 26.11.2019
3542 Rain -4 1002 100 1207 4.1 350 08:43 26.11.2019
3543 Rain -4 999 100 402 6.2 20 08:22 26.11.2019
3544 Rain -4 1003 100 1207 4.1 350 07:44 26.11.2019
3545 Rain -4 999 92 805 4.6 90 07:25 26.11.2019
3546 Rain -3 1003 100 1609 3.6 350 06:55 26.11.2019
3547 Rain -3 1003 100 1609 3.6 350 06:55 26.11.2019
3548 Rain -3 1000 100 1609 8.7 350 06:30 26.11.2019
3549 Rain -2 1003 92 4023 5.1 350 05:41 26.11.2019
3550 Snow -2 1001 92 805 3.1 10 03:59 26.11.2019
3551 Rain -1 1003 100 11265 2.1 350 02:24 26.11.2019
3552 Rain -1 1002 87 12874 2.1 140 01:32 26.11.2019
3553 Snow -1 1006 70 1207 2.6 340 00:50 26.11.2019
3554 Rain 0 1002 74 2414 2.6 320 00:25 26.11.2019
3555 Rain 0 1006 80 2414 1.5 350 23:40 25.11.2019
3556 Clouds 1 1003 74 16093 4.6 20 23:20 25.11.2019
3557 Clouds 1 1003 69 16093 5.1 340 22:58 25.11.2019
3558 Clouds 1 1006 80 16093 2.6 10 22:37 25.11.2019
3559 Clouds 1 1003 64 16093 7.2 340 22:18 25.11.2019
3560 Clouds 2 1003 64 16093 7.2 340 21:58 25.11.2019
3561 Clouds 2 1005 74 16093 2.1 100 21:39 25.11.2019
3562 Clouds 2 1004 64 16093 5.1 340 21:19 25.11.2019
3563 Clouds 2 1004 64 16093 5.1 340 20:55 25.11.2019
3564 Clouds 2 1008 69 16093 2.1 30 20:37 25.11.2019
3565 Clouds 2 1006 60 16093 4.6 360 20:18 25.11.2019
3566 Clouds 3 1006 60 16093 4.6 360 19:55 25.11.2019
3567 Clouds 3 1008 64 16093 1.5 70 19:36 25.11.2019
3568 Clouds 3 1007 60 16093 4.1 10 19:18 25.11.2019
3569 Clouds 3 1007 60 16093 4.1 10 18:56 25.11.2019
3570 Clouds 3 1011 64 16093 4.1 40 18:37 25.11.2019
3571 Clouds 3 1011 64 16093 4.1 40 18:18 25.11.2019
3572 Clouds 3 1012 59 16093 4.1 40 17:56 25.11.2019
3573 Clouds 3 1012 59 16093 3.1 30 17:36 25.11.2019
3574 Clouds 2 1012 59 16093 3.1 30 17:18 25.11.2019
3575 Clear 2 1012 64 16093 2.6 360 16:43 25.11.2019
3576 Clear 1 1010 74 16093 3.1 340 16:25 25.11.2019
3577 Clouds 0 1008 51 16093 4.6 130 15:58 25.11.2019
3578 Clear 0 1011 64 16093 2.1 80 15:39 25.11.2019
3579 Clouds 0 1008 56 16093 4.6 90 15:20 25.11.2019
3580 Clouds 0 1008 44 16093 4.6 80 14:56 25.11.2019
3581 Clear 0 1009 59 16093 5.7 100 14:38 25.11.2019
3582 Clouds 0 1008 38 16093 3.1 140 14:20 25.11.2019
3583 Clear 0 1009 68 16093 1.5 70 13:40 25.11.2019
3584 Clear 0 1007 44 16093 3.1 280 13:21 25.11.2019
3585 Clear 0 1007 44 16093 3.1 280 12:59 25.11.2019
3586 Clear 0 1007 44 16093 3.1 280 12:59 25.11.2019
3587 Clear 0 1009 60 16093 3.75 212 12:40 25.11.2019
3588 Clouds -1 1007 50 16093 1.5 180 12:20 25.11.2019
3589 Clouds -1 1007 50 16093 3.6 150 11:57 25.11.2019
3590 Clouds 0 1007 55 16093 2.6 160 11:38 25.11.2019
3591 Clouds 0 1007 55 16093 2.6 160 11:19 25.11.2019
3592 Clear 1 1009 47 16093 4.57 210 10:44 25.11.2019
3593 Clouds 1 1007 61 16093 2.6 170 10:26 25.11.2019
3594 Clear 2 1009 26 16093 2.1 360 09:56 25.11.2019
3595 Clear 2 1009 26 16093 2.1 360 09:38 25.11.2019
3596 Clear 2 1008 28 16093 5.7 330 09:20 25.11.2019
3597 Clear 3 1009 33 16093 4.57 210 08:40 25.11.2019
3598 Clouds 3 1008 40 16093 3.1 180 08:21 25.11.2019
3599 Clear 3 1009 30 16093 2.6 280 07:42 25.11.2019
3600 Clouds 4 1009 23 16093 1.5 290 07:24 25.11.2019
3601 Clear 4 1010 30 16093 2.1 230 06:48 25.11.2019
3602 Clear 5 1010 30 16093 2.1 260 06:21 25.11.2019
3603 Clear 6 1010 23 16093 3.6 290 05:38 25.11.2019
3604 Clouds 6 1009 18 16093 3.1 290 04:52 25.11.2019
3605 Clouds 7 1009 17 16093 3.1 300 02:52 25.11.2019
3606 Clear 6 1008 26 16093 5.7 220 02:20 25.11.2019
3607 Clear 7 1009 12 16093 6.2 310 01:40 25.11.2019
3608 Clouds 7 1008 18 16093 2.1 160 01:21 25.11.2019
3609 Clouds 11 1008 19 16093 1.5 90 00:23 25.11.2019
3610 Clear 12 1009 12 16093 3.1 250 23:58 24.11.2019
3611 Clear 13 1011 41 16093 2.6 180 23:38 24.11.2019
3612 Clouds 13 1008 12 16093 5.1 330 23:19 24.11.2019
3613 Clouds 14 1009 11 16093 2.1 40 22:54 24.11.2019
3614 Clear 14 1009 13 16093 1.5 290 22:36 24.11.2019
3615 Clouds 15 1009 8 16093 2.99 193 22:18 24.11.2019
3616 Clouds 15 1009 8 16093 2.99 193 22:18 24.11.2019
3617 Clear 16 1010 9 16093 2.99 193 21:42 24.11.2019
3618 Clear 16 1009 10 16093 6.7 250 21:21 24.11.2019
3619 Clear 15 1011 13 16093 5.7 350 20:59 24.11.2019
3620 Clear 15 1011 13 16093 5.7 350 20:59 24.11.2019
3621 Clear 15 1011 13 16093 5.7 350 20:40 24.11.2019
3622 Clouds 13 1011 16 16093 3.6 200 20:20 24.11.2019
3623 Clouds 13 1011 16 16093 3.6 200 20:20 24.11.2019
3624 Clouds 13 1011 16 16093 3.6 200 19:57 24.11.2019
3625 Clear 12 1011 9 16093 5.1 250 19:39 24.11.2019
3626 Clouds 11 1011 14 16093 5.1 230 19:21 24.11.2019
3627 Clouds 13 1012 16 16093 4.6 230 18:59 24.11.2019
3628 Clear 13 1013 13 16093 4.6 240 18:38 24.11.2019
3629 Clear 12 1013 13 16093 4.6 240 18:20 24.11.2019
3630 Clouds 9 1013 17 16093 7.2 230 17:57 24.11.2019
3631 Clear 8 1016 26 16093 3.1 210 17:39 24.11.2019
3632 Clouds 7 1013 19 16093 7.2 230 17:20 24.11.2019
3633 Rain 6 1013 19 16093 7.2 230 16:57 24.11.2019
3634 Rain 5 1014 19 16093 2.6 160 16:39 24.11.2019
3635 Rain 5 1014 19 16093 2.6 160 16:39 24.11.2019
3636 Clouds 5 1014 22 16093 5.7 220 16:20 24.11.2019
3637 Clear 3 1014 55 16093 3.6 240 15:45 24.11.2019
3638 Clear 2 1012 69 16093 4.1 220 15:26 24.11.2019
3639 Clear 2 1015 63 16093 5.79 213 14:58 24.11.2019
3640 Clear 2 1015 63 16093 5.79 213 14:39 24.11.2019
3641 Clouds 0 1015 27 16093 6.2 230 14:19 24.11.2019
3642 Clouds 0 1015 27 16093 6.2 230 13:55 24.11.2019
3643 Clear 0 1016 68 16093 3.1 220 13:36 24.11.2019
3644 Clouds 0 1015 53 16093 5.7 190 13:18 24.11.2019
3645 Clear 0 1017 92 16093 4.42 217 12:42 24.11.2019
3646 Clear -1 1017 85 16093 4.42 217 12:19 24.11.2019
3647 Clouds -1 1016 54 16093 3.6 110 11:58 24.11.2019
3648 Clear -1 1018 29 16093 4.1 220 11:37 24.11.2019
3649 Clouds -1 1017 43 16093 3.6 190 11:19 24.11.2019
3650 Clear 0 1018 86 16093 1.5 350 10:47 24.11.2019
3651 Clouds 0 1017 47 16093 4.1 180 10:29 24.11.2019
3652 Clouds 0 1017 35 16093 3.6 230 09:58 24.11.2019
3653 Clear 0 1017 48 16093 2.6 250 09:38 24.11.2019
3654 Clouds 0 1018 47 16093 3.1 240 09:19 24.11.2019
3655 Clear 0 1019 86 16093 2.1 190 08:45 24.11.2019
3656 Clear 0 1017 69 16093 1.5 130 08:23 24.11.2019
3657 Clear 0 1017 69 16093 1.5 130 08:23 24.11.2019
3658 Clouds 0 1018 55 16093 3.1 190 07:58 24.11.2019
3659 Clear 0 1020 92 16093 3.61 222 07:38 24.11.2019
3660 Clouds 0 1019 64 16093 3.6 200 07:20 24.11.2019
3661 Clear 1 1020 92 16093 2.1 230 06:20 24.11.2019
3662 Clear 1 1019 63 16093 3.65 229 04:49 24.11.2019
3663 Clear 2 1019 86 16093 2.6 210 03:41 24.11.2019
3664 Clear 3 1018 63 16093 1.5 210 02:31 24.11.2019
3665 Clear 5 1020 70 16093 2.53 215 01:41 24.11.2019
3666 Clear 6 1018 43 16093 2.6 90 01:22 24.11.2019
3667 Clear 8 1019 72 16093 2.1 360 00:48 24.11.2019
3668 Clear 9 1017 37 16093 1.77 219 00:24 24.11.2019
3669 Clear 10 1017 32 16093 1.5 260 23:54 23.11.2019
3670 Clear 11 1019 56 16093 5.1 210 23:36 23.11.2019
3671 Clear 12 1017 35 16093 3.1 210 23:18 23.11.2019
3672 Rain 12 1017 37 16093 2.1 190 22:54 23.11.2019
3673 Rain 12 1018 30 16093 2.14 195 22:36 23.11.2019
3674 Rain 12 1017 40 16093 3.1 150 22:18 23.11.2019
3675 Rain 12 1018 28 16093 2.6 210 21:42 23.11.2019
3676 Rain 11 1017 77 16093 3.6 330 21:22 23.11.2019
3677 Rain 11 1018 43 16093 2.6 160 21:22 23.11.2019
3678 Rain 11 1018 43 16093 2.6 160 20:58 23.11.2019
3679 Rain 10 1019 34 16093 3.6 170 20:37 23.11.2019
3680 Rain 9 1019 42 16093 3.1 150 20:18 23.11.2019
3681 Rain 8 1019 42 16093 3.1 150 19:55 23.11.2019
3682 Rain 8 1020 39 16093 3.1 200 19:37 23.11.2019
3683 Rain 7 1019 48 16093 3.6 190 19:18 23.11.2019
3684 Rain 6 1020 42 16093 3.1 190 18:40 23.11.2019
3685 Rain 5 1021 48 16093 2.1 170 18:21 23.11.2019
3686 Rain 4 1019 56 16093 3.83 212 17:55 23.11.2019
3687 Rain 4 1022 84 16093 4.1 210 17:37 23.11.2019
3688 Rain 2 1020 59 16093 4.6 190 17:19 23.11.2019
3689 Rain 2 1020 59 16093 4.6 190 17:19 23.11.2019
3690 Rain 2 1020 59 16093 4.6 190 17:19 23.11.2019
3691 Rain 1 1020 47 16093 5.18 211 16:56 23.11.2019
3692 Rain 1 1020 47 16093 5.18 211 16:56 23.11.2019
3693 Clear 0 1019 55 16093 2.1 270 16:37 23.11.2019
3694 Clear 0 1021 67 16093 2.1 230 16:37 23.11.2019
3695 Clear -1 1020 63 16093 2.6 120 16:19 23.11.2019
3696 Clear -2 1020 63 16093 2.6 120 15:56 23.11.2019
3697 Clear -3 1021 85 16093 5.18 211 15:38 23.11.2019
3698 Clear -3 1019 40 16093 2.6 220 15:18 23.11.2019
3699 Clear -3 1020 92 16093 5.18 211 14:43 23.11.2019
3700 Clear -4 1019 85 16093 4.27 215 14:22 23.11.2019
3701 Clear -4 1019 50 16093 3.1 220 13:59 23.11.2019
3702 Clear -4 1020 85 16093 4.27 215 13:40 23.11.2019
3703 Clear -4 1019 67 16093 3.1 100 13:19 23.11.2019
3704 Clear -4 1020 85 16093 4.36 215 12:44 23.11.2019
3705 Clear -4 1020 92 16093 2.6 210 12:24 23.11.2019
3706 Clear -4 1020 85 16093 4.36 215 11:56 23.11.2019
3707 Clear -4 1018 55 16093 5.7 250 11:38 23.11.2019
3708 Clear -4 1018 68 16093 4.6 200 11:18 23.11.2019
3709 Clear -4 1018 68 16093 4.6 200 11:18 23.11.2019
3710 Clear -4 1020 92 16093 4.46 222 10:43 23.11.2019
3711 Clear -4 1017 63 16093 4.1 240 10:20 23.11.2019
3712 Clear -3 1019 85 16093 4.46 222 09:41 23.11.2019
3713 Clear -4 1017 63 16093 3.6 250 09:19 23.11.2019
3714 Clear -3 1019 92 16093 1.5 210 08:41 23.11.2019
3715 Clear -3 1017 79 16093 4.1 210 08:19 23.11.2019
3716 Mist -4 1019 92 8047 4.15 223 07:44 23.11.2019
3717 Clear -3 1017 100 16093 1.5 290 07:26 23.11.2019
3718 Clear -3 1018 92 11265 1.5 210 06:42 23.11.2019
3719 Clear -3 1018 92 11265 2.1 200 06:19 23.11.2019
3720 Mist -3 1018 100 8047 1.5 200 05:45 23.11.2019
3721 Clear -3 1016 100 16093 3.1 190 05:27 23.11.2019
3722 Mist -3 1018 92 8047 1.5 200 04:40 23.11.2019
3723 Mist -3 1016 100 8047 2.27 239 04:21 23.11.2019
3724 Rain -2 1017 92 11265 2.27 239 02:39 23.11.2019
3725 Rain -1 1017 92 16093 1.13 166 01:42 23.11.2019
3726 Rain 0 1014 90 16093 2.1 170 00:54 23.11.2019
3727 Rain 0 1016 74 16093 0.66 221 00:36 23.11.2019
3728 Rain 0 1016 74 16093 0.66 221 00:18 23.11.2019
3729 Rain 0 1016 74 16093 0.66 221 00:18 23.11.2019
3730 Rain 1 1015 92 16093 0.66 221 23:38 22.11.2019
3731 Rain 1 1015 98 16093 1 100 23:19 22.11.2019
3732 Rain 1 1014 80 16093 1 100 22:57 22.11.2019
3733 Rain 1 1017 69 16093 1.5 150 22:37 22.11.2019
3734 Rain 1 1015 80 16093 1.5 240 22:19 22.11.2019
3735 Rain 1 1017 80 16093 1 100 21:55 22.11.2019
3736 Rain 1 1017 80 16093 1 100 21:36 22.11.2019
3737 Rain 1 1015 98 16093 1 100 21:18 22.11.2019
3738 Rain 0 1018 98 16093 1 100 20:40 22.11.2019
3739 Rain 0 1016 86 3219 1.5 250 20:22 22.11.2019
3740 Rain 0 1016 86 8047 2.1 310 19:54 22.11.2019
3741 Rain -1 1019 95 16093 1.86 167 19:36 22.11.2019
3742 Rain -1 1017 86 1609 1.5 330 19:18 22.11.2019
3743 Rain -1 1020 92 16093 1.86 167 18:39 22.11.2019
3744 Rain -1 1017 92 1609 1.86 167 18:21 22.11.2019
3745 Rain -2 1020 92 16093 1.5 360 17:43 22.11.2019
3746 Rain -2 1018 92 16093 1.86 167 17:24 22.11.2019
3747 Rain -2 1017 100 1609 0.2 274 16:58 22.11.2019
3748 Rain -3 1020 92 16093 0.2 274 16:40 22.11.2019
3749 Rain -3 1017 92 1609 1.5 290 16:21 22.11.2019
3750 Rain -3 1019 100 3219 0.2 274 15:40 22.11.2019
3751 Rain -3 1019 92 4828 1.5 350 15:22 22.11.2019
3752 Rain -3 1019 92 4828 1.5 340 14:55 22.11.2019
3753 Rain -3 1017 100 3219 0.2 274 14:55 22.11.2019
3754 Rain -3 1019 92 4828 1.5 340 14:37 22.11.2019
3755 Rain -3 1018 92 4828 2.61 338 14:19 22.11.2019
3756 Rain -3 1020 100 2414 2.6 350 13:39 22.11.2019
3757 Rain -3 1017 100 4023 2.6 350 13:20 22.11.2019
3758 Rain -3 1017 100 4023 2.6 350 13:20 22.11.2019
3759 Rain -3 1017 100 4023 2.6 350 12:59 22.11.2019
3760 Rain -3 1020 100 2816 2.1 350 12:40 22.11.2019
3761 Rain -3 1020 100 2816 2.1 350 12:40 22.11.2019
3762 Rain -3 1020 100 2816 2.1 350 12:40 22.11.2019
3763 Rain -3 1017 100 6437 3.1 340 12:20 22.11.2019
3764 Rain -3 1017 100 6437 3.1 340 11:58 22.11.2019
3765 Rain -3 1017 100 6437 3.1 340 11:58 22.11.2019
3766 Rain -3 1020 100 8047 2.1 360 11:38 22.11.2019
3767 Rain -3 1017 92 4828 2.1 290 11:19 22.11.2019
3768 Rain -3 1021 100 6437 2.1 360 10:55 22.11.2019
3769 Rain -3 1021 100 6437 2.1 360 10:37 22.11.2019
3770 Rain -3 1021 92 8047 1.5 20 10:19 22.11.2019
3771 Rain -3 1021 100 6437 0.59 188 09:41 22.11.2019
3772 Rain -3 1018 92 4023 1.5 260 09:22 22.11.2019
3773 Rain -3 1019 100 6437 1.5 360 08:59 22.11.2019
3774 Rain -3 1021 92 4828 1.5 20 08:40 22.11.2019
3775 Rain -3 1021 92 4828 1.5 20 08:40 22.11.2019
3776 Rain -3 1018 92 4828 1.5 110 08:22 22.11.2019
3777 Rain -3 1021 86 11265 0.75 269 07:44 22.11.2019
3778 Rain -3 1019 100 8047 0.75 269 07:21 22.11.2019
3779 Snow -3 1022 86 6437 0.75 269 06:49 22.11.2019
3780 Snow -3 1019 86 4828 3.1 80 06:28 22.11.2019
3781 Clouds -3 1021 86 16093 2.1 100 05:44 22.11.2019
3782 Snow -3 1020 100 16093 3.6 60 04:18 22.11.2019
3783 Clouds -3 1021 92 16093 0.82 118 02:47 22.11.2019
3784 Snow -3 1018 92 4828 2.1 40 02:28 22.11.2019
3785 Clouds -3 1021 92 16093 2.52 30 01:44 22.11.2019
3786 Clouds -3 1020 92 16093 1.5 20 01:19 22.11.2019
3787 Snow -3 1018 86 4828 2.6 40 00:49 22.11.2019
3788 Clouds -3 1018 92 3219 3.6 30 00:23 22.11.2019
3789 Snow -3 1021 92 6437 2.1 30 23:44 21.11.2019
3790 Clouds -3 1018 92 11265 3.1 70 23:25 21.11.2019
3791 Snow -3 1018 92 4828 3.1 20 22:58 21.11.2019
3792 Snow -3 1021 92 4023 1.5 40 22:38 21.11.2019
3793 Rain -3 1018 92 4828 2.6 40 22:20 21.11.2019
3794 Rain -3 1018 92 4828 2.6 40 21:55 21.11.2019
3795 Rain -3 1021 92 4828 1.5 70 21:37 21.11.2019
3796 Rain -3 1021 92 4828 1.5 70 21:37 21.11.2019
3797 Rain -3 1017 86 3219 3.1 40 21:18 21.11.2019
3798 Rain -3 1017 86 3219 3.1 40 20:57 21.11.2019
3799 Rain -3 1021 92 16093 1.76 48 20:37 21.11.2019
3800 Rain -3 1021 92 16093 1.76 48 20:37 21.11.2019
3801 Clouds -3 1020 78 11265 2.37 59 20:18 21.11.2019
3802 Snow -3 1018 86 3219 1.5 40 19:58 21.11.2019
3803 Mist -3 1021 92 6437 2.1 70 19:38 21.11.2019
3804 Clouds -3 1021 78 16093 2.1 100 19:20 21.11.2019
3805 Mist -3 1019 92 3219 2.6 30 18:55 21.11.2019
3806 Clouds -3 1022 86 16093 2.1 80 18:37 21.11.2019
3807 Snow -3 1019 92 3219 2.1 50 18:18 21.11.2019
3808 Clouds -3 1022 86 16093 2.6 40 17:40 21.11.2019
3809 Clouds -4 1020 92 16093 1.5 40 17:22 21.11.2019
3810 Snow -4 1019 92 3219 2.6 20 16:58 21.11.2019
3811 Clouds -4 1022 86 16093 2.1 80 16:40 21.11.2019
3812 Mist -4 1018 92 1609 3.6 20 16:20 21.11.2019
3813 Mist -4 1018 92 1609 3.6 20 15:55 21.11.2019
3814 Clouds -4 1022 86 16093 1.5 70 15:37 21.11.2019
3815 Clouds -4 1020 80 16093 2.1 60 15:18 21.11.2019
3816 Mist -3 1021 92 8047 2.1 20 14:39 21.11.2019
3817 Clouds -3 1020 80 16093 1.5 20 14:20 21.11.2019
3818 Mist -3 1018 92 4828 3.1 10 13:59 21.11.2019
3819 Mist -3 1020 92 6437 2.1 50 13:38 21.11.2019
3820 Mist -3 1017 92 4828 3.1 30 13:19 21.11.2019
3821 Clouds -3 1020 86 16093 2.6 60 12:43 21.11.2019
3822 Mist -3 1017 92 4023 3.6 30 12:24 21.11.2019
3823 Mist -3 1017 92 4828 2.6 40 11:56 21.11.2019
3824 Clouds -3 1020 86 16093 1.5 60 11:38 21.11.2019
3825 Clouds -3 1020 86 16093 1.5 60 11:38 21.11.2019
3826 Clouds -3 1019 90 16093 2.6 30 11:20 21.11.2019
3827 Clouds -3 1019 90 16093 2.6 30 11:20 21.11.2019
3828 Clouds -3 1020 92 11265 2.1 50 10:43 21.11.2019
3829 Snow -3 1017 92 8047 1.5 40 10:25 21.11.2019
3830 Snow -3 1017 92 6437 2.1 40 09:59 21.11.2019
3831 Clouds -3 1020 86 16093 2.6 10 09:41 21.11.2019
3832 Clouds -2 1017 92 16093 2.63 25 09:23 21.11.2019
3833 Clouds -2 1019 86 16093 1.5 30 08:55 21.11.2019
3834 Clouds -2 1019 86 16093 1.5 30 08:36 21.11.2019
3835 Snow -2 1016 92 6437 1.5 30 08:18 21.11.2019
3836 Clouds -2 1019 92 16093 3.17 13 07:37 21.11.2019
3837 Clouds -2 1016 100 3219 4.1 350 07:18 21.11.2019
3838 Clouds -2 1019 92 11265 2.6 360 06:42 21.11.2019
3839 Clouds -2 1016 100 4828 4.1 360 06:24 21.11.2019
3840 Rain -1 1015 92 16093 8.2 10 05:27 21.11.2019
3841 Rain 0 1015 95 4828 2.6 20 03:25 21.11.2019
3842 Rain 0 1016 95 2816 3.1 20 02:35 21.11.2019
3843 Rain 0 1013 93 2414 3.6 10 01:52 21.11.2019
3844 Rain 1 1012 85 2414 5.1 10 01:21 21.11.2019
3845 Rain 2 1014 85 4023 3.6 30 00:41 21.11.2019
3846 Rain 3 1010 85 16093 4.6 30 00:20 21.11.2019
3847 Rain 4 1010 85 16093 4.6 30 23:51 20.11.2019
3848 Clouds 6 1010 49 16093 4.6 50 23:22 20.11.2019
3849 Clouds 6 1008 52 16093 5.7 30 22:58 20.11.2019
3850 Clouds 7 1009 45 16093 5.7 40 22:40 20.11.2019
3851 Clouds 8 1008 43 16093 4.6 50 22:20 20.11.2019
3852 Clouds 8 1007 52 16093 6.2 20 21:58 20.11.2019
3853 Clouds 8 1008 39 16093 5.7 10 21:39 20.11.2019
3854 Clear 9 1007 53 16093 4.1 360 21:20 20.11.2019
3855 Clouds 9 1007 49 16093 4.6 20 20:57 20.11.2019
3856 Clouds 9 1008 43 16093 3.6 10 20:39 20.11.2019
3857 Clouds 9 1007 43 16093 5.1 350 20:21 20.11.2019
3858 Clouds 10 1007 43 16093 5.1 350 19:57 20.11.2019
3859 Clear 10 1009 43 16093 5.1 30 19:37 20.11.2019
3860 Clouds 10 1008 40 16093 5.1 10 19:19 20.11.2019
3861 Clouds 10 1008 40 16093 5.1 10 18:59 20.11.2019
3862 Clear 10 1009 43 16093 4.6 20 18:39 20.11.2019
3863 Clouds 10 1008 43 16093 5.1 10 18:21 20.11.2019
3864 Clouds 10 1008 43 16093 5.1 10 17:56 20.11.2019
3865 Clouds 9 1008 45 16093 2.1 10 17:38 20.11.2019
3866 Clouds 9 1010 40 16093 5.1 30 17:38 20.11.2019
3867 Clouds 9 1010 40 16093 5.1 30 17:38 20.11.2019
3868 Clouds 9 1008 42 16093 0.83 286 17:20 20.11.2019
3869 Clear 8 1008 42 16093 0.83 286 16:56 20.11.2019
3870 Clear 7 1006 56 16093 3.1 310 16:37 20.11.2019
3871 Clouds 7 1006 42 16093 0.83 286 16:18 20.11.2019
3872 Clear 6 1007 65 16093 0.83 286 15:42 20.11.2019
3873 Clouds 6 1005 42 16093 2.1 220 15:22 20.11.2019
3874 Clouds 6 1005 42 16093 2.1 220 14:59 20.11.2019
3875 Clear 6 1006 74 16093 0.83 286 14:40 20.11.2019
3876 Clear 6 1004 52 16093 1.5 270 14:21 20.11.2019
3877 Clouds 6 1004 36 16093 1.5 290 13:58 20.11.2019
3878 Clear 6 1005 74 16093 1.58 227 13:39 20.11.2019
3879 Clouds 6 1004 48 16093 2.6 270 13:20 20.11.2019
3880 Clear 6 1006 69 16093 1 247 12:55 20.11.2019
3881 Clear 6 1006 69 16093 1 247 12:36 20.11.2019
3882 Clouds 6 1004 52 16093 2.1 220 12:18 20.11.2019
3883 Clear 6 1006 65 16093 1 247 11:40 20.11.2019
3884 Clear 6 1004 65 16093 2.1 300 11:21 20.11.2019
3885 Clear 6 1004 48 16093 1.5 280 10:55 20.11.2019
3886 Clear 6 1006 64 16093 2.1 190 10:37 20.11.2019
3887 Clouds 6 1005 52 16093 2.6 50 10:19 20.11.2019
3888 Clear 6 1007 60 16093 1.5 80 09:43 20.11.2019
3889 Clear 6 1005 49 16093 3.6 310 09:21 20.11.2019
3890 Clear 5 1006 49 16093 3.6 300 08:56 20.11.2019
3891 Clear 5 1007 69 16093 1.72 235 08:37 20.11.2019
3892 Clouds 5 1005 34 16093 2.76 227 08:19 20.11.2019
3893 Clear 5 1007 37 16093 1.5 240 07:45 20.11.2019
3894 Clear 5 1006 64 16093 2.1 330 07:25 20.11.2019
3895 Clear 5 1007 37 16093 2.76 227 06:48 20.11.2019
3896 Clear 5 1006 59 16093 2.76 227 06:21 20.11.2019
3897 Clouds 7 1007 31 16093 2.6 200 04:52 20.11.2019
3898 Clear 9 1006 31 16093 2.19 221 03:28 20.11.2019
3899 Clouds 10 1007 26 16093 4.1 160 02:18 20.11.2019
3900 Clear 12 1006 30 16093 1.5 260 01:21 20.11.2019
3901 Clear 14 1008 28 16093 2.1 210 00:35 20.11.2019
3902 Clouds 15 1007 21 16093 2.6 140 23:52 19.11.2019
3903 Clear 16 1006 23 16093 1.5 180 23:25 19.11.2019
3904 Clouds 17 1007 20 16093 4.6 120 22:57 19.11.2019
3905 Clear 17 1008 18 16093 1.5 180 22:39 19.11.2019
3906 Clouds 17 1008 15 16093 3.1 120 22:19 19.11.2019
3907 Clouds 17 1008 15 16093 3.1 120 22:19 19.11.2019
3908 Clouds 17 1008 15 16093 3.1 120 21:55 19.11.2019
3909 Clear 17 1008 18 16093 2.6 140 21:37 19.11.2019
3910 Clear 17 1008 18 16093 2.6 140 21:37 19.11.2019
3911 Clouds 17 1008 17 16093 3.1 110 21:19 19.11.2019
3912 Clear 17 1007 22 16093 2.6 160 21:19 19.11.2019
3913 Clouds 17 1008 17 16093 3.1 110 21:19 19.11.2019
3914 Clouds 16 1008 17 16093 3.1 110 20:55 19.11.2019
3915 Clear 16 1009 18 16093 2.1 160 20:36 19.11.2019
3916 Clear 16 1009 18 16093 2.1 160 20:36 19.11.2019
3917 Clear 16 1009 18 16093 2.1 160 20:36 19.11.2019
3918 Clouds 15 1010 18 16093 3.6 100 20:18 19.11.2019
3919 Clear 15 1011 24 16093 2.1 170 19:55 19.11.2019
3920 Clear 14 1011 24 16093 2.1 170 19:36 19.11.2019
3921 Clouds 14 1011 21 16093 2.6 120 19:18 19.11.2019
3922 Clear 13 1012 28 16093 2.1 190 18:41 19.11.2019
3923 Clear 13 1012 28 16093 2.1 190 18:41 19.11.2019
3924 Clear 13 1012 28 16093 2.1 190 18:41 19.11.2019
3925 Clouds 11 1012 34 16093 2.1 130 18:21 19.11.2019
3926 Clouds 11 1012 34 16093 2.1 130 17:59 19.11.2019
3927 Clear 10 1013 40 16093 2.6 150 17:41 19.11.2019
3928 Clear 10 1013 40 16093 2.6 150 17:41 19.11.2019
3929 Clear 9 1012 65 16093 3.4 211 17:21 19.11.2019
3930 Clear 7 1014 65 16093 3.4 211 16:59 19.11.2019
3931 Clear 6 1014 65 16093 3.4 211 16:40 19.11.2019
3932 Clear 5 1012 60 16093 2.6 180 16:20 19.11.2019
3933 Clear 3 1014 35 16093 2.1 200 15:47 19.11.2019
3934 Clear 2 1012 64 16093 3.1 220 15:27 19.11.2019
3935 Clear 2 1012 64 16093 3.1 220 15:27 19.11.2019
3936 Clouds 2 1012 55 16093 1.5 170 14:58 19.11.2019
3937 Clear 2 1013 86 16093 1.5 220 14:39 19.11.2019
3938 Clouds 2 1011 59 16093 1.5 100 14:21 19.11.2019
3939 Clear 2 1013 86 16093 3 216 13:42 19.11.2019
3940 Clear 2 1013 86 16093 3 216 13:42 19.11.2019
3941 Clear 2 1013 86 16093 3 216 13:42 19.11.2019
3942 Clear 2 1013 86 16093 3 216 13:42 19.11.2019
3943 Clear 2 1012 60 16093 2.9 216 13:22 19.11.2019
3944 Clear 3 1012 60 16093 2.9 216 12:58 19.11.2019
3945 Clear 3 1013 42 16093 2.9 216 12:39 19.11.2019
3946 Clear 3 1012 69 16093 2.9 216 12:21 19.11.2019
3947 Clouds 3 1012 48 16093 2.1 200 11:56 19.11.2019
3948 Clouds 3 1012 48 16093 2.1 200 11:56 19.11.2019
3949 Clear 4 1013 42 16093 1.5 240 11:37 19.11.2019
3950 Clear 4 1012 52 16093 2.6 310 11:18 19.11.2019
3951 Clear 4 1014 74 16093 2.46 218 10:44 19.11.2019
3952 Clear 4 1012 52 16093 1.5 310 10:21 19.11.2019
3953 Clear 4 1014 74 16093 2.46 218 09:45 19.11.2019
3954 Clouds 5 1013 49 16093 2.6 230 09:22 19.11.2019
3955 Clouds 4 1013 49 16093 2.6 230 08:59 19.11.2019
3956 Clear 5 1015 69 16093 2.46 218 08:40 19.11.2019
3957 Clear 5 1014 52 16093 2.1 290 08:22 19.11.2019
3958 Clear 5 1014 48 16093 1.5 310 07:56 19.11.2019
3959 Clear 6 1015 64 16093 1.5 210 07:37 19.11.2019
3960 Clear 6 1014 42 16093 4.1 310 07:18 19.11.2019
3961 Clear 7 1016 56 16093 2.89 217 06:42 19.11.2019
3962 Clouds 7 1015 49 16093 4.6 180 06:19 19.11.2019
3963 Clouds 7 1015 45 16093 6.2 160 05:19 19.11.2019
3964 Clear 9 1017 30 16093 3.6 140 03:41 19.11.2019
3965 Clouds 9 1016 40 16093 3.6 160 03:19 19.11.2019
3966 Clear 10 1017 39 16093 2.6 110 02:49 19.11.2019
3967 Clear 12 1016 24 16093 2.1 310 01:49 19.11.2019
3968 Clear 14 1016 21 16093 3.1 280 00:49 19.11.2019
3969 Clouds 15 1015 23 16093 2.1 80 00:20 19.11.2019
3970 Clear 16 1016 18 16093 4.1 270 23:40 18.11.2019
3971 Clouds 17 1015 20 16093 1.5 0 23:20 18.11.2019
3972 Clear 18 1016 17 16093 4.6 270 22:47 18.11.2019
3973 Clear 18 1014 20 16093 6.7 260 22:24 18.11.2019
3974 Clouds 19 1016 19 16093 3.6 20 21:59 18.11.2019
3975 Clear 19 1016 15 16093 7.2 280 21:40 18.11.2019
3976 Clear 19 1015 18 16093 2.37 28 21:21 18.11.2019
3977 Clouds 18 1016 20 16093 3.6 360 20:59 18.11.2019
3978 Clouds 18 1016 20 16093 3.6 360 20:59 18.11.2019
3979 Clear 18 1016 16 16093 5.7 290 20:40 18.11.2019
3980 Clouds 17 1016 18 16093 4.6 350 20:19 18.11.2019
3981 Clouds 17 1016 18 16093 4.6 350 19:57 18.11.2019
3982 Clear 17 1017 17 16093 6.7 280 19:38 18.11.2019
3983 Clouds 17 1017 23 16093 4.1 320 19:20 18.11.2019
3984 Clouds 16 1018 23 32767 11.3 270 18:56 18.11.2019
3985 Clear 15 1018 19 16093 8.2 290 18:38 18.11.2019
3986 Clouds 14 1017 27 16093 3.6 360 18:19 18.11.2019
3987 Clouds 14 1017 27 16093 3.6 360 17:56 18.11.2019
3988 Clear 14 1018 23 16093 5.7 290 17:37 18.11.2019
3989 Clouds 11 1018 33 16093 3.6 360 17:18 18.11.2019
3990 Clear 11 1018 28 16093 3.47 220 16:42 18.11.2019
3991 Clear 9 1016 28 16093 4.6 240 16:24 18.11.2019
3992 Clouds 8 1017 53 16093 1.5 200 15:57 18.11.2019
3993 Clear 7 1018 56 16093 3.47 220 15:39 18.11.2019
3994 Clear 7 1016 49 16093 4.1 70 15:20 18.11.2019
3995 Clear 8 1016 49 16093 2.1 120 14:44 18.11.2019
3996 Clear 8 1014 35 16093 4.1 140 14:24 18.11.2019
3997 Clear 8 1016 46 16093 3.1 290 13:57 18.11.2019
3998 Clear 8 1016 49 16093 4.21 216 13:39 18.11.2019
3999 Clear 8 1016 43 16093 1.5 160 13:21 18.11.2019
4000 Clear 8 1016 39 16093 3.96 218 12:40 18.11.2019
4001 Clear 8 1014 35 16093 4.1 280 12:20 18.11.2019
4002 Clear 8 1016 40 16093 12.3 280 11:55 18.11.2019
4003 Clear 8 1016 37 16093 4.6 280 11:37 18.11.2019
4004 Clear 9 1015 40 16093 3.1 360 11:19 18.11.2019
4005 Clear 8 1016 32 16093 5.7 280 10:42 18.11.2019
4006 Clear 8 1015 46 16093 2.1 250 10:23 18.11.2019
4007 Clouds 7 1015 56 16093 1.5 160 09:56 18.11.2019
4008 Clouds 7 1014 51 16093 5.7 290 09:38 18.11.2019
4009 Clouds 7 1015 56 16093 2.6 140 09:19 18.11.2019
4010 Clear 8 1015 32 16093 4.6 290 08:46 18.11.2019
4011 Clouds 7 1016 48 16093 1.5 200 08:22 18.11.2019
4012 Clear 7 1016 32 16093 3.6 250 07:49 18.11.2019
4013 Clear 7 1016 35 16093 7.2 280 07:30 18.11.2019
4014 Clear 7 1016 32 16093 4.6 310 06:57 18.11.2019
4015 Clear 7 1015 32 16093 8.7 270 06:39 18.11.2019
4016 Clear 7 1015 40 16093 3.95 229 06:20 18.11.2019
4017 Clouds 7 1016 37 16093 3.6 260 05:25 18.11.2019
4018 Clear 7 1016 37 16093 5.1 310 03:30 18.11.2019
4019 Clear 9 1018 42 16093 1.33 223 01:37 18.11.2019
4020 Clear 11 1018 34 16093 2.1 280 00:46 18.11.2019
4021 Clouds 13 1017 24 16093 1.5 60 23:57 17.11.2019
4022 Clear 13 1018 28 16093 1.5 10 23:39 17.11.2019
4023 Clouds 13 1017 22 16093 3.47 9 23:19 17.11.2019
4024 Clouds 14 1017 22 16093 3.47 9 22:54 17.11.2019
4025 Clear 14 1018 24 16093 3.47 9 22:36 17.11.2019
4026 Clouds 14 1017 22 16093 1.5 30 22:18 17.11.2019
4027 Clear 13 1018 26 16093 3.47 9 21:42 17.11.2019
4028 Clear 13 1017 28 16093 2.6 100 21:20 17.11.2019
4029 Clouds 12 1017 24 16093 3.47 9 20:58 17.11.2019
4030 Clear 12 1019 27 16093 3.47 9 20:39 17.11.2019
4031 Clouds 11 1018 24 16093 2.1 230 20:20 17.11.2019
4032 Clouds 11 1018 24 16093 2.1 230 19:56 17.11.2019
4033 Clear 11 1020 29 16093 2.1 170 19:38 17.11.2019
4034 Clear 11 1020 29 16093 2.1 170 19:38 17.11.2019
4035 Clear 11 1020 29 16093 2.1 170 19:38 17.11.2019
4036 Clear 10 1020 40 16093 2.1 60 19:20 17.11.2019
4037 Clouds 9 1019 37 16093 3.1 0 18:56 17.11.2019
4038 Clear 9 1021 39 16093 2.6 110 18:38 17.11.2019
4039 Clouds 8 1020 45 16093 5.1 170 18:19 17.11.2019
4040 Clouds 7 1020 45 16093 5.1 170 17:57 17.11.2019
4041 Clear 6 1020 69 16093 1.48 137 17:39 17.11.2019
4042 Clear 5 1021 60 16093 2.1 90 17:20 17.11.2019
4043 Clouds 3 1021 60 16093 6.2 170 16:58 17.11.2019
4044 Clear 2 1023 64 16093 2.6 210 16:40 17.11.2019
4045 Clear 1 1022 60 16093 1.83 207 16:21 17.11.2019
4046 Clouds 0 1021 69 16093 6.7 160 15:55 17.11.2019
4047 Clear -1 1023 60 16093 1.83 207 15:37 17.11.2019
4048 Clouds -1 1021 74 16093 5.1 150 15:18 17.11.2019
4049 Clouds -1 1021 74 16093 5.1 150 15:18 17.11.2019
4050 Clouds -2 1021 74 16093 5.1 150 14:55 17.11.2019
4051 Clear -1 1022 60 16093 1.83 207 14:37 17.11.2019
4052 Clear -2 1021 86 16093 1.5 310 14:19 17.11.2019
4053 Clouds -2 1021 74 16093 3.1 160 13:55 17.11.2019
4054 Clouds -2 1021 74 16093 3.1 160 13:55 17.11.2019
4055 Clear -2 1022 76 16093 2.1 180 13:37 17.11.2019
4056 Clouds -2 1022 80 16093 2.6 170 13:18 17.11.2019
4057 Clear -2 1023 80 16093 2.1 210 12:41 17.11.2019
4058 Clear -2 1022 80 16093 2.1 180 12:22 17.11.2019
4059 Clear -2 1023 80 16093 2.6 180 11:56 17.11.2019
4060 Clear -1 1024 80 16093 2.6 200 11:38 17.11.2019
4061 Clear -1 1023 81 16093 1.5 220 11:20 17.11.2019
4062 Clear -1 1025 81 16093 1.5 210 10:44 17.11.2019
4063 Clear -1 1023 86 16093 1.5 210 10:23 17.11.2019
4064 Clear -1 1023 86 16093 2.1 220 09:57 17.11.2019
4065 Clear -1 1025 81 16093 2.1 210 09:39 17.11.2019
4066 Clear 0 1024 80 16093 2.24 174 09:20 17.11.2019
4067 Clouds 1 1026 86 16093 1.5 210 08:39 17.11.2019
4068 Clouds 1 1024 86 16093 2.1 200 08:20 17.11.2019
4069 Clouds 1 1026 74 16093 2.1 200 07:47 17.11.2019
4070 Clouds 1 1025 80 16093 2.6 170 07:24 17.11.2019
4071 Clouds 2 1025 80 16093 2.6 170 06:57 17.11.2019
4072 Clouds 2 1025 74 16093 2.6 170 06:32 17.11.2019
4073 Clouds 2 1027 69 16093 3.1 170 05:40 17.11.2019
4074 Clouds 2 1027 69 16093 3.1 170 05:40 17.11.2019
4075 Clouds 3 1025 69 16093 2.6 150 04:23 17.11.2019
4076 Clouds 3 1026 60 16093 2.1 120 03:45 17.11.2019
4077 Clouds 3 1025 64 32767 3.1 50 03:25 17.11.2019
4078 Snow 4 1023 79 16093 7.7 50 02:27 17.11.2019
4079 Clouds 9 1021 40 16093 7.7 10 01:25 17.11.2019
4080 Clouds 11 1019 34 16093 5.7 20 00:53 17.11.2019
4081 Clouds 13 1018 28 16093 3.6 280 00:22 17.11.2019
4082 Clear 14 1018 22 16093 6.7 280 23:44 16.11.2019
4083 Snow 15 1016 21 16093 5.7 360 23:20 16.11.2019
4084 Snow 15 1016 21 16093 5.7 360 22:59 16.11.2019
4085 Clear 16 1017 17 16093 5.7 290 22:40 16.11.2019
4086 Clear 16 1017 17 16093 5.7 290 22:40 16.11.2019
4087 Snow 16 1016 21 16093 4.6 330 22:18 16.11.2019
4088 Clouds 16 1017 18 16093 5.7 290 21:42 16.11.2019
4089 Clouds 16 1016 19 16093 3.1 100 21:23 16.11.2019
4090 Clouds 16 1016 20 16093 5.7 310 20:59 16.11.2019
4091 Clouds 16 1018 16 16093 7.7 270 20:41 16.11.2019
4092 Clouds 15 1017 21 16093 4.1 330 20:20 16.11.2019
4093 Clouds 15 1017 21 16093 4.1 330 19:57 16.11.2019
4094 Clear 15 1019 18 16093 3.1 340 19:38 16.11.2019
4095 Clouds 15 1018 24 16093 5.1 310 19:20 16.11.2019
4096 Clear 14 1019 19 16093 2.6 220 18:45 16.11.2019
4097 Clear 13 1018 23 16093 3.6 250 18:27 16.11.2019
4098 Clouds 12 1019 26 16093 3.1 290 17:56 16.11.2019
4099 Clouds 12 1019 26 16093 3.1 290 17:56 16.11.2019
4100 Clouds 10 1018 24 16093 6.2 270 17:37 16.11.2019
4101 Clouds 9 1019 27 16093 6.2 240 17:18 16.11.2019
4102 Clear 8 1020 60 16093 3.04 226 16:47 16.11.2019
4103 Clouds 7 1018 32 16093 1.5 240 16:28 16.11.2019
4104 Clear 6 1019 60 16093 1.5 230 15:56 16.11.2019
4105 Clear 6 1019 60 16093 1.5 230 15:38 16.11.2019
4106 Clear 6 1018 56 16093 1.5 290 15:19 16.11.2019
4107 Clouds 6 1017 38 16093 1.5 230 14:41 16.11.2019
4108 Clear 6 1017 60 16093 2.1 240 14:22 16.11.2019
4109 Clear 6 1017 60 16093 2.1 240 14:22 16.11.2019
4110 Clouds 5 1017 39 16093 4.6 240 13:57 16.11.2019
4111 Clear 6 1018 45 16093 3.59 212 13:39 16.11.2019
4112 Clear 6 1017 65 16093 3.62 210 13:19 16.11.2019
4113 Clear 6 1017 36 16093 1.5 220 12:59 16.11.2019
4114 Clear 5 1018 48 16093 1.5 200 12:40 16.11.2019
4115 Clear 5 1017 60 16093 3.62 210 12:20 16.11.2019
4116 Clear 5 1017 60 16093 3.62 210 12:20 16.11.2019
4117 Clear 5 1017 42 16093 3.1 230 11:46 16.11.2019
4118 Clear 5 1017 42 16093 2.1 140 11:27 16.11.2019
4119 Clear 5 1017 42 16093 1.5 130 10:58 16.11.2019
4120 Clear 5 1019 52 16093 1.5 260 10:39 16.11.2019
4121 Clear 5 1019 64 16093 3.2 219 10:21 16.11.2019
4122 Clear 5 1019 80 16093 3.2 219 09:45 16.11.2019
4123 Clear 5 1019 74 16093 1.5 200 09:21 16.11.2019
4124 Clear 5 1019 69 16093 3.2 219 08:59 16.11.2019
4125 Clear 5 1019 69 16093 3.2 219 08:39 16.11.2019
4126 Clear 5 1018 64 16093 2.1 200 08:19 16.11.2019
4127 Clear 5 1020 40 16093 1.5 220 07:43 16.11.2019
4128 Clear 5 1018 60 16093 2.1 220 07:21 16.11.2019
4129 Clear 5 1019 45 16093 3.1 20 06:54 16.11.2019
4130 Clear 6 1019 49 16093 2.6 60 06:33 16.11.2019
4131 Clear 6 1020 40 16093 2.82 225 05:40 16.11.2019
4132 Clear 8 1020 37 16093 1.5 260 03:50 16.11.2019
4133 Clear 9 1019 37 16093 2.1 330 03:25 16.11.2019
4134 Clear 9 1019 37 16093 2.1 330 03:25 16.11.2019
4135 Clear 11 1019 40 16093 1.19 235 01:52 16.11.2019
4136 Clear 12 1019 37 16093 1.28 217 01:21 16.11.2019
4137 Clear 14 1020 32 16093 2.1 360 00:46 16.11.2019
4138 Clouds 14 1019 17 16093 3.6 70 00:26 16.11.2019
4139 Clear 15 1020 27 16093 3.1 40 23:40 15.11.2019
4140 Clouds 18 1019 13 16093 2.6 40 23:21 15.11.2019
4141 Clouds 18 1019 13 16093 2.6 40 22:57 15.11.2019
4142 Clear 18 1020 20 16093 1.5 70 22:38 15.11.2019
4143 Clouds 18 1019 13 16093 2.1 160 22:18 15.11.2019
4144 Clear 19 1020 13 16093 2.1 120 21:42 15.11.2019
4145 Clouds 18 1019 14 16093 2.1 270 21:21 15.11.2019
4146 Clouds 18 1019 14 16093 2.1 270 20:59 15.11.2019
4147 Clear 18 1021 25 16093 1.5 80 20:40 15.11.2019
4148 Clear 15 1020 19 16093 1.72 222 20:22 15.11.2019
4149 Clouds 15 1021 16 16093 3.1 260 19:59 15.11.2019
4150 Clear 14 1022 21 16093 1.18 214 19:41 15.11.2019
4151 Clouds 14 1021 26 16093 2.1 140 19:21 15.11.2019
4152 Clouds 14 1022 16 16093 4.6 240 18:59 15.11.2019
4153 Clouds 13 1021 26 16093 4.1 190 18:41 15.11.2019
4154 Clouds 13 1021 26 16093 4.1 190 18:41 15.11.2019
4155 Clear 12 1021 21 16093 1.18 214 18:22 15.11.2019
4156 Clouds 11 1022 21 16093 5.7 240 17:54 15.11.2019
4157 Clear 10 1021 21 16093 1.18 214 17:36 15.11.2019
4158 Clouds 7 1022 39 16093 1.5 120 17:18 15.11.2019
4159 Clear 6 1023 33 16093 1.5 120 16:40 15.11.2019
4160 Clear 5 1021 33 16093 2.1 360 16:22 15.11.2019
4161 Clouds 4 1022 45 16093 1.5 140 15:57 15.11.2019
4162 Clear 4 1023 33 16093 3.42 218 15:36 15.11.2019
4163 Clouds 4 1022 39 16093 4.6 180 15:18 15.11.2019
4164 Clouds 3 1022 39 16093 4.6 180 14:55 15.11.2019
4165 Clouds 3 1022 39 16093 4.6 180 14:55 15.11.2019
4166 Clear 3 1021 74 16093 2.1 210 14:36 15.11.2019
4167 Clouds 3 1022 59 16093 3.6 120 14:18 15.11.2019
4168 Clouds 2 1022 59 16093 3.6 120 13:54 15.11.2019
4169 Clouds 2 1022 59 16093 3.6 120 13:54 15.11.2019
4170 Clear 2 1021 80 16093 2.96 215 13:36 15.11.2019
4171 Clear 2 1022 56 16093 2.6 320 13:18 15.11.2019
4172 Clear 2 1022 56 16093 2.6 320 12:55 15.11.2019
4173 Clear 2 1023 80 16093 2.96 215 12:36 15.11.2019
4174 Clear 2 1021 60 16093 4.1 240 12:18 15.11.2019
4175 Clear 2 1023 86 16093 2.96 215 11:39 15.11.2019
4176 Clear 2 1022 56 16093 3.1 214 11:21 15.11.2019
4177 Clouds 2 1022 64 16093 3.1 180 10:57 15.11.2019
4178 Clear 2 1024 39 16093 1.5 220 10:39 15.11.2019
4179 Clear 2 1023 39 16093 3.1 214 10:19 15.11.2019
4180 Clear 2 1024 86 16093 3.1 214 09:41 15.11.2019
4181 Clear 2 1023 80 16093 3.1 214 09:20 15.11.2019
4182 Clear 2 1024 39 16093 3.1 214 08:45 15.11.2019
4183 Clear 2 1022 69 16093 2.1 190 08:25 15.11.2019
4184 Clear 2 1022 56 16093 2.42 215 07:54 15.11.2019
4185 Clear 2 1024 86 16093 2.42 215 07:36 15.11.2019
4186 Clouds 2 1022 69 16093 3.1 180 07:18 15.11.2019
4187 Clear 2 1024 86 16093 2.42 215 06:34 15.11.2019
4188 Clouds 2 1023 69 16093 3.1 200 05:52 15.11.2019
4189 Clear 2 1023 64 16093 2.42 215 05:28 15.11.2019
4190 Clear 3 1025 62 16093 1.5 200 04:42 15.11.2019
4191 Clear 4 1025 69 16093 1.96 220 03:37 15.11.2019
4192 Clear 5 1023 56 16093 1.96 220 02:27 15.11.2019
4193 Clear 7 1025 45 16093 0.27 199 01:46 15.11.2019
4194 Clouds 7 1023 48 16093 3.6 180 01:24 15.11.2019
4195 Clear 9 1025 27 16093 0.6 280 00:35 15.11.2019
4196 Clear 10 1025 27 16093 0.6 280 23:58 14.11.2019
4197 Clear 11 1025 52 16093 5.7 170 23:38 14.11.2019
4198 Clouds 11 1023 32 16093 4.6 140 23:19 14.11.2019
4199 Clear 11 1025 26 16093 2.6 130 22:40 14.11.2019
4200 Clear 11 1024 33 16093 2.6 80 22:22 14.11.2019
4201 Clouds 12 1024 32 16093 3.1 160 21:57 14.11.2019
4202 Clear 11 1025 26 16093 3.1 160 21:39 14.11.2019
4203 Clear 11 1025 37 16093 1.5 50 21:21 14.11.2019
4204 Clear 11 1026 32 16093 2.81 85 20:43 14.11.2019
4205 Clear 10 1024 46 16093 1.5 100 20:24 14.11.2019
4206 Clouds 10 1025 34 16093 2.6 110 20:00 14.11.2019
4207 Clear 9 1027 43 16093 1.5 120 19:41 14.11.2019
4208 Clouds 9 1026 49 16093 2.1 180 19:19 14.11.2019
4209 Clouds 8 1026 49 16093 2.1 180 18:59 14.11.2019
4210 Clear 8 1028 52 16093 1.5 110 18:41 14.11.2019
4211 Clouds 7 1026 56 16093 2.6 230 18:21 14.11.2019
4212 Clouds 6 1026 56 16093 2.6 230 17:56 14.11.2019
4213 Clear 5 1029 34 16093 1.5 160 17:37 14.11.2019
4214 Clear 4 1029 67 16093 1.5 160 17:19 14.11.2019
4215 Clouds 3 1027 69 16093 4.1 190 16:57 14.11.2019
4216 Clear 2 1029 80 16093 2.04 205 16:36 14.11.2019
4217 Clouds 1 1027 86 16093 3.6 220 16:18 14.11.2019
4218 Clouds 1 1027 86 16093 3.6 220 15:56 14.11.2019
4219 Clear 0 1029 100 11265 2.04 205 15:38 14.11.2019
4220 Mist -1 1027 100 8047 3.1 170 15:19 14.11.2019
4221 Clouds 0 1026 67 16093 2.1 160 14:44 14.11.2019
4222 Mist -1 1026 100 1609 5.7 170 14:22 14.11.2019
4223 Clouds -1 1026 92 16093 1.5 230 13:57 14.11.2019
4224 Clouds 0 1028 91 16093 0.97 306 13:38 14.11.2019
4225 Clouds 0 1026 87 16093 1.14 278 13:19 14.11.2019
4226 Clouds 0 1026 87 16093 1.14 278 12:55 14.11.2019
4227 Clouds 0 1028 93 16093 1.14 278 12:36 14.11.2019
4228 Clouds 0 1026 87 16093 1.5 50 12:18 14.11.2019
4229 Clouds 0 1028 93 16093 1.5 50 11:39 14.11.2019
4230 Clouds 1 1027 86 16093 1.01 9 11:20 14.11.2019
4231 Clouds 1 1025 74 16093 1.5 270 10:58 14.11.2019
4232 Clouds 1 1028 83 16093 2.1 50 10:38 14.11.2019
4233 Clouds 1 1027 80 16093 2.1 70 10:20 14.11.2019
4234 Rain 1 1025 80 16093 3.6 40 09:56 14.11.2019
4235 Clouds 1 1025 83 16093 4.6 60 09:37 14.11.2019
4236 Clouds 1 1024 83 16093 2.1 140 09:18 14.11.2019
4237 Clouds 1 1026 80 16093 1.01 9 08:47 14.11.2019
4238 Clouds 1 1023 74 16093 2.1 360 08:25 14.11.2019
4239 Clouds 1 1025 80 16093 0.65 92 07:43 14.11.2019
4240 Clouds 1 1023 69 16093 1.5 30 07:25 14.11.2019
4241 Clouds 1 1023 69 16093 1.5 40 06:55 14.11.2019
4242 Clouds 2 1024 74 16093 1.5 30 06:37 14.11.2019
4243 Clouds 2 1022 69 16093 2.6 80 06:18 14.11.2019
4244 Clouds 3 1023 60 16093 1.18 92 04:40 14.11.2019
4245 Clouds 3 1020 60 16093 2.6 120 03:52 14.11.2019
4246 Clear 4 1022 64 16093 1.18 92 02:41 14.11.2019
4247 Clear 6 1021 48 16093 2.81 103 01:41 14.11.2019
4248 Clouds 7 1019 45 16093 4.6 100 01:20 14.11.2019
4249 Clear 10 1020 37 16093 3.1 90 00:43 14.11.2019
4250 Clear 10 1020 37 16093 3.1 90 00:43 14.11.2019
4251 Clear 10 1018 39 16093 1.5 80 00:25 14.11.2019
4252 Clear 12 1019 30 16093 4.6 90 23:40 13.11.2019
4253 Clouds 12 1017 30 16093 3.6 50 23:21 13.11.2019
4254 Clouds 13 1017 30 16093 3.6 50 22:56 13.11.2019
4255 Clear 13 1018 24 16093 6.7 110 22:38 13.11.2019
4256 Clear 13 1018 24 16093 6.7 110 22:38 13.11.2019
4257 Clear 13 1018 24 16093 6.7 110 22:37 13.11.2019
4258 Clear 13 1017 25 16093 6.2 100 22:19 13.11.2019
4259 Clear 13 1018 22 16093 5.7 90 21:55 13.11.2019
4260 Clear 13 1018 22 16093 5.7 90 21:37 13.11.2019
4261 Clouds 13 1016 27 16093 5.1 60 21:18 13.11.2019
4262 Clouds 13 1016 27 16093 5.1 60 20:55 13.11.2019
4263 Clear 13 1018 22 16093 6.7 100 20:37 13.11.2019
4264 Clouds 12 1017 27 16093 5.1 50 20:18 13.11.2019
4265 Clear 12 1018 24 16093 5.1 100 19:43 13.11.2019
4266 Clouds 12 1018 27 16093 7.7 50 19:20 13.11.2019
4267 Clouds 12 1018 27 16093 7.7 50 18:56 13.11.2019
4268 Clear 12 1019 20 16093 3.6 70 18:38 13.11.2019
4269 Clear 12 1019 20 16093 3.6 70 18:38 13.11.2019
4270 Clouds 12 1017 22 16093 9.3 330 18:19 13.11.2019
4271 Clouds 12 1017 22 16093 9.3 330 17:57 13.11.2019
4272 Clear 12 1018 19 16093 4.1 80 17:38 13.11.2019
4273 Clouds 9 1017 22 16093 9.3 340 17:20 13.11.2019
4274 Clouds 9 1017 22 16093 9.3 340 16:58 13.11.2019
4275 Clear 9 1018 16 16093 1.5 60 16:39 13.11.2019
4276 Clear 9 1018 16 16093 1.5 60 16:39 13.11.2019
4277 Clear 9 1018 16 16093 1.5 60 16:39 13.11.2019
4278 Clear 8 1016 24 16093 2.1 20 16:21 13.11.2019
4279 Clouds 8 1016 22 16093 5.7 10 15:58 13.11.2019
4280 Clouds 8 1016 22 16093 5.7 10 15:58 13.11.2019
4281 Clear 8 1017 16 16093 4.6 320 15:39 13.11.2019
4282 Clouds 7 1015 24 16093 8.2 360 15:20 13.11.2019
4283 Clear 8 1015 16 16093 7.7 290 14:42 13.11.2019
4284 Clear 7 1014 28 16093 3.29 217 14:22 13.11.2019
4285 Clouds 6 1014 20 16093 8.7 350 13:58 13.11.2019
4286 Clear 7 1015 32 16093 3.6 250 13:36 13.11.2019
4287 Clear 6 1013 16 16093 9.3 270 13:18 13.11.2019
4288 Clear 7 1014 22 16093 6.7 260 12:54 13.11.2019
4289 Clear 7 1012 16 16093 12.3 270 12:36 13.11.2019
4290 Clouds 7 1013 28 16093 2.6 120 12:18 13.11.2019
4291 Clear 6 1013 20 16093 1.5 230 11:40 13.11.2019
4292 Clouds 5 1012 19 16093 2.6 300 11:19 13.11.2019
4293 Clouds 5 1012 19 16093 2.6 300 10:58 13.11.2019
4294 Clear 5 1013 14 16093 2.1 310 10:39 13.11.2019
4295 Clear 5 1011 24 16093 1.5 150 10:19 13.11.2019
4296 Clear 6 1013 13 16093 2.1 210 09:45 13.11.2019
4297 Clouds 6 1012 22 16093 5.1 190 09:24 13.11.2019
4298 Clouds 6 1012 22 16093 5.1 190 08:57 13.11.2019
4299 Clear 6 1013 26 16093 3.93 220 08:36 13.11.2019
4300 Clouds 5 1013 21 16093 4.1 200 08:18 13.11.2019
4301 -273 0 0 0 0 0 07:42 13.11.2019
4302 Clouds 5 1014 19 16093 2.6 220 07:20 13.11.2019
4303 Clear 5 1014 48 16093 3.6 210 06:44 13.11.2019
4304 Clouds 4 1015 22 16093 4.6 240 06:19 13.11.2019
4305 Clouds 4 1015 22 16093 4.6 240 06:19 13.11.2019
4306 Clouds 4 1015 22 16093 4.6 240 06:19 13.11.2019
4307 Clouds 4 1015 22 16093 4.6 240 06:19 13.11.2019
4308 Clear 4 1016 69 16093 2.1 160 05:52 13.11.2019
4309 Clouds 4 1015 32 16093 3.6 190 05:30 13.11.2019
4310 Clouds 3 1015 41 16093 4.6 230 04:21 13.11.2019
4311 Clouds 6 1016 22 16093 2.6 170 02:18 13.11.2019
4312 Clear 7 1017 59 16093 1.48 230 01:41 13.11.2019
4313 Clear 12 1017 34 16093 1.34 233 00:44 13.11.2019
4314 Clouds 13 1016 9 16093 2.1 30 00:19 13.11.2019
4315 Clear 14 1018 30 16093 1.34 233 23:41 12.11.2019
4316 Clear 14 1016 19 16093 0.87 171 23:21 12.11.2019
4317 Clear 13 1018 30 16093 2.1 350 22:43 12.11.2019
4318 Clouds 13 1017 7 16093 1.5 230 22:21 12.11.2019
4319 Clouds 15 1017 8 32767 7.2 250 21:59 12.11.2019
4320 Clear 15 1019 30 16093 2.6 10 21:40 12.11.2019
4321 Clouds 14 1018 13 32767 7.2 260 21:22 12.11.2019
4322 Clouds 13 1018 9 16093 0.87 171 20:56 12.11.2019
4323 Clear 13 1020 32 16093 2.1 10 20:37 12.11.2019
4324 Clouds 10 1019 15 16093 3.1 180 20:18 12.11.2019
4325 Clouds 10 1019 15 16093 3.1 180 20:18 12.11.2019
4326 Rain 10 1019 15 16093 3.1 180 19:57 12.11.2019
4327 Rain 9 1021 39 16093 2.61 202 19:38 12.11.2019
4328 Rain 8 1020 45 16093 2.61 202 19:19 12.11.2019
4329 Rain 8 1021 25 16093 3.6 190 18:58 12.11.2019
4330 Rain 7 1023 47 16093 2.61 202 18:39 12.11.2019
4331 Rain 6 1022 59 16093 2.61 202 18:21 12.11.2019
4332 Rain 6 1022 59 16093 2.61 202 18:21 12.11.2019
4333 Rain 5 1022 48 16093 3.1 130 17:56 12.11.2019
4334 Rain 4 1024 19 16093 1.5 10 17:37 12.11.2019
4335 Rain 1 1023 51 16093 3.1 140 17:19 12.11.2019
4336 Clear -1 1025 73 16093 3.92 210 16:44 12.11.2019
4337 Clear -2 1023 79 16093 3.92 210 16:25 12.11.2019
4338 Clouds -3 1023 58 16093 4.6 180 15:57 12.11.2019
4339 -273 0 0 0 0 0 15:39 12.11.2019
4340 Clear -5 1024 85 16093 3.92 210 15:20 12.11.2019
4341 Clear -5 1025 85 16093 3.92 210 14:55 12.11.2019
4342 Clear -6 1025 85 16093 3.92 210 14:36 12.11.2019
4343 Clear -6 1023 62 16093 4.1 160 14:18 12.11.2019
4344 Clear -6 1023 62 16093 4.1 160 13:54 12.11.2019
4345 Clear -7 1026 85 16093 3.76 207 13:36 12.11.2019
4346 Clear -7 1024 68 16093 1.5 200 13:18 12.11.2019
4347 Clear -7 1026 85 16093 1.5 230 12:39 12.11.2019
4348 Clear -7 1025 79 16093 4.1 230 12:19 12.11.2019
4349 Clear -7 1025 79 16093 4.1 230 11:55 12.11.2019
4350 Clear -7 1026 73 16093 2.1 240 11:36 12.11.2019
4351 Clear -8 1026 73 16093 5.1 180 11:18 12.11.2019
4352 Clear -8 1029 92 16093 2.47 216 10:55 12.11.2019
4353 Clear -8 1027 79 16093 2.81 216 10:36 12.11.2019
4354 Clear -8 1027 73 16093 5.1 180 10:18 12.11.2019
4355 Clear -8 1030 85 16093 2.47 216 09:39 12.11.2019
4356 Clear -8 1028 79 16093 5.7 180 09:19 12.11.2019
4357 Clear -8 1031 92 16093 2.81 216 08:49 12.11.2019
4358 Clear -8 1028 85 16093 2.47 216 08:29 12.11.2019
4359 Clear -8 1028 85 16093 2.47 216 08:29 12.11.2019
4360 Clear -8 1031 85 16093 1.51 214 07:43 12.11.2019
4361 Clear -8 1029 85 16093 2.1 240 07:24 12.11.2019
4362 Clear -8 1029 85 16093 2.1 250 06:53 12.11.2019
4363 Clear -8 1030 85 16093 1.51 214 06:26 12.11.2019
4364 Clear -7 1033 85 16093 1.51 214 05:54 12.11.2019
4365 Clear -7 1029 67 16093 3.1 170 04:56 12.11.2019
4366 Clear -7 1033 85 16093 1.54 198 04:35 12.11.2019
4367 Clear -6 1033 85 16093 1.54 198 02:39 12.11.2019
4368 Clear -5 1031 68 16093 1.5 140 01:27 12.11.2019
4369 Clear -5 1033 63 16093 1.5 170 00:56 12.11.2019
4370 Clear -4 1033 63 16093 1.5 170 00:37 12.11.2019
4371 Rain -4 1030 68 16093 0.71 63 23:55 11.11.2019
4372 Rain -4 1033 63 16093 0.71 63 23:37 11.11.2019
4373 Rain -4 1030 73 16093 1.42 56 23:18 11.11.2019
4374 Rain -4 1034 68 16093 2.1 140 22:39 11.11.2019
4375 Rain -4 1034 73 16093 1.5 200 22:20 11.11.2019
4376 Rain -5 1031 85 16093 3.1 180 21:58 11.11.2019
4377 Clouds -5 1034 68 16093 2.1 210 21:39 11.11.2019
4378 Clouds -5 1032 67 16093 2.1 160 21:20 11.11.2019
4379 Clouds -5 1032 67 16093 2.1 160 21:20 11.11.2019
4380 Clouds -5 1032 67 16093 2.1 160 21:20 11.11.2019
4381 Clouds -6 1031 79 12874 2.1 170 20:56 11.11.2019
4382 Rain -6 1035 67 16093 1.42 56 20:38 11.11.2019
4383 Rain -7 1031 72 16093 2.42 41 20:19 11.11.2019
4384 Rain -7 1035 73 16093 2.24 32 19:42 11.11.2019
4385 Rain -7 1033 67 16093 2.1 190 19:20 11.11.2019
4386 Rain -8 1034 85 8047 2.24 32 18:59 11.11.2019
4387 Rain -8 1033 78 12874 1.5 100 18:40 11.11.2019
4388 Clouds -8 1035 67 16093 2.1 180 18:21 11.11.2019
4389 Clouds -9 1037 66 16093 1.5 100 17:45 11.11.2019
4390 Clouds -9 1034 85 11265 2.24 32 17:27 11.11.2019
4391 Clouds -10 1034 78 16093 1.5 50 17:27 11.11.2019
4392 Clouds -10 1033 78 14484 2.6 50 16:58 11.11.2019
4393 Rain -10 1037 85 16093 1.5 30 16:38 11.11.2019
4394 Rain -10 1034 92 6437 2.1 70 16:20 11.11.2019
4395 Snow -11 1036 85 4828 3.1 40 15:41 11.11.2019
4396 Snow -11 1033 92 1609 2.1 40 15:20 11.11.2019
4397 Clouds -10 1032 85 3219 3.1 20 14:55 11.11.2019
4398 Snow -10 1030 85 3219 4.1 30 14:37 11.11.2019
4399 Rain -10 1034 85 8047 4.1 50 14:19 11.11.2019
4400 -273 0 0 0 0 0 13:54 11.11.2019
4401 Rain -10 1031 92 3219 5.1 30 13:36 11.11.2019
4402 Rain -9 1030 78 1609 4.1 30 13:18 11.11.2019
4403 Snow -9 1031 92 6437 3.1 10 12:54 11.11.2019
4404 Snow -9 1031 92 6437 3.1 30 12:36 11.11.2019
4405 Snow -9 1030 92 4023 4.1 40 12:18 11.11.2019
4406 Snow -9 1033 85 4828 3.1 30 11:40 11.11.2019
4407 Snow -8 1029 85 1207 6.2 30 11:21 11.11.2019
4408 Snow -8 1029 85 1207 6.2 30 11:21 11.11.2019
4409 Snow -8 1033 92 4023 4.6 40 10:43 11.11.2019
4410 Rain -7 1028 85 1207 8.7 10 10:19 11.11.2019
4411 Rain -7 1027 92 3219 5.7 30 09:58 11.11.2019
4412 Rain -6 1028 92 1609 9.3 30 09:39 11.11.2019
4413 Rain -6 1028 92 1609 9.3 30 09:39 11.11.2019
4414 Mist -6 1028 100 2012 8.2 20 09:19 11.11.2019
4415 Snow -5 1027 92 6437 6.2 50 08:41 11.11.2019
4416 Mist -4 1026 92 2012 7.2 20 08:22 11.11.2019
4417 Clouds -4 1026 92 3219 7.2 40 08:22 11.11.2019
4418 Mist -4 1026 92 2012 7.2 20 07:57 11.11.2019
4419 Snow -3 1026 92 4828 7.2 50 07:37 11.11.2019
4420 Snow -3 1027 86 4828 4.6 60 07:19 11.11.2019
4421 Snow -3 1027 86 4828 4.6 60 07:19 11.11.2019
4422 Rain -2 1027 86 11265 6.2 40 06:48 11.11.2019
4423 Mist -2 1024 92 6437 6.2 30 06:23 11.11.2019
4424 Clouds 0 1025 76 16093 4.6 30 05:51 11.11.2019
4425 Clouds 2 1022 86 12874 6.7 20 04:36 11.11.2019
4426 Clouds 6 1019 60 16093 7.2 360 03:24 11.11.2019
4427 Clouds 11 1016 37 16093 1.5 330 02:26 11.11.2019
4428 Clouds 12 1015 30 16093 2.1 160 01:56 11.11.2019
4429 Clear 12 1016 28 16093 2.23 106 01:35 11.11.2019
4430 Clear 14 1015 35 11265 1.47 62 00:49 11.11.2019
4431 Clouds 15 1014 22 16093 1.47 62 00:26 11.11.2019
4432 Clear 16 1015 14 16093 3.1 110 23:40 10.11.2019
4433 Clear 17 1014 20 16093 2.6 120 23:20 10.11.2019
4434 Clear 17 1014 20 16093 2.6 120 23:20 10.11.2019
4435 Clear 17 1017 26 16093 4.1 30 22:58 10.11.2019
4436 Clear 18 1015 15 16093 4.6 50 22:39 10.11.2019
4437 Clear 18 1013 21 16093 5.1 30 22:20 10.11.2019
4438 Clear 18 1015 14 16093 6.7 30 21:59 10.11.2019
4439 Clear 18 1015 12 16093 4.1 330 21:40 10.11.2019
4440 Clear 18 1014 13 16093 2.41 50 21:21 10.11.2019
4441 Clouds 18 1015 16 32767 4.6 60 20:58 10.11.2019
4442 Clear 18 1016 14 16093 3.1 30 20:38 10.11.2019
4443 Clouds 18 1015 21 16093 4.6 30 20:20 10.11.2019
4444 Clear 18 1014 16 16093 2.1 100 20:20 10.11.2019
4445 Clouds 18 1016 17 16093 6.2 360 19:55 10.11.2019
4446 Clouds 17 1016 17 16093 6.2 360 19:37 10.11.2019
4447 Clear 17 1018 21 16093 7.2 10 19:18 10.11.2019
4448 Clouds 16 1017 18 16093 4.1 80 18:54 10.11.2019
4449 Clouds 16 1017 18 16093 4.1 80 18:54 10.11.2019
4450 Clouds 16 1017 18 16093 4.1 80 18:54 10.11.2019
4451 Clear 16 1018 22 16093 5.7 360 18:36 10.11.2019
4452 Clear 15 1017 28 16093 2.6 40 18:18 10.11.2019
4453 Clouds 15 1017 18 16093 4.1 60 18:18 10.11.2019
4454 Clear 14 1019 22 16093 4.6 30 17:55 10.11.2019
4455 Clear 14 1017 24 16093 2.1 360 17:36 10.11.2019
4456 Clouds 12 1018 30 16093 2.63 207 17:18 10.11.2019
4457 Clear 10 1019 48 16093 2.63 207 16:43 10.11.2019
4458 Clear 9 1017 32 16093 2.63 207 16:25 10.11.2019
4459 Clouds 6 1017 42 16093 3.1 220 15:56 10.11.2019
4460 Clear 4 1017 48 16093 2.1 210 15:37 10.11.2019
4461 Clear 3 1018 69 16093 2.63 207 15:18 10.11.2019
4462 Clouds 3 1017 64 16093 5.1 250 14:56 10.11.2019
4463 Clear 3 1019 79 16093 1.5 190 14:38 10.11.2019
4464 Clear 2 1017 55 16093 2.1 210 14:20 10.11.2019
4465 Clear 3 1017 51 16093 3.1 360 13:45 10.11.2019
4466 Clear 3 1017 55 16093 3.87 206 13:22 10.11.2019
4467 Clouds 3 1017 59 16093 2.1 230 13:00 10.11.2019
4468 Clear 3 1017 69 16093 3.87 206 12:41 10.11.2019
4469 Clear 3 1018 41 16093 3.87 206 12:19 10.11.2019
4470 Clear 3 1017 44 16093 5.7 350 11:55 10.11.2019
4471 Clear 3 1017 44 16093 5.7 350 11:55 10.11.2019
4472 Clear 4 1017 64 16093 4.1 210 11:37 10.11.2019
4473 Clear 4 1018 64 16093 3.17 215 11:19 10.11.2019
4474 Clear 4 1017 52 16093 5.7 190 10:42 10.11.2019
4475 Clouds 4 1018 59 16093 4.1 200 10:21 10.11.2019
4476 Clouds 4 1018 59 16093 4.1 200 09:56 10.11.2019
4477 Clear 5 1018 55 16093 5.1 180 09:38 10.11.2019
4478 Clear 5 1018 51 16093 2.1 200 09:19 10.11.2019
4479 Clear 5 1018 44 16093 1.5 180 08:39 10.11.2019
4480 Clear 6 1018 44 16093 1.5 180 08:20 10.11.2019
4481 Clear 6 1019 56 16093 5.1 180 07:45 10.11.2019
4482 Clear 6 1019 31 16093 2.1 170 07:26 10.11.2019
4483 Clear 7 1020 29 16093 2.6 160 06:54 10.11.2019
4484 Clear 8 1019 29 16093 3.1 160 05:51 10.11.2019
4485 Clear 10 1019 20 16093 4.1 270 03:28 10.11.2019
4486 Clear 13 1019 17 16093 1.07 163 02:20 10.11.2019
4487 Clear 14 1018 19 16093 2.6 300 01:20 10.11.2019
4488 Clear 19 1019 11 16093 0.58 198 00:45 10.11.2019
4489 Clear 20 1019 11 32767 6.7 280 23:59 09.11.2019
4490 Clouds 19 1018 14 16093 4.1 70 23:59 09.11.2019
4491 Clear 20 1019 9 16093 2.1 80 23:38 09.11.2019
4492 Clouds 21 1018 8 16093 2.6 70 23:19 09.11.2019
4493 Clear 21 1019 6 16093 2.1 21 22:42 09.11.2019
4494 Clear 21 1017 11 16093 3.6 290 22:21 09.11.2019
4495 Clouds 22 1018 9 16093 1.5 0 21:58 09.11.2019
4496 Clear 24 1019 6 16093 3.1 330 21:38 09.11.2019
4497 Clear 24 1019 6 16093 3.1 330 21:38 09.11.2019
4498 Clear 24 1017 12 16093 2.6 10 21:20 09.11.2019
4499 Clear 23 1019 11 16093 5.7 260 20:44 09.11.2019
4500 Clear 22 1019 11 16093 5.7 260 20:24 09.11.2019
4501 Clouds 20 1020 15 16093 3.01 210 19:58 09.11.2019
4502 Clouds 20 1020 17 32186 4.1 110 19:40 09.11.2019
4503 Clear 19 1019 22 16093 3.01 210 19:22 09.11.2019
4504 Clouds 19 1020 17 32186 4.1 110 19:22 09.11.2019
4505 Clouds 19 1020 13 16093 4.1 210 18:57 09.11.2019
4506 Clear 19 1021 10 16093 4.1 230 18:38 09.11.2019
4507 Clear 17 1020 29 16093 1.5 60 18:18 09.11.2019
4508 Clear 16 1022 16 16093 1.5 190 17:41 09.11.2019
4509 Clear 13 1021 41 16093 1.5 120 17:22 09.11.2019
4510 Clear 13 1021 41 16093 1.5 120 17:22 09.11.2019
4511 Clear 11 1021 37 16093 1.5 110 16:56 09.11.2019
4512 Clear 11 1023 52 16093 4.54 215 16:37 09.11.2019
4513 Clear 8 1021 60 16093 1.5 240 16:18 09.11.2019
4514 Clear 6 1023 69 16093 1.5 200 15:41 09.11.2019
4515 Clear 6 1023 41 16093 4.54 215 15:23 09.11.2019
4516 Clear 6 1023 41 16093 4.54 215 14:46 09.11.2019
4517 Clear 5 1021 38 16093 2.1 340 14:23 09.11.2019
4518 Clouds 5 1022 33 16093 7.7 210 13:58 09.11.2019
4519 Clear 5 1023 45 16093 1.5 180 13:40 09.11.2019
4520 Clear 4 1021 36 16093 1.5 150 13:21 09.11.2019
4521 Clear 4 1022 31 16093 6.7 210 12:58 09.11.2019
4522 Clear 4 1023 55 16093 5.7 200 12:40 09.11.2019
4523 Clear 4 1023 33 16093 4.33 216 12:21 09.11.2019
4524 Clear 4 1024 44 16093 4.33 216 11:48 09.11.2019
4525 Clear 5 1023 56 16093 2.1 150 11:22 09.11.2019
4526 Clear 4 1023 36 16093 2.6 70 10:58 09.11.2019
4527 Clear 5 1025 69 16093 4.21 216 10:39 09.11.2019
4528 Clear 5 1024 34 16093 4.21 216 10:19 09.11.2019
4529 Clear 5 1025 59 16093 4.21 216 09:45 09.11.2019
4530 Clear 5 1024 36 16093 4.21 216 09:26 09.11.2019
4531 Clear 5 1024 39 16093 4.21 216 08:57 09.11.2019
4532 Clear 5 1025 59 16093 1.5 190 08:39 09.11.2019
4533 Clear 5 1025 36 16093 4.14 217 08:19 09.11.2019
4534 Clear 5 1025 36 16093 4.14 217 08:19 09.11.2019
4535 Clear 5 1026 55 16093 1.5 220 07:43 09.11.2019
4536 Clear 5 1025 33 16093 2.1 140 07:22 09.11.2019
4537 Clear 6 1026 51 16093 3.88 219 06:48 09.11.2019
4538 Clear 6 1025 29 16093 2.1 150 06:30 09.11.2019
4539 Clear 6 1026 41 16093 3.88 219 05:42 09.11.2019
4540 Clear 7 1026 36 16093 4.1 180 04:51 09.11.2019
4541 Clear 9 1025 27 16093 1.5 0 02:57 09.11.2019
4542 Clear 10 1025 23 16093 1.5 170 02:39 09.11.2019
4543 Clear 11 1025 20 16093 4.1 270 01:43 09.11.2019
4544 Clear 18 1024 14 16093 2.1 270 00:49 09.11.2019
4545 Clear 17 1023 14 16093 1.5 200 00:29 09.11.2019
4546 Clear 19 1024 9 16093 0.62 193 23:43 08.11.2019
4547 Clear 18 1022 14 16093 6.2 280 23:23 08.11.2019
4548 Clouds 17 1023 12 16093 9.8 250 22:59 08.11.2019
4549 Clear 17 1023 9 16093 2.56 9 22:41 08.11.2019
4550 Clear 17 1021 13 16093 3.1 20 22:21 08.11.2019
4551 Clouds 19 1023 10 16093 3.6 280 21:55 08.11.2019
4552 Clear 20 1023 9 16093 1.5 300 21:36 08.11.2019
4553 Clouds 19 1023 10 16093 4.1 280 21:18 08.11.2019
4554 Clear 19 1023 10 16093 2.1 360 20:41 08.11.2019
4555 Clear 17 1023 23 16093 2.64 212 20:20 08.11.2019
4556 Clouds 16 1024 10 16093 1.5 0 19:56 08.11.2019
4557 Clear 16 1025 21 16093 2.64 212 19:37 08.11.2019
4558 Clouds 15 1024 10 16093 2.64 212 19:18 08.11.2019
4559 Clear 14 1025 43 16093 2.64 212 18:55 08.11.2019
4560 Clouds 14 1024 10 16093 2.64 212 18:55 08.11.2019
4561 Clear 13 1025 43 16093 2.64 212 18:37 08.11.2019
4562 Clouds 12 1025 14 16093 4.1 240 18:18 08.11.2019
4563 Clouds 11 1025 14 16093 4.1 240 17:55 08.11.2019
4564 Clear 10 1024 18 16093 2.64 212 17:36 08.11.2019
4565 Clouds 7 1025 37 16093 4.1 220 17:18 08.11.2019
4566 Clouds 7 1025 45 16093 3.94 215 16:57 08.11.2019
4567 Mist 5 1027 40 8047 3.94 215 16:38 08.11.2019
4568 Clear 3 1025 55 16093 2.6 140 16:18 08.11.2019
4569 Mist 0 1024 100 8047 3.94 215 15:42 08.11.2019
4570 Mist 0 1024 100 8047 3.94 215 15:23 08.11.2019
4571 Clear 0 1024 40 16093 2.6 150 14:58 08.11.2019
4572 Mist -1 1026 92 8047 3.94 215 14:39 08.11.2019
4573 Mist -1 1026 92 8047 3.94 215 14:39 08.11.2019
4574 Mist -2 1024 92 8047 3.99 214 14:20 08.11.2019
4575 Mist -2 1024 92 8047 3.99 214 14:20 08.11.2019
4576 Clear -2 1024 63 16093 2.6 170 13:59 08.11.2019
4577 Mist -2 1025 100 8047 3.99 214 13:41 08.11.2019
4578 Mist -2 1023 100 8047 2.1 150 13:22 08.11.2019
4579 Mist -2 1026 92 8047 3.98 216 12:49 08.11.2019
4580 Mist -2 1026 92 8047 3.98 216 12:49 08.11.2019
4581 Clear -2 1024 47 11265 3.98 216 12:29 08.11.2019
4582 Clear -2 1024 47 11265 1.5 210 11:59 08.11.2019
4583 Mist -2 1026 92 8047 3.98 216 11:41 08.11.2019
4584 Mist -2 1025 92 8047 3.39 223 11:21 08.11.2019
4585 Clear -2 1024 49 11265 3.39 223 10:59 08.11.2019
4586 Mist -2 1027 100 8047 3.39 223 10:41 08.11.2019
4587 Clouds -1 1024 86 16093 2.1 190 10:21 08.11.2019
4588 Clear -1 1025 49 16093 3.39 223 09:58 08.11.2019
4589 Mist -1 1027 92 8047 3.39 223 09:38 08.11.2019
4590 Clouds -1 1024 49 16093 2.6 170 09:19 08.11.2019
4591 Mist 0 1027 92 8047 3.39 223 08:45 08.11.2019
4592 Clear 0 1025 49 11265 2.64 214 08:21 08.11.2019
4593 Mist 0 1027 92 8047 2.64 214 07:45 08.11.2019
4594 Clear 0 1025 49 16093 1.5 20 07:24 08.11.2019
4595 Clear 1 1025 49 16093 2.64 214 06:58 08.11.2019
4596 Clear 1 1027 92 11265 2.64 214 06:37 08.11.2019
4597 Clear 1 1026 86 16093 2.64 214 06:19 08.11.2019
4598 Clear 1 1026 49 16093 2.64 214 05:32 08.11.2019
4599 Clear 1 1026 93 16093 2.1 216 04:29 08.11.2019
4600 Clear 2 1028 74 11265 2.1 216 03:42 08.11.2019
4601 Clouds 2 1026 74 16093 2.1 300 03:19 08.11.2019
4602 Clear 5 1028 69 16093 1.46 318 01:54 08.11.2019
4603 Clear 5 1028 69 16093 1.46 318 01:36 08.11.2019
4604 Clear 9 1028 63 16093 1.5 20 00:46 08.11.2019
4605 Clear 9 1026 65 16093 1.86 316 00:22 08.11.2019
4606 Clear 9 1026 65 16093 1.86 316 00:22 08.11.2019
4607 Clear 9 1028 63 16093 1.86 316 23:49 07.11.2019
4608 Clear 9 1026 65 16093 1.5 60 23:28 07.11.2019
4609 Rain 9 1026 43 16093 2.1 70 22:58 07.11.2019
4610 Rain 8 1028 43 16093 3.39 5 22:40 07.11.2019
4611 Rain 9 1027 57 16093 3.39 5 22:20 07.11.2019
4612 Clear 8 1028 70 16093 2.1 30 21:40 07.11.2019
4613 Clear 8 1026 70 0 1.5 30 21:21 07.11.2019
4614 Clear 8 1026 70 0 1.5 30 21:21 07.11.2019
4615 Clear 8 1026 40 16093 1.5 70 20:59 07.11.2019
4616 Clear 8 1029 75 16093 3.39 5 20:41 07.11.2019
4617 Clear 6 1027 80 16093 1.5 20 20:23 07.11.2019
4618 Clear 6 1027 49 16093 2.41 45 19:59 07.11.2019
4619 Clear 6 1030 80 16093 2.1 360 19:40 07.11.2019
4620 Clouds 5 1028 48 16093 2.41 45 19:21 07.11.2019
4621 Clouds 5 1028 56 16093 2.1 200 18:58 07.11.2019
4622 Clouds 5 1028 56 16093 2.1 200 18:58 07.11.2019
4623 Rain 4 1031 48 16093 2.41 45 18:39 07.11.2019
4624 Rain 3 1029 48 16093 2.41 45 18:19 07.11.2019
4625 Rain 2 1029 69 16093 2.41 45 17:57 07.11.2019
4626 Rain 2 1031 48 16093 2.1 170 17:38 07.11.2019
4627 Rain 1 1031 72 16093 2.1 170 17:20 07.11.2019
4628 Rain 0 1032 72 16093 1.5 260 16:55 07.11.2019
4629 Rain 0 1032 72 16093 1.5 260 16:55 07.11.2019
4630 Rain -1 1032 72 16093 0.69 177 16:37 07.11.2019
4631 Rain -1 1032 72 16093 0.69 177 16:19 07.11.2019
4632 Clouds -1 1029 72 16093 2.1 250 15:43 07.11.2019
4633 Clouds -2 1032 92 16093 0.69 177 15:21 07.11.2019
4634 Clouds -2 1032 92 16093 0.69 177 14:59 07.11.2019
4635 Clouds -2 1030 100 16093 1.5 90 14:39 07.11.2019
4636 Clouds -2 1032 92 16093 1.25 343 14:21 07.11.2019
4637 Clouds -2 1032 92 16093 1.25 343 13:55 07.11.2019
4638 Clouds -2 1030 86 16093 1.25 343 13:37 07.11.2019
4639 Clouds -2 1032 92 16093 0.88 313 13:19 07.11.2019
4640 Clouds -2 1029 92 16093 0.88 313 12:57 07.11.2019
4641 Clouds -2 1030 92 16093 0.88 313 12:38 07.11.2019
4642 Clouds -2 1029 100 16093 1.5 60 12:18 07.11.2019
4643 Clouds -2 1029 92 16093 1.5 160 11:42 07.11.2019
4644 Clouds -2 1029 92 16093 2.6 130 11:23 07.11.2019
4645 Clouds -2 1029 92 16093 2.6 130 11:23 07.11.2019
4646 Clouds -2 1029 92 16093 1.19 167 10:43 07.11.2019
4647 Clouds -2 1032 92 16093 1.5 150 10:19 07.11.2019
4648 Clouds -3 1029 100 16093 1.5 130 09:57 07.11.2019
4649 Clouds -3 1032 92 16093 1.5 170 09:38 07.11.2019
4650 Clouds -3 1032 92 16093 1.5 170 09:20 07.11.2019
4651 Clouds -3 1032 92 16093 1.5 170 09:20 07.11.2019
4652 Clouds -3 1029 86 16093 3.1 130 08:45 07.11.2019
4653 Clouds -3 1029 86 16093 3.1 130 08:44 07.11.2019
4654 Clouds -3 1029 86 16093 3.1 130 08:44 07.11.2019
4655 Clouds -3 1033 100 16093 2.1 140 08:22 07.11.2019
4656 Clouds -3 1030 100 11265 2.1 70 07:57 07.11.2019
4657 Clouds -3 1030 92 16093 2.6 110 07:39 07.11.2019
4658 Clouds -3 1033 100 16093 2.6 90 07:20 07.11.2019
4659 Mist -3 1030 92 6437 3.1 70 06:45 07.11.2019
4660 Mist -2 1030 92 6437 3.1 90 06:25 07.11.2019
4661 Mist -2 1030 100 3219 3.1 80 05:49 07.11.2019
4662 Clouds -2 1030 100 4828 3.1 70 05:31 07.11.2019
4663 -273 0 0 0 0 0 04:51 07.11.2019
4664 Mist -2 1029 92 3219 5.1 80 04:50 07.11.2019
4665 Clouds -2 1031 92 6437 2.6 80 04:28 07.11.2019
4666 Clouds -1 1029 74 4828 2.6 80 01:27 07.11.2019
4667 Clouds -1 1029 74 2816 2.6 90 00:27 07.11.2019
4668 Mist -1 1026 100 3219 5.1 70 23:54 06.11.2019
4669 Clouds 1 1028 86 16093 2.6 70 23:36 06.11.2019
4670 Clouds 1 1028 86 16093 2.6 70 23:18 06.11.2019
4671 Clouds 2 1027 44 16093 2.6 70 22:39 06.11.2019
4672 Clouds 2 1027 44 16093 2.6 70 22:20 06.11.2019
4673 Clouds 3 1027 80 16093 4.6 60 21:57 06.11.2019
4674 Mist 3 1024 44 2012 7.2 40 21:39 06.11.2019
4675 Mist 3 1024 44 2012 7.2 40 21:39 06.11.2019
4676 Mist 4 1024 44 2012 7.2 40 21:19 06.11.2019
4677 Clouds 6 1023 70 16093 9.8 40 20:56 06.11.2019
4678 Clouds 7 1026 65 16093 7.2 30 20:38 06.11.2019
4679 Clouds 8 1026 65 16093 7.2 30 20:19 06.11.2019
4680 Clear 8 1025 56 16093 6.2 40 19:55 06.11.2019
4681 Clear 9 1024 49 16093 7.2 30 19:36 06.11.2019
4682 Clear 9 1024 49 16093 7.2 30 19:18 06.11.2019
4683 Clear 11 1023 20 16093 4.21 5 18:39 06.11.2019
4684 Clouds 12 1021 23 16093 2.6 250 18:20 06.11.2019
4685 Clouds 11 1021 23 16093 2.6 250 17:59 06.11.2019
4686 Clear 10 1023 32 16093 4.21 5 17:41 06.11.2019
4687 Clear 8 1021 42 16093 3.21 213 17:23 06.11.2019
4688 Clouds 7 1022 45 16093 1.5 110 16:57 06.11.2019
4689 Clear 6 1023 42 11265 3.21 213 16:38 06.11.2019
4690 Clear 5 1022 42 16093 2.1 200 16:19 06.11.2019
4691 Clouds 3 1021 36 16093 3.21 213 15:56 06.11.2019
4692 Clouds 3 1021 36 16093 3.21 213 15:56 06.11.2019
4693 Mist 2 1023 92 6437 3.21 213 15:37 06.11.2019
4694 Clouds 1 1021 68 16093 3.1 130 15:19 06.11.2019
4695 Clouds 0 1021 68 16093 3.1 130 14:56 06.11.2019
4696 Clear 0 1020 42 16093 2.1 230 14:38 06.11.2019
4697 Clear 0 1021 86 11265 2.6 220 14:20 06.11.2019
4698 Mist 0 1022 92 8047 3.81 216 13:41 06.11.2019
4699 Clear 0 1021 69 16093 1.5 220 13:23 06.11.2019
4700 Mist 0 1022 92 8047 3.89 217 12:58 06.11.2019
4701 Mist 0 1022 92 8047 3.89 217 12:40 06.11.2019
4702 Clear 0 1020 55 16093 1.5 190 12:21 06.11.2019
4703 Clear 0 1020 55 16093 1.5 150 11:58 06.11.2019
4704 Clear 0 1022 92 11265 2.1 180 11:38 06.11.2019
4705 Clear 0 1020 69 16093 3.8 213 11:19 06.11.2019
4706 Clear 0 1020 69 16093 3.8 213 10:57 06.11.2019
4707 Mist 1 1022 92 8047 2.1 200 10:39 06.11.2019
4708 Mist 1 1022 92 8047 2.1 200 10:39 06.11.2019
4709 Clear 1 1021 57 11265 3.8 213 10:20 06.11.2019
4710 Clear 1 1021 57 11265 3.8 213 10:20 06.11.2019
4711 Clear 1 1021 69 16093 2.1 360 09:56 06.11.2019
4712 Clear 1 1021 65 16093 3.8 213 09:36 06.11.2019
4713 Clear 1 1021 69 16093 3.6 130 09:18 06.11.2019
4714 Clear 1 1021 69 16093 3.6 130 08:54 06.11.2019
4715 Clear 2 1022 92 11265 3.8 213 08:36 06.11.2019
4716 Clear 2 1022 92 11265 3.8 213 08:36 06.11.2019
4717 Clear 2 1021 65 16093 2.84 220 08:18 06.11.2019
4718 Mist 2 1022 92 8047 2.84 220 07:40 06.11.2019
4719 Clear 2 1021 59 16093 2.1 280 07:22 06.11.2019
4720 Clear 3 1023 86 11265 2.84 220 06:47 06.11.2019
4721 Clear 3 1021 59 16093 3.6 320 06:27 06.11.2019
4722 Clear 4 1021 60 16093 2.1 190 04:52 06.11.2019
4723 Clear 7 1021 60 16093 1.5 300 02:28 06.11.2019
4724 Clear 8 1022 52 16093 0.59 54 01:39 06.11.2019
4725 Clear 13 1022 33 16093 1.05 138 00:46 06.11.2019
4726 Clouds 14 1020 33 16093 3.6 110 23:58 05.11.2019
4727 Clear 14 1021 30 16093 1.05 138 23:39 05.11.2019
4728 Clear 14 1021 30 16093 1.05 138 23:39 05.11.2019
4729 Clear 14 1021 30 16093 1.05 138 23:39 05.11.2019
4730 Clear 14 1020 36 16093 1.5 350 23:21 05.11.2019
4731 Clear 14 1020 36 16093 1.5 350 23:21 05.11.2019
4732 Clear 14 1022 33 16093 3.1 150 22:46 05.11.2019
4733 Clear 14 1020 41 16093 2.1 100 22:20 05.11.2019
4734 Clouds 14 1020 28 16093 2.6 120 21:59 05.11.2019
4735 Clouds 14 1020 28 16093 2.6 120 21:59 05.11.2019
4736 Clear 13 1022 29 16093 2.1 120 21:41 05.11.2019
4737 Clear 13 1020 29 16093 1.5 140 21:21 05.11.2019
4738 Clouds 13 1021 28 16093 2.1 30 20:58 05.11.2019
4739 Clear 12 1023 46 16093 1.5 150 20:39 05.11.2019
4740 Clouds 12 1021 46 16093 3.1 70 20:20 05.11.2019
4741 Clouds 11 1022 31 16093 2.1 20 19:57 05.11.2019
4742 Clear 11 1023 53 11265 1.5 350 19:38 05.11.2019
4743 Clear 11 1023 53 11265 1.5 350 19:38 05.11.2019
4744 Clouds 10 1022 40 16093 1.5 10 19:20 05.11.2019
4745 Clouds 9 1022 40 16093 1.5 10 18:57 05.11.2019
4746 Clear 9 1024 61 16093 0.92 85 18:38 05.11.2019
4747 Clear 8 1023 31 16093 1.5 80 18:20 05.11.2019
4748 Clouds 8 1022 49 16093 0.92 85 17:57 05.11.2019
4749 Clear 7 1024 70 16093 0.92 85 17:38 05.11.2019
4750 Clear 7 1024 70 16093 0.92 85 17:38 05.11.2019
4751 Clouds 5 1023 48 16093 3.6 340 17:18 05.11.2019
4752 Clear 4 1025 50 11265 2.67 209 16:42 05.11.2019
4753 Mist 2 1022 86 4828 2.1 240 16:22 05.11.2019
4754 Clouds 1 1022 50 16093 3.1 360 15:59 05.11.2019
4755 Clear 0 1022 50 16093 2.67 209 15:37 05.11.2019
4756 Mist 0 1024 92 8047 2.67 209 15:37 05.11.2019
4757 Clear -1 1023 86 11265 2.67 209 15:19 05.11.2019
4758 Clouds -1 1021 86 16093 2.1 360 14:57 05.11.2019
4759 Clear -1 1023 92 11265 2.67 209 14:38 05.11.2019
4760 Clear -2 1022 86 11265 2.46 222 14:19 05.11.2019
4761 Clear -2 1023 92 11265 2.46 222 13:43 05.11.2019
4762 Clear -2 1021 60 16093 1.5 220 13:24 05.11.2019
4763 Clear -2 1021 92 16093 2.1 280 12:59 05.11.2019
4764 Clear -2 1023 92 11265 2.71 218 12:39 05.11.2019
4765 Clear -1 1020 60 16093 1.5 310 12:18 05.11.2019
4766 Clear -1 1022 92 16093 2.71 218 11:40 05.11.2019
4767 Clear -1 1020 64 16093 1.5 290 11:21 05.11.2019
4768 Clear -1 1020 64 16093 1.5 290 10:59 05.11.2019
4769 Clear -1 1022 92 11265 2.63 223 10:41 05.11.2019
4770 Clear -1 1020 64 16093 1.5 10 10:22 05.11.2019
4771 Clear -1 1020 64 16093 1.5 10 09:56 05.11.2019
4772 Clear 0 1022 100 11265 2.63 223 09:37 05.11.2019
4773 Clear 0 1021 64 16093 2.63 223 09:18 05.11.2019
4774 Clear 0 1023 92 16093 2.63 223 08:40 05.11.2019
4775 Clear 0 1022 73 16093 2.26 205 08:20 05.11.2019
4776 Clear 0 1021 73 16093 2.26 205 07:58 05.11.2019
4777 Clear 0 1023 92 16093 2.26 205 07:40 05.11.2019
4778 Clear 0 1021 73 16093 1.5 230 07:22 05.11.2019
4779 Clear 0 1023 73 11265 2.26 205 06:50 05.11.2019
4780 Clear 0 1022 73 16093 1.5 210 05:51 05.11.2019
4781 Clouds 0 1022 86 16093 2.6 190 05:23 05.11.2019
4782 Clear 1 1022 83 16093 0.92 249 04:31 05.11.2019
4783 Clear 1 1022 83 16093 0.92 249 03:55 05.11.2019
4784 Clear 2 1023 83 16093 0.92 249 02:48 05.11.2019
4785 Clear 3 1021 77 16093 1.52 36 02:22 05.11.2019
4786 Clear 4 1020 80 16093 1.5 52 01:25 05.11.2019
4787 Clouds 6 1022 70 16093 2.6 20 00:37 05.11.2019
4788 Clouds 7 1019 80 16093 4.6 10 23:56 04.11.2019
4789 Clear 8 1021 65 16093 3.6 350 23:37 04.11.2019
4790 Clouds 8 1018 43 16093 2.6 10 23:18 04.11.2019
4791 Clouds 8 1018 43 16093 2.6 10 23:18 04.11.2019
4792 Clear 8 1020 57 16093 2.6 30 22:42 04.11.2019
4793 Clear 8 1018 52 16093 3.1 10 22:23 04.11.2019
4794 Clouds 9 1018 52 32186 3.6 10 21:56 04.11.2019
4795 Clouds 9 1018 52 32186 3.6 10 21:56 04.11.2019
4796 Clouds 9 1020 49 16093 1.5 30 21:38 04.11.2019
4797 Clouds 9 1017 43 16093 4.6 360 21:19 04.11.2019
4798 Clouds 8 1017 43 16093 4.6 360 20:59 04.11.2019
4799 Clouds 8 1020 52 16093 3.6 30 20:39 04.11.2019
4800 Clouds 8 1018 43 16093 2.6 20 20:21 04.11.2019
4801 Clouds 8 1018 43 16093 2.6 20 19:59 04.11.2019
4802 Clear 8 1020 51 16093 2.65 29 19:40 04.11.2019
4803 Clouds 7 1019 60 16093 1.5 290 19:21 04.11.2019
4804 Clouds 7 1018 43 16093 2.65 29 18:57 04.11.2019
4805 Clouds 7 1021 56 16093 3.6 350 18:38 04.11.2019
4806 Clouds 6 1018 52 16093 2.65 29 18:19 04.11.2019
4807 Clear 5 1020 60 16093 1.5 40 17:40 04.11.2019
4808 Clouds 5 1018 55 16093 2.07 202 17:21 04.11.2019
4809 Clouds 4 1018 55 16093 2.07 202 16:57 04.11.2019
4810 Clear 3 1020 69 16093 2.07 202 16:39 04.11.2019
4811 Clear 2 1018 69 16093 2.07 202 16:21 04.11.2019
4812 Clouds 2 1018 64 16093 1.5 280 15:56 04.11.2019
4813 Clear 1 1020 86 16093 2.07 202 15:38 04.11.2019
4814 Clouds 0 1018 64 16093 3.1 270 15:19 04.11.2019
4815 Clouds 0 1018 64 16093 3.1 270 14:54 04.11.2019
4816 Clouds 0 1018 64 16093 3.1 270 14:54 04.11.2019
4817 Clear 0 1019 86 16093 2.07 202 14:36 04.11.2019
4818 Clouds 0 1017 69 16093 2.6 360 14:18 04.11.2019
4819 Clear 0 1020 65 16093 1.7 219 13:42 04.11.2019
4820 Clouds 0 1018 74 16093 2.6 330 13:22 04.11.2019
4821 Clouds 0 1017 74 16093 4.1 330 12:59 04.11.2019
4822 Clouds 1 1019 80 16093 1.5 320 12:41 04.11.2019
4823 Clouds 1 1017 69 16093 3.1 360 12:22 04.11.2019
4824 Clouds 1 1016 69 16093 1.5 220 11:57 04.11.2019
4825 Clear 1 1018 74 16093 3.1 40 11:38 04.11.2019
4826 Clouds 2 1016 64 16093 3.1 220 11:20 04.11.2019
4827 Clouds 2 1018 80 16093 1.5 10 10:42 04.11.2019
4828 Clouds 2 1016 56 16093 4.1 360 10:24 04.11.2019
4829 Clouds 2 1018 67 16093 2.25 215 09:47 04.11.2019
4830 Clouds 3 1017 48 16093 2.6 350 09:28 04.11.2019
4831 Clear 3 1017 48 16093 2.1 10 08:59 04.11.2019
4832 Clouds 3 1018 80 16093 2.25 215 08:40 04.11.2019
4833 Clouds 3 1016 55 16093 1.5 150 08:21 04.11.2019
4834 Clouds 3 1019 86 16093 1.5 210 07:44 04.11.2019
4835 Clear 3 1017 56 16093 3.6 350 07:24 04.11.2019
4836 Clear 3 1017 56 16093 3.1 50 06:57 04.11.2019
4837 Clear 3 1019 80 16093 1.47 288 06:35 04.11.2019
4838 Clear 4 1017 52 16093 1.47 288 05:57 04.11.2019
4839 Clear 5 1018 64 16093 2.12 225 04:45 04.11.2019
4840 Clouds 5 1016 42 16093 6.7 120 04:21 04.11.2019
4841 Clear 7 1017 56 16093 2.12 225 02:34 04.11.2019
4842 Clear 8 1016 31 16093 2.43 179 01:22 04.11.2019
4843 Clear 10 1016 31 16093 1.5 190 00:43 04.11.2019
4844 Clear 10 1014 39 16093 2.43 179 00:21 04.11.2019
4845 Clear 11 1016 27 16093 4.1 120 23:44 03.11.2019
4846 Clear 12 1014 40 16093 2.6 350 23:22 03.11.2019
4847 Clouds 12 1015 26 16093 4.1 120 22:59 03.11.2019
4848 Clear 12 1016 24 16093 1.5 190 22:41 03.11.2019
4849 Clear 12 1015 26 16093 1.5 100 22:20 03.11.2019
4850 Clouds 12 1015 22 16093 3.1 90 21:58 03.11.2019
4851 Clear 12 1016 32 16093 1.5 70 21:39 03.11.2019
4852 Clouds 12 1015 43 16093 5.7 30 21:20 03.11.2019
4853 Clouds 11 1015 43 16093 5.7 30 20:55 03.11.2019
4854 Clear 11 1017 37 16093 1.37 65 20:36 03.11.2019
4855 Clouds 10 1015 20 16093 2.1 80 20:18 03.11.2019
4856 Clouds 10 1015 20 16093 2.1 80 19:55 03.11.2019
4857 Clear 10 1017 48 16093 0.76 220 19:37 03.11.2019
4858 Clouds 10 1016 52 16093 4.6 40 19:19 03.11.2019
4859 Clear 10 1018 42 16093 2.6 360 18:39 03.11.2019
4860 Clear 10 1018 42 16093 2.6 360 18:39 03.11.2019
4861 Clouds 9 1016 25 16093 3.1 160 18:19 03.11.2019
4862 Clouds 8 1016 25 16093 3.1 160 17:58 03.11.2019
4863 Clear 8 1018 55 16093 0.76 220 17:40 03.11.2019
4864 Clear 8 1018 55 16093 0.76 220 17:40 03.11.2019
4865 Clouds 6 1016 33 16093 3.6 170 17:19 03.11.2019
4866 Clouds 5 1016 33 16093 3.6 170 16:55 03.11.2019
4867 Clouds 5 1016 33 16093 3.6 170 16:55 03.11.2019
4868 Clouds 5 1016 33 16093 3.6 170 16:55 03.11.2019
4869 Clear 4 1018 74 16093 2.1 350 16:37 03.11.2019
4870 Clouds 3 1016 44 16093 3.6 190 16:18 03.11.2019
4871 Clouds 2 1016 44 16093 3.6 190 15:54 03.11.2019
4872 Clear 1 1017 86 16093 4.06 214 15:36 03.11.2019
4873 Clouds -1 1016 47 16093 2.1 220 15:18 03.11.2019
4874 Clear -1 1017 79 16093 3.6 190 14:40 03.11.2019
4875 Clouds -2 1015 47 16093 1.5 0 14:19 03.11.2019
4876 Clouds -2 1015 47 16093 1.5 0 14:19 03.11.2019
4877 Clouds -2 1015 47 16093 1.5 0 14:19 03.11.2019
4878 Clouds -3 1015 47 16093 1.5 0 13:55 03.11.2019
4879 Clear -3 1017 85 16093 4.1 219 13:36 03.11.2019
4880 Clear -3 1016 55 16093 4.1 219 13:36 03.11.2019
4881 Clear -3 1016 55 16093 4.6 350 13:18 03.11.2019
4882 Clear -2 1018 92 16093 1.5 160 12:38 03.11.2019
4883 Clear -2 1016 55 16093 3.6 160 12:19 03.11.2019
4884 Clear -2 1016 55 16093 3.6 160 11:56 03.11.2019
4885 Clear -2 1018 85 16093 3.1 190 11:37 03.11.2019
4886 Clear -3 1019 85 16093 1.5 180 11:19 03.11.2019
4887 Clear -2 1018 55 16093 3.1 340 10:40 03.11.2019
4888 Clear -2 1018 68 16093 3.1 220 10:22 03.11.2019
4889 Clear -2 1018 68 16093 3.1 220 10:22 03.11.2019
4890 Clear -2 1018 58 16093 4.19 213 09:58 03.11.2019
4891 Clear -2 1020 92 16093 4.19 213 09:39 03.11.2019
4892 Clear -2 1018 58 16093 4.19 213 09:39 03.11.2019
4893 Clear -2 1019 74 16093 4.19 213 09:21 03.11.2019
4894 Clear -2 1019 74 16093 4.6 200 08:43 03.11.2019
4895 Clear -2 1019 55 16093 5.1 360 08:24 03.11.2019
4896 Clear -1 1021 85 16093 2.54 218 07:46 03.11.2019
4897 Clear -1 1019 70 16093 1.5 340 07:28 03.11.2019
4898 Clouds -1 1019 70 16093 3.6 190 06:53 03.11.2019
4899 Clear -1 1019 70 16093 1.5 150 06:34 03.11.2019
4900 Clear -1 1022 86 16093 2.54 218 05:40 03.11.2019
4901 Clouds -1 1020 71 16093 2.1 180 04:58 03.11.2019
4902 Clear -1 1022 86 16093 1.83 233 04:38 03.11.2019
4903 Clear 0 1022 86 16093 1.83 233 03:39 03.11.2019
4904 Clear 0 1023 79 16093 1.83 233 02:45 03.11.2019
4905 Clear 1 1022 65 16093 3.1 270 02:20 03.11.2019
4906 Clouds 1 1020 64 16093 1.95 226 02:20 03.11.2019
4907 Clear 3 1022 69 16093 1.95 226 01:42 03.11.2019
4908 Clear 4 1022 55 16093 1.2 227 01:20 03.11.2019
4909 Clear 6 1023 48 16093 1.2 227 00:45 03.11.2019
4910 Clear 6 1021 45 16093 1.2 227 00:27 03.11.2019
4911 Clouds 6 1021 48 19312 1.5 10 23:58 02.11.2019
4912 Clear 6 1023 41 16093 1.5 60 23:38 02.11.2019
4913 Clouds 8 1021 49 16093 3.6 360 23:19 02.11.2019
4914 Clouds 8 1021 49 16093 3.6 360 22:56 02.11.2019
4915 Clear 8 1023 45 16093 2.57 25 22:37 02.11.2019
4916 Clear 7 1023 48 16093 2.1 320 22:18 02.11.2019
4917 Clear 7 1023 55 16093 1.5 350 21:56 02.11.2019
4918 Clear 7 1023 55 16093 1.5 350 21:38 02.11.2019
4919 Clouds 8 1021 27 16093 2.1 100 21:18 02.11.2019
4920 Clouds 8 1021 27 16093 2.1 100 21:18 02.11.2019
4921 Clouds 8 1021 27 16093 2.1 100 21:18 02.11.2019
4922 Clouds 7 1021 27 16093 2.1 100 20:58 02.11.2019
4923 Clear 7 1024 55 16093 1.5 30 20:39 02.11.2019
4924 Clouds 7 1021 34 16093 3.1 140 20:20 02.11.2019
4925 Clear 7 1024 55 16093 1.78 177 19:42 02.11.2019
4926 Clouds 6 1023 29 16093 2.1 140 19:24 02.11.2019
4927 Clear 7 1023 55 16093 2.6 330 19:24 02.11.2019
4928 Clouds 8 1023 29 16093 2.1 140 18:57 02.11.2019
4929 Clear 7 1025 55 16093 2.6 20 18:38 02.11.2019
4930 Clear 6 1024 48 16093 1.78 177 18:20 02.11.2019
4931 Clouds 5 1023 38 16093 1.5 170 17:58 02.11.2019
4932 Rain 4 1025 34 16093 1.78 177 17:39 02.11.2019
4933 Clear 2 1024 64 16093 3.24 213 17:21 02.11.2019
4934 Clouds 1 1024 51 16093 3.6 200 16:57 02.11.2019
4935 Clear -1 1026 86 16093 3.24 213 16:37 02.11.2019
4936 Clouds -2 1024 46 16093 3.1 130 16:18 02.11.2019
4937 Clear -3 1027 92 16093 3.24 213 15:41 02.11.2019
4938 Clouds -4 1024 49 16093 3.1 160 15:20 02.11.2019
4939 Clear -5 1026 85 16093 3.24 213 14:43 02.11.2019
4940 Clear -7 1024 92 16093 3.39 213 14:24 02.11.2019
4941 Clear -7 1024 67 16093 2.6 160 13:58 02.11.2019
4942 Clear -7 1027 85 16093 1.5 180 13:39 02.11.2019
4943 Clear -7 1025 85 16093 3.54 207 13:19 02.11.2019
4944 Clear -6 1028 92 16093 3.54 207 12:41 02.11.2019
4945 Clear -6 1025 79 16093 2.1 320 12:23 02.11.2019
4946 Clear -6 1025 73 16093 5.1 170 11:58 02.11.2019
4947 Clear -6 1028 92 16093 1.5 210 11:39 02.11.2019
4948 Clear -6 1027 85 11265 2.7 211 11:21 02.11.2019
4949 Clear -6 1026 73 16093 3.1 160 10:50 02.11.2019
4950 Clear -6 1026 85 16093 2.7 211 10:29 02.11.2019
4951 Clear -6 1026 68 16093 3.6 160 09:59 02.11.2019
4952 Clear -6 1029 92 16093 2.7 211 09:40 02.11.2019
4953 Clear -6 1028 85 11265 2.7 211 09:20 02.11.2019
4954 Clear -6 1030 92 16093 2.7 211 08:46 02.11.2019
4955 Clear -6 1028 85 16093 2.1 260 08:22 02.11.2019
4956 Clear -5 1031 92 16093 2.6 200 07:50 02.11.2019
4957 Clear -5 1031 92 16093 2.6 200 07:32 02.11.2019
4958 Clear -5 1028 74 16093 2.1 190 06:58 02.11.2019
4959 Clear -5 1031 85 16093 2.6 200 06:39 02.11.2019
4960 Clear -4 1029 74 16093 2.6 160 05:59 02.11.2019
4961 Clear -4 1029 68 16093 3.6 150 05:25 02.11.2019
4962 Clear -4 1029 74 16093 2.58 183 04:23 02.11.2019
4963 Clear -4 1031 74 16093 1.5 160 03:50 02.11.2019
4964 Clear -3 1031 79 16093 1.5 160 02:44 02.11.2019
4965 Clear -2 1031 79 16093 1.5 160 01:55 02.11.2019
4966 Clear -2 1029 79 16093 1.5 120 01:24 02.11.2019
4967 Clouds -1 1028 69 16093 1.5 130 00:51 02.11.2019
4968 Clouds 0 1028 59 16093 3.1 150 00:26 02.11.2019
4969 Clear 0 1030 55 16093 3.1 140 23:48 01.11.2019
4970 Clouds 1 1028 59 16093 2.6 80 23:23 01.11.2019
4971 Clouds 1 1028 59 16093 1.84 88 22:58 01.11.2019
4972 Clouds 1 1030 55 16093 2.6 80 22:39 01.11.2019
4973 Clouds 1 1027 63 16093 3.1 80 22:20 01.11.2019
4974 Rain 1 1029 55 16093 2.6 60 21:41 01.11.2019
4975 Rain 1 1027 52 16093 3.1 120 21:23 01.11.2019
4976 Rain 1 1027 63 16093 3.1 70 20:57 01.11.2019
4977 Rain 1 1027 63 16093 3.1 70 20:57 01.11.2019
4978 Rain 1 1029 59 16093 1.5 150 20:39 01.11.2019
4979 Rain 1 1027 67 16093 4.1 40 20:19 01.11.2019
4980 Rain 1 1027 67 16093 4.1 40 19:56 01.11.2019
4981 Rain 1 1029 59 16093 2.6 120 19:37 01.11.2019
4982 Rain 1 1027 64 16093 4.1 60 19:19 01.11.2019
4983 Rain 1 1030 64 16093 1.5 210 18:39 01.11.2019
4984 Rain 1 1030 64 16093 1.5 210 18:39 01.11.2019
4985 Rain 1 1027 67 16093 4.1 40 18:21 01.11.2019
4986 Clouds 1 1027 67 16093 4.1 40 17:55 01.11.2019
4987 Clear 1 1029 64 16093 2.1 100 17:37 01.11.2019
4988 Clouds 0 1026 58 16093 2.6 90 17:19 01.11.2019
4989 Clouds 0 1026 58 16093 2.6 90 17:19 01.11.2019
4990 Clear -1 1029 61 16093 0.72 9 16:38 01.11.2019
4991 Clear -1 1026 58 16093 0.72 9 16:38 01.11.2019
4992 Clouds -2 1025 68 16093 1.5 130 16:19 01.11.2019
4993 Clouds -3 1025 68 16093 1.5 130 15:54 01.11.2019
4994 Clear -4 1027 73 16093 0.72 9 15:36 01.11.2019
4995 Clouds -4 1024 67 16093 2.1 150 15:18 01.11.2019
4996 Clouds -5 1026 79 16093 0.72 9 14:41 01.11.2019
4997 Clouds -5 1023 67 16093 2.6 180 14:23 01.11.2019
4998 Clouds -5 1023 67 16093 2.66 213 13:57 01.11.2019
4999 Clouds -5 1025 79 16093 2.66 213 13:37 01.11.2019
5000 Clear -5 1022 58 16093 3.1 210 13:19 01.11.2019
5001 Clouds -5 1025 79 16093 2.14 215 12:43 01.11.2019
5002 Clear -5 1022 54 16093 2.14 215 12:25 01.11.2019
5003 Clear -5 1021 50 16093 2.1 280 11:55 01.11.2019
5004 Clear -4 1021 63 16093 2.1 270 11:37 01.11.2019
5005 Clear -4 1020 63 16093 2.1 260 11:18 01.11.2019
5006 Clear -4 1020 63 16093 2.1 200 10:41 01.11.2019
5007 Clear -3 1020 50 16093 3.1 320 10:21 01.11.2019
5008 Clear -3 1020 50 16093 3.1 320 09:56 01.11.2019
5009 Clear -3 1020 50 16093 3.1 280 09:37 01.11.2019
5010 Clear -3 1019 68 16093 0.71 293 09:19 01.11.2019
5011 Clear -3 1019 73 16093 2.6 50 08:42 01.11.2019
5012 Clear -3 1018 73 16093 4.1 200 08:21 01.11.2019
5013 Clear -3 1018 73 16093 4.1 200 07:53 01.11.2019
5014 Clear -3 1018 68 16093 2.1 60 07:26 01.11.2019
5015 Clouds -3 1018 79 16093 3.09 220 06:57 01.11.2019
5016 Clear -3 1018 73 16093 2.6 290 06:39 01.11.2019
5017 Clear -3 1019 73 16093 2.6 290 06:21 01.11.2019
5018 Clear -3 1020 85 16093 1.5 160 05:43 01.11.2019
5019 Clear -2 1021 85 16093 2.6 200 03:34 01.11.2019
5020 Clear -2 1021 85 16093 2.6 200 03:34 01.11.2019
5021 Rain 0 1018 81 16093 2.1 90 01:56 01.11.2019
5022 Clear 0 1018 80 16093 2.6 70 01:28 01.11.2019
5023 Clear 2 1019 51 16093 1.71 177 00:21 01.11.2019
5024 Clouds 2 1018 41 16093 4.1 20 23:56 31.10.2019
5025 Clear 2 1021 55 16093 1.71 177 23:38 31.10.2019
5026 Rain 5 1018 45 16093 3.08 356 23:19 31.10.2019
5027 Rain 5 1021 47 16093 3.08 356 22:42 31.10.2019
5028 Rain 6 1020 47 16093 3.08 356 22:24 31.10.2019
5029 Rain 6 1019 39 16093 1.5 50 21:58 31.10.2019
5030 Rain 6 1021 37 16093 2.6 10 21:40 31.10.2019
5031 Rain 6 1019 49 16093 3.08 356 21:19 31.10.2019
5032 Rain 5 1022 37 16093 3.08 356 20:41 31.10.2019
5033 Rain 4 1020 40 16093 1.5 20 20:23 31.10.2019
5034 Rain 4 1019 52 16093 2.6 130 19:59 31.10.2019
5035 Rain 4 1022 99 16093 2.91 194 19:38 31.10.2019
5036 Rain 4 1022 99 16093 2.91 194 19:38 31.10.2019
5037 Rain 3 1021 32 16093 2.91 194 19:20 31.10.2019
5038 Rain 3 1023 50 16093 2.91 194 18:44 31.10.2019
5039 Rain 1 1020 47 16093 3.1 160 18:26 31.10.2019
5040 Rain 2 1020 47 16093 3.1 160 17:59 31.10.2019
5041 Rain 1 1023 58 16093 2.91 194 17:41 31.10.2019
5042 Rain -2 1022 68 16093 4.79 210 17:20 31.10.2019
5043 Clear -3 1021 49 32767 2.1 350 16:55 31.10.2019
5044 Clear -4 1024 85 16093 4.79 210 16:37 31.10.2019
5045 Clear -6 1021 53 16093 3.1 160 16:18 31.10.2019
5046 Clear -7 1024 92 16093 4.79 210 15:40 31.10.2019
5047 Clear -7 1024 92 16093 4.79 210 15:40 31.10.2019
5048 Clear -9 1021 53 16093 3.1 150 15:21 31.10.2019
5049 Clear -9 1021 53 16093 3.1 150 15:21 31.10.2019
5050 Clear -9 1021 53 16093 3.1 150 14:58 31.10.2019
5051 Clear -10 1023 84 16093 2.1 210 14:40 31.10.2019
5052 Clear -11 1021 92 16093 2.1 190 14:22 31.10.2019
5053 Clear -11 1020 57 16093 3.6 150 13:59 31.10.2019
5054 Clear -11 1024 84 16093 1.5 230 13:39 31.10.2019
5055 Clear -11 1023 77 11265 5.19 212 13:19 31.10.2019
5056 Clear -11 1020 61 16093 3.1 340 12:55 31.10.2019
5057 Clear -10 1023 77 16093 5.19 212 12:37 31.10.2019
5058 Clear -10 1020 48 16093 2.6 180 12:18 31.10.2019
5059 Clear -11 1023 77 16093 5.19 212 11:45 31.10.2019
5060 Clear -12 1020 57 16093 1.5 240 11:20 31.10.2019
5061 Clear -12 1020 57 16093 1.5 240 10:58 31.10.2019
5062 Clear -12 1023 84 16093 5.17 213 10:39 31.10.2019
5063 Snow -12 1023 84 1207 5.17 213 10:20 31.10.2019
5064 Clear -12 1024 84 16093 5.17 213 09:46 31.10.2019
5065 Clear -12 1024 84 16093 1.5 290 09:20 31.10.2019
5066 Clear -12 1024 84 16093 1.5 290 09:20 31.10.2019
5067 Clear -12 1022 66 16093 5.17 213 08:57 31.10.2019
5068 Clear -12 1025 84 16093 5.17 213 08:39 31.10.2019
5069 Clear -12 1022 57 16093 3.1 70 08:20 31.10.2019
5070 Clear -12 1025 84 16093 5.07 218 07:45 31.10.2019
5071 Clear -12 1023 85 16093 2.1 230 07:24 31.10.2019
5072 Clear -12 1025 84 16093 5.07 218 06:52 31.10.2019
5073 Clear -12 1023 85 16093 5.07 218 06:30 31.10.2019
5074 Clear -12 1022 65 16093 4.02 226 05:19 31.10.2019
5075 Clear -12 1022 65 16093 4.02 226 05:19 31.10.2019
5076 Clear -11 1025 61 16093 4.02 226 02:49 31.10.2019
5077 Clear -11 1023 72 16093 4.02 226 02:24 31.10.2019
5078 Clouds -9 1023 57 16093 2.6 170 00:51 31.10.2019
5079 Clear -8 1023 49 16093 2.1 180 00:25 31.10.2019
5080 Clear -7 1025 41 16093 2.6 140 23:41 30.10.2019
5081 Clear -6 1024 33 16093 3.1 180 23:22 30.10.2019
5082 Rain -7 1025 38 16093 2.1 210 22:41 30.10.2019
5083 Clear -7 1024 30 16093 3.1 190 22:19 30.10.2019
5084 Clouds -7 1023 61 16093 2.1 200 21:55 30.10.2019
5085 Clear -7 1024 35 16093 1.5 100 21:37 30.10.2019
5086 Clouds -7 1023 66 16093 2.6 230 21:18 30.10.2019
5087 Clear -7 1026 34 16093 2.1 120 20:57 30.10.2019
5088 Clear -8 1024 35 16093 1.5 110 20:37 30.10.2019
5089 Clouds -9 1024 56 16093 1.4 166 20:19 30.10.2019
5090 Rain -9 1028 48 16093 2.1 220 19:43 30.10.2019
5091 Rain -10 1025 66 16093 2.6 250 19:24 30.10.2019
5092 Rain -10 1025 66 16093 2.6 250 18:59 30.10.2019
5093 Rain -10 1028 61 16093 4.1 190 18:38 30.10.2019
5094 Snow -11 1025 72 1207 2.1 350 18:19 30.10.2019
5095 Snow -12 1025 72 1207 2.1 350 17:55 30.10.2019
5096 Clear -12 1028 66 16093 2.6 210 17:37 30.10.2019
5097 Clear -12 1028 66 16093 2.6 210 17:37 30.10.2019
5098 Clear -12 1028 66 16093 2.6 210 17:37 30.10.2019
5099 Snow -13 1025 71 2414 3.1 360 17:18 30.10.2019
5100 Clouds -13 1029 85 16093 3.1 200 16:42 30.10.2019
5101 Snow -14 1026 84 4828 2.1 330 16:24 30.10.2019
5102 Snow -14 1025 77 6437 2.1 340 15:59 30.10.2019
5103 Mist -14 1028 84 8047 0.69 242 15:39 30.10.2019
5104 Snow -15 1024 77 2816 0.69 242 15:20 30.10.2019
5105 Mist -15 1025 84 6437 2.1 350 14:59 30.10.2019
5106 Rain -15 1028 84 16093 0.69 242 14:40 30.10.2019
5107 Snow -15 1023 84 3219 0.83 347 14:21 30.10.2019
5108 -273 0 0 0 0 0 13:55 30.10.2019
5109 Mist -15 1024 84 6437 2.1 350 13:55 30.10.2019
5110 Snow -15 1028 84 8047 0.83 347 13:36 30.10.2019
5111 Snow -15 1024 91 3219 3.6 350 13:18 30.10.2019
5112 Snow -15 1027 84 8047 1.5 30 12:44 30.10.2019
5113 Clouds -15 1024 84 11265 2.1 10 12:25 30.10.2019
5114 Rain -14 1024 84 16093 1.5 20 11:58 30.10.2019
5115 Rain -14 1027 92 4828 1.5 350 11:40 30.10.2019
5116 Rain -14 1022 77 3219 2.6 20 11:19 30.10.2019
5117 Rain -14 1027 92 3219 1.68 340 10:43 30.10.2019
5118 Rain -14 1024 84 8047 1.68 340 10:23 30.10.2019
5119 Rain -14 1027 85 2816 1.68 340 09:42 30.10.2019
5120 Rain -14 1024 84 4828 2.6 360 09:23 30.10.2019
5121 Rain -14 1024 84 4023 2.6 360 08:57 30.10.2019
5122 Rain -14 1027 85 4023 1.5 350 08:39 30.10.2019
5123 Rain -14 1027 85 4023 1.5 350 08:39 30.10.2019
5124 Rain -14 1024 84 4023 2.1 10 08:20 30.10.2019
5125 Rain -14 1027 85 2414 1.5 360 07:45 30.10.2019
5126 Rain -14 1026 78 4828 2.1 350 07:20 30.10.2019
5127 Rain -14 1027 85 4828 2.1 40 06:42 30.10.2019
5128 Rain -14 1024 92 2816 4.1 10 06:18 30.10.2019
5129 Rain -14 1027 85 11265 2.6 30 05:41 30.10.2019
5130 Snow -13 1027 85 8047 2.6 30 04:42 30.10.2019
5131 Rain -13 1026 85 8047 2.6 40 03:43 30.10.2019
5132 Rain -13 1024 92 2414 2.36 3 02:51 30.10.2019
5133 Rain -13 1025 85 8047 2.96 19 01:55 30.10.2019
5134 Rain -12 1020 78 805 5.1 10 00:55 30.10.2019
5135 Rain -12 1022 85 0 2.1 30 00:28 30.10.2019
5136 Clouds -12 1024 78 11265 3.6 360 23:42 29.10.2019
5137 Snow -12 1021 85 0 2.6 350 23:22 29.10.2019
5138 Haze -11 1024 72 8047 4.6 20 22:46 29.10.2019
5139 Snow -11 1020 85 1609 4.6 360 22:20 29.10.2019
5140 Snow -11 1023 78 2414 4.6 20 21:56 29.10.2019
5141 Snow -11 1023 78 2414 4.6 20 21:38 29.10.2019
5142 Snow -11 1023 67 4023 3.1 360 21:20 29.10.2019
5143 Snow -11 1019 78 1207 4.6 360 20:54 29.10.2019
5144 Snow -10 1023 66 8047 4.6 20 20:36 29.10.2019
5145 Rain -11 1021 78 4023 7.2 10 20:18 29.10.2019
5146 Rain -11 1024 66 3219 6.7 40 19:55 29.10.2019
5147 Rain -11 1024 66 3219 6.7 40 19:36 29.10.2019
5148 Rain -11 1020 78 805 6.2 360 19:18 29.10.2019
5149 Rain -11 1020 78 805 6.2 360 18:54 29.10.2019
5150 Rain -11 1024 78 2012 5.1 10 18:36 29.10.2019
5151 Snow -11 1019 85 805 6.7 360 18:18 29.10.2019
5152 Rain -11 1024 78 1609 5.1 10 17:40 29.10.2019
5153 Rain -11 1023 78 2012 4.6 10 17:21 29.10.2019
5154 Rain -11 1019 85 805 7.2 360 16:58 29.10.2019
5155 Rain -11 1023 85 805 5.1 360 16:38 29.10.2019
5156 Rain -11 1019 85 1609 7.2 350 16:18 29.10.2019
5157 Rain -10 1022 85 1207 5.7 350 15:43 29.10.2019
5158 Rain -10 1021 85 2012 6.2 360 15:22 29.10.2019
5159 Rain -9 1019 92 0 5.1 10 14:59 29.10.2019
5160 Rain -9 1021 92 1207 6.2 10 14:41 29.10.2019
5161 Rain -9 1017 92 805 8.7 350 14:23 29.10.2019
5162 Rain -9 1017 92 805 8.7 350 13:57 29.10.2019
5163 Rain -8 1020 85 1207 8.2 10 13:39 29.10.2019
5164 Rain -8 1019 85 2414 6.2 360 13:21 29.10.2019
5165 Rain -8 1018 92 2414 4.1 20 12:43 29.10.2019
5166 Snow -7 1015 85 1207 5.1 340 12:25 29.10.2019
5167 Rain -7 1014 85 1207 3.6 330 11:55 29.10.2019
5168 Clouds -7 1018 92 16093 3.1 360 11:37 29.10.2019
5169 Clouds -7 1014 85 16093 2.1 350 11:18 29.10.2019
5170 Clouds -7 1014 85 16093 2.1 350 10:56 29.10.2019
5171 Clouds -8 1017 85 16093 3.1 360 10:38 29.10.2019
5172 Clouds -8 1014 92 16093 3.1 360 10:19 29.10.2019
5173 Clouds -8 1017 85 16093 1.5 10 09:41 29.10.2019
5174 Clouds -8 1014 92 16093 2.1 10 09:23 29.10.2019
5175 Clouds -8 1014 92 16093 2.1 10 08:56 29.10.2019
5176 Clouds -8 1017 85 16093 1.47 334 08:37 29.10.2019
5177 Clouds -8 1014 92 16093 1.28 256 08:18 29.10.2019
5178 Clouds -8 1017 92 16093 1.28 256 07:47 29.10.2019
5179 Clouds -8 1015 85 16093 1.28 256 07:20 29.10.2019
5180 Clouds -8 1015 85 16093 1.28 256 06:52 29.10.2019
5181 Clouds -8 1015 85 16093 1.28 256 06:29 29.10.2019
5182 Clouds -8 1015 85 16093 1.5 330 05:53 29.10.2019
5183 Clear -8 1017 92 16093 1.28 256 05:35 29.10.2019
5184 Clear -8 1017 92 16093 1.86 286 04:34 29.10.2019
5185 Clear -8 1016 85 16093 1.86 286 02:34 29.10.2019
5186 Clouds -7 1012 79 16093 3.6 180 01:55 29.10.2019
5187 Rain -6 1016 79 16093 1.5 10 01:33 29.10.2019
5188 Rain -5 1015 73 16093 3.1 100 00:51 29.10.2019
5189 Rain -4 1015 68 16093 2.6 60 23:58 28.10.2019
5190 Rain -3 1015 68 16093 2.6 60 23:36 28.10.2019
5191 Rain -3 1012 68 16093 2.1 130 23:18 28.10.2019
5192 Rain -3 1015 63 16093 1.88 94 22:39 28.10.2019
5193 Rain -3 1012 73 16093 3.6 150 22:19 28.10.2019
5194 Rain -3 1012 73 16093 3.6 150 21:56 28.10.2019
5195 Rain -4 1015 63 16093 1.88 94 21:38 28.10.2019
5196 Rain -4 1013 79 16093 2.6 110 21:20 28.10.2019
5197 Rain -4 1013 79 16093 2.6 110 20:57 28.10.2019
5198 Rain -4 1016 68 16093 1.88 94 20:38 28.10.2019
5199 Rain -5 1014 79 16093 2.1 120 20:20 28.10.2019
5200 Rain -5 1017 73 16093 1.5 210 19:40 28.10.2019
5201 Rain -6 1016 85 9656 2.1 80 19:22 28.10.2019
5202 Rain -6 1016 85 9656 2.1 80 19:22 28.10.2019
5203 Rain -6 1016 85 9656 2.1 80 18:59 28.10.2019
5204 Rain -6 1019 79 16093 0.45 123 18:41 28.10.2019
5205 Rain -7 1016 85 9656 0.45 123 18:22 28.10.2019
5206 Rain -7 1016 85 9656 0.45 123 17:57 28.10.2019
5207 Rain -7 1019 79 16093 0.45 123 17:39 28.10.2019
5208 Rain -8 1016 78 1207 2.1 60 17:20 28.10.2019
5209 Rain -8 1016 78 1207 2.1 60 16:58 28.10.2019
5210 Rain -8 1020 85 6437 0.51 324 16:40 28.10.2019
5211 Rain -8 1016 78 1609 1.5 30 16:21 28.10.2019
5212 Rain -9 1017 92 2414 2.6 90 15:58 28.10.2019
5213 Rain -9 1019 85 8047 1.5 90 15:40 28.10.2019
5214 Rain -9 1016 85 2414 1.5 80 15:21 28.10.2019
5215 Rain -9 1017 100 2414 0.51 324 14:57 28.10.2019
5216 Rain -9 1019 92 2414 1.5 100 14:39 28.10.2019
5217 Rain -9 1015 85 1609 2.1 130 14:19 28.10.2019
5218 Rain -9 1015 85 1609 2.1 130 13:56 28.10.2019
5219 Rain -9 1015 85 1609 2.1 130 13:56 28.10.2019
5220 Rain -9 1019 92 3219 1.5 100 13:38 28.10.2019
5221 Rain -9 1017 92 3219 2.1 120 13:18 28.10.2019
5222 Rain -9 1020 92 2816 2.1 110 12:42 28.10.2019
5223 Rain -9 1017 85 2012 1.5 120 12:20 28.10.2019
5224 Rain -9 1020 92 3219 1.5 120 11:40 28.10.2019
5225 Rain -9 1018 92 1609 2.1 70 11:22 28.10.2019
5226 Rain -9 1018 92 1609 2.1 70 10:58 28.10.2019
5227 Rain -9 1021 92 2012 1.19 55 10:39 28.10.2019
5228 Rain -9 1018 85 12874 2.1 50 10:20 28.10.2019
5229 Rain -9 1018 85 1609 1.5 40 09:57 28.10.2019
5230 Rain -9 1022 92 1609 1.5 80 09:38 28.10.2019
5231 Rain -9 1019 92 2816 1.5 40 09:19 28.10.2019
5232 Rain -9 1019 92 2816 1.5 40 08:56 28.10.2019
5233 Rain -9 1022 92 1207 1.19 55 08:37 28.10.2019
5234 Rain -9 1020 85 1207 2.1 30 08:18 28.10.2019
5235 Rain -9 1020 85 1207 2.1 30 07:55 28.10.2019
5236 Rain -9 1023 85 6437 1.5 80 07:36 28.10.2019
5237 Rain -9 1020 85 4828 2.6 40 07:18 28.10.2019
5238 Rain -8 1023 85 3219 1.5 60 06:39 28.10.2019
5239 Snow -8 1023 85 3219 2.6 50 05:33 28.10.2019
5240 Rain -8 1023 92 6437 3.1 20 03:45 28.10.2019
5241 Rain -7 1022 85 11265 4.1 20 02:46 28.10.2019
5242 Rain -6 1018 85 4023 2.1 40 01:52 28.10.2019
5243 Rain -6 1017 79 4828 2.1 60 00:53 28.10.2019
5244 Clouds -5 1019 92 0 4.6 10 00:31 28.10.2019
5245 Clouds -5 1021 79 16093 3.1 80 23:46 27.10.2019
5246 Rain -4 1018 92 1609 1.5 90 23:22 27.10.2019
5247 Rain -4 1018 85 8047 3.1 50 22:57 27.10.2019
5248 Snow -4 1020 79 16093 3.1 100 22:38 27.10.2019
5249 Snow -4 1019 79 6437 3.6 90 22:19 27.10.2019
5250 Rain -4 1017 79 4828 3.1 10 21:57 27.10.2019
5251 Rain -4 1020 79 16093 3.1 70 21:38 27.10.2019
5252 Rain -4 1019 68 16093 2.6 70 21:20 27.10.2019
5253 Rain -4 1021 79 16093 2.1 30 20:54 27.10.2019
5254 Rain -4 1021 79 16093 2.1 30 20:36 27.10.2019
5255 Rain -4 1021 79 16093 2.1 50 20:18 27.10.2019
5256 Snow -4 1021 86 16093 2.6 70 19:39 27.10.2019
5257 Rain -4 1019 79 2816 2.6 30 19:20 27.10.2019
5258 Rain -4 1019 79 2816 2.6 30 18:57 27.10.2019
5259 Rain -4 1022 86 6437 4.1 40 18:39 27.10.2019
5260 Rain -5 1021 79 16093 3.1 10 18:21 27.10.2019
5261 Rain -5 1019 85 2816 5.1 10 17:55 27.10.2019
5262 Rain -5 1022 85 4828 4.1 10 17:37 27.10.2019
5263 Snow -5 1019 92 2816 5.7 10 17:19 27.10.2019
5264 Snow -5 1019 92 2816 5.7 10 16:55 27.10.2019
5265 Rain -5 1022 85 8047 2.6 350 16:37 27.10.2019
5266 Rain -5 1020 92 3219 3.1 330 16:19 27.10.2019
5267 Rain -5 1020 92 3219 3.1 330 15:55 27.10.2019
5268 Rain -5 1020 92 3219 3.1 330 15:55 27.10.2019
5269 Snow -5 1022 92 4828 2.1 340 15:37 27.10.2019
5270 Snow -5 1018 92 4023 4.6 350 15:18 27.10.2019
5271 Snow -5 1021 85 6437 4.1 20 14:41 27.10.2019
5272 Snow -5 1021 92 4828 4.6 20 14:20 27.10.2019
5273 Snow -5 1019 92 4828 3.1 360 13:55 27.10.2019
5274 Snow -5 1020 92 4828 4.1 360 13:37 27.10.2019
5275 Clouds -4 1018 100 4828 3.6 20 13:18 27.10.2019
5276 Mist -4 1020 92 6437 3.1 10 12:42 27.10.2019
5277 Clouds -4 1017 100 3219 4.6 360 12:23 27.10.2019
5278 Clouds -4 1017 100 4023 5.1 20 11:55 27.10.2019
5279 Mist -4 1019 92 4828 4.6 30 11:37 27.10.2019
5280 Clouds -3 1016 100 4828 4.6 20 11:18 27.10.2019
5281 Clouds -3 1019 92 4828 6.2 30 10:41 27.10.2019
5282 Clouds -3 1016 100 4828 3.6 20 10:22 27.10.2019
5283 Clouds -3 1019 100 6437 4.1 40 09:44 27.10.2019
5284 Rain -2 1017 81 6437 3.1 360 09:19 27.10.2019
5285 Rain -2 1017 81 6437 3.1 360 09:19 27.10.2019
5286 Rain -2 1016 92 6437 5.7 10 08:59 27.10.2019
5287 Rain -2 1018 92 6437 4.6 20 08:38 27.10.2019
5288 Snow -1 1015 86 6437 5.1 30 08:19 27.10.2019
5289 Drizzle -1 1018 75 8047 4.6 30 07:48 27.10.2019
5290 Clouds 0 1015 75 16093 5.7 30 07:28 27.10.2019
5291 Clouds 1 1017 64 16093 4.6 40 06:55 27.10.2019
5292 Clouds 1 1015 69 16093 6.2 30 06:29 27.10.2019
5293 Clouds 2 1015 74 16093 4.1 20 05:58 27.10.2019
5294 Clouds 2 1015 74 16093 4.1 20 05:58 27.10.2019
5295 Clouds 2 1016 64 16093 4.1 20 05:36 27.10.2019
5296 Clouds 3 1014 64 16093 8.2 10 04:25 27.10.2019
5297 Clear 13 1010 43 16093 8.7 30 02:42 27.10.2019
5298 Clear 19 1005 16 16093 4.1 220 01:28 27.10.2019
5299 Clouds 21 1005 12 16093 5.7 30 00:56 27.10.2019
5300 Clear 21 1006 11 16093 4.1 310 00:37 27.10.2019
5301 Clouds 22 1005 11 16093 3.6 210 23:58 26.10.2019
5302 Clear 21 1006 9 16093 5.7 300 23:40 26.10.2019
5303 Clouds 21 1005 11 16093 3.1 200 23:21 26.10.2019
5304 Clouds 21 1005 11 16093 3.1 200 22:58 26.10.2019
5305 Clouds 22 1005 11 16093 3.1 200 22:58 26.10.2019
5306 Clear 22 1005 15 16093 5.1 220 22:39 26.10.2019
5307 Clouds 22 1006 11 16093 0.69 140 22:19 26.10.2019
5308 Clouds 22 1007 13 32186 2.1 180 21:56 26.10.2019
5309 Clear 21 1007 9 16093 7.2 220 21:38 26.10.2019
5310 Clouds 20 1007 10 16093 2.6 0 21:19 26.10.2019
5311 Clear 19 1008 11 16093 0.98 199 20:43 26.10.2019
5312 Clouds 18 1009 16 16093 0.98 199 20:20 26.10.2019
5313 Clouds 18 1009 16 16093 0.98 199 20:20 26.10.2019
5314 Clear 17 1010 13 16093 0.98 199 19:44 26.10.2019
5315 Clear 15 1009 33 16093 2.1 240 19:21 26.10.2019
5316 Clear 15 1009 20 16093 3.1 360 18:59 26.10.2019
5317 Clear 15 1011 25 16093 2.1 230 18:40 26.10.2019
5318 Clear 13 1009 50 16093 4.78 214 18:20 26.10.2019
5319 Clouds 13 1010 30 16093 2.6 140 17:59 26.10.2019
5320 Clear 12 1011 26 16093 2.1 90 17:39 26.10.2019
5321 Clear 10 1009 53 16093 2.6 50 17:20 26.10.2019
5322 Clouds 9 1011 30 16093 3.1 170 16:57 26.10.2019
5323 Clear 7 1011 80 16093 4.78 214 16:38 26.10.2019
5324 Clouds 6 1011 39 16093 2.1 160 16:20 26.10.2019
5325 Clear 5 1009 69 16093 2.1 290 15:40 26.10.2019
5326 Clouds 3 1011 36 16093 2.6 200 15:18 26.10.2019
5327 Clouds 3 1011 36 16093 2.6 200 15:18 26.10.2019
5328 Clear 3 1012 57 16093 4.57 214 14:40 26.10.2019
5329 Clear 3 1011 69 16093 2.1 230 14:20 26.10.2019
5330 Clear 1 1014 58 0 4.64 216 13:59 26.10.2019
5331 Clear 1 1014 58 0 4.64 216 13:39 26.10.2019
5332 Clear 1 1014 58 0 4.64 216 13:20 26.10.2019
5333 Clear 3 1014 86 16093 1.5 350 12:45 26.10.2019
5334 Clear 3 1013 48 16093 1.5 200 12:21 26.10.2019
5335 Clear 3 1013 48 16093 1.5 200 11:48 26.10.2019
5336 Clear 3 1013 48 16093 1.5 200 11:26 26.10.2019
5337 Clear 3 1013 48 16093 1.5 200 11:26 26.10.2019
5338 Clear 4 1015 63 16093 4.75 214 10:47 26.10.2019
5339 Clear 4 1014 45 16093 1.5 270 10:27 26.10.2019
5340 Clear 4 1014 45 16093 1.5 270 10:27 26.10.2019
5341 Clear 4 1015 64 16093 2.1 130 09:50 26.10.2019
5342 Clear 4 1015 60 16093 1.5 270 09:30 26.10.2019
5343 Clear 4 1015 69 16093 3.73 219 08:57 26.10.2019
5344 Clear 4 1017 69 16093 2.1 230 08:39 26.10.2019
5345 Clear 4 1016 60 16093 3.73 219 08:21 26.10.2019
5346 Clear 5 1018 80 16093 3.73 219 07:43 26.10.2019
5347 Clear 5 1017 52 16093 3.6 280 07:23 26.10.2019
5348 Clear 5 1019 80 16093 3.73 219 06:41 26.10.2019
5349 Clear 6 1018 52 16093 4.6 170 05:59 26.10.2019
5350 Clear 7 1019 52 16093 4.1 180 05:19 26.10.2019
5351 Clear 8 1019 49 16093 3.1 230 03:56 26.10.2019
5352 Clear 11 1020 35 32767 3.1 240 02:35 26.10.2019
5353 Clear 14 1021 23 16093 3.1 200 01:47 26.10.2019
5354 Clear 17 1021 25 16093 3.6 180 00:56 26.10.2019
5355 Clear 16 1021 29 16093 3.1 170 23:57 25.10.2019
5356 Clear 16 1022 18 16093 4.6 160 23:38 25.10.2019
5357 Clear 16 1022 26 16093 2.2 115 23:19 25.10.2019
5358 Clear 16 1023 20 16093 4.1 190 22:39 25.10.2019
5359 Clear 15 1021 43 16093 2.1 170 22:21 25.10.2019
5360 Clear 15 1023 26 16093 4.6 180 21:56 25.10.2019
5361 Rain 14 1024 23 16093 3.6 180 21:38 25.10.2019
5362 Rain 13 1024 30 16093 2.1 0 21:19 25.10.2019
5363 Rain 13 1026 28 16093 2.5 198 20:43 25.10.2019
5364 Rain 12 1025 33 16093 1.5 180 20:20 25.10.2019
5365 Rain 11 1027 30 16093 2.5 198 19:47 25.10.2019
5366 Rain 10 1025 42 16093 2.5 198 19:29 25.10.2019
5367 Rain 9 1026 39 16093 2.6 200 18:58 25.10.2019
5368 Rain 8 1027 42 16093 2.5 198 18:40 25.10.2019
5369 Clouds 7 1026 42 16093 6.2 210 18:20 25.10.2019
5370 Clear 5 1028 65 16093 1.5 350 17:40 25.10.2019
5371 Clear 3 1027 74 16093 4.5 210 17:20 25.10.2019
5372 Clear 1 1028 67 16093 4.5 210 16:47 25.10.2019
5373 Clear 0 1026 74 16093 4.5 210 16:23 25.10.2019
5374 Clouds -1 1026 64 16093 1.5 250 15:57 25.10.2019
5375 Clear -2 1028 85 16093 4.5 210 15:39 25.10.2019
5376 Clear -2 1028 85 16093 4.81 213 15:21 25.10.2019
5377 Clear -2 1028 92 16093 1.5 200 14:42 25.10.2019
5378 Clear -2 1026 68 16093 4.73 215 14:23 25.10.2019
5379 Clear -2 1026 68 16093 4.73 215 14:23 25.10.2019
5380 Clear -2 1026 68 16093 2.6 230 13:59 25.10.2019
5381 Clear -2 1028 86 16093 4.73 215 13:39 25.10.2019
5382 Clear -2 1028 86 16093 4.73 215 13:39 25.10.2019
5383 Clear -2 1027 86 16093 2.1 210 13:21 25.10.2019
5384 Clear -2 1028 86 16093 1.5 190 12:43 25.10.2019
5385 Clear -3 1026 79 16093 2.1 200 12:22 25.10.2019
5386 Clear -3 1026 79 16093 2.6 180 11:59 25.10.2019
5387 Clear -3 1026 74 16093 2.1 240 11:38 25.10.2019
5388 Clear -3 1027 79 16093 4.22 215 11:19 25.10.2019
5389 Clear -3 1028 86 16093 1.5 200 10:41 25.10.2019
5390 Clear -3 1026 79 16093 2.6 240 10:23 25.10.2019
5391 Clear -3 1026 79 16093 2.6 240 09:59 25.10.2019
5392 Clear -3 1028 86 16093 4.42 216 09:39 25.10.2019
5393 Clear -3 1027 79 16093 2.1 190 09:20 25.10.2019
5394 Clear -3 1027 71 16093 1.5 210 08:51 25.10.2019
5395 Clear -3 1027 71 16093 1.5 210 08:51 25.10.2019
5396 Clear -3 1029 92 16093 3.6 219 08:33 25.10.2019
5397 Clear -3 1027 71 16093 3.6 219 07:57 25.10.2019
5398 Clear -3 1029 92 16093 3.6 219 07:35 25.10.2019
5399 Clear -3 1027 64 16093 2.6 290 06:53 25.10.2019
5400 Clear -2 1028 71 16093 1.5 280 06:31 25.10.2019
5401 Clear -2 1029 80 16093 2.74 228 05:40 25.10.2019
5402 Clear -2 1027 69 16093 4.1 170 04:54 25.10.2019
5403 Clear -1 1029 78 16093 2.74 228 03:45 25.10.2019
5404 Rain 3 1025 55 16093 5.1 170 01:54 25.10.2019
5405 Rain 3 1027 38 16093 2.6 190 01:35 25.10.2019
5406 Rain 4 1026 51 16093 3.6 160 00:22 25.10.2019
5407 Rain 4 1028 36 16093 3.6 160 23:41 24.10.2019
5408 Rain 4 1027 42 16093 4.1 220 23:23 24.10.2019
5409 Rain 4 1026 44 16093 2.1 140 22:56 24.10.2019
5410 Rain 4 1029 41 16093 2.1 190 22:37 24.10.2019
5411 Rain 4 1028 41 16093 3.1 0 22:18 24.10.2019
5412 Rain 3 1028 59 16093 2.6 160 21:56 24.10.2019
5413 Rain 3 1028 59 16093 2.6 160 21:56 24.10.2019
5414 Rain 3 1030 44 16093 2.6 200 21:37 24.10.2019
5415 Rain 3 1029 52 16093 2.6 220 21:19 24.10.2019
5416 Rain 3 1029 69 16093 2.6 120 20:56 24.10.2019
5417 Rain 3 1031 52 16093 2.1 190 20:38 24.10.2019
5418 Rain 2 1030 52 16093 1.5 190 20:19 24.10.2019
5419 Rain 2 1032 55 16093 2.6 190 19:44 24.10.2019
5420 Rain 2 1031 48 16093 2.1 160 19:24 24.10.2019
5421 Rain 1 1030 80 16093 1.5 240 18:59 24.10.2019
5422 Rain 1 1033 64 16093 1.5 140 18:40 24.10.2019
5423 Rain 0 1031 88 16093 1.23 206 18:21 24.10.2019
5424 Rain 0 1030 80 16093 2.6 260 17:59 24.10.2019
5425 Rain -1 1033 88 16093 1.23 206 17:39 24.10.2019
5426 Rain -1 1030 86 16093 2.6 280 17:19 24.10.2019
5427 Clouds -2 1030 86 16093 2.6 280 16:55 24.10.2019
5428 Clear -2 1030 88 16093 1.23 206 16:37 24.10.2019
5429 Clouds -2 1029 86 16093 1.5 290 16:18 24.10.2019
5430 Clouds -3 1029 86 16093 1.5 290 15:54 24.10.2019
5431 Clear -3 1032 92 16093 1.23 206 15:36 24.10.2019
5432 Clouds -2 1029 92 16093 2.6 300 15:18 24.10.2019
5433 Clouds -2 1032 92 16093 1.5 270 14:44 24.10.2019
5434 Snow -2 1029 92 11265 2.6 310 14:26 24.10.2019
5435 Clouds -2 1029 92 16093 1.5 330 13:59 24.10.2019
5436 Clouds -2 1031 92 16093 1.5 310 13:37 24.10.2019
5437 Rain -2 1029 92 16093 0.61 332 13:18 24.10.2019
5438 Rain -2 1029 92 16093 0.61 332 12:56 24.10.2019
5439 Rain -2 1031 92 16093 0.61 332 12:37 24.10.2019
5440 Rain -2 1029 92 8047 2.76 293 12:18 24.10.2019
5441 Rain -2 1029 92 8047 2.76 293 11:54 24.10.2019
5442 Rain -2 1031 100 16093 2.76 293 11:36 24.10.2019
5443 Rain -2 1029 100 2414 2.76 293 11:18 24.10.2019
5444 Rain -2 1031 89 3219 1.5 300 10:42 24.10.2019
5445 Snow -2 1028 92 4828 2.6 340 10:23 24.10.2019
5446 Snow -2 1028 92 4828 2.6 340 10:23 24.10.2019
5447 Rain -1 1031 88 2816 2.1 290 09:39 24.10.2019
5448 Rain -1 1030 91 2816 3.53 346 09:19 24.10.2019
5449 Rain -1 1028 100 2816 2.1 350 08:58 24.10.2019
5450 Rain -1 1030 91 4023 3.53 346 08:38 24.10.2019
5451 Rain -1 1027 92 1609 4.1 20 08:20 24.10.2019
5452 Rain -1 1029 91 2414 1.5 220 08:20 24.10.2019
5453 Rain -1 1030 91 4023 1.5 30 07:47 24.10.2019
5454 Rain -1 1029 91 2012 2.1 110 07:23 24.10.2019
5455 Rain 0 1028 91 1207 2.1 50 06:53 24.10.2019
5456 Rain 0 1030 91 1609 2.1 50 06:34 24.10.2019
5457 Rain 0 1027 98 1609 2.6 10 05:54 24.10.2019
5458 Rain 0 1026 98 805 3.6 20 05:30 24.10.2019
5459 Rain 0 1026 98 4828 1.5 200 04:22 24.10.2019
5460 Rain 0 1026 98 4828 1.5 200 04:22 24.10.2019
5461 Rain 0 1027 74 16093 3.6 40 03:33 24.10.2019
5462 Rain 1 1026 92 11265 7.7 20 02:37 24.10.2019
5463 Rain 1 1024 69 16093 4.1 50 02:18 24.10.2019
5464 Rain 3 1022 74 2012 7.7 40 01:30 24.10.2019
5465 Rain 4 1021 38 16093 12.3 20 00:55 24.10.2019
5466 Clouds 5 1021 48 16093 9.8 360 00:25 24.10.2019
5467 Clouds 6 1021 39 16093 7.2 10 23:45 23.10.2019
5468 Clouds 6 1019 56 16093 2.6 340 23:27 23.10.2019
5469 Clouds 7 1019 65 16093 8.2 20 22:58 23.10.2019
5470 Clouds 7 1021 45 16093 7.2 20 22:39 23.10.2019
5471 Clouds 7 1021 45 16093 7.2 20 22:39 23.10.2019
5472 Clouds 7 1021 28 16093 8.7 10 22:19 23.10.2019
5473 Clouds 6 1020 61 16093 5.7 10 22:19 23.10.2019
5474 Rain 7 1019 28 16093 9.8 350 21:58 23.10.2019
5475 Clouds 8 1021 19 16093 9.8 20 21:40 23.10.2019
5476 Clouds 8 1021 19 16093 9.8 20 21:40 23.10.2019
5477 Clouds 8 1021 19 16093 9.8 20 21:40 23.10.2019
5478 Clouds 10 1020 57 16093 8.2 360 21:21 23.10.2019
5479 Clouds 10 1018 40 16093 3.6 80 20:59 23.10.2019
5480 Clouds 10 1020 37 16093 4.1 70 20:39 23.10.2019
5481 Clouds 10 1018 46 16093 4.1 100 20:21 23.10.2019
5482 Clouds 10 1018 46 16093 4.1 100 20:21 23.10.2019
5483 Clouds 9 1018 45 16093 4.6 90 19:58 23.10.2019
5484 Clear 9 1020 43 16093 5.1 120 19:40 23.10.2019
5485 Clouds 8 1019 56 16093 3.6 130 19:19 23.10.2019
5486 Clouds 8 1019 56 16093 3.6 130 18:56 23.10.2019
5487 Clear 7 1021 52 16093 6.2 110 18:38 23.10.2019
5488 Clouds 7 1020 60 16093 2.1 70 18:18 23.10.2019
5489 Clear 5 1021 60 16093 4.1 160 17:45 23.10.2019
5490 Clouds 5 1020 69 16093 2.1 110 17:20 23.10.2019
5491 Clouds 5 1020 41 16093 2.6 180 17:20 23.10.2019
5492 Clear 4 1019 41 16093 4.6 140 16:58 23.10.2019
5493 Clear 3 1021 41 16093 4.1 180 16:40 23.10.2019
5494 Clouds 3 1019 41 16093 3.6 170 16:20 23.10.2019
5495 Clear 2 1020 74 16093 1.1 160 15:42 23.10.2019
5496 Clouds 2 1019 80 16093 5.7 90 15:23 23.10.2019
5497 Clouds 3 1018 80 16093 5.1 100 14:58 23.10.2019
5498 -273 0 0 0 0 0 14:39 23.10.2019
5499 Clear 6 1017 30 16093 6.7 320 14:20 23.10.2019
5500 Clear 7 1016 39 16093 8.7 340 13:59 23.10.2019
5501 Clear 8 1017 23 16093 3.1 280 13:41 23.10.2019
5502 Clouds 8 1015 39 16093 3.6 20 13:23 23.10.2019
5503 Clouds 8 1015 39 16093 3.6 20 12:56 23.10.2019
5504 Clear 8 1016 20 16093 7.7 310 12:37 23.10.2019
5505 Clear 9 1014 25 16093 5.1 320 12:18 23.10.2019
5506 Clear 9 1014 25 16093 5.1 320 11:57 23.10.2019
5507 Clear 9 1014 26 16093 11.3 300 11:38 23.10.2019
5508 Clear 9 1014 26 16093 10.3 310 11:20 23.10.2019
5509 Clear 9 1015 32 16093 1.5 360 10:45 23.10.2019
5510 Clear 9 1013 30 16093 8.7 280 10:26 23.10.2019
5511 Clear 9 1014 30 16093 6.2 310 09:56 23.10.2019
5512 Clear 9 1015 29 16093 1.5 250 09:37 23.10.2019
5513 Clouds 8 1014 26 16093 8.7 330 09:19 23.10.2019
5514 Clear 9 1015 31 16093 3.6 225 08:42 23.10.2019
5515 Clear 9 1015 31 16093 3.6 225 08:42 23.10.2019
5516 Clear 9 1014 28 16093 7.2 270 08:23 23.10.2019
5517 Clear 10 1015 29 16093 2.6 10 07:46 23.10.2019
5518 Clear 10 1014 30 16093 11.3 280 07:22 23.10.2019
5519 Clear 10 1015 32 16093 3.6 225 06:47 23.10.2019
5520 Clear 10 1014 34 16093 9.8 280 06:22 23.10.2019
5521 Clear 11 1016 30 16093 5.7 290 05:47 23.10.2019
5522 Clouds 12 1015 32 16093 3.6 280 04:54 23.10.2019
5523 Clear 13 1017 30 16093 5.1 240 03:35 23.10.2019
5524 Clear 14 1017 30 16093 3.1 310 02:40 23.10.2019
5525 Clouds 15 1015 29 16093 1.5 350 01:33 23.10.2019
5526 Clouds 16 1016 22 16093 8.2 340 00:56 23.10.2019
5527 Clear 16 1016 28 16093 4.6 270 00:28 23.10.2019
5528 Clear 16 1017 20 16093 4.6 250 23:40 22.10.2019
5529 Clouds 16 1016 20 16093 6.7 280 23:18 22.10.2019
5530 Clouds 17 1016 25 32767 11.8 250 22:57 22.10.2019
5531 Clear 16 1018 17 16093 5.7 290 22:38 22.10.2019
5532 Clouds 16 1017 20 16093 4.6 320 22:20 22.10.2019
5533 Clouds 16 1017 20 16093 4.6 320 21:56 22.10.2019
5534 Clear 16 1018 18 16093 10.3 280 21:37 22.10.2019
5535 Clouds 15 1019 19 16093 2.1 30 21:18 22.10.2019
5536 Clouds 15 1019 19 16093 2.1 30 20:55 22.10.2019
5537 Clear 15 1020 18 16093 9.8 280 20:37 22.10.2019
5538 Clouds 14 1020 24 16093 2.1 10 20:19 22.10.2019
5539 Clear 13 1021 21 16093 10.3 290 19:45 22.10.2019
5540 Clear 13 1019 28 16093 8.7 260 19:26 22.10.2019
5541 Clouds 11 1021 23 16093 2.6 0 18:58 22.10.2019
5542 Clear 11 1021 22 16093 3.6 280 18:40 22.10.2019
5543 Clear 9 1021 37 16093 1.5 60 18:21 22.10.2019
5544 Clouds 8 1021 31 16093 3.1 150 17:56 22.10.2019
5545 Clear 7 1022 27 16093 3.66 212 17:38 22.10.2019
5546 Clear 5 1021 56 16093 3.66 212 17:19 22.10.2019
5547 Clouds 4 1022 35 16093 3.6 160 16:57 22.10.2019
5548 Clear 3 1022 51 16093 1.5 210 16:37 22.10.2019
5549 Clouds 1 1021 47 16093 5.1 180 16:18 22.10.2019
5550 Clear -1 1022 74 16093 3.66 212 15:43 22.10.2019
5551 Clear -1 1021 74 16093 3.46 221 15:21 22.10.2019
5552 Clear -1 1022 74 16093 1.5 130 14:57 22.10.2019
5553 Clear -1 1022 74 16093 1.5 130 14:39 22.10.2019
5554 Clear -1 1021 58 16093 4.1 190 14:18 22.10.2019
5555 Clear -1 1022 53 16093 2.6 270 13:42 22.10.2019
5556 Clouds -1 1021 58 16093 2.6 160 13:20 22.10.2019
5557 Clouds -1 1021 58 16093 2.6 160 12:57 22.10.2019
5558 Clear 0 1021 44 16093 2.6 280 12:38 22.10.2019
5559 Clear -1 1021 74 16093 2.69 219 12:20 22.10.2019
5560 Clear 0 1023 60 16093 2.69 219 11:42 22.10.2019
5561 Clouds 0 1022 44 16093 2.6 270 11:23 22.10.2019
5562 Clear 0 1022 38 16093 4.6 310 10:59 22.10.2019
5563 Clear 0 1023 51 16093 5.1 270 10:38 22.10.2019
5564 Clear 1 1022 44 16093 2.6 300 10:19 22.10.2019
5565 Clear 1 1022 60 16093 2.1 290 10:19 22.10.2019
5566 Clear 1 1022 44 16093 2.6 300 09:59 22.10.2019
5567 Clear 1 1023 64 16093 2.69 219 09:41 22.10.2019
5568 Clear 2 1022 51 16093 2.6 250 09:21 22.10.2019
5569 Clear 2 1022 51 16093 2.6 250 08:57 22.10.2019
5570 Clear 2 1022 51 16093 2.6 250 08:57 22.10.2019
5571 Clear 2 1023 55 16093 2.72 203 08:39 22.10.2019
5572 Clear 2 1021 51 16093 2.72 203 08:19 22.10.2019
5573 Clouds 2 1023 55 16093 2.1 220 07:44 22.10.2019
5574 Clear 2 1021 51 16093 3.6 300 07:24 22.10.2019
5575 Clear 3 1023 55 16093 2.72 203 06:44 22.10.2019
5576 Clouds 3 1021 41 16093 5.1 310 06:25 22.10.2019
5577 Clear 4 1022 55 16093 3.42 307 05:40 22.10.2019
5578 Clouds 5 1020 45 16093 1.5 310 04:22 22.10.2019
5579 Clear 7 1018 39 16093 4.1 260 02:31 22.10.2019
5580 Clouds 8 1019 20 16093 6.2 280 01:38 22.10.2019
5581 Clouds 9 1017 23 16093 11.8 320 01:18 22.10.2019
5582 Clouds 9 1018 20 16093 7.2 280 00:42 22.10.2019
5583 Clear 10 1016 23 16093 7.7 290 00:24 22.10.2019
5584 Clouds 10 1016 25 16093 10.8 300 23:59 21.10.2019
5585 Clouds 10 1016 25 16093 10.8 300 23:59 21.10.2019
5586 Clouds 10 1017 17 16093 8.2 290 23:38 21.10.2019
5587 Clouds 10 1015 23 16093 10.8 290 23:19 21.10.2019
5588 Clouds 10 1015 23 16093 10.8 290 22:58 21.10.2019
5589 Clouds 10 1016 15 16093 1.5 260 22:39 21.10.2019
5590 Clouds 10 1015 20 16093 10.3 310 22:20 21.10.2019
5591 Clouds 10 1015 20 16093 10.3 310 21:57 21.10.2019
5592 Clouds 10 1016 14 16093 3.6 260 21:38 21.10.2019
5593 Clouds 10 1015 15 16093 7.2 340 21:20 21.10.2019
5594 Clouds 10 1015 18 32767 4.6 270 20:57 21.10.2019
5595 Clear 9 1016 16 16093 2.1 310 20:38 21.10.2019
5596 Clouds 9 1015 17 16093 5.7 340 20:20 21.10.2019
5597 Clouds 9 1015 21 16093 6.2 300 19:55 21.10.2019
5598 Clouds 8 1016 16 16093 2.1 350 19:37 21.10.2019
5599 Clouds 8 1015 24 16093 5.7 300 19:18 21.10.2019
5600 Clouds 7 1017 20 16093 4.61 4 18:55 21.10.2019
5601 Clouds 6 1017 20 16093 4.61 4 18:36 21.10.2019
5602 Clouds 6 1015 33 16093 1.5 350 18:18 21.10.2019
5603 Clear 4 1017 30 16093 2.4 232 17:39 21.10.2019
5604 Clear 4 1017 30 16093 2.4 232 17:39 21.10.2019
5605 Clouds 4 1015 38 16093 1.5 150 17:19 21.10.2019
5606 Clear 3 1015 40 16093 2.1 30 16:58 21.10.2019
5607 Clouds 2 1016 40 16093 2.1 210 16:40 21.10.2019
5608 Clear 1 1014 40 16093 1.5 160 16:22 21.10.2019
5609 Clear 0 1014 34 16093 5.7 350 15:58 21.10.2019
5610 Clear 0 1015 50 16093 1.5 180 15:39 21.10.2019
5611 Clouds -1 1013 32 16093 2.1 0 15:19 21.10.2019
5612 Clear 0 1015 37 16093 3.1 216 14:40 21.10.2019
5613 Clear 0 1012 30 16093 6.2 320 14:22 21.10.2019
5614 Clear 0 1013 43 16093 2.1 40 13:59 21.10.2019
5615 Clear -1 1014 37 16093 3.1 360 13:40 21.10.2019
5616 Clouds 0 1013 55 16093 1.5 220 13:20 21.10.2019
5617 Clouds 0 1012 29 16093 6.7 330 12:58 21.10.2019
5618 Clear 0 1012 43 16093 1.5 120 12:40 21.10.2019
5619 Clear 2 1013 40 16093 6.05 266.407 12:20 21.10.2019
5620 Clear 2 1014 25 16093 6.7 290 11:42 21.10.2019
5621 Clear 2 1013 37 16093 6.05 266.407 11:24 21.10.2019
5622 Clear 2 1013 37 16093 6.05 266.407 10:59 21.10.2019
5623 Clouds 2 1015 37 16093 1.5 110 10:40 21.10.2019
5624 Clear 2 1013 43 16093 6.05 266.407 10:20 21.10.2019
5625 Clear 2 1013 43 16093 6.05 266.407 09:58 21.10.2019
5626 Clouds 3 1014 32 16093 3.1 300 09:39 21.10.2019
5627 Clear 3 1013 43 16093 1.5 270 09:21 21.10.2019
5628 Clear 3 1013 37 16093 1.5 90 08:41 21.10.2019
5629 Clear 3 1013 37 16093 1.5 90 08:23 21.10.2019
5630 Clear 3 1013 37 16093 1.5 90 08:23 21.10.2019
5631 Clear 3 1015 37 16093 1.5 320 07:46 21.10.2019
5632 Clear 3 1013 32 16093 6.21 266.045 07:23 21.10.2019
5633 Clear 4 1013 35 16093 1.5 140 07:00 21.10.2019
5634 Clear 4 1015 30 16093 2.6 270 06:41 21.10.2019
5635 Clouds 4 1013 27 16093 5.1 310 06:18 21.10.2019
5636 Clear 4 1015 28 16093 5.1 320 05:33 21.10.2019
5637 Clear 5 1013 28 16093 9.16 267.135 03:41 21.10.2019
5638 Clear 6 1012 26 16093 6.7 290 02:40 21.10.2019
5639 Clouds 7 1011 24 16093 6.7 350 02:20 21.10.2019
5640 Clouds 7 1011 24 16093 6.7 350 02:20 21.10.2019
5641 Clear 7 1011 21 16093 5.1 300 01:45 21.10.2019
5642 Clear 7 1011 21 16093 5.1 300 01:45 21.10.2019
5643 Clouds 7 1009 24 16093 5.7 330 00:55 21.10.2019
5644 Clouds 7 1008 26 16093 10.8 290 00:28 21.10.2019
5645 Snow 7 1009 19 16093 9.3 310 23:58 20.10.2019
5646 Snow 7 1009 19 16093 9.3 310 23:39 20.10.2019
5647 Snow 8 1006 26 32767 16.5 280 23:21 20.10.2019
5648 Snow 7 1008 18 16093 7.7 280 22:42 20.10.2019
5649 Snow 8 1005 19 16093 13.4 270 22:24 20.10.2019
5650 Snow 8 1005 19 16093 13.4 270 22:24 20.10.2019
5651 Snow 8 1005 19 16093 13.4 270 21:59 20.10.2019
5652 Snow 8 1007 16 16093 7.7 300 21:40 20.10.2019
5653 Snow 8 1006 22 16093 8.7 300 21:22 20.10.2019
5654 Snow 8 1006 22 16093 8.7 300 21:22 20.10.2019
5655 Snow 8 1006 22 16093 8.7 300 20:56 20.10.2019
5656 Snow 8 1006 19 16093 9.3 290 20:38 20.10.2019
5657 Snow 8 1005 24 16093 15.4 280 20:18 20.10.2019
5658 Snow 8 1005 24 16093 15.4 280 19:55 20.10.2019
5659 Snow 8 1007 16 16093 7.2 310 19:37 20.10.2019
5660 Snow 8 1005 24 16093 12.9 300 19:18 20.10.2019
5661 Snow 7 1006 18 16093 8.7 300 18:40 20.10.2019
5662 Snow 7 1006 20 16093 11.3 270 18:22 20.10.2019
5663 Snow 7 1006 20 16093 11.3 270 17:57 20.10.2019
5664 Snow 6 1007 22 16093 9.8 250 17:38 20.10.2019
5665 Snow 6 1007 35 16093 7.2 290 17:20 20.10.2019
5666 Snow 4 1008 28 16093 8.7 270 16:43 20.10.2019
5667 Snow 4 1006 32 16093 10.8 290 16:24 20.10.2019
5668 Snow 4 1007 38 16093 8.7 310 15:59 20.10.2019
5669 Clear 4 1008 30 16093 5.7 260 15:40 20.10.2019
5670 Clouds 4 1006 38 16093 8.2 310 15:21 20.10.2019
5671 Clouds 4 1006 38 16093 8.2 310 14:58 20.10.2019
5672 Clear 4 1008 35 16093 4.1 300 14:38 20.10.2019
5673 Clear 5 1005 47 16093 10.8 290 14:19 20.10.2019
5674 Clear 5 1005 47 16093 10.8 290 13:56 20.10.2019
5675 Clear 5 1008 38 16093 4.6 350 13:37 20.10.2019
5676 Clear 5 1004 38 16093 6.2 330 13:18 20.10.2019
5677 Clear 6 1004 38 16093 6.2 330 12:57 20.10.2019
5678 Clear 6 1006 41 16093 6.7 290 12:39 20.10.2019
5679 Clouds 6 1004 41 16093 7.2 320 12:21 20.10.2019
5680 Clouds 6 1004 41 16093 7.2 320 11:57 20.10.2019
5681 Clouds 6 1005 45 16093 9.8 280 11:38 20.10.2019
5682 Clear 6 1003 42 16093 14.4 280 11:20 20.10.2019
5683 Clear 6 1004 49 16093 12.9 260 10:41 20.10.2019
5684 Clear 6 1004 49 16093 12.9 260 10:41 20.10.2019
5685 Clear 6 1001 31 16093 5.7 280 10:22 20.10.2019
5686 Clear 5 1001 26 16093 2.6 300 09:59 20.10.2019
5687 Clear 5 1002 51 16093 6.45 275.985 09:41 20.10.2019
5688 Clear 5 1000 24 16093 3.1 270 09:21 20.10.2019
5689 Clear 5 1002 38 16093 1.5 210 08:49 20.10.2019
5690 Clear 5 1002 28 16093 1.5 230 08:27 20.10.2019
5691 Clouds 6 1002 30 16093 3.1 190 07:51 20.10.2019
5692 Clear 6 1003 28 16093 4.56 300.746 07:31 20.10.2019
5693 Clear 6 1003 26 16093 1.5 270 06:59 20.10.2019
5694 Clouds 7 1005 26 16093 0.99 288.143 06:21 20.10.2019
5695 Clouds 9 1005 26 16093 2.6 120 04:28 20.10.2019
5696 Clear 10 1007 20 16093 3.1 110 03:47 20.10.2019
5697 Clouds 11 1006 20 16093 2.1 80 03:20 20.10.2019
5698 Clear 13 1007 16 16093 3.1 120 02:43 20.10.2019
5699 Clouds 15 1006 17 16093 2.1 30 01:58 20.10.2019
5700 Clouds 16 1007 14 16093 4.6 80 01:24 20.10.2019
5701 Clouds 16 1007 12 16093 3.1 30 00:57 20.10.2019
5702 Clear 17 1008 10 16093 4.1 130 00:39 20.10.2019
5703 Clouds 17 1008 12 16093 3.1 360 00:19 20.10.2019
5704 Clear 17 1009 10 16093 3.6 150 23:42 19.10.2019
5705 Clouds 17 1008 13 16093 4.1 30 23:22 19.10.2019
5706 Clouds 17 1008 13 16093 4.1 30 22:56 19.10.2019
5707 Clear 17 1010 12 16093 4.6 160 22:38 19.10.2019
5708 Clouds 17 1009 14 16093 2.1 0 22:20 19.10.2019
5709 Clear 16 1011 11 16093 4.6 200 21:46 19.10.2019
5710 Clouds 15 1011 15 16093 5.7 190 21:23 19.10.2019
5711 Clear 15 1013 12 16093 3.1 170 20:46 19.10.2019
5712 Clouds 14 1013 19 16093 3.6 140 20:23 19.10.2019
5713 Clouds 14 1013 19 16093 3.6 100 19:59 19.10.2019
5714 Clear 13 1014 14 16093 7.7 240 19:40 19.10.2019
5715 Clouds 13 1015 23 16093 3.1 120 19:22 19.10.2019
5716 Rain 11 1016 20 16093 1.5 160 18:43 19.10.2019
5717 Rain 10 1015 29 16093 2.1 200 18:24 19.10.2019
5718 Rain 10 1015 29 16093 2.1 200 18:24 19.10.2019
5719 Clouds 9 1015 31 16093 0.56 248.141 17:57 19.10.2019
5720 Clear 8 1016 31 16093 0.56 248.141 17:37 19.10.2019
5721 Clouds 7 1015 45 16093 2.1 170 17:19 19.10.2019
5722 Clear 4 1016 55 16093 0.56 248.141 16:39 19.10.2019
5723 Clouds 2 1014 51 16093 1.5 140 16:20 19.10.2019
5724 Clouds 2 1014 51 16093 1.5 140 16:20 19.10.2019
5725 Clear 1 1016 79 16093 0.56 248.141 15:45 19.10.2019
5726 Clear 1 1014 63 16093 3.6 190 15:26 19.10.2019
5727 Clouds 0 1014 51 16093 2.6 170 14:56 19.10.2019
5728 Clear 0 1014 51 16093 0.82 155.846 14:38 19.10.2019
5729 Clouds 0 1014 63 16093 2.1 170 14:20 19.10.2019
5730 Clear 0 1015 68 16093 0.82 155.846 13:55 19.10.2019
5731 Clear 1 1015 68 16093 0.82 155.846 13:36 19.10.2019
5732 Clouds 1 1014 47 16093 4.1 170 13:18 19.10.2019
5733 Clouds 1 1014 47 16093 4.1 170 13:18 19.10.2019
5734 Clear 1 1015 40 16093 1.05 157.209 12:39 19.10.2019
5735 Clouds 1 1013 59 16093 3.1 160 12:21 19.10.2019
5736 Clouds 1 1013 59 16093 3.1 160 11:57 19.10.2019
5737 Clear 1 1015 47 16093 2.1 350 11:39 19.10.2019
5738 Clear 1 1015 44 16093 2.1 200 11:21 19.10.2019
5739 Clear 2 1015 47 16093 2.6 190 10:41 19.10.2019
5740 Clear 2 1014 69 16093 4.6 190 10:23 19.10.2019
5741 Clear 3 1013 64 16093 3.1 170 09:59 19.10.2019
5742 Clear 3 1013 64 16093 3.1 170 09:59 19.10.2019
5743 Clear 3 1015 51 16093 1.5 170 09:40 19.10.2019
5744 Clear 3 1014 69 16093 7.39 279.303 09:22 19.10.2019
5745 Clear 3 1015 55 16093 1.5 230 08:41 19.10.2019
5746 Clear 3 1013 64 16093 2.1 140 08:23 19.10.2019
5747 Clear 4 1013 64 16093 4.6 170 07:59 19.10.2019
5748 Clear 4 1015 35 16093 5.37 265.003 07:41 19.10.2019
5749 Clear 5 1013 60 16093 1.5 200 07:23 19.10.2019
5750 Clear 6 1013 56 16093 1.5 160 06:35 19.10.2019
5751 Clear 6 1013 25 16093 4.1 270 05:51 19.10.2019
5752 Clear 8 1012 48 16093 8.37 264.476 04:26 19.10.2019
5753 Clear 9 1012 48 16093 8.37 264.476 04:26 19.10.2019
5754 Clouds 11 1011 40 16093 2.1 30 03:18 19.10.2019
5755 Clouds 13 1009 33 16093 3.6 360 02:20 19.10.2019
5756 Clouds 14 1009 12 16093 5.7 280 01:48 19.10.2019
5757 Clouds 16 1008 38 16093 9.26 266.316 00:52 19.10.2019
5758 Clouds 16 1007 30 16093 5.1 360 00:29 19.10.2019
5759 Clouds 15 1007 47 16093 3.1 0 23:57 18.10.2019
5760 Dust 15 1006 41 16093 4.1 50 23:38 18.10.2019
5761 Rain 15 1007 47 16093 1.5 130 23:19 18.10.2019
5762 Rain 15 1007 47 16093 1.5 130 22:54 18.10.2019
5763 Rain 15 1006 38 16093 4.1 50 22:36 18.10.2019
5764 Thunderstorm 15 1005 33 16093 7.7 70 22:18 18.10.2019
5765 Thunderstorm 16 1006 22 16093 11.8 280 21:54 18.10.2019
5766 Thunderstorm 15 1007 50 16093 5.1 330 21:36 18.10.2019
5767 Thunderstorm 15 1006 41 16093 6.2 20 21:18 18.10.2019
5768 Thunderstorm 15 1007 25 16093 6.7 240 20:41 18.10.2019
5769 Clouds 15 1005 31 16093 6.7 20 20:22 18.10.2019
5770 Clouds 15 1005 31 16093 6.7 20 19:58 18.10.2019
5771 Clear 16 1006 29 16093 4.1 50 19:40 18.10.2019
5772 Clear 16 1006 29 16093 4.1 50 19:40 18.10.2019
5773 Clouds 16 1005 25 16093 5.1 50 19:21 18.10.2019
5774 Clouds 16 1005 25 16093 5.1 50 18:58 18.10.2019
5775 Clear 16 1006 30 16093 2.6 70 18:40 18.10.2019
5776 Clouds 16 1004 23 16093 3.6 250 18:21 18.10.2019
5777 Clear 16 1006 28 16093 4.6 60 17:40 18.10.2019
5778 Clouds 15 1004 23 16093 7.2 250 17:21 18.10.2019
5779 Clouds 15 1003 25 16093 4.6 10 16:59 18.10.2019
5780 Clear 14 1005 32 16093 2.6 50 16:38 18.10.2019
5781 Clouds 14 1003 26 16093 5.7 240 16:20 18.10.2019
5782 Clouds 12 1003 26 16093 5.7 240 15:55 18.10.2019
5783 Clear 12 1003 45 16093 3.1 160 15:36 18.10.2019
5784 Clouds 11 1004 29 16093 1.5 0 15:18 18.10.2019
5785 Clouds 11 1004 29 16093 1.5 0 14:56 18.10.2019
5786 Clear 11 1003 30 16093 2.6 170 14:38 18.10.2019
5787 Clear 11 1003 26 16093 5.7 220 14:18 18.10.2019
5788 Clear 11 1003 28 16093 2.6 190 13:44 18.10.2019
5789 Clear 11 1003 25 16093 7.2 180 13:26 18.10.2019
5790 Clear 11 1003 25 16093 4.1 220 12:58 18.10.2019
5791 Clear 11 1003 22 16093 1.5 220 12:39 18.10.2019
5792 Clear 11 1002 26 16093 3.1 180 12:21 18.10.2019
5793 Clear 11 1002 26 16093 3.1 180 11:57 18.10.2019
5794 Clear 11 1002 26 16093 3.1 180 11:57 18.10.2019
5795 Clear 10 1003 23 16093 2.1 210 11:39 18.10.2019
5796 Clear 10 1004 23 16093 3.1 200 11:20 18.10.2019
5797 Clear 10 1003 22 16093 2.1 150 10:56 18.10.2019
5798 Clear 10 1003 22 16093 2.1 200 10:38 18.10.2019
5799 Clear 10 1003 15 16093 2.6 110 10:18 18.10.2019
5800 Clear 10 1003 15 16093 2.6 110 09:55 18.10.2019
5801 Clear 9 1003 23 16093 5.7 230 09:36 18.10.2019
5802 Clear 9 1003 25 16093 4.1 230 09:18 18.10.2019
5803 Clouds 9 1004 27 16093 4.1 180 08:42 18.10.2019
5804 Clouds 10 1004 23 16093 2.1 230 08:22 18.10.2019
5805 Clear 10 1004 41 16093 1.5 200 07:44 18.10.2019
5806 Clouds 10 1004 27 16093 3.1 200 07:26 18.10.2019
5807 Clouds 12 1004 22 16093 2.6 230 06:41 18.10.2019
5808 Clouds 11 1004 24 16093 3.6 200 06:22 18.10.2019
5809 Clouds 11 1004 24 16093 3.6 200 06:22 18.10.2019
5810 Clouds 12 1004 24 16093 3.6 200 05:57 18.10.2019
5811 -273 0 0 0 0 0 05:24 18.10.2019
5812 Clouds 12 1004 22 16093 3.6 220 05:24 18.10.2019
5813 Clear 14 1005 34 16093 1.5 210 04:47 18.10.2019
5814 Clouds 17 1004 10 16093 3.6 220 03:33 18.10.2019
5815 Clear 20 1005 17 16093 2.71 29.572 02:35 18.10.2019
5816 Clouds 22 1004 9 16093 7.7 170 01:54 18.10.2019
5817 Clouds 23 1005 12 16093 4.6 350 01:30 18.10.2019
5818 Clear 25 1006 9 16093 3.6 340 00:46 18.10.2019
5819 Clouds 25 1006 6 16093 6.2 180 00:21 18.10.2019
5820 Clouds 25 1006 6 16093 6.2 180 00:21 18.10.2019
5821 Clouds 26 1006 6 16093 6.2 180 23:57 17.10.2019
5822 Clear 26 1007 5 16093 2.6 50 23:38 17.10.2019
5823 Clear 26 1007 5 16093 2.6 50 23:38 17.10.2019
5824 Clouds 26 1006 5 16093 2.6 360 23:19 17.10.2019
5825 Clear 26 1008 9 16093 2.1 10 22:55 17.10.2019
5826 Clouds 26 1007 5 16093 4.1 200 22:37 17.10.2019
5827 Clouds 26 1007 5 16093 3.1 290 22:18 17.10.2019
5828 Clear 26 1009 8 16093 3.19 115.117 21:55 17.10.2019
5829 Clear 25 1009 8 16093 3.19 115.117 21:37 17.10.2019
5830 Clouds 24 1009 6 16093 5.7 240 21:19 17.10.2019
5831 Clouds 24 1009 6 16093 5.7 240 20:56 17.10.2019
5832 Clouds 24 1009 6 16093 5.7 240 20:56 17.10.2019
5833 Clouds 24 1009 6 16093 5.7 240 20:56 17.10.2019
5834 Clear 24 1011 12 16093 1.94 152.84 20:37 17.10.2019
5835 Clouds 23 1011 6 16093 5.1 200 20:18 17.10.2019
5836 Clear 22 1012 13 16093 1.94 152.84 19:42 17.10.2019
5837 Clouds 21 1012 8 16093 6.7 230 19:20 17.10.2019
5838 Clouds 20 1012 8 16093 6.7 230 18:59 17.10.2019
5839 Clear 20 1013 20 16093 1.94 152.84 18:39 17.10.2019
5840 Clouds 19 1013 9 16093 6.7 220 18:20 17.10.2019
5841 Clouds 16 1013 13 16093 4.6 220 17:43 17.10.2019
5842 Clouds 16 1013 13 16093 4.6 220 17:43 17.10.2019
5843 Clouds 13 1014 10 16093 5.1 220 17:24 17.10.2019
5844 Clouds 13 1014 10 16093 5.1 220 16:58 17.10.2019
5845 Clouds 12 1014 25 16093 4.1 190 16:40 17.10.2019
5846 Clouds 12 1014 25 16093 4.1 190 16:40 17.10.2019
5847 Clouds 10 1014 25 16093 4.1 190 16:19 17.10.2019
5848 Clouds 10 1014 17 16093 6.7 210 15:57 17.10.2019
5849 Clouds 10 1014 17 16093 6.7 210 15:38 17.10.2019
5850 Clear 7 1013 64 11265 2.1 200 15:20 17.10.2019
5851 -273 0 0 0 0 0 14:56 17.10.2019
5852 Clear 7 1015 64 16093 1.5 180 14:37 17.10.2019
5853 Clear 7 1014 23 16093 4.313 218 14:19 17.10.2019
5854 Clear 7 1015 59 16093 4.313 218 13:39 17.10.2019
5855 Clear 7 1015 59 16093 4.313 218 13:39 17.10.2019
5856 Clear 7 1014 59 16093 4.313 218 13:20 17.10.2019
5857 Clear 7 1015 17 16093 4.313 218 12:57 17.10.2019
5858 Clear 7 1016 51 16093 2.1 210 12:37 17.10.2019
5859 Clouds 7 1015 31 16093 3.6 190 12:18 17.10.2019
5860 Clear 8 1016 55 16093 4.149 213 11:42 17.10.2019
5861 Clear 8 1016 55 16093 4.149 213 11:42 17.10.2019
5862 Clear 8 1016 25 16093 4.149 213 11:22 17.10.2019
5863 Clear 8 1016 25 16093 1.5 260 10:59 17.10.2019
5864 Clear 8 1017 59 16093 2.1 210 10:41 17.10.2019
5865 Clear 9 1016 29 16093 2.1 130 10:19 17.10.2019
5866 Clear 9 1016 29 16093 2.1 130 09:56 17.10.2019
5867 Clear 9 1017 55 16093 3.995 213 09:37 17.10.2019
5868 Clear 9 1016 19 16093 1.5 140 09:19 17.10.2019
5869 Clear 9 1017 45 16093 1.5 200 08:48 17.10.2019
5870 Clear 9 1017 19 16093 2.1 260 08:27 17.10.2019
5871 Clear 10 1017 22 16093 2.1 230 07:59 17.10.2019
5872 Clear 10 1018 45 16093 1.5 210 07:41 17.10.2019
5873 Clear 10 1017 34 16093 3.6 290 07:21 17.10.2019
5874 Clear 11 1018 48 16093 2.1 200 06:43 17.10.2019
5875 Clear 11 1018 22 16093 2.6 270 06:24 17.10.2019
5876 Clear 12 1018 21 16093 5.7 180 05:59 17.10.2019
5877 Clear 12 1019 34 16093 2.646 216 05:35 17.10.2019
5878 Clear 13 1019 19 16093 5.7 180 04:57 17.10.2019
5879 Clear 13 1018 16 16093 4.6 150 04:31 17.10.2019
5880 Clear 15 1019 30 16093 2.646 216 03:45 17.10.2019
5881 Clouds 21 1018 11 16093 5.1 300 01:55 17.10.2019
5882 Clear 24 1019 6 16093 4.1 210 00:41 17.10.2019
5883 Clouds 24 1019 9 16093 3.1 40 00:20 17.10.2019
5884 Clear 24 1019 7 16093 2.6 180 23:42 16.10.2019
5885 Clear 24 1018 11 16093 3.34 58 23:21 16.10.2019
5886 Clouds 24 1020 10 16093 3.1 310 22:57 16.10.2019
5887 Clear 24 1020 8 16093 2.1 220 22:38 16.10.2019
5888 Clouds 24 1020 11 16093 3.34 58 22:20 16.10.2019
5889 Clouds 23 1020 11 16093 3.34 58 21:58 16.10.2019
5890 Clear 23 1021 9 16093 3.786 57 21:38 16.10.2019
5891 Clouds 22 1021 11 16093 0.768 58 21:20 16.10.2019
5892 Clouds 22 1021 11 16093 0.768 58 20:58 16.10.2019
5893 Clouds 22 1021 11 16093 0.768 58 20:58 16.10.2019
5894 Clear 22 1022 11 16093 0.768 58 20:40 16.10.2019
5895 Clear 21 1020 21 16093 2.1 100 20:21 16.10.2019
5896 Clouds 21 1022 11 16093 1.5 320 19:59 16.10.2019
5897 Clear 20 1023 24 16093 0.768 58 19:40 16.10.2019
5898 Clear 19 1022 14 16093 0.768 58 19:21 16.10.2019
5899 Clouds 17 1022 14 16093 0.768 58 18:56 16.10.2019
5900 Clear 17 1023 30 16093 1.5 160 18:56 16.10.2019
5901 Clear 16 1023 30 16093 1.5 160 18:37 16.10.2019
5902 Clouds 13 1023 25 16093 3.06 213 18:18 16.10.2019
5903 Clouds 12 1023 25 16093 3.06 213 17:54 16.10.2019
5904 Clear 10 1024 52 16093 3.06 213 17:36 16.10.2019
5905 Clouds 8 1022 42 16093 3.6 210 17:18 16.10.2019
5906 Clear 7 1023 26 16093 3.06 213 16:43 16.10.2019
5907 Clear 6 1021 65 16093 1.5 200 16:22 16.10.2019
5908 Clouds 6 1022 39 16093 2.1 160 15:58 16.10.2019
5909 Clear 6 1021 80 16093 3.06 213 15:39 16.10.2019
5910 Clear 3 1021 45 16093 3.1 220 15:19 16.10.2019
5911 Clear 3 1023 86 16093 3.439 211 14:58 16.10.2019
5912 Clear 3 1023 86 16093 3.439 211 14:58 16.10.2019
5913 Clear 3 1023 86 16093 3.599 210 14:39 16.10.2019
5914 Clear 3 1023 86 16093 3.599 210 14:19 16.10.2019
5915 Clear 3 1021 60 16093 3.599 210 13:57 16.10.2019
5916 Clear 3 1023 33 16093 3.599 210 13:38 16.10.2019
5917 Clear 3 1022 64 16093 1.5 260 13:20 16.10.2019
5918 Clear 3 1023 33 16093 3.599 210 12:42 16.10.2019
5919 Clear 3 1022 56 16093 2.561 221 12:19 16.10.2019
5920 Clear 3 1024 39 16093 2.561 221 11:45 16.10.2019
5921 Clear 3 1023 56 16093 2.6 320 11:19 16.10.2019
5922 Clear 3 1025 39 16093 2.561 221 10:41 16.10.2019
5923 Clear 3 1023 52 16093 3.6 310 10:23 16.10.2019
5924 Clear 3 1024 48 16093 2.6 200 09:58 16.10.2019
5925 Clear 4 1026 40 16093 2.084 227 09:39 16.10.2019
5926 Clear 4 1026 40 16093 2.084 227 09:39 16.10.2019
5927 Clear 3 1024 60 16093 4.6 180 09:20 16.10.2019
5928 Clear 4 1026 74 16093 1.712 222 08:44 16.10.2019
5929 Clear 4 1027 74 16093 1.712 222 08:26 16.10.2019
5930 Clear 4 1027 69 16093 1.712 222 07:56 16.10.2019
5931 Clear 4 1027 69 16093 1.712 222 07:38 16.10.2019
5932 Clear 4 1027 74 16093 1.712 222 07:20 16.10.2019
5933 Clear 5 1027 69 16093 1.712 222 06:40 16.10.2019
5934 Clear 5 1027 69 16093 0.422 145 06:19 16.10.2019
5935 Clear 9 1026 39 16093 0.422 145 03:33 16.10.2019
5936 Clouds 11 1024 30 16093 2.6 80 02:50 16.10.2019
5937 Clear 14 1024 24 16093 2.1 80 01:20 16.10.2019
5938 Clear 14 1023 26 16093 3.1 60 00:54 16.10.2019
5939 Clear 14 1024 24 16093 2.6 80 00:35 16.10.2019
5940 Clear 15 1024 24 16093 3.32 25 23:42 15.10.2019
5941 Clear 15 1024 26 16093 1.5 120 23:22 15.10.2019
5942 Clouds 15 1023 29 16093 3.6 50 22:57 15.10.2019
5943 Clear 14 1025 28 16093 2.1 80 22:38 15.10.2019
5944 Clear 14 1025 28 16093 1.5 80 22:20 15.10.2019
5945 Clouds 14 1023 30 16093 2.6 0 21:56 15.10.2019
5946 Clouds 14 1023 30 16093 2.6 0 21:56 15.10.2019
5947 Clouds 14 1023 30 16093 2.6 0 21:56 15.10.2019
5948 Clear 14 1025 30 16093 2.1 60 21:38 15.10.2019
5949 Clear 13 1025 30 16093 2.6 130 21:20 15.10.2019
5950 Clouds 13 1024 35 16093 2.387 77 20:57 15.10.2019
5951 Clear 12 1026 34 16093 3.1 60 20:39 15.10.2019
5952 Clear 12 1026 34 16093 2.6 70 20:20 15.10.2019
5953 Clouds 11 1024 34 16093 2.6 20 19:58 15.10.2019
5954 Clear 11 1026 40 16093 2.1 170 19:40 15.10.2019
5955 Clear 10 1026 40 16093 2.387 77 19:20 15.10.2019
5956 Clear 10 1026 45 16093 2.6 70 18:47 15.10.2019
5957 Clear 9 1026 45 16093 2.1 160 18:29 15.10.2019
5958 Clouds 8 1024 52 16093 1.5 0 17:59 15.10.2019
5959 Clouds 7 1024 52 32767 2.6 140 17:40 15.10.2019
5960 -273 0 0 0 0 0 17:20 15.10.2019
5961 Clouds 5 1024 56 16093 2.6 130 16:57 15.10.2019
5962 Clear 4 1026 80 16093 0.225 273 16:38 15.10.2019
5963 Clear 3 1026 80 16093 0.225 273 16:20 15.10.2019
5964 Clear 1 1025 86 16093 0.225 273 15:43 15.10.2019
5965 Clear 1 1025 86 16093 1.23 285 15:21 15.10.2019
5966 Clear 1 1024 69 16093 3.1 180 14:59 15.10.2019
5967 Clear 1 1025 71 16093 0.701 322 14:38 15.10.2019
5968 Clear 1 1026 71 16093 2.1 210 14:20 15.10.2019
5969 Clear 1 1026 71 16093 2.1 210 14:20 15.10.2019
5970 Clear 1 1024 59 16093 2.1 220 13:58 15.10.2019
5971 Clear 1 1026 71 16093 0.701 322 13:40 15.10.2019
5972 Clear 2 1026 74 16093 0.701 322 13:19 15.10.2019
5973 Clear 2 1026 64 16093 0.701 322 12:44 15.10.2019
5974 Clear 3 1024 56 16093 2.1 310 12:22 15.10.2019
5975 -273 0 0 0 0 0 11:57 15.10.2019
5976 Clear 4 1025 56 16093 3.1 290 11:38 15.10.2019
5977 Clear 5 1023 52 16093 5.1 330 11:19 15.10.2019
5978 Clear 6 1023 42 16093 4.1 30 10:45 15.10.2019
5979 Clear 6 1021 36 16093 8.2 40 10:22 15.10.2019
5980 Clear 6 1019 38 16093 2.1 170 09:58 15.10.2019
5981 Clear 6 1020 35 16093 3.6 20 09:39 15.10.2019
5982 -273 0 0 0 0 0 09:20 15.10.2019
5983 Clear 8 1018 17 16093 3.6 280 08:56 15.10.2019
5984 Clear 8 1018 18 16093 3.1 270 08:37 15.10.2019
5985 Clear 8 1019 23 16093 2.6 200 08:18 15.10.2019
5986 Clear 8 1018 14 16093 2.6 260 07:41 15.10.2019
5987 Clear 9 1018 14 16093 6.7 280 07:21 15.10.2019
5988 Clear 9 1018 12 16093 3.1 270 06:47 15.10.2019
5989 Clear 9 1017 14 16093 7.2 300 06:29 15.10.2019
5990 Clear 10 1018 15 16093 3.1 280 05:48 15.10.2019
5991 Clear 11 1017 11 16093 4.1 290 05:29 15.10.2019
5992 Clear 14 1016 10 16093 5.7 280 04:39 15.10.2019
5993 Clouds 14 1014 19 16093 2.6 80 03:38 15.10.2019
5994 Clouds 14 1014 19 16093 2.6 80 03:38 15.10.2019
5995 Clouds 17 1015 12 32767 5.1 260 02:51 15.10.2019
5996 Clouds 20 1013 10 32767 7.7 280 01:49 15.10.2019
5997 Clear 21 1014 8 16093 4.6 290 01:22 15.10.2019
5998 Clouds 22 1013 11 16093 4.1 40 00:50 15.10.2019
5999 Clear 22 1013 7 16093 6.7 300 00:22 15.10.2019
6000 Clear 22 1013 6 16093 6.7 260 23:45 14.10.2019
6001 Clear 23 1013 7 16093 9.3 280 23:21 14.10.2019
6002 Clouds 23 1013 10 16093 4.1 60 22:58 14.10.2019
6003 Clear 23 1013 8 16093 9.3 290 22:38 14.10.2019
6004 Clear 23 1013 8 16093 6.7 320 22:18 14.10.2019
6005 Clouds 23 1013 9 16093 5.1 40 22:18 14.10.2019
6006 Clouds 23 1013 9 16093 5.1 40 21:55 14.10.2019
6007 Clear 23 1014 8 16093 8.2 300 21:36 14.10.2019
6008 Clear 22 1014 8 16093 9.3 290 21:18 14.10.2019
6009 -273 0 0 0 0 0 20:55 14.10.2019
6010 Clouds 22 1014 11 16093 8.2 250 20:54 14.10.2019
6011 Clouds 22 1014 11 16093 8.2 250 20:54 14.10.2019
6012 Clouds 22 1014 9 16093 4.1 40 20:54 14.10.2019
6013 Clear 22 1015 9 16093 5.1 300 20:36 14.10.2019
6014 Clouds 21 1015 9 16093 2.6 0 20:18 14.10.2019
6015 Clear 19 1015 12 16093 2.749 13 19:41 14.10.2019
6016 Clear 18 1016 13 16093 2.1 20 19:23 14.10.2019
6017 Clear 18 1016 13 16093 2.1 20 19:23 14.10.2019
6018 Clouds 19 1015 14 16093 3.44 241.729 18:58 14.10.2019
6019 Clear 18 1016 20 16093 2.6 360 18:39 14.10.2019
6020 Clouds 17 1015 13 32186 5.1 270 18:19 14.10.2019
6021 Clouds 15 1015 14 16093 3.1 210 17:56 14.10.2019
6022 Clear 14 1016 28 16093 0.78 222.091 17:37 14.10.2019
6023 Clouds 12 1016 20 16093 2.6 120 17:19 14.10.2019
6024 Clear 10 1016 45 16093 3.1 10 16:43 14.10.2019
6025 Clouds 8 1015 24 16093 3.6 150 16:21 14.10.2019
6026 Clouds 6 1015 25 16093 5.1 190 15:42 14.10.2019
6027 Clear 4 1015 32 16093 2.1 110 15:23 14.10.2019
6028 Clear 4 1015 32 16093 2.1 110 14:57 14.10.2019
6029 Clear 4 1015 32 16093 2.1 110 14:57 14.10.2019
6030 Clear 4 1016 59 16093 1.5 200 14:39 14.10.2019
6031 Clouds 4 1015 24 16093 6.2 190 14:19 14.10.2019
6032 Clear 4 1016 68 16093 2.7 249.441 13:44 14.10.2019
6033 Clear 4 1015 24 16093 2.57 244.924 13:21 14.10.2019
6034 Clear 5 1015 24 16093 2.57 244.924 12:55 14.10.2019
6035 Clear 5 1016 19 16093 2.57 244.924 12:37 14.10.2019
6036 Clear 4 1015 22 16093 2.1 180 12:18 14.10.2019
6037 Clear 4 1015 22 16093 2.1 180 12:18 14.10.2019
6038 Clear 4 1015 22 16093 2.1 180 12:18 14.10.2019
6039 Clear 4 1016 20 16093 1.01 243.739 11:44 14.10.2019
6040 Clouds 4 1015 24 16093 2.6 190 11:26 14.10.2019
6041 Clear 5 1015 24 16093 2.1 190 10:57 14.10.2019
6042 Clear 5 1015 24 16093 2.1 190 10:57 14.10.2019
6043 Clouds 5 1015 24 16093 4.6 200 10:38 14.10.2019
6044 Clouds 5 1015 24 16093 4.6 200 10:19 14.10.2019
6045 Clear 6 1014 18 16093 2.1 280 09:42 14.10.2019
6046 Clear 6 1015 24 16093 2.6 130 09:21 14.10.2019
6047 Clear 7 1015 23 16093 2.6 270 08:51 14.10.2019
6048 Clear 7 1015 23 16093 2.6 270 08:23 14.10.2019
6049 Clear 7 1016 59 16093 2.14 301.125 07:47 14.10.2019
6050 Clear 8 1015 18 16093 3.6 310 07:26 14.10.2019
6051 Clear 8 1015 18 16093 3.1 290 06:59 14.10.2019
6052 Clouds 8 1015 21 16093 6.2 190 06:28 14.10.2019
6053 Clouds 9 1016 17 16093 6.2 160 05:57 14.10.2019
6054 Clear 9 1015 21 16093 4.1 180 05:27 14.10.2019
6055 Clear 11 1016 39 16093 1.5 220 04:34 14.10.2019
6056 Clouds 13 1015 15 16093 2.6 120 03:26 14.10.2019
6057 Clear 17 1015 9 16093 1.5 90 02:34 14.10.2019
6058 Clouds 21 1015 7 16093 2.1 0 01:22 14.10.2019
6059 Clear 21 1015 6 16093 3.6 110 00:45 14.10.2019
6060 Clear 22 1015 6 16093 4.35 240.662 00:19 14.10.2019
6061 Clear 22 1015 6 16093 1.5 360 23:44 13.10.2019
6062 Clouds 22 1015 7 16093 4.1 60 23:20 13.10.2019
6063 Clouds 22 1015 7 16093 4.1 60 23:20 13.10.2019
6064 Clouds 22 1015 7 16093 4.1 60 22:58 13.10.2019
6065 Clear 22 1015 6 16093 2.1 30 22:40 13.10.2019
6066 Clear 21 1016 7 16093 3.6 20 22:21 13.10.2019
6067 Clear 21 1016 6 16093 4.35 240.662 21:57 13.10.2019
6068 Clear 21 1016 6 16093 4.35 240.662 21:37 13.10.2019
6069 Clear 21 1016 6 16093 4.35 240.662 21:37 13.10.2019
6070 Clear 20 1016 6 12874 2.1 300 21:18 13.10.2019
6071 Clear 20 1016 6 12874 2.1 300 20:57 13.10.2019
6072 Clear 19 1017 8 16093 3.1 280 20:37 13.10.2019
6073 Clear 19 1017 11 16093 1.5 130 20:19 13.10.2019
6074 -273 0 0 0 0 0 19:56 13.10.2019
6075 Clear 18 1017 11 16093 1.5 130 19:56 13.10.2019
6076 Clear 18 1018 14 16093 2.62 172.555 19:55 13.10.2019
6077 Clear 18 1018 14 16093 2.62 172.555 19:55 13.10.2019
6078 Clear 18 1018 14 16093 2.62 172.555 19:37 13.10.2019
6079 Clear 17 1017 14 16093 2.62 172.555 19:19 13.10.2019
6080 Clear 16 1017 14 16093 2.62 172.555 18:55 13.10.2019
6081 Clear 15 1017 14 16093 5.1 200 18:36 13.10.2019
6082 Clear 14 1018 12 16093 1.71 216.676 18:18 13.10.2019
6083 Clear 14 1018 12 16093 1.71 216.676 18:18 13.10.2019
6084 -273 0 0 0 0 0 17:42 13.10.2019
6085 Clear 9 1017 21 16093 3.1 190 17:24 13.10.2019
6086 Clear 7 1018 26 16093 1.5 120 16:54 13.10.2019
6087 Clear 5 1017 52 16093 2.1 160 16:36 13.10.2019
6088 Clear 4 1017 43 16093 1.5 170 16:18 13.10.2019
6089 Clear 3 1016 32 16093 4.1 180 15:40 13.10.2019
6090 Clear 0 1016 40 16093 3.1 190 15:22 13.10.2019
6091 Clear 0 1016 40 16093 3.1 190 14:59 13.10.2019
6092 Clear 0 1018 79 16093 1.58 269.855 14:40 13.10.2019
6093 Clear 0 1016 47 16093 1.58 269.855 14:22 13.10.2019
6094 Clear 0 1016 47 16093 1.58 269.855 13:59 13.10.2019
6095 Clear 1 1017 74 16093 2.1 170 13:38 13.10.2019
6096 Clear 1 1017 74 16093 2.1 170 13:38 13.10.2019
6097 Clear 1 1016 26 16093 2.1 130 13:20 13.10.2019
6098 Clear 1 1016 26 16093 2.1 130 12:56 13.10.2019
6099 Clear 1 1015 43 16093 3.1 210 12:38 13.10.2019
6100 Clear 1 1015 43 16093 3.1 210 12:19 13.10.2019
6101 Clear 1 1017 80 16093 1.5 200 11:56 13.10.2019
6102 Clear 2 1017 80 16093 1.5 200 11:38 13.10.2019
6103 Clear 2 1016 40 16093 3.6 180 11:18 13.10.2019
6104 Clear 2 1017 80 16093 1.02 280.275 10:41 13.10.2019
6105 Clear 2 1016 43 16093 2.1 130 10:23 13.10.2019
6106 Clear 2 1015 27 16093 3.1 210 09:41 13.10.2019
6107 Clear 3 1015 47 16093 3.6 110 09:22 13.10.2019
6108 Clear 3 1015 47 16093 3.6 110 08:59 13.10.2019
6109 Clear 3 1017 31 16093 2.79 296.593 08:40 13.10.2019
6110 Clear 4 1015 35 16093 2.1 190 08:21 13.10.2019
6111 Clear 5 1015 39 16093 4.6 300 07:46 13.10.2019
6112 Clear 5 1015 26 12874 5.1 190 07:21 13.10.2019
6113 Clear 5 1015 28 16093 3.1 190 06:41 13.10.2019
6114 Clear 6 1017 69 16093 1.43 263.068 05:46 13.10.2019
6115 Clear 8 1016 52 16093 1.43 263.068 04:49 13.10.2019
6116 Clear 8 1015 23 16093 3.1 100 04:29 13.10.2019
6117 Clouds 14 1014 14 16093 1.5 60 02:42 13.10.2019
6118 Clouds 18 1014 10 16093 3.13 8.576 01:54 13.10.2019
6119 Clouds 18 1014 10 16093 2.87 15.978 01:30 13.10.2019
6120 Clear 19 1015 13 16093 2.1 360 00:47 13.10.2019
6121 Clouds 19 1014 9 16093 4.1 350 00:21 13.10.2019
6122 Clear 19 1015 14 16093 1.38 350.974 23:56 12.10.2019
6123 Clear 19 1015 14 16093 1.38 350.974 23:37 12.10.2019
6124 Clouds 19 1014 7 16093 3.1 20 23:19 12.10.2019
6125 Clouds 19 1014 7 16093 3.1 20 22:57 12.10.2019
6126 Clear 19 1015 14 16093 2.1 340 22:38 12.10.2019
6127 Clouds 18 1015 7 16093 2.6 0 22:20 12.10.2019
6128 Clouds 18 1015 7 16093 2.6 0 21:54 12.10.2019
6129 Clouds 18 1015 7 16093 2.6 0 21:54 12.10.2019
6130 Clear 17 1016 17 16093 1.38 350.974 21:36 12.10.2019
6131 Clouds 16 1015 7 16093 3.1 50 21:18 12.10.2019
6132 Clear 15 1018 30 16093 1.5 30 20:40 12.10.2019
6133 Clouds 15 1016 8 16093 1.5 0 20:22 12.10.2019
6134 Clouds 14 1017 20 16093 2.6 70 19:38 12.10.2019
6135 Clouds 13 1017 20 16093 2.6 70 19:20 12.10.2019
6136 Clouds 12 1017 9 16093 2.1 190 18:56 12.10.2019
6137 Clouds 12 1017 9 16093 2.1 190 18:56 12.10.2019
6138 Clouds 12 1017 9 16093 2.1 190 18:56 12.10.2019
6139 Clouds 11 1017 22 16093 2.1 110 18:37 12.10.2019
6140 Clouds 9 1017 22 16093 2.1 110 18:19 12.10.2019
6141 Clear 8 1020 60 16093 3.1 10 17:42 12.10.2019
6142 Clouds 5 1017 36 16093 0.81 338.79 17:19 12.10.2019
6143 Clouds 4 1018 40 16093 3.1 200 16:54 12.10.2019
6144 Clear 3 1019 31 16093 1.5 240 16:36 12.10.2019
6145 Clouds 1 1017 37 16093 3.1 160 16:18 12.10.2019
6146 Clear -1 1019 85 16093 0.81 338.79 15:40 12.10.2019
6147 Clear -2 1019 85 16093 1.5 200 15:22 12.10.2019
6148 Clear -2 1019 92 16093 0.32 95.693 14:43 12.10.2019
6149 Clouds -2 1018 50 16093 3.1 130 14:22 12.10.2019
6150 Clouds -2 1018 50 16093 3.1 130 13:57 12.10.2019
6151 Clear -2 1017 46 16093 0.32 95.693 13:38 12.10.2019
6152 Clouds -2 1018 54 16093 4.1 140 13:20 12.10.2019
6153 Clear -2 1019 86 16093 0.62 158.13 12:39 12.10.2019
6154 Clear -2 1018 50 16093 2.6 350 12:21 12.10.2019
6155 Clouds -1 1018 50 16093 2.6 140 11:58 12.10.2019
6156 Clear -1 1020 86 16093 1.5 170 11:38 12.10.2019
6157 Clouds -1 1018 55 16093 5.1 210 11:19 12.10.2019
6158 Clear -1 1020 79 16093 0.78 282.059 10:41 12.10.2019
6159 Clear -1 1018 47 16093 0.78 282.059 10:23 12.10.2019
6160 Clouds 0 1018 55 16093 3.1 140 09:58 12.10.2019
6161 Clouds 0 1018 55 16093 3.1 140 09:57 12.10.2019
6162 Clear 0 1020 79 16093 1.5 270 09:39 12.10.2019
6163 Clear 0 1018 51 16093 1.91 264.266 09:20 12.10.2019
6164 Clear 0 1020 46 16093 1.69 288.585 08:56 12.10.2019
6165 Clear 0 1020 46 16093 1.69 288.585 08:55 12.10.2019
6166 Clear 0 1020 46 16093 1.69 288.585 08:36 12.10.2019
6167 Clouds 0 1020 47 16093 4.1 160 08:18 12.10.2019
6168 Clear 1 1020 44 16093 1.5 180 07:33 12.10.2019
6169 Clouds 1 1021 47 16093 5.1 150 06:44 12.10.2019
6170 Clear 2 1022 41 16093 2.6 190 05:46 12.10.2019
6171 Clear 2 1023 38 16093 1.51 219.519 04:47 12.10.2019
6172 Clear 3 1023 44 16093 1.5 190 03:57 12.10.2019
6173 Clouds 5 1022 47 16093 4.1 120 02:57 12.10.2019
6174 Clouds 9 1022 23 32186 3.1 140 01:36 12.10.2019
6175 Clouds 10 1022 17 16093 2.79 126.985 00:58 12.10.2019
6176 Clear 10 1023 24 16093 1.5 100 00:39 12.10.2019
6177 Rain 10 1024 15 16093 1.87 135.043 23:57 11.10.2019
6178 Rain 10 1024 15 16093 1.87 135.043 23:38 11.10.2019
6179 Rain 9 1023 19 16093 1.5 0 23:19 11.10.2019
6180 Rain 9 1024 18 16093 1.5 20 22:39 11.10.2019
6181 Rain 9 1023 19 16093 1.5 0 22:21 11.10.2019
6182 Rain 8 1023 19 16093 1.5 0 21:55 11.10.2019
6183 Rain 8 1025 19 16093 1.87 135.043 21:36 11.10.2019
6184 Rain 7 1024 33 16093 1.5 150 21:18 11.10.2019
6185 Rain 6 1024 38 16093 3.1 180 20:43 11.10.2019
6186 Rain 5 1024 38 16093 3.1 180 20:25 11.10.2019
6187 Rain 4 1024 38 16093 3.1 180 19:56 11.10.2019
6188 Rain 3 1025 47 16093 4.1 190 19:38 11.10.2019
6189 Rain 3 1024 51 16093 5.1 180 19:18 11.10.2019
6190 Rain 2 1026 40 16093 2.37 167.274 18:56 11.10.2019
6191 Rain 1 1026 40 16093 2.37 167.274 18:37 11.10.2019
6192 Snow 0 1025 58 16093 3.1 170 18:18 11.10.2019
6193 Snow -1 1025 58 16093 3.1 170 17:57 11.10.2019
6194 Snow -2 1025 68 16093 1.5 170 17:37 11.10.2019
6195 Clear -3 1024 63 16093 3.6 180 17:18 11.10.2019
6196 Clear -5 1027 85 16093 2.12 247.702 16:42 11.10.2019
6197 Clear -6 1024 72 16093 2.1 130 16:21 11.10.2019
6198 Clear -8 1024 72 16093 2.1 130 15:59 11.10.2019
6199 Clear -8 1026 85 16093 2.12 247.702 15:39 11.10.2019
6200 Clouds -9 1024 92 32767 2.65 262.704 15:19 11.10.2019
6201 Clear -9 1026 92 16093 2.65 262.704 14:48 11.10.2019
6202 Clear -9 1023 78 16093 1.5 200 14:29 11.10.2019
6203 Clear -9 1023 78 16093 1.5 160 13:57 11.10.2019
6204 Clear -9 1026 92 16093 1.5 220 13:39 11.10.2019
6205 Clear -9 1023 92 16093 2.1 60 13:21 11.10.2019
6206 Clear -9 1023 92 16093 2.1 60 12:56 11.10.2019
6207 Clear -9 1025 92 16093 2.04 262.211 12:38 11.10.2019
6208 Clear -9 1023 85 16093 1.5 170 12:19 11.10.2019
6209 Clear -9 1026 85 16093 1.42 325.074 11:41 11.10.2019
6210 Clear -9 1023 78 16093 1.42 325.074 11:22 11.10.2019
6211 Clear -9 1023 92 16093 1.42 325.074 11:22 11.10.2019
6212 Clear -9 1023 92 16093 1.42 325.074 10:58 11.10.2019
6213 Clouds -9 1023 92 16093 1.42 325.074 10:40 11.10.2019
6214 Clear -8 1023 72 16093 4.1 340 10:22 11.10.2019
6215 Clear -8 1023 72 16093 4.1 340 09:55 11.10.2019
6216 Clear -8 1024 92 16093 2.1 50 09:37 11.10.2019
6217 Clear -8 1022 78 16093 7.2 170 09:19 11.10.2019
6218 Clear -8 1022 78 16093 7.2 170 08:55 11.10.2019
6219 Clouds -8 1023 92 16093 2.6 170 08:36 11.10.2019
6220 Clear -8 1023 78 16093 4.1 110 08:18 11.10.2019
6221 Clouds -8 1024 92 16093 4.6 170 07:41 11.10.2019
6222 Clouds -8 1024 78 16093 2.1 190 07:22 11.10.2019
6223 Clouds -7 1024 92 16093 1.37 147.777 06:47 11.10.2019
6224 Clouds -7 1024 79 16093 2.02 122.589 06:22 11.10.2019
6225 Clouds -7 1027 86 16093 2.6 100 05:39 11.10.2019
6226 Snow -6 1027 86 16093 1.5 130 04:59 11.10.2019
6227 Snow -6 1024 85 16093 2.02 122.589 04:24 11.10.2019
6228 Snow -4 1022 73 12874 3.38 56.16 02:19 11.10.2019
6229 Clouds -4 1024 68 16093 2.1 180 00:43 11.10.2019
6230 Clouds -4 1021 73 16093 3.37 53.12 00:25 11.10.2019
6231 Clouds -4 1023 58 16093 3.15 28.696 23:43 10.10.2019
6232 Clouds -4 1020 79 16093 3.6 20 23:21 10.10.2019
6233 Clouds -4 1021 73 16093 3.15 28.696 22:57 10.10.2019
6234 Clouds -4 1021 73 16093 3.15 28.696 22:57 10.10.2019
6235 Snow -4 1021 85 9656 3.6 40 22:39 10.10.2019
6236 Snow -4 1021 79 11265 2.6 20 22:20 10.10.2019
6237 Snow -4 1021 79 11265 2.6 20 21:57 10.10.2019
6238 Snow -4 1023 73 16093 3.15 28.696 21:38 10.10.2019
6239 Snow -4 1021 79 2414 4.6 30 21:20 10.10.2019
6240 Snow -5 1024 79 6437 1.5 50 20:42 10.10.2019
6241 Snow -5 1021 79 1207 3.6 20 20:21 10.10.2019
6242 Snow -5 1021 85 1207 2.6 10 19:58 10.10.2019
6243 Snow -6 1024 85 2816 3.6 50 19:40 10.10.2019
6244 Snow -6 1022 92 1609 2.1 10 19:20 10.10.2019
6245 Snow -6 1022 92 1609 2.1 10 19:20 10.10.2019
6246 Snow -6 1025 85 1207 2.6 50 18:57 10.10.2019
6247 Snow -6 1025 85 1207 2.6 50 18:38 10.10.2019
6248 Snow -6 1021 85 402 3.6 30 18:19 10.10.2019
6249 Snow -7 1022 92 402 9.8 10 17:41 10.10.2019
6250 Snow -7 1021 92 805 4.6 20 17:20 10.10.2019
6251 Snow -7 1021 92 805 4.6 20 16:59 10.10.2019
6252 Snow -6 1022 92 402 7.2 20 16:41 10.10.2019
6253 Snow -6 1020 85 2414 5.7 20 16:22 10.10.2019
6254 Snow -6 1023 92 805 3.6 60 15:44 10.10.2019
6255 Snow -6 1020 92 4828 2.1 20 15:25 10.10.2019
6256 Snow -6 1020 92 8047 4.6 20 14:59 10.10.2019
6257 Snow -5 1022 92 4828 4.1 60 14:38 10.10.2019
6258 Snow -5 1022 92 4828 4.1 60 14:38 10.10.2019
6259 Snow -5 1019 85 8047 4.1 20 14:19 10.10.2019
6260 Snow -5 1019 85 8047 4.1 20 13:59 10.10.2019
6261 Snow -5 1022 85 6437 4.6 40 13:40 10.10.2019
6262 Snow -4 1018 85 4023 4.6 20 13:19 10.10.2019
6263 Snow -4 1018 85 4023 4.6 20 12:55 10.10.2019
6264 Snow -4 1021 85 16093 3.6 50 12:37 10.10.2019
6265 Mist -4 1018 92 4828 4.6 10 12:18 10.10.2019
6266 Mist -3 1020 79 16093 3.6 20 11:42 10.10.2019
6267 Mist -3 1017 92 6437 6.7 20 11:21 10.10.2019
6268 Mist -3 1017 92 6437 7.2 30 10:59 10.10.2019
6269 Mist -3 1021 80 16093 3.6 40 10:41 10.10.2019
6270 Mist -3 1017 92 8047 5.7 30 10:22 10.10.2019
6271 Mist -2 1017 92 8047 5.7 30 09:54 10.10.2019
6272 Snow -2 1017 92 4828 6.2 10 09:36 10.10.2019
6273 Snow -1 1016 92 3219 6.7 20 09:18 10.10.2019
6274 Snow -1 1019 92 6437 6.2 10 08:41 10.10.2019
6275 Snow -1 1016 92 3219 6.7 10 08:21 10.10.2019
6276 Mist 0 1016 92 3219 6.7 10 07:58 10.10.2019
6277 Rain 0 1016 58 6437 4.6 20 07:37 10.10.2019
6278 Drizzle 0 1016 58 6437 3.6 40 07:19 10.10.2019
6279 Snow 1 1018 86 6437 4.6 50 06:40 10.10.2019
6280 Drizzle 2 1015 74 9656 7.7 20 05:57 10.10.2019
6281 Clouds 3 1014 69 16093 7.7 360 05:22 10.10.2019
6282 Clouds 5 1015 55 16093 8.2 50 04:37 10.10.2019
6283 Clouds 10 1011 49 16093 10.8 360 02:49 10.10.2019
6284 Haze 21 1005 17 8047 14.9 20 01:41 10.10.2019
6285 Haze 20 1005 17 8047 14.9 20 01:41 10.10.2019
6286 Clouds 24 1002 7 16093 5.7 250 01:22 10.10.2019
6287 Clear 25 1002 6 16093 2.6 120 00:41 10.10.2019
6288 Clouds 25 1002 7 16093 5.1 200 00:19 10.10.2019
6289 Clouds 26 1002 6 16093 5.1 200 23:38 09.10.2019
6290 Clouds 26 1003 8 16093 4.1 190 23:19 09.10.2019
6291 Clouds 26 1003 8 16093 4.1 190 23:19 09.10.2019
6292 Clear 26 1003 6 16093 3.1 110 22:42 09.10.2019
6293 Clouds 26 1004 9 16093 4.6 180 22:23 09.10.2019
6294 Clouds 26 1004 9 16093 4.6 180 21:59 09.10.2019
6295 Clear 26 1004 7 16093 4.6 150 21:39 09.10.2019
6296 Clouds 25 1005 10 16093 3.6 180 21:19 09.10.2019
6297 Clouds 25 1005 10 16093 3.6 180 20:55 09.10.2019
6298 Clear 25 1006 8 16093 5.7 120 20:37 09.10.2019
6299 Clouds 24 1006 10 16093 5.7 220 20:18 09.10.2019
6300 Clouds 24 1006 10 16093 5.7 220 20:18 09.10.2019
6301 Clouds 24 1006 10 16093 5.7 220 20:18 09.10.2019
6302 Clear 23 1007 11 16093 3.6 140 19:45 09.10.2019
6303 Clouds 22 1008 13 16093 5.25 179.356 19:23 09.10.2019
6304 Clouds 21 1008 13 16093 5.25 179.356 18:57 09.10.2019
6305 Clouds 20 1009 15 16093 1.5 0 18:37 09.10.2019
6306 Clouds 18 1008 25 32767 3.1 0 18:18 09.10.2019
6307 Clouds 17 1008 25 32767 3.1 0 17:54 09.10.2019
6308 Clouds 13 1009 22 16093 4.1 190 17:36 09.10.2019
6309 Clouds 13 1008 17 16093 5.1 220 17:18 09.10.2019
6310 Clouds 12 1008 23 16093 4.1 180 16:40 09.10.2019
6311 Clouds 12 1009 25 16093 1.61 189.415 16:21 09.10.2019
6312 Clouds 12 1009 25 16093 1.61 189.415 15:58 09.10.2019
6313 Clouds 11 1009 23 16093 4.1 180 15:39 09.10.2019
6314 Clouds 9 1009 27 16093 2.1 130 15:19 09.10.2019
6315 Clear 8 1010 51 16093 1.8 220.255 14:56 09.10.2019
6316 Clear 8 1010 51 16093 1.8 220.255 14:37 09.10.2019
6317 Clouds 8 1009 27 16093 2.6 160 14:18 09.10.2019
6318 Clear 8 1009 25 16093 5.1 250 13:39 09.10.2019
6319 Clouds 8 1010 31 16093 2.1 150 13:20 09.10.2019
6320 Clear 8 1010 48 16093 2.28 218.883 12:57 09.10.2019
6321 Clear 9 1010 48 16093 2.28 218.883 12:38 09.10.2019
6322 Clouds 8 1009 24 16093 4.1 120 12:20 09.10.2019
6323 Clouds 8 1009 24 16093 4.1 120 11:55 09.10.2019
6324 Clouds 8 1009 24 16093 4.1 120 11:55 09.10.2019
6325 Clear 8 1010 51 16093 2.1 150 11:36 09.10.2019
6326 Clear 8 1010 51 16093 2.1 150 11:36 09.10.2019
6327 Clear 9 1010 21 16093 3.27 248.667 11:18 09.10.2019
6328 Clear 8 1011 51 16093 3.27 248.667 10:42 09.10.2019
6329 Clear 8 1011 24 16093 1.5 130 10:20 09.10.2019
6330 Clear 9 1011 24 16093 1.5 130 09:56 09.10.2019
6331 Clear 10 1011 39 16093 3.27 248.667 09:38 09.10.2019
6332 Clouds 9 1010 18 16093 4.6 220 09:18 09.10.2019
6333 Clear 10 1011 29 16093 2.1 200 08:39 09.10.2019
6334 Clear 10 1011 18 16093 2.6 150 08:20 09.10.2019
6335 Clear 11 1012 36 16093 2.1 330 07:47 09.10.2019
6336 Clear 11 1012 20 16093 3.1 190 07:25 09.10.2019
6337 Clear 11 1012 20 16093 3.1 190 07:25 09.10.2019
6338 Clear 11 1011 19 16093 2.6 240 07:25 09.10.2019
6339 Clear 11 1012 20 16093 3.1 190 06:59 09.10.2019
6340 Clear 12 1011 15 16093 3.1 250 06:41 09.10.2019
6341 Clear 12 1012 34 16093 2.25 261.964 05:53 09.10.2019
6342 Clear 13 1013 31 16093 2.25 261.964 05:18 09.10.2019
6343 Clear 16 1012 20 16093 2.25 261.964 03:48 09.10.2019
6344 Clouds 20 1011 7 16093 3.1 70 02:34 09.10.2019
6345 Clear 24 1011 6 16093 3.1 90 01:39 09.10.2019
6346 Clear 24 1011 6 16093 3.1 90 01:39 09.10.2019
6347 Clouds 24 1011 5 16093 4.1 60 01:18 09.10.2019
6348 Clouds 25 1011 5 16093 4.1 60 00:55 09.10.2019
6349 Clouds 25 1011 5 16093 4.1 60 00:55 09.10.2019
6350 Clear 25 1012 5 16093 4.1 40 00:36 09.10.2019
6351 Clouds 25 1011 5 16093 6.2 40 00:18 09.10.2019
6352 Clear 25 1012 6 16093 2.6 30 23:38 08.10.2019
6353 Clouds 25 1011 5 16093 5.1 30 23:18 08.10.2019
6354 Clouds 25 1011 5 16093 5.1 30 22:55 08.10.2019
6355 Clear 25 1012 5 16093 2.1 10 22:36 08.10.2019
6356 Clouds 25 1012 6 16093 5.7 80 22:18 08.10.2019
6357 Clouds 25 1012 6 16093 5.7 80 21:55 08.10.2019
6358 Clear 25 1013 5 16093 2.6 340 21:36 08.10.2019
6359 Clouds 24 1013 5 16093 2.1 0 21:18 08.10.2019
6360 Clear 24 1014 6 16093 2.6 110 20:54 08.10.2019
6361 Clear 24 1014 6 16093 2.6 110 20:36 08.10.2019
6362 Clouds 23 1013 5 16093 2.1 0 20:18 08.10.2019
6363 Clear 22 1015 13 16093 2.1 60 19:41 08.10.2019
6364 Clouds 20 1014 7 16093 4.1 220 19:23 08.10.2019
6365 Clouds 19 1014 12 32767 3.4 227.361 18:57 08.10.2019
6366 Clouds 19 1014 11 16093 2.6 230 18:39 08.10.2019
6367 Clouds 16 1015 9 16093 2.6 0 18:19 08.10.2019
6368 Clouds 16 1015 9 16093 2.6 0 17:56 08.10.2019
6369 Clear 15 1016 25 16093 0.95 289.74 17:56 08.10.2019
6370 Clouds 13 1015 15 16093 4.6 190 17:38 08.10.2019
6371 Clouds 13 1014 13 16093 4.1 230 17:18 08.10.2019
6372 Clear 11 1016 36 16093 0.95 289.74 16:41 08.10.2019
6373 Clouds 11 1015 17 16093 3.6 200 16:22 08.10.2019
6374 Clouds 11 1015 17 16093 3.6 200 15:57 08.10.2019
6375 Clouds 10 1015 18 16093 3.1 210 15:38 08.10.2019
6376 Clouds 8 1015 26 16093 2.6 170 15:19 08.10.2019
6377 Clouds 7 1015 18 16093 4.6 180 14:42 08.10.2019
6378 -273 0 0 0 0 0 14:42 08.10.2019
6379 Clouds 7 1015 33 16093 3.1 140 14:22 08.10.2019
6380 Clouds 7 1015 33 16093 3.1 140 13:59 08.10.2019
6381 Clouds 6 1015 23 16093 5.1 180 13:39 08.10.2019
6382 Clouds 7 1016 30 16093 3.6 120 13:21 08.10.2019
6383 Clouds 7 1016 30 16093 3.6 120 12:59 08.10.2019
6384 Clear 7 1016 26 16093 3.1 190 12:40 08.10.2019
6385 Clear 7 1016 35 16093 2.6 140 12:20 08.10.2019
6386 Clear 7 1016 35 16093 2.6 140 11:56 08.10.2019
6387 Clear 7 1016 18 16093 1.95 233.664 11:37 08.10.2019
6388 Clear 7 1017 35 16093 2.6 150 11:19 08.10.2019
6389 Clear 7 1016 15 16093 2.1 190 10:40 08.10.2019
6390 Clear 7 1018 47 16093 1.95 233.664 10:22 08.10.2019
6391 Clear 8 1016 13 16093 3.6 230 09:58 08.10.2019
6392 Clear 8 1016 18 16093 3.6 240 09:40 08.10.2019
6393 Clear 8 1017 31 16093 1.5 210 09:20 08.10.2019
6394 Clear 8 1018 41 16093 2.11 272.903 08:44 08.10.2019
6395 Clear 8 1017 24 16093 3.1 250 08:25 08.10.2019
6396 Clear 9 1018 33 16093 1.94 248.353 07:46 08.10.2019
6397 Clear 10 1018 21 16093 2.6 240 07:23 08.10.2019
6398 Clear 11 1018 24 16093 2.1 160 06:56 08.10.2019
6399 Clear 10 1018 22 16093 3.1 290 06:34 08.10.2019
6400 Clear 11 1018 22 32767 1.5 260 05:57 08.10.2019
6401 Clear 11 1018 22 32767 1.5 260 05:57 08.10.2019
6402 Clear 11 1019 39 16093 2.48 259.121 05:38 08.10.2019
6403 Clear 13 1019 34 16093 2.48 259.121 04:42 08.10.2019
6404 Clouds 16 1019 11 32767 3.1 350 03:29 08.10.2019
6405 Clouds 20 1018 5 16093 3.1 130 02:40 08.10.2019
6406 Clear 23 1019 5 16093 2.65 102.81 01:49 08.10.2019
6407 Clouds 23 1018 3 16093 2.65 102.81 01:31 08.10.2019
6408 Clouds 24 1019 4 16093 2.1 0 00:50 08.10.2019
6409 Clouds 24 1019 4 16093 2.1 90 00:21 08.10.2019
6410 Clear 24 1020 5 16093 2.1 140 23:41 07.10.2019
6411 Clear 24 1020 3 16093 1.5 0 23:21 07.10.2019
6412 Clear 24 1020 3 16093 1.5 0 22:58 07.10.2019
6413 Clouds 24 1020 5 16093 2.1 40 22:40 07.10.2019
6414 Clear 23 1022 10 16093 1.5 30 22:20 07.10.2019
6415 Clouds 23 1021 12 32186 2.1 100 21:57 07.10.2019
6416 Clear 22 1022 10 16093 2.1 60 21:39 07.10.2019
6417 Clouds 21 1022 7 16093 2.6 0 21:20 07.10.2019
6418 Clouds 20 1022 14 16093 3.1 110 20:58 07.10.2019
6419 Clear 20 1024 10 16093 3.1 130 20:39 07.10.2019
6420 Clouds 19 1023 13 16093 2.1 0 20:20 07.10.2019
6421 Clear 18 1025 14 16093 1.5 100 19:58 07.10.2019
6422 Clear 18 1025 14 16093 1.5 100 19:39 07.10.2019
6423 Clouds 17 1024 11 16093 2.1 350 19:19 07.10.2019
6424 Clouds 16 1024 11 16093 2.1 350 18:56 07.10.2019
6425 Clouds 16 1024 11 16093 2.1 350 18:56 07.10.2019
6426 Clear 15 1026 22 16093 2.23 132.856 18:38 07.10.2019
6427 Clear 14 1025 16 16093 3.1 210 18:18 07.10.2019
6428 Clear 12 1027 27 16093 1.39 201.87 17:43 07.10.2019
6429 Clouds 10 1025 42 16093 4.6 220 17:20 07.10.2019
6430 Clear 8 1026 31 16093 1.39 201.87 16:56 07.10.2019
6431 Clouds 7 1026 56 16093 2.1 200 16:38 07.10.2019
6432 Clear 6 1026 52 16093 2.6 160 16:19 07.10.2019
6433 Clouds 4 1026 64 16093 4.6 200 15:44 07.10.2019
6434 Clouds 1 1026 64 16093 4.6 200 15:25 07.10.2019
6435 Clouds 1 1026 64 16093 2.1 160 14:55 07.10.2019
6436 Clear 1 1028 79 11265 0.83 296.627 14:37 07.10.2019
6437 Clear 1 1026 64 16093 4.1 110 14:18 07.10.2019
6438 Clear 1 1027 79 16093 0.83 296.627 13:41 07.10.2019
6439 Clear 2 1026 60 16093 3.1 150 13:19 07.10.2019
6440 Clear 2 1026 60 16093 3.1 150 12:55 07.10.2019
6441 Clear 3 1026 36 16093 1.19 264.309 12:37 07.10.2019
6442 Clear 3 1026 56 16093 3.1 180 12:18 07.10.2019
6443 Clear 3 1026 56 16093 3.1 180 11:56 07.10.2019
6444 Clear 3 1028 74 16093 2 331.47 11:37 07.10.2019
6445 Clear 3 1026 52 16093 5.1 160 11:18 07.10.2019
6446 Clear 3 1028 69 16093 2 331.47 10:41 07.10.2019
6447 Clear 3 1028 69 16093 2 331.47 10:41 07.10.2019
6448 Clear 3 1027 52 16093 4.1 170 10:20 07.10.2019
6449 Clear 3 1027 52 16093 4.1 170 10:20 07.10.2019
6450 Clear 4 1028 23 16093 2 331.47 09:42 07.10.2019
6451 Clear 4 1026 36 16093 2.68 295.19 09:23 07.10.2019
6452 Clear 5 1027 38 16093 1.5 280 08:56 07.10.2019
6453 Clear 5 1028 24 16093 2.27 290.666 08:38 07.10.2019
6454 Clear 5 1027 45 16093 4.6 180 08:19 07.10.2019
6455 Clear 6 1028 64 16093 1.5 200 07:41 07.10.2019
6456 Clear 6 1027 42 16093 4.1 180 07:21 07.10.2019
6457 Clear 6 1027 42 16093 4.1 180 07:21 07.10.2019
6458 Clear 6 1029 64 16093 2.27 290.666 06:48 07.10.2019
6459 Clear 7 1027 39 16093 4.1 190 06:27 07.10.2019
6460 Clear 7 1029 51 16093 2.66 140.506 05:42 07.10.2019
6461 Clear 8 1027 34 16093 3.1 150 05:21 07.10.2019
6462 Clear 10 1027 27 16093 2.6 150 04:23 07.10.2019
6463 Clear 11 1028 27 16093 1.5 110 03:44 07.10.2019
6464 Clear 12 1026 24 16093 2.6 130 03:19 07.10.2019
6465 Clear 12 1026 24 16093 2.6 130 03:19 07.10.2019
6466 Clear 14 1026 21 32767 2.1 110 02:20 07.10.2019
6467 Clear 14 1026 21 32767 2.1 110 02:20 07.10.2019
6468 Clear 15 1027 14 16093 1.5 150 01:50 07.10.2019
6469 Clouds 16 1026 17 16093 2.6 150 01:21 07.10.2019
6470 Clear 16 1027 14 16093 2.6 170 00:38 07.10.2019
6471 Clouds 16 1026 18 16093 3.69 133.79 00:19 07.10.2019
6472 Clear 16 1028 16 16093 2.6 180 23:42 06.10.2019
6473 Clear 16 1028 16 16093 2.6 180 23:42 06.10.2019
6474 Clouds 16 1027 22 16093 2.6 220 23:21 06.10.2019
6475 Clouds 15 1027 21 16093 4.1 130 22:59 06.10.2019
6476 Clear 15 1028 17 16093 3.1 160 22:40 06.10.2019
6477 Clouds 15 1028 22 16093 3.69 133.79 22:21 06.10.2019
6478 Clouds 15 1028 22 16093 3.69 133.79 22:21 06.10.2019
6479 Clear 14 1029 19 16093 3.1 150 21:57 06.10.2019
6480 Clear 14 1029 19 16093 3.1 150 21:37 06.10.2019
6481 Clouds 14 1029 26 16093 2.66 109.697 21:19 06.10.2019
6482 Clouds 13 1029 26 16093 2.66 109.697 20:57 06.10.2019
6483 Clear 13 1031 20 16093 2.6 160 20:38 06.10.2019
6484 Clouds 12 1029 22 16093 4.6 30 20:20 06.10.2019
6485 Clouds 12 1030 25 16093 2.6 40 19:57 06.10.2019
6486 Clear 12 1031 25 16093 1.5 160 19:37 06.10.2019
6487 Clear 12 1031 25 16093 1.5 160 19:37 06.10.2019
6488 Clouds 12 1030 29 16093 4.1 20 19:19 06.10.2019
6489 Clouds 11 1030 29 16093 4.1 20 18:56 06.10.2019
6490 Clear 11 1031 27 16093 1.17 103.112 18:38 06.10.2019
6491 Clear 11 1031 27 16093 1.17 103.112 18:38 06.10.2019
6492 Clouds 10 1029 37 16093 3.6 40 18:19 06.10.2019
6493 Clear 9 1031 31 16093 2.6 50 17:43 06.10.2019
6494 Clouds 9 1028 42 16093 4.6 40 17:21 06.10.2019
6495 Clouds 8 1029 36 32767 2.6 90 16:59 06.10.2019
6496 Clear 8 1030 36 16093 2.54 25.496 16:41 06.10.2019
6497 Clouds 7 1028 39 16093 2.6 330 16:23 06.10.2019
6498 Clouds 7 1029 45 16093 2.54 25.496 15:45 06.10.2019
6499 Clouds 7 1026 42 16093 3.1 360 15:22 06.10.2019
6500 Clouds 7 1027 36 16093 3.1 340 14:58 06.10.2019
6501 Clouds 7 1027 36 16093 3.1 340 14:58 06.10.2019
6502 Clouds 7 1028 36 16093 2.1 40 14:40 06.10.2019
6503 Clouds 7 1025 45 16093 2.6 330 14:21 06.10.2019
6504 Clouds 8 1027 36 16093 1.5 310 13:55 06.10.2019
6505 Clouds 8 1027 36 16093 1.5 310 13:37 06.10.2019
6506 Clouds 8 1024 36 16093 2.1 360 13:18 06.10.2019
6507 Clouds 8 1024 36 16093 2.1 360 12:55 06.10.2019
6508 Clouds 8 1024 36 16093 2.1 360 12:55 06.10.2019
6509 Clouds 8 1025 31 16093 3.1 20 12:37 06.10.2019
6510 Clouds 8 1023 42 16093 4.1 300 12:19 06.10.2019
6511 Clouds 7 1023 39 16093 3.6 360 11:42 06.10.2019
6512 Clouds 7 1022 36 16093 6.7 340 11:24 06.10.2019
6513 Clouds 7 1022 36 16093 6.7 340 11:24 06.10.2019
6514 Clouds 7 1022 36 16093 5.1 350 10:56 06.10.2019
6515 Clouds 6 1023 42 16093 2.6 350 10:56 06.10.2019
6516 Clouds 6 1023 42 16093 2.6 350 10:38 06.10.2019
6517 Clouds 6 1022 36 16093 1.5 360 10:19 06.10.2019
6518 Clouds 6 1022 34 16093 1.5 320 09:41 06.10.2019
6519 Clear 7 1019 34 16093 8.2 330 09:20 06.10.2019
6520 Clear 7 1021 45 16093 2.6 300 08:50 06.10.2019
6521 Clear 8 1019 34 16093 10.3 340 08:30 06.10.2019
6522 Clouds 8 1019 42 16093 3.1 250 07:59 06.10.2019
6523 Clouds 8 1019 42 16093 3.1 250 07:59 06.10.2019
6524 Clear 9 1021 45 16093 2.1 290 07:40 06.10.2019
6525 Clouds 9 1019 32 16093 3.6 210 06:59 06.10.2019
6526 Clear 11 1018 37 16093 3.6 140 05:41 06.10.2019
6527 Clear 11 1018 37 16093 3.6 140 05:41 06.10.2019
6528 Clear 13 1020 23 16093 1.5 70 04:40 06.10.2019
6529 Clouds 15 1018 25 16093 5.7 140 02:56 06.10.2019
6530 Clouds 16 1017 22 16093 6.7 160 02:32 06.10.2019
6531 Clear 18 1018 16 16093 3.6 70 01:49 06.10.2019
6532 Clouds 18 1017 20 16093 6.7 130 01:30 06.10.2019
6533 Clouds 18 1017 20 16093 6.7 130 01:30 06.10.2019
6534 Clear 19 1019 14 16093 4.1 140 00:59 06.10.2019
6535 Clear 19 1019 14 16093 4.1 140 00:36 06.10.2019
6536 Clouds 19 1018 22 16093 6.2 150 00:18 06.10.2019
6537 Clear 19 1019 13 16093 4.6 160 23:40 05.10.2019
6538 Clouds 18 1019 16 16093 6.2 120 23:19 05.10.2019
6539 Clear 18 1020 12 16093 3.1 150 22:54 05.10.2019
6540 Clear 18 1020 12 16093 3.1 150 22:54 05.10.2019
6541 Clouds 18 1020 18 16093 5.7 100 22:36 05.10.2019
6542 Clouds 18 1019 23 16093 6.7 110 22:18 05.10.2019
6543 Clouds 18 1019 23 16093 6.7 110 22:18 05.10.2019
6544 Clear 17 1021 12 16093 3.6 170 21:41 05.10.2019
6545 Clouds 16 1020 21 16093 5.1 100 21:22 05.10.2019
6546 Clouds 16 1020 21 16093 5.1 100 20:57 05.10.2019
6547 Clear 15 1022 12 16093 4.6 170 20:39 05.10.2019
6548 Clouds 15 1021 22 16093 7.7 110 20:19 05.10.2019
6549 Clouds 15 1021 22 16093 7.7 110 20:19 05.10.2019
6550 Clear 14 1023 16 16093 4.6 150 19:41 05.10.2019
6551 Clouds 14 1022 24 16093 7.2 90 19:22 05.10.2019
6552 Clouds 14 1022 24 16093 7.2 90 19:22 05.10.2019
6553 Clouds 13 1022 24 16093 7.2 90 18:58 05.10.2019
6554 Clear 13 1023 20 16093 6.2 130 18:39 05.10.2019
6555 Clouds 12 1021 32 16093 7.2 110 18:21 05.10.2019
6556 Clouds 11 1021 32 16093 7.2 110 17:59 05.10.2019
6557 Clear 10 1022 32 16093 5.1 100 17:40 05.10.2019
6558 Clouds 9 1021 46 16093 3.6 110 17:21 05.10.2019
6559 Clear 9 1021 39 16093 3.6 70 16:42 05.10.2019
6560 Clouds 8 1020 52 16093 5.1 140 16:23 05.10.2019
6561 Clouds 8 1020 52 16093 5.1 140 15:59 05.10.2019
6562 Clear 7 1021 49 16093 3.25 126.588 15:40 05.10.2019
6563 Clouds 6 1019 65 16093 3.6 140 15:21 05.10.2019
6564 Clouds 5 1019 65 16093 4.6 160 14:58 05.10.2019
6565 Clouds 5 1019 65 16093 4.6 160 14:58 05.10.2019
6566 Clouds 6 1019 65 16093 4.6 160 14:40 05.10.2019
6567 Clouds 6 1019 56 16093 4.1 140 14:20 05.10.2019
6568 Clear 6 1018 49 16093 4.6 100 13:42 05.10.2019
6569 Clouds 7 1018 31 16093 2.6 0 13:23 05.10.2019
6570 Clouds 7 1018 31 16093 5.1 150 12:47 05.10.2019
6571 Clear 7 1018 22 16093 3.6 200 12:21 05.10.2019
6572 Clear 7 1018 22 16093 3.6 200 12:21 05.10.2019
6573 Clear 8 1018 22 16093 3.6 200 11:59 05.10.2019
6574 Clear 8 1018 42 16093 1.5 290 11:39 05.10.2019
6575 Clear 8 1017 34 16093 3.1 260 11:19 05.10.2019
6576 Clear 9 1017 27 16093 11.8 290 10:45 05.10.2019
6577 Clear 9 1017 27 16093 11.8 290 10:26 05.10.2019
6578 Clear 9 1017 27 16093 11.8 290 10:26 05.10.2019
6579 Clear 10 1017 27 16093 11.8 280 09:59 05.10.2019
6580 Clear 10 1015 26 16093 16.5 280 09:39 05.10.2019
6581 Clear 10 1015 26 16093 16.5 280 09:39 05.10.2019
6582 Clear 11 1016 50 16093 5.1 100 09:20 05.10.2019
6583 Clear 11 1014 24 16093 17 280 08:40 05.10.2019
6584 Clear 12 1015 26 16093 3.1 230 08:20 05.10.2019
6585 Clear 12 1015 26 16093 3.1 230 07:57 05.10.2019
6586 Clear 12 1014 21 16093 11.8 280 07:35 05.10.2019
6587 Clear 12 1013 19 16093 3.6 280 06:59 05.10.2019
6588 Clear 13 1013 54 16093 4.45 12.843 06:28 05.10.2019
6589 Clear 12 1012 58 16093 3.1 170 06:28 05.10.2019
6590 Clouds 13 1012 54 16093 1.67 170.199 05:51 05.10.2019
6591 Clear 16 1011 32 16093 2.6 350 03:57 05.10.2019
6592 Clouds 16 1009 42 16093 2.1 310 03:28 05.10.2019
6593 Haze 21 1011 32 16093 2.1 290 01:41 05.10.2019
6594 Haze 22 1010 30 16093 1.87 179.174 01:20 05.10.2019
6595 Clear 23 1011 30 16093 2.6 320 00:43 05.10.2019
6596 Clouds 22 1010 22 16093 5.1 280 00:23 05.10.2019
6597 Clear 23 1012 30 16093 1.95 12.924 23:44 04.10.2019
6598 Clouds 23 1012 34 16093 3.1 360 23:26 04.10.2019
6599 Clouds 23 1012 34 16093 3.1 360 23:26 04.10.2019
6600 Clouds 22 1012 34 16093 3.1 360 22:59 04.10.2019
6601 Clear 23 1013 32 16093 1.5 310 22:39 04.10.2019
6602 Clouds 23 1012 20 16093 9.8 220 22:20 04.10.2019
6603 Clouds 22 1012 17 16093 9.3 200 21:57 04.10.2019
6604 Clear 21 1014 39 16093 3.6 10 21:38 04.10.2019
6605 Clouds 20 1014 30 16093 3.6 30 21:19 04.10.2019
6606 -273 0 0 0 0 0 20:55 04.10.2019
6607 Clear 19 1016 41 16093 3.1 30 20:36 04.10.2019
6608 Clouds 17 1015 39 16093 2.1 80 20:18 04.10.2019
6609 Clear 18 1018 50 16093 0.88 85.345 19:45 04.10.2019
6610 Clouds 17 1016 41 16093 3.6 20 19:26 04.10.2019
6611 Clouds 16 1017 39 16093 2.6 0 18:57 04.10.2019
6612 Clear 15 1019 62 16093 2.1 20 18:38 04.10.2019
6613 Clouds 12 1018 66 16093 2.1 0 18:19 04.10.2019
6614 Clear 10 1020 66 16093 1.5 10 17:42 04.10.2019
6615 Clouds 10 1019 70 16093 2.04 333.623 17:22 04.10.2019
6616 Clouds 9 1019 58 16093 2.04 333.623 16:59 04.10.2019
6617 Clear 7 1021 81 16093 1.5 360 16:41 04.10.2019
6618 Clear 8 1021 81 16093 1.5 360 16:41 04.10.2019
6619 Clear 7 1019 70 16093 2.04 333.623 16:19 04.10.2019
6620 Clouds 6 1019 80 16093 1.5 220 15:58 04.10.2019
6621 Clouds 5 1019 80 16093 1.5 220 15:39 04.10.2019
6622 Clear 4 1019 75 16093 2.1 240 15:21 04.10.2019
6623 Clear 4 1019 75 16093 2.1 240 14:58 04.10.2019
6624 Clear 5 1019 80 16093 2.6 240 14:39 04.10.2019
6625 Clear 5 1019 75 16093 1.9 334.352 14:21 04.10.2019
6626 Clear 5 1019 75 16093 3.1 360 13:45 04.10.2019
6627 Clear 5 1019 70 16093 1.62 349.543 13:24 04.10.2019
6628 Clear 5 1019 70 16093 1.62 349.543 12:58 04.10.2019
6629 Clear 6 1021 93 16093 1.62 349.543 12:40 04.10.2019
6630 Clear 6 1020 75 16093 2.22 334.451 12:21 04.10.2019
6631 Clear 6 1020 70 16093 3.6 350 11:43 04.10.2019
6632 Clear 6 1020 70 16093 3.6 350 11:42 04.10.2019
6633 Clear 6 1020 61 16093 2.6 210 11:22 04.10.2019
6634 Clear 7 1020 70 16093 2.22 334.451 10:55 04.10.2019
6635 Clear 7 1020 70 16093 2.6 360 10:37 04.10.2019
6636 Clear 7 1020 66 16093 3.1 330 10:18 04.10.2019
6637 Clear 7 1021 86 16093 2.22 334.451 09:41 04.10.2019
6638 Clear 8 1020 61 16093 1.5 354.771 09:23 04.10.2019
6639 Clear 8 1022 93 16093 1.5 354.771 08:45 04.10.2019
6640 Clear 8 1020 53 16093 5.7 180 08:26 04.10.2019
6641 Clear 9 1022 81 16093 1.5 354.771 07:47 04.10.2019
6642 Clear 9 1021 57 16093 1.5 354.771 07:26 04.10.2019
6643 Clear 9 1021 50 16093 5.1 190 06:58 04.10.2019
6644 Clear 10 1022 81 16093 1.5 200 06:39 04.10.2019
6645 Clouds 10 1022 46 16093 5.7 190 06:20 04.10.2019
6646 Clouds 10 1022 46 16093 5.7 190 06:20 04.10.2019
6647 Clear 11 1022 47 16093 5.7 190 05:20 04.10.2019
6648 Clear 12 1023 76 16093 1.12 262.786 04:37 04.10.2019
6649 Clouds 14 1022 44 16093 4.6 160 03:18 04.10.2019
6650 Clear 15 1022 47 16093 2.1 310 02:43 04.10.2019
6651 Clear 17 1021 39 16093 6.7 160 01:53 04.10.2019
6652 Clear 17 1021 39 16093 6.7 160 01:53 04.10.2019
6653 Clear 18 1021 32 16093 4.1 170 01:26 04.10.2019
6654 Clear 19 1021 30 16093 2.58 105.38 00:32 04.10.2019
6655 Clear 19 1023 36 16093 1.5 290 23:39 03.10.2019
6656 Clear 19 1022 32 16093 3.1 0 23:21 03.10.2019
6657 Clear 19 1022 32 16093 3.1 0 22:57 03.10.2019
6658 Clear 18 1024 36 16093 2.1 330 22:39 03.10.2019
6659 Clear 18 1024 36 16093 2.1 330 22:39 03.10.2019
6660 Clear 18 1022 34 16093 3.6 100 22:21 03.10.2019
6661 Clear 17 1022 34 16093 3.6 100 21:57 03.10.2019
6662 Clear 17 1025 41 16093 2.1 10 21:39 03.10.2019
6663 Clouds 16 1024 47 16093 3.6 10 21:19 03.10.2019
6664 Clouds 16 1024 47 16093 3.6 10 20:57 03.10.2019
6665 Clear 15 1026 44 16093 3.1 50 20:38 03.10.2019
6666 Clouds 15 1025 41 16093 2.1 0 20:20 03.10.2019
6667 Clouds 14 1025 41 16093 2.1 0 19:55 03.10.2019
6668 Clouds 14 1025 47 16093 4.6 180 19:37 03.10.2019
6669 Clear 13 1025 47 16093 5.1 190 19:19 03.10.2019
6670 Clear 13 1025 47 16093 5.1 190 18:54 03.10.2019
6671 Clouds 12 1027 57 16093 2.1 330 18:36 03.10.2019
6672 Clouds 11 1026 54 16093 6.2 180 18:18 03.10.2019
6673 Clouds 10 1028 61 16093 1.5 340 17:42 03.10.2019
6674 Clouds 9 1026 66 16093 2.6 210 17:21 03.10.2019
6675 Clouds 9 1028 65 16093 1.5 350 16:54 03.10.2019
6676 Clouds 9 1028 65 16093 1.5 350 16:54 03.10.2019
6677 Clouds 9 1028 65 16093 1.5 350 16:54 03.10.2019
6678 Clouds 9 1026 66 16093 4.6 120 16:36 03.10.2019
6679 Clouds 8 1026 70 16093 2.6 220 16:18 03.10.2019
6680 Clouds 8 1028 65 16093 2.1 360 15:42 03.10.2019
6681 Clouds 8 1026 81 16093 3.6 340 15:23 03.10.2019
6682 Clouds 8 1026 81 16093 3.6 340 14:56 03.10.2019
6683 Clouds 8 1026 81 16093 3.6 340 14:56 03.10.2019
6684 Clouds 8 1027 70 16093 2.1 60 14:36 03.10.2019
6685 Clouds 9 1025 81 16093 2.1 130 14:18 03.10.2019
6686 Clouds 9 1027 81 16093 3.1 70 13:43 03.10.2019
6687 Clouds 9 1025 81 16093 3.1 140 13:22 03.10.2019
6688